<?xml version="1.0" encoding="UTF-8" standalone="no" ?>
<gpx xmlns="http://www.topografix.com/GPX/1/1" xmlns:xsi="http://www.w3.org/2001/XMLSchema-instance" xsi:schemaLocation="http://www.topografix.com/GPX/1/1 http://www.topografix.com/GPX/1/1/gpx.xsd" version="1.1" creator="VisuGPX - https://www.visugpx.com">
  <metadata>
    <name>La tronche-Montaud-Col de Vence-La tronche</name>
    <desc><![CDATA[File with points/tracks from Locus Map/3.36.2]]></desc>
  </metadata>
  <trk>
    <name><![CDATA[2019-04-14 11:27:29]]></name>
    <desc><![CDATA[Montaud]]></desc>
    <trkseg>
      <trkpt lat="45.19209" lon="5.74456">
        <ele>224.53</ele>
        <time>2019-04-14T09:27:30.000Z</time>
      </trkpt>
      <trkpt lat="45.192" lon="5.74452">
        <ele>221.9</ele>
        <time>2019-04-14T09:28:29.000Z</time>
      </trkpt>
      <trkpt lat="45.19193" lon="5.7444">
        <ele>223.82</ele>
        <time>2019-04-14T09:28:35.000Z</time>
      </trkpt>
      <trkpt lat="45.19196" lon="5.74427">
        <ele>221.68</ele>
        <time>2019-04-14T09:28:43.000Z</time>
      </trkpt>
      <trkpt lat="45.19187" lon="5.74418">
        <ele>219.56</ele>
        <time>2019-04-14T09:28:52.000Z</time>
      </trkpt>
      <trkpt lat="45.1918" lon="5.74402">
        <ele>217.95</ele>
        <time>2019-04-14T09:28:57.000Z</time>
      </trkpt>
      <trkpt lat="45.19179" lon="5.74377">
        <ele>219.12</ele>
        <time>2019-04-14T09:29:02.000Z</time>
      </trkpt>
      <trkpt lat="45.19178" lon="5.74354">
        <ele>217.32</ele>
        <time>2019-04-14T09:29:07.000Z</time>
      </trkpt>
      <trkpt lat="45.19176" lon="5.74333">
        <ele>217.55</ele>
        <time>2019-04-14T09:29:12.000Z</time>
      </trkpt>
      <trkpt lat="45.19174" lon="5.7431">
        <ele>217.4</ele>
        <time>2019-04-14T09:29:17.000Z</time>
      </trkpt>
      <trkpt lat="45.19174" lon="5.74287">
        <ele>217.99</ele>
        <time>2019-04-14T09:29:22.000Z</time>
      </trkpt>
      <trkpt lat="45.19174" lon="5.7427">
        <ele>220.93</ele>
        <time>2019-04-14T09:29:27.000Z</time>
      </trkpt>
      <trkpt lat="45.19175" lon="5.7425">
        <ele>219.27</ele>
        <time>2019-04-14T09:29:32.000Z</time>
      </trkpt>
      <trkpt lat="45.19174" lon="5.74229">
        <ele>219.6</ele>
        <time>2019-04-14T09:29:37.000Z</time>
      </trkpt>
      <trkpt lat="45.19173" lon="5.7421">
        <ele>218.45</ele>
        <time>2019-04-14T09:29:42.000Z</time>
      </trkpt>
      <trkpt lat="45.19171" lon="5.74195">
        <ele>219.45</ele>
        <time>2019-04-14T09:29:47.000Z</time>
      </trkpt>
      <trkpt lat="45.1917" lon="5.74175">
        <ele>218.18</ele>
        <time>2019-04-14T09:29:52.000Z</time>
      </trkpt>
      <trkpt lat="45.19169" lon="5.74158">
        <ele>217.13</ele>
        <time>2019-04-14T09:29:57.000Z</time>
      </trkpt>
      <trkpt lat="45.19167" lon="5.74136">
        <ele>215.19</ele>
        <time>2019-04-14T09:30:02.000Z</time>
      </trkpt>
      <trkpt lat="45.19167" lon="5.74117">
        <ele>215.32</ele>
        <time>2019-04-14T09:30:07.000Z</time>
      </trkpt>
      <trkpt lat="45.19169" lon="5.74104">
        <ele>212.46</ele>
        <time>2019-04-14T09:30:12.000Z</time>
      </trkpt>
      <trkpt lat="45.19182" lon="5.74106">
        <ele>215.19</ele>
        <time>2019-04-14T09:30:17.000Z</time>
      </trkpt>
      <trkpt lat="45.19195" lon="5.74116">
        <ele>215</ele>
        <time>2019-04-14T09:30:22.000Z</time>
      </trkpt>
      <trkpt lat="45.19214" lon="5.74125">
        <ele>217.43</ele>
        <time>2019-04-14T09:30:27.000Z</time>
      </trkpt>
      <trkpt lat="45.19235" lon="5.74128">
        <ele>217.8</ele>
        <time>2019-04-14T09:30:32.000Z</time>
      </trkpt>
      <trkpt lat="45.19256" lon="5.74134">
        <ele>218.46</ele>
        <time>2019-04-14T09:30:37.000Z</time>
      </trkpt>
      <trkpt lat="45.19279" lon="5.74139">
        <ele>215.82</ele>
        <time>2019-04-14T09:30:42.000Z</time>
      </trkpt>
      <trkpt lat="45.19302" lon="5.74143">
        <ele>216.51</ele>
        <time>2019-04-14T09:30:47.000Z</time>
      </trkpt>
      <trkpt lat="45.19326" lon="5.74149">
        <ele>216.77</ele>
        <time>2019-04-14T09:30:52.000Z</time>
      </trkpt>
      <trkpt lat="45.19346" lon="5.74155">
        <ele>217.23</ele>
        <time>2019-04-14T09:30:57.000Z</time>
      </trkpt>
      <trkpt lat="45.19364" lon="5.74157">
        <ele>216.8</ele>
        <time>2019-04-14T09:31:02.000Z</time>
      </trkpt>
      <trkpt lat="45.19384" lon="5.74162">
        <ele>216.5</ele>
        <time>2019-04-14T09:31:07.000Z</time>
      </trkpt>
      <trkpt lat="45.19404" lon="5.74168">
        <ele>217.06</ele>
        <time>2019-04-14T09:31:12.000Z</time>
      </trkpt>
      <trkpt lat="45.19425" lon="5.74174">
        <ele>215.73</ele>
        <time>2019-04-14T09:31:17.000Z</time>
      </trkpt>
      <trkpt lat="45.19442" lon="5.7418">
        <ele>215.66</ele>
        <time>2019-04-14T09:31:22.000Z</time>
      </trkpt>
      <trkpt lat="45.19462" lon="5.74185">
        <ele>215.53</ele>
        <time>2019-04-14T09:31:27.000Z</time>
      </trkpt>
      <trkpt lat="45.19479" lon="5.74192">
        <ele>217.71</ele>
        <time>2019-04-14T09:31:32.000Z</time>
      </trkpt>
      <trkpt lat="45.19494" lon="5.74198">
        <ele>217.59</ele>
        <time>2019-04-14T09:31:37.000Z</time>
      </trkpt>
      <trkpt lat="45.19515" lon="5.74207">
        <ele>217.49</ele>
        <time>2019-04-14T09:31:42.000Z</time>
      </trkpt>
      <trkpt lat="45.19541" lon="5.74218">
        <ele>216.99</ele>
        <time>2019-04-14T09:31:47.000Z</time>
      </trkpt>
      <trkpt lat="45.19566" lon="5.74223">
        <ele>217.66</ele>
        <time>2019-04-14T09:31:52.000Z</time>
      </trkpt>
      <trkpt lat="45.19586" lon="5.74227">
        <ele>219.57</ele>
        <time>2019-04-14T09:31:57.000Z</time>
      </trkpt>
      <trkpt lat="45.19608" lon="5.74231">
        <ele>218.16</ele>
        <time>2019-04-14T09:32:02.000Z</time>
      </trkpt>
      <trkpt lat="45.19629" lon="5.74231">
        <ele>216.89</ele>
        <time>2019-04-14T09:32:07.000Z</time>
      </trkpt>
      <trkpt lat="45.19652" lon="5.74234">
        <ele>217.13</ele>
        <time>2019-04-14T09:32:12.000Z</time>
      </trkpt>
      <trkpt lat="45.19669" lon="5.74237">
        <ele>216.19</ele>
        <time>2019-04-14T09:32:17.000Z</time>
      </trkpt>
      <trkpt lat="45.19691" lon="5.74239">
        <ele>217.23</ele>
        <time>2019-04-14T09:32:22.000Z</time>
      </trkpt>
      <trkpt lat="45.19712" lon="5.74238">
        <ele>216.74</ele>
        <time>2019-04-14T09:32:27.000Z</time>
      </trkpt>
      <trkpt lat="45.19731" lon="5.74237">
        <ele>218.87</ele>
        <time>2019-04-14T09:32:32.000Z</time>
      </trkpt>
      <trkpt lat="45.19749" lon="5.74233">
        <ele>219.26</ele>
        <time>2019-04-14T09:32:37.000Z</time>
      </trkpt>
      <trkpt lat="45.19769" lon="5.7423">
        <ele>218.73</ele>
        <time>2019-04-14T09:32:42.000Z</time>
      </trkpt>
      <trkpt lat="45.19787" lon="5.74228">
        <ele>216.06</ele>
        <time>2019-04-14T09:32:47.000Z</time>
      </trkpt>
      <trkpt lat="45.19804" lon="5.74225">
        <ele>214.01</ele>
        <time>2019-04-14T09:32:52.000Z</time>
      </trkpt>
      <trkpt lat="45.19824" lon="5.74219">
        <ele>214.73</ele>
        <time>2019-04-14T09:32:57.000Z</time>
      </trkpt>
      <trkpt lat="45.1984" lon="5.74211">
        <ele>215.99</ele>
        <time>2019-04-14T09:33:02.000Z</time>
      </trkpt>
      <trkpt lat="45.19859" lon="5.74205">
        <ele>213.22</ele>
        <time>2019-04-14T09:33:07.000Z</time>
      </trkpt>
      <trkpt lat="45.19883" lon="5.74195">
        <ele>214.15</ele>
        <time>2019-04-14T09:33:12.000Z</time>
      </trkpt>
      <trkpt lat="45.19907" lon="5.7418">
        <ele>217.13</ele>
        <time>2019-04-14T09:33:17.000Z</time>
      </trkpt>
      <trkpt lat="45.19929" lon="5.74165">
        <ele>218.3</ele>
        <time>2019-04-14T09:33:22.000Z</time>
      </trkpt>
      <trkpt lat="45.19947" lon="5.74153">
        <ele>218.15</ele>
        <time>2019-04-14T09:33:27.000Z</time>
      </trkpt>
      <trkpt lat="45.19961" lon="5.74142">
        <ele>217.61</ele>
        <time>2019-04-14T09:33:32.000Z</time>
      </trkpt>
      <trkpt lat="45.19973" lon="5.7413">
        <ele>217.62</ele>
        <time>2019-04-14T09:33:37.000Z</time>
      </trkpt>
      <trkpt lat="45.19989" lon="5.74118">
        <ele>221.78</ele>
        <time>2019-04-14T09:33:44.000Z</time>
      </trkpt>
      <trkpt lat="45.20011" lon="5.74093">
        <ele>218.39</ele>
        <time>2019-04-14T09:33:49.000Z</time>
      </trkpt>
      <trkpt lat="45.20028" lon="5.7407">
        <ele>218.66</ele>
        <time>2019-04-14T09:33:54.000Z</time>
      </trkpt>
      <trkpt lat="45.20036" lon="5.7405">
        <ele>220.33</ele>
        <time>2019-04-14T09:33:59.000Z</time>
      </trkpt>
      <trkpt lat="45.20049" lon="5.74022">
        <ele>217.66</ele>
        <time>2019-04-14T09:34:04.000Z</time>
      </trkpt>
      <trkpt lat="45.20051" lon="5.74008">
        <ele>216.06</ele>
        <time>2019-04-14T09:34:09.000Z</time>
      </trkpt>
      <trkpt lat="45.20067" lon="5.73993">
        <ele>217.9</ele>
        <time>2019-04-14T09:34:14.000Z</time>
      </trkpt>
      <trkpt lat="45.2009" lon="5.73965">
        <ele>218.5</ele>
        <time>2019-04-14T09:34:19.000Z</time>
      </trkpt>
      <trkpt lat="45.20109" lon="5.7394">
        <ele>215.85</ele>
        <time>2019-04-14T09:34:24.000Z</time>
      </trkpt>
      <trkpt lat="45.20126" lon="5.73916">
        <ele>218.36</ele>
        <time>2019-04-14T09:34:29.000Z</time>
      </trkpt>
      <trkpt lat="45.20142" lon="5.73888">
        <ele>218.24</ele>
        <time>2019-04-14T09:34:34.000Z</time>
      </trkpt>
      <trkpt lat="45.20158" lon="5.73859">
        <ele>220.28</ele>
        <time>2019-04-14T09:34:39.000Z</time>
      </trkpt>
      <trkpt lat="45.2017" lon="5.73829">
        <ele>219.15</ele>
        <time>2019-04-14T09:34:44.000Z</time>
      </trkpt>
      <trkpt lat="45.20173" lon="5.73797">
        <ele>220.4</ele>
        <time>2019-04-14T09:34:49.000Z</time>
      </trkpt>
      <trkpt lat="45.20175" lon="5.73767">
        <ele>220.49</ele>
        <time>2019-04-14T09:34:54.000Z</time>
      </trkpt>
      <trkpt lat="45.20174" lon="5.73743">
        <ele>220.52</ele>
        <time>2019-04-14T09:34:59.000Z</time>
      </trkpt>
      <trkpt lat="45.20172" lon="5.73715">
        <ele>216.4</ele>
        <time>2019-04-14T09:35:04.000Z</time>
      </trkpt>
      <trkpt lat="45.20168" lon="5.73687">
        <ele>215.54</ele>
        <time>2019-04-14T09:35:09.000Z</time>
      </trkpt>
      <trkpt lat="45.2016" lon="5.73658">
        <ele>213.34</ele>
        <time>2019-04-14T09:35:14.000Z</time>
      </trkpt>
      <trkpt lat="45.20147" lon="5.73625">
        <ele>209.87</ele>
        <time>2019-04-14T09:35:19.000Z</time>
      </trkpt>
      <trkpt lat="45.20137" lon="5.73597">
        <ele>209.81</ele>
        <time>2019-04-14T09:35:24.000Z</time>
      </trkpt>
      <trkpt lat="45.20121" lon="5.73568">
        <ele>209.67</ele>
        <time>2019-04-14T09:35:29.000Z</time>
      </trkpt>
      <trkpt lat="45.20105" lon="5.73541">
        <ele>208.11</ele>
        <time>2019-04-14T09:35:34.000Z</time>
      </trkpt>
      <trkpt lat="45.20084" lon="5.73517">
        <ele>210.89</ele>
        <time>2019-04-14T09:35:39.000Z</time>
      </trkpt>
      <trkpt lat="45.20062" lon="5.73503">
        <ele>213.05</ele>
        <time>2019-04-14T09:35:44.000Z</time>
      </trkpt>
      <trkpt lat="45.20039" lon="5.73495">
        <ele>212.75</ele>
        <time>2019-04-14T09:35:49.000Z</time>
      </trkpt>
      <trkpt lat="45.20014" lon="5.73474">
        <ele>212.41</ele>
        <time>2019-04-14T09:35:54.000Z</time>
      </trkpt>
      <trkpt lat="45.19987" lon="5.73445">
        <ele>218</ele>
        <time>2019-04-14T09:35:59.000Z</time>
      </trkpt>
      <trkpt lat="45.1996" lon="5.73433">
        <ele>213.45</ele>
        <time>2019-04-14T09:36:04.000Z</time>
      </trkpt>
      <trkpt lat="45.19932" lon="5.73421">
        <ele>215.71</ele>
        <time>2019-04-14T09:36:09.000Z</time>
      </trkpt>
      <trkpt lat="45.19904" lon="5.73413">
        <ele>212.44</ele>
        <time>2019-04-14T09:36:14.000Z</time>
      </trkpt>
      <trkpt lat="45.19883" lon="5.7341">
        <ele>216.36</ele>
        <time>2019-04-14T09:36:19.000Z</time>
      </trkpt>
      <trkpt lat="45.19854" lon="5.73397">
        <ele>215.26</ele>
        <time>2019-04-14T09:36:24.000Z</time>
      </trkpt>
      <trkpt lat="45.19827" lon="5.73389">
        <ele>212.76</ele>
        <time>2019-04-14T09:36:29.000Z</time>
      </trkpt>
      <trkpt lat="45.19806" lon="5.73383">
        <ele>213.83</ele>
        <time>2019-04-14T09:36:34.000Z</time>
      </trkpt>
      <trkpt lat="45.1978" lon="5.73377">
        <ele>214.18</ele>
        <time>2019-04-14T09:36:39.000Z</time>
      </trkpt>
      <trkpt lat="45.19758" lon="5.73371">
        <ele>214.7</ele>
        <time>2019-04-14T09:36:44.000Z</time>
      </trkpt>
      <trkpt lat="45.19727" lon="5.73372">
        <ele>213.47</ele>
        <time>2019-04-14T09:36:49.000Z</time>
      </trkpt>
      <trkpt lat="45.19722" lon="5.73395">
        <ele>213.59</ele>
        <time>2019-04-14T09:36:54.000Z</time>
      </trkpt>
      <trkpt lat="45.19724" lon="5.7341">
        <ele>212.22</ele>
        <time>2019-04-14T09:36:59.000Z</time>
      </trkpt>
      <trkpt lat="45.19712" lon="5.73413">
        <ele>207.65</ele>
        <time>2019-04-14T09:37:04.000Z</time>
      </trkpt>
      <trkpt lat="45.19716" lon="5.73401">
        <ele>202.85</ele>
        <time>2019-04-14T09:37:09.000Z</time>
      </trkpt>
      <trkpt lat="45.19727" lon="5.73384">
        <ele>204.56</ele>
        <time>2019-04-14T09:37:14.000Z</time>
      </trkpt>
      <trkpt lat="45.19734" lon="5.73364">
        <ele>202.74</ele>
        <time>2019-04-14T09:37:19.000Z</time>
      </trkpt>
      <trkpt lat="45.19738" lon="5.7334">
        <ele>210.23</ele>
        <time>2019-04-14T09:37:24.000Z</time>
      </trkpt>
      <trkpt lat="45.19743" lon="5.73317">
        <ele>210</ele>
        <time>2019-04-14T09:37:29.000Z</time>
      </trkpt>
      <trkpt lat="45.19748" lon="5.73293">
        <ele>210.71</ele>
        <time>2019-04-14T09:37:34.000Z</time>
      </trkpt>
      <trkpt lat="45.19755" lon="5.73272">
        <ele>213.24</ele>
        <time>2019-04-14T09:37:39.000Z</time>
      </trkpt>
      <trkpt lat="45.19759" lon="5.73257">
        <ele>212.4</ele>
        <time>2019-04-14T09:37:44.000Z</time>
      </trkpt>
      <trkpt lat="45.19753" lon="5.73245">
        <ele>209.8</ele>
        <time>2019-04-14T09:37:50.000Z</time>
      </trkpt>
      <trkpt lat="45.19739" lon="5.73229">
        <ele>208.72</ele>
        <time>2019-04-14T09:37:55.000Z</time>
      </trkpt>
      <trkpt lat="45.19718" lon="5.73215">
        <ele>207.71</ele>
        <time>2019-04-14T09:38:00.000Z</time>
      </trkpt>
      <trkpt lat="45.19699" lon="5.73195">
        <ele>207.48</ele>
        <time>2019-04-14T09:38:05.000Z</time>
      </trkpt>
      <trkpt lat="45.19682" lon="5.73179">
        <ele>211.09</ele>
        <time>2019-04-14T09:38:10.000Z</time>
      </trkpt>
      <trkpt lat="45.19662" lon="5.73159">
        <ele>208.16</ele>
        <time>2019-04-14T09:38:15.000Z</time>
      </trkpt>
      <trkpt lat="45.19645" lon="5.73136">
        <ele>202.97</ele>
        <time>2019-04-14T09:38:20.000Z</time>
      </trkpt>
      <trkpt lat="45.19629" lon="5.73118">
        <ele>207.15</ele>
        <time>2019-04-14T09:38:25.000Z</time>
      </trkpt>
      <trkpt lat="45.19614" lon="5.73098">
        <ele>206.77</ele>
        <time>2019-04-14T09:38:30.000Z</time>
      </trkpt>
      <trkpt lat="45.19602" lon="5.73076">
        <ele>206.81</ele>
        <time>2019-04-14T09:38:35.000Z</time>
      </trkpt>
      <trkpt lat="45.19591" lon="5.73052">
        <ele>204.52</ele>
        <time>2019-04-14T09:38:40.000Z</time>
      </trkpt>
      <trkpt lat="45.19573" lon="5.73028">
        <ele>204.71</ele>
        <time>2019-04-14T09:38:45.000Z</time>
      </trkpt>
      <trkpt lat="45.1956" lon="5.73008">
        <ele>206.32</ele>
        <time>2019-04-14T09:38:50.000Z</time>
      </trkpt>
      <trkpt lat="45.19555" lon="5.72998">
        <ele>205.28</ele>
        <time>2019-04-14T09:38:58.000Z</time>
      </trkpt>
      <trkpt lat="45.19546" lon="5.72989">
        <ele>207.12</ele>
        <time>2019-04-14T09:39:04.000Z</time>
      </trkpt>
      <trkpt lat="45.19535" lon="5.72972">
        <ele>209.8</ele>
        <time>2019-04-14T09:39:09.000Z</time>
      </trkpt>
      <trkpt lat="45.19523" lon="5.72947">
        <ele>204.09</ele>
        <time>2019-04-14T09:39:14.000Z</time>
      </trkpt>
      <trkpt lat="45.19509" lon="5.72919">
        <ele>202.06</ele>
        <time>2019-04-14T09:39:19.000Z</time>
      </trkpt>
      <trkpt lat="45.19493" lon="5.72896">
        <ele>202.91</ele>
        <time>2019-04-14T09:39:24.000Z</time>
      </trkpt>
      <trkpt lat="45.19478" lon="5.72877">
        <ele>205.6</ele>
        <time>2019-04-14T09:39:29.000Z</time>
      </trkpt>
      <trkpt lat="45.19466" lon="5.72855">
        <ele>207.34</ele>
        <time>2019-04-14T09:39:34.000Z</time>
      </trkpt>
      <trkpt lat="45.19456" lon="5.7283">
        <ele>205.46</ele>
        <time>2019-04-14T09:39:39.000Z</time>
      </trkpt>
      <trkpt lat="45.19448" lon="5.72806">
        <ele>204.06</ele>
        <time>2019-04-14T09:39:44.000Z</time>
      </trkpt>
      <trkpt lat="45.1944" lon="5.72783">
        <ele>201.67</ele>
        <time>2019-04-14T09:39:49.000Z</time>
      </trkpt>
      <trkpt lat="45.19431" lon="5.72756">
        <ele>202.97</ele>
        <time>2019-04-14T09:39:54.000Z</time>
      </trkpt>
      <trkpt lat="45.19428" lon="5.72725">
        <ele>202.84</ele>
        <time>2019-04-14T09:39:59.000Z</time>
      </trkpt>
      <trkpt lat="45.1942" lon="5.72688">
        <ele>201.8</ele>
        <time>2019-04-14T09:40:04.000Z</time>
      </trkpt>
      <trkpt lat="45.19412" lon="5.72649">
        <ele>201.32</ele>
        <time>2019-04-14T09:40:09.000Z</time>
      </trkpt>
      <trkpt lat="45.19403" lon="5.72613">
        <ele>199.98</ele>
        <time>2019-04-14T09:40:14.000Z</time>
      </trkpt>
      <trkpt lat="45.19399" lon="5.72583">
        <ele>202.91</ele>
        <time>2019-04-14T09:40:19.000Z</time>
      </trkpt>
      <trkpt lat="45.19395" lon="5.72557">
        <ele>201.08</ele>
        <time>2019-04-14T09:40:24.000Z</time>
      </trkpt>
      <trkpt lat="45.1939" lon="5.72533">
        <ele>202.38</ele>
        <time>2019-04-14T09:40:29.000Z</time>
      </trkpt>
      <trkpt lat="45.19385" lon="5.72512">
        <ele>206.07</ele>
        <time>2019-04-14T09:40:34.000Z</time>
      </trkpt>
      <trkpt lat="45.19381" lon="5.72489">
        <ele>207.14</ele>
        <time>2019-04-14T09:40:39.000Z</time>
      </trkpt>
      <trkpt lat="45.19376" lon="5.72466">
        <ele>203.27</ele>
        <time>2019-04-14T09:40:44.000Z</time>
      </trkpt>
      <trkpt lat="45.19371" lon="5.72442">
        <ele>200.7</ele>
        <time>2019-04-14T09:40:49.000Z</time>
      </trkpt>
      <trkpt lat="45.19368" lon="5.72417">
        <ele>202.62</ele>
        <time>2019-04-14T09:40:54.000Z</time>
      </trkpt>
      <trkpt lat="45.19365" lon="5.72398">
        <ele>203.32</ele>
        <time>2019-04-14T09:40:59.000Z</time>
      </trkpt>
      <trkpt lat="45.1936" lon="5.7238">
        <ele>204.82</ele>
        <time>2019-04-14T09:41:04.000Z</time>
      </trkpt>
      <trkpt lat="45.19358" lon="5.72358">
        <ele>208.95</ele>
        <time>2019-04-14T09:41:09.000Z</time>
      </trkpt>
      <trkpt lat="45.1936" lon="5.72338">
        <ele>209.63</ele>
        <time>2019-04-14T09:41:14.000Z</time>
      </trkpt>
      <trkpt lat="45.19361" lon="5.72314">
        <ele>212.3</ele>
        <time>2019-04-14T09:41:19.000Z</time>
      </trkpt>
      <trkpt lat="45.19356" lon="5.7229">
        <ele>217.95</ele>
        <time>2019-04-14T09:41:24.000Z</time>
      </trkpt>
      <trkpt lat="45.19355" lon="5.72265">
        <ele>218.77</ele>
        <time>2019-04-14T09:41:29.000Z</time>
      </trkpt>
      <trkpt lat="45.19354" lon="5.72241">
        <ele>219.37</ele>
        <time>2019-04-14T09:41:34.000Z</time>
      </trkpt>
      <trkpt lat="45.19349" lon="5.72213">
        <ele>212.11</ele>
        <time>2019-04-14T09:41:39.000Z</time>
      </trkpt>
      <trkpt lat="45.19346" lon="5.7218">
        <ele>210.76</ele>
        <time>2019-04-14T09:41:44.000Z</time>
      </trkpt>
      <trkpt lat="45.19345" lon="5.72154">
        <ele>204.92</ele>
        <time>2019-04-14T09:41:49.000Z</time>
      </trkpt>
      <trkpt lat="45.19342" lon="5.72132">
        <ele>203.5</ele>
        <time>2019-04-14T09:41:54.000Z</time>
      </trkpt>
      <trkpt lat="45.19338" lon="5.72117">
        <ele>205.06</ele>
        <time>2019-04-14T09:41:59.000Z</time>
      </trkpt>
      <trkpt lat="45.19332" lon="5.7207">
        <ele>204.16</ele>
        <time>2019-04-14T09:42:04.000Z</time>
      </trkpt>
      <trkpt lat="45.19333" lon="5.72018">
        <ele>201.59</ele>
        <time>2019-04-14T09:42:09.000Z</time>
      </trkpt>
      <trkpt lat="45.19332" lon="5.71971">
        <ele>202.64</ele>
        <time>2019-04-14T09:42:14.000Z</time>
      </trkpt>
      <trkpt lat="45.19332" lon="5.71922">
        <ele>203.49</ele>
        <time>2019-04-14T09:42:19.000Z</time>
      </trkpt>
      <trkpt lat="45.19337" lon="5.7189">
        <ele>202.17</ele>
        <time>2019-04-14T09:42:24.000Z</time>
      </trkpt>
      <trkpt lat="45.19344" lon="5.71858">
        <ele>202.91</ele>
        <time>2019-04-14T09:42:29.000Z</time>
      </trkpt>
      <trkpt lat="45.1935" lon="5.71832">
        <ele>205.23</ele>
        <time>2019-04-14T09:42:34.000Z</time>
      </trkpt>
      <trkpt lat="45.19362" lon="5.71802">
        <ele>204.46</ele>
        <time>2019-04-14T09:42:39.000Z</time>
      </trkpt>
      <trkpt lat="45.19375" lon="5.71775">
        <ele>206.65</ele>
        <time>2019-04-14T09:42:44.000Z</time>
      </trkpt>
      <trkpt lat="45.19387" lon="5.71747">
        <ele>208.32</ele>
        <time>2019-04-14T09:42:49.000Z</time>
      </trkpt>
      <trkpt lat="45.19399" lon="5.71725">
        <ele>212.05</ele>
        <time>2019-04-14T09:42:54.000Z</time>
      </trkpt>
      <trkpt lat="45.19412" lon="5.71703">
        <ele>207.44</ele>
        <time>2019-04-14T09:42:59.000Z</time>
      </trkpt>
      <trkpt lat="45.19427" lon="5.7168">
        <ele>202.23</ele>
        <time>2019-04-14T09:43:04.000Z</time>
      </trkpt>
      <trkpt lat="45.19452" lon="5.71652">
        <ele>199.43</ele>
        <time>2019-04-14T09:43:09.000Z</time>
      </trkpt>
      <trkpt lat="45.19471" lon="5.71636">
        <ele>203.14</ele>
        <time>2019-04-14T09:43:14.000Z</time>
      </trkpt>
      <trkpt lat="45.19493" lon="5.71624">
        <ele>202.05</ele>
        <time>2019-04-14T09:43:19.000Z</time>
      </trkpt>
      <trkpt lat="45.19515" lon="5.71606">
        <ele>201.72</ele>
        <time>2019-04-14T09:43:24.000Z</time>
      </trkpt>
      <trkpt lat="45.19536" lon="5.71597">
        <ele>203.11</ele>
        <time>2019-04-14T09:43:29.000Z</time>
      </trkpt>
      <trkpt lat="45.19561" lon="5.71589">
        <ele>206.78</ele>
        <time>2019-04-14T09:43:34.000Z</time>
      </trkpt>
      <trkpt lat="45.19587" lon="5.71581">
        <ele>210.62</ele>
        <time>2019-04-14T09:43:39.000Z</time>
      </trkpt>
      <trkpt lat="45.19614" lon="5.71576">
        <ele>216.85</ele>
        <time>2019-04-14T09:43:44.000Z</time>
      </trkpt>
      <trkpt lat="45.19634" lon="5.7157">
        <ele>214.04</ele>
        <time>2019-04-14T09:43:49.000Z</time>
      </trkpt>
      <trkpt lat="45.19663" lon="5.71564">
        <ele>212.36</ele>
        <time>2019-04-14T09:43:54.000Z</time>
      </trkpt>
      <trkpt lat="45.19692" lon="5.71565">
        <ele>212.94</ele>
        <time>2019-04-14T09:43:59.000Z</time>
      </trkpt>
      <trkpt lat="45.19715" lon="5.71567">
        <ele>210.26</ele>
        <time>2019-04-14T09:44:04.000Z</time>
      </trkpt>
      <trkpt lat="45.19738" lon="5.71571">
        <ele>209.74</ele>
        <time>2019-04-14T09:44:09.000Z</time>
      </trkpt>
      <trkpt lat="45.19762" lon="5.71574">
        <ele>212.08</ele>
        <time>2019-04-14T09:44:14.000Z</time>
      </trkpt>
      <trkpt lat="45.19785" lon="5.71581">
        <ele>209.28</ele>
        <time>2019-04-14T09:44:19.000Z</time>
      </trkpt>
      <trkpt lat="45.19807" lon="5.71584">
        <ele>210.32</ele>
        <time>2019-04-14T09:44:24.000Z</time>
      </trkpt>
      <trkpt lat="45.1983" lon="5.71591">
        <ele>212.4</ele>
        <time>2019-04-14T09:44:29.000Z</time>
      </trkpt>
      <trkpt lat="45.19853" lon="5.71591">
        <ele>213.38</ele>
        <time>2019-04-14T09:44:34.000Z</time>
      </trkpt>
      <trkpt lat="45.19878" lon="5.71596">
        <ele>213.69</ele>
        <time>2019-04-14T09:44:39.000Z</time>
      </trkpt>
      <trkpt lat="45.19905" lon="5.71601">
        <ele>217.62</ele>
        <time>2019-04-14T09:44:44.000Z</time>
      </trkpt>
      <trkpt lat="45.19922" lon="5.71605">
        <ele>213.69</ele>
        <time>2019-04-14T09:44:49.000Z</time>
      </trkpt>
      <trkpt lat="45.19945" lon="5.7161">
        <ele>213.84</ele>
        <time>2019-04-14T09:44:54.000Z</time>
      </trkpt>
      <trkpt lat="45.19968" lon="5.71616">
        <ele>212.53</ele>
        <time>2019-04-14T09:44:59.000Z</time>
      </trkpt>
      <trkpt lat="45.19993" lon="5.71618">
        <ele>211.1</ele>
        <time>2019-04-14T09:45:04.000Z</time>
      </trkpt>
      <trkpt lat="45.20019" lon="5.71618">
        <ele>210.35</ele>
        <time>2019-04-14T09:45:09.000Z</time>
      </trkpt>
      <trkpt lat="45.20045" lon="5.71612">
        <ele>208.42</ele>
        <time>2019-04-14T09:45:14.000Z</time>
      </trkpt>
      <trkpt lat="45.20071" lon="5.71599">
        <ele>206.48</ele>
        <time>2019-04-14T09:45:19.000Z</time>
      </trkpt>
      <trkpt lat="45.20098" lon="5.71584">
        <ele>205.7</ele>
        <time>2019-04-14T09:45:24.000Z</time>
      </trkpt>
      <trkpt lat="45.20122" lon="5.71566">
        <ele>205.82</ele>
        <time>2019-04-14T09:45:29.000Z</time>
      </trkpt>
      <trkpt lat="45.20143" lon="5.71545">
        <ele>205.5</ele>
        <time>2019-04-14T09:45:34.000Z</time>
      </trkpt>
      <trkpt lat="45.20165" lon="5.71523">
        <ele>206.41</ele>
        <time>2019-04-14T09:45:39.000Z</time>
      </trkpt>
      <trkpt lat="45.20187" lon="5.715">
        <ele>206.36</ele>
        <time>2019-04-14T09:45:44.000Z</time>
      </trkpt>
      <trkpt lat="45.20206" lon="5.71477">
        <ele>206.38</ele>
        <time>2019-04-14T09:45:49.000Z</time>
      </trkpt>
      <trkpt lat="45.20225" lon="5.71455">
        <ele>208.72</ele>
        <time>2019-04-14T09:45:54.000Z</time>
      </trkpt>
      <trkpt lat="45.20244" lon="5.71436">
        <ele>209.57</ele>
        <time>2019-04-14T09:45:59.000Z</time>
      </trkpt>
      <trkpt lat="45.20261" lon="5.71417">
        <ele>208.44</ele>
        <time>2019-04-14T09:46:04.000Z</time>
      </trkpt>
      <trkpt lat="45.20278" lon="5.71393">
        <ele>206.8</ele>
        <time>2019-04-14T09:46:09.000Z</time>
      </trkpt>
      <trkpt lat="45.20295" lon="5.71373">
        <ele>207.61</ele>
        <time>2019-04-14T09:46:14.000Z</time>
      </trkpt>
      <trkpt lat="45.20313" lon="5.71352">
        <ele>208.87</ele>
        <time>2019-04-14T09:46:19.000Z</time>
      </trkpt>
      <trkpt lat="45.20332" lon="5.71332">
        <ele>208.46</ele>
        <time>2019-04-14T09:46:24.000Z</time>
      </trkpt>
      <trkpt lat="45.20349" lon="5.71306">
        <ele>208.32</ele>
        <time>2019-04-14T09:46:29.000Z</time>
      </trkpt>
      <trkpt lat="45.20367" lon="5.7128">
        <ele>209.65</ele>
        <time>2019-04-14T09:46:34.000Z</time>
      </trkpt>
      <trkpt lat="45.20386" lon="5.71258">
        <ele>208.59</ele>
        <time>2019-04-14T09:46:39.000Z</time>
      </trkpt>
      <trkpt lat="45.20404" lon="5.71234">
        <ele>208.8</ele>
        <time>2019-04-14T09:46:44.000Z</time>
      </trkpt>
      <trkpt lat="45.20419" lon="5.71207">
        <ele>210.5</ele>
        <time>2019-04-14T09:46:49.000Z</time>
      </trkpt>
      <trkpt lat="45.2044" lon="5.71185">
        <ele>209.11</ele>
        <time>2019-04-14T09:46:54.000Z</time>
      </trkpt>
      <trkpt lat="45.20456" lon="5.71161">
        <ele>209.3</ele>
        <time>2019-04-14T09:46:59.000Z</time>
      </trkpt>
      <trkpt lat="45.20473" lon="5.71133">
        <ele>209.71</ele>
        <time>2019-04-14T09:47:04.000Z</time>
      </trkpt>
      <trkpt lat="45.20485" lon="5.71107">
        <ele>211.45</ele>
        <time>2019-04-14T09:47:09.000Z</time>
      </trkpt>
      <trkpt lat="45.20499" lon="5.71077">
        <ele>212.55</ele>
        <time>2019-04-14T09:47:14.000Z</time>
      </trkpt>
      <trkpt lat="45.2051" lon="5.71051">
        <ele>212.33</ele>
        <time>2019-04-14T09:47:19.000Z</time>
      </trkpt>
      <trkpt lat="45.20524" lon="5.71017">
        <ele>210.28</ele>
        <time>2019-04-14T09:47:24.000Z</time>
      </trkpt>
      <trkpt lat="45.20533" lon="5.70982">
        <ele>211.04</ele>
        <time>2019-04-14T09:47:29.000Z</time>
      </trkpt>
      <trkpt lat="45.20544" lon="5.70954">
        <ele>211.23</ele>
        <time>2019-04-14T09:47:34.000Z</time>
      </trkpt>
      <trkpt lat="45.20552" lon="5.70924">
        <ele>209.99</ele>
        <time>2019-04-14T09:47:39.000Z</time>
      </trkpt>
      <trkpt lat="45.20559" lon="5.7089">
        <ele>209.05</ele>
        <time>2019-04-14T09:47:44.000Z</time>
      </trkpt>
      <trkpt lat="45.20566" lon="5.70859">
        <ele>210.62</ele>
        <time>2019-04-14T09:47:49.000Z</time>
      </trkpt>
      <trkpt lat="45.20573" lon="5.70835">
        <ele>207.71</ele>
        <time>2019-04-14T09:47:54.000Z</time>
      </trkpt>
      <trkpt lat="45.2058" lon="5.70813">
        <ele>207.05</ele>
        <time>2019-04-14T09:47:59.000Z</time>
      </trkpt>
      <trkpt lat="45.20593" lon="5.70802">
        <ele>206.41</ele>
        <time>2019-04-14T09:48:04.000Z</time>
      </trkpt>
      <trkpt lat="45.20604" lon="5.70767">
        <ele>208.06</ele>
        <time>2019-04-14T09:48:09.000Z</time>
      </trkpt>
      <trkpt lat="45.20611" lon="5.70735">
        <ele>207.68</ele>
        <time>2019-04-14T09:48:14.000Z</time>
      </trkpt>
      <trkpt lat="45.20619" lon="5.70705">
        <ele>207.9</ele>
        <time>2019-04-14T09:48:19.000Z</time>
      </trkpt>
      <trkpt lat="45.20629" lon="5.70675">
        <ele>212.13</ele>
        <time>2019-04-14T09:48:24.000Z</time>
      </trkpt>
      <trkpt lat="45.20639" lon="5.70647">
        <ele>210.93</ele>
        <time>2019-04-14T09:48:29.000Z</time>
      </trkpt>
      <trkpt lat="45.20652" lon="5.70619">
        <ele>210.24</ele>
        <time>2019-04-14T09:48:34.000Z</time>
      </trkpt>
      <trkpt lat="45.20662" lon="5.70592">
        <ele>209.1</ele>
        <time>2019-04-14T09:48:39.000Z</time>
      </trkpt>
      <trkpt lat="45.20673" lon="5.70565">
        <ele>210.56</ele>
        <time>2019-04-14T09:48:44.000Z</time>
      </trkpt>
      <trkpt lat="45.20684" lon="5.70534">
        <ele>210.99</ele>
        <time>2019-04-14T09:48:49.000Z</time>
      </trkpt>
      <trkpt lat="45.207" lon="5.70507">
        <ele>212.27</ele>
        <time>2019-04-14T09:48:54.000Z</time>
      </trkpt>
      <trkpt lat="45.20711" lon="5.70481">
        <ele>209.95</ele>
        <time>2019-04-14T09:48:59.000Z</time>
      </trkpt>
      <trkpt lat="45.20722" lon="5.70455">
        <ele>208.88</ele>
        <time>2019-04-14T09:49:04.000Z</time>
      </trkpt>
      <trkpt lat="45.20732" lon="5.70432">
        <ele>211.39</ele>
        <time>2019-04-14T09:49:09.000Z</time>
      </trkpt>
      <trkpt lat="45.20743" lon="5.704">
        <ele>212.42</ele>
        <time>2019-04-14T09:49:14.000Z</time>
      </trkpt>
      <trkpt lat="45.20754" lon="5.70375">
        <ele>208.09</ele>
        <time>2019-04-14T09:49:19.000Z</time>
      </trkpt>
      <trkpt lat="45.20754" lon="5.70349">
        <ele>208.09</ele>
        <time>2019-04-14T09:49:24.000Z</time>
      </trkpt>
      <trkpt lat="45.20764" lon="5.7032">
        <ele>209.23</ele>
        <time>2019-04-14T09:49:29.000Z</time>
      </trkpt>
      <trkpt lat="45.20777" lon="5.70281">
        <ele>207.26</ele>
        <time>2019-04-14T09:49:34.000Z</time>
      </trkpt>
      <trkpt lat="45.20784" lon="5.70241">
        <ele>209.18</ele>
        <time>2019-04-14T09:49:39.000Z</time>
      </trkpt>
      <trkpt lat="45.20796" lon="5.70204">
        <ele>211.03</ele>
        <time>2019-04-14T09:49:44.000Z</time>
      </trkpt>
      <trkpt lat="45.20817" lon="5.70178">
        <ele>207.49</ele>
        <time>2019-04-14T09:49:49.000Z</time>
      </trkpt>
      <trkpt lat="45.20833" lon="5.70153">
        <ele>206.4</ele>
        <time>2019-04-14T09:49:54.000Z</time>
      </trkpt>
      <trkpt lat="45.20847" lon="5.70125">
        <ele>204.51</ele>
        <time>2019-04-14T09:49:59.000Z</time>
      </trkpt>
      <trkpt lat="45.20857" lon="5.70098">
        <ele>204.28</ele>
        <time>2019-04-14T09:50:04.000Z</time>
      </trkpt>
      <trkpt lat="45.20872" lon="5.70067">
        <ele>209.41</ele>
        <time>2019-04-14T09:50:09.000Z</time>
      </trkpt>
      <trkpt lat="45.20886" lon="5.70032">
        <ele>209.04</ele>
        <time>2019-04-14T09:50:14.000Z</time>
      </trkpt>
      <trkpt lat="45.20901" lon="5.69996">
        <ele>207.89</ele>
        <time>2019-04-14T09:50:19.000Z</time>
      </trkpt>
      <trkpt lat="45.20913" lon="5.69962">
        <ele>210.34</ele>
        <time>2019-04-14T09:50:24.000Z</time>
      </trkpt>
      <trkpt lat="45.20926" lon="5.69929">
        <ele>209.17</ele>
        <time>2019-04-14T09:50:29.000Z</time>
      </trkpt>
      <trkpt lat="45.2094" lon="5.69893">
        <ele>209.89</ele>
        <time>2019-04-14T09:50:34.000Z</time>
      </trkpt>
      <trkpt lat="45.20953" lon="5.69862">
        <ele>211.63</ele>
        <time>2019-04-14T09:50:39.000Z</time>
      </trkpt>
      <trkpt lat="45.20966" lon="5.69827">
        <ele>213.06</ele>
        <time>2019-04-14T09:50:44.000Z</time>
      </trkpt>
      <trkpt lat="45.20974" lon="5.6979">
        <ele>216.74</ele>
        <time>2019-04-14T09:50:49.000Z</time>
      </trkpt>
      <trkpt lat="45.20986" lon="5.69756">
        <ele>213.27</ele>
        <time>2019-04-14T09:50:54.000Z</time>
      </trkpt>
      <trkpt lat="45.20997" lon="5.69715">
        <ele>214.17</ele>
        <time>2019-04-14T09:50:59.000Z</time>
      </trkpt>
      <trkpt lat="45.2101" lon="5.69676">
        <ele>214.08</ele>
        <time>2019-04-14T09:51:04.000Z</time>
      </trkpt>
      <trkpt lat="45.21021" lon="5.69635">
        <ele>213.3</ele>
        <time>2019-04-14T09:51:09.000Z</time>
      </trkpt>
      <trkpt lat="45.2103" lon="5.69602">
        <ele>212.44</ele>
        <time>2019-04-14T09:51:14.000Z</time>
      </trkpt>
      <trkpt lat="45.2104" lon="5.69567">
        <ele>212.49</ele>
        <time>2019-04-14T09:51:19.000Z</time>
      </trkpt>
      <trkpt lat="45.21052" lon="5.69532">
        <ele>210.29</ele>
        <time>2019-04-14T09:51:24.000Z</time>
      </trkpt>
      <trkpt lat="45.21061" lon="5.69495">
        <ele>208.15</ele>
        <time>2019-04-14T09:51:29.000Z</time>
      </trkpt>
      <trkpt lat="45.21066" lon="5.69457">
        <ele>207.78</ele>
        <time>2019-04-14T09:51:34.000Z</time>
      </trkpt>
      <trkpt lat="45.21072" lon="5.69418">
        <ele>208.27</ele>
        <time>2019-04-14T09:51:39.000Z</time>
      </trkpt>
      <trkpt lat="45.21077" lon="5.69378">
        <ele>210.25</ele>
        <time>2019-04-14T09:51:44.000Z</time>
      </trkpt>
      <trkpt lat="45.21082" lon="5.6934">
        <ele>206.04</ele>
        <time>2019-04-14T09:51:49.000Z</time>
      </trkpt>
      <trkpt lat="45.2109" lon="5.69301">
        <ele>204.39</ele>
        <time>2019-04-14T09:51:54.000Z</time>
      </trkpt>
      <trkpt lat="45.21097" lon="5.69266">
        <ele>201.89</ele>
        <time>2019-04-14T09:51:59.000Z</time>
      </trkpt>
      <trkpt lat="45.21103" lon="5.69223">
        <ele>200.57</ele>
        <time>2019-04-14T09:52:04.000Z</time>
      </trkpt>
      <trkpt lat="45.21111" lon="5.69175">
        <ele>202.93</ele>
        <time>2019-04-14T09:52:09.000Z</time>
      </trkpt>
      <trkpt lat="45.21114" lon="5.69142">
        <ele>207.36</ele>
        <time>2019-04-14T09:52:14.000Z</time>
      </trkpt>
      <trkpt lat="45.21119" lon="5.69102">
        <ele>205.88</ele>
        <time>2019-04-14T09:52:19.000Z</time>
      </trkpt>
      <trkpt lat="45.21121" lon="5.69062">
        <ele>204.22</ele>
        <time>2019-04-14T09:52:24.000Z</time>
      </trkpt>
      <trkpt lat="45.21127" lon="5.69022">
        <ele>201.03</ele>
        <time>2019-04-14T09:52:29.000Z</time>
      </trkpt>
      <trkpt lat="45.2113" lon="5.68987">
        <ele>202.73</ele>
        <time>2019-04-14T09:52:34.000Z</time>
      </trkpt>
      <trkpt lat="45.21132" lon="5.68952">
        <ele>203.01</ele>
        <time>2019-04-14T09:52:39.000Z</time>
      </trkpt>
      <trkpt lat="45.21137" lon="5.68915">
        <ele>199.09</ele>
        <time>2019-04-14T09:52:44.000Z</time>
      </trkpt>
      <trkpt lat="45.21142" lon="5.68872">
        <ele>203.44</ele>
        <time>2019-04-14T09:52:49.000Z</time>
      </trkpt>
      <trkpt lat="45.21149" lon="5.68835">
        <ele>203.64</ele>
        <time>2019-04-14T09:52:54.000Z</time>
      </trkpt>
      <trkpt lat="45.21155" lon="5.68801">
        <ele>210.31</ele>
        <time>2019-04-14T09:52:59.000Z</time>
      </trkpt>
      <trkpt lat="45.21164" lon="5.68766">
        <ele>210.96</ele>
        <time>2019-04-14T09:53:04.000Z</time>
      </trkpt>
      <trkpt lat="45.21175" lon="5.68732">
        <ele>210.93</ele>
        <time>2019-04-14T09:53:09.000Z</time>
      </trkpt>
      <trkpt lat="45.21182" lon="5.68697">
        <ele>210.35</ele>
        <time>2019-04-14T09:53:14.000Z</time>
      </trkpt>
      <trkpt lat="45.21192" lon="5.68654">
        <ele>202.94</ele>
        <time>2019-04-14T09:53:19.000Z</time>
      </trkpt>
      <trkpt lat="45.21199" lon="5.68608">
        <ele>205.72</ele>
        <time>2019-04-14T09:53:24.000Z</time>
      </trkpt>
      <trkpt lat="45.21207" lon="5.68565">
        <ele>205.68</ele>
        <time>2019-04-14T09:53:29.000Z</time>
      </trkpt>
      <trkpt lat="45.21217" lon="5.68521">
        <ele>205.48</ele>
        <time>2019-04-14T09:53:34.000Z</time>
      </trkpt>
      <trkpt lat="45.21225" lon="5.6848">
        <ele>207.41</ele>
        <time>2019-04-14T09:53:39.000Z</time>
      </trkpt>
      <trkpt lat="45.21237" lon="5.68439">
        <ele>209.25</ele>
        <time>2019-04-14T09:53:44.000Z</time>
      </trkpt>
      <trkpt lat="45.21246" lon="5.68409">
        <ele>213.23</ele>
        <time>2019-04-14T09:53:49.000Z</time>
      </trkpt>
      <trkpt lat="45.21259" lon="5.68377">
        <ele>214.15</ele>
        <time>2019-04-14T09:53:54.000Z</time>
      </trkpt>
      <trkpt lat="45.21273" lon="5.68343">
        <ele>215.48</ele>
        <time>2019-04-14T09:53:59.000Z</time>
      </trkpt>
      <trkpt lat="45.21288" lon="5.68315">
        <ele>213.74</ele>
        <time>2019-04-14T09:54:04.000Z</time>
      </trkpt>
      <trkpt lat="45.21301" lon="5.68291">
        <ele>216.64</ele>
        <time>2019-04-14T09:54:09.000Z</time>
      </trkpt>
      <trkpt lat="45.21314" lon="5.68266">
        <ele>216.06</ele>
        <time>2019-04-14T09:54:14.000Z</time>
      </trkpt>
      <trkpt lat="45.21327" lon="5.68243">
        <ele>215.65</ele>
        <time>2019-04-14T09:54:19.000Z</time>
      </trkpt>
      <trkpt lat="45.2134" lon="5.68219">
        <ele>211.84</ele>
        <time>2019-04-14T09:54:24.000Z</time>
      </trkpt>
      <trkpt lat="45.21354" lon="5.6819">
        <ele>210.68</ele>
        <time>2019-04-14T09:54:29.000Z</time>
      </trkpt>
      <trkpt lat="45.21367" lon="5.68163">
        <ele>208.12</ele>
        <time>2019-04-14T09:54:34.000Z</time>
      </trkpt>
      <trkpt lat="45.21383" lon="5.68134">
        <ele>207.83</ele>
        <time>2019-04-14T09:54:39.000Z</time>
      </trkpt>
      <trkpt lat="45.21399" lon="5.68099">
        <ele>207.27</ele>
        <time>2019-04-14T09:54:44.000Z</time>
      </trkpt>
      <trkpt lat="45.21418" lon="5.68066">
        <ele>209.56</ele>
        <time>2019-04-14T09:54:49.000Z</time>
      </trkpt>
      <trkpt lat="45.21436" lon="5.68031">
        <ele>210.25</ele>
        <time>2019-04-14T09:54:54.000Z</time>
      </trkpt>
      <trkpt lat="45.21452" lon="5.67999">
        <ele>208.38</ele>
        <time>2019-04-14T09:54:59.000Z</time>
      </trkpt>
      <trkpt lat="45.2147" lon="5.67968">
        <ele>205.79</ele>
        <time>2019-04-14T09:55:04.000Z</time>
      </trkpt>
      <trkpt lat="45.21485" lon="5.67936">
        <ele>208.51</ele>
        <time>2019-04-14T09:55:09.000Z</time>
      </trkpt>
      <trkpt lat="45.21503" lon="5.67906">
        <ele>209.01</ele>
        <time>2019-04-14T09:55:14.000Z</time>
      </trkpt>
      <trkpt lat="45.21524" lon="5.67871">
        <ele>211.56</ele>
        <time>2019-04-14T09:55:19.000Z</time>
      </trkpt>
      <trkpt lat="45.2154" lon="5.67837">
        <ele>209.5</ele>
        <time>2019-04-14T09:55:24.000Z</time>
      </trkpt>
      <trkpt lat="45.21559" lon="5.67804">
        <ele>211.23</ele>
        <time>2019-04-14T09:55:29.000Z</time>
      </trkpt>
      <trkpt lat="45.21577" lon="5.67772">
        <ele>211.93</ele>
        <time>2019-04-14T09:55:34.000Z</time>
      </trkpt>
      <trkpt lat="45.21591" lon="5.67741">
        <ele>212.43</ele>
        <time>2019-04-14T09:55:39.000Z</time>
      </trkpt>
      <trkpt lat="45.21606" lon="5.6771">
        <ele>211.85</ele>
        <time>2019-04-14T09:55:44.000Z</time>
      </trkpt>
      <trkpt lat="45.21624" lon="5.6767">
        <ele>212.17</ele>
        <time>2019-04-14T09:55:49.000Z</time>
      </trkpt>
      <trkpt lat="45.21638" lon="5.67633">
        <ele>214.9</ele>
        <time>2019-04-14T09:55:54.000Z</time>
      </trkpt>
      <trkpt lat="45.21658" lon="5.67603">
        <ele>212.29</ele>
        <time>2019-04-14T09:55:59.000Z</time>
      </trkpt>
      <trkpt lat="45.21676" lon="5.67571">
        <ele>213.37</ele>
        <time>2019-04-14T09:56:04.000Z</time>
      </trkpt>
      <trkpt lat="45.21695" lon="5.67544">
        <ele>210.72</ele>
        <time>2019-04-14T09:56:09.000Z</time>
      </trkpt>
      <trkpt lat="45.21712" lon="5.67515">
        <ele>209.58</ele>
        <time>2019-04-14T09:56:14.000Z</time>
      </trkpt>
      <trkpt lat="45.21729" lon="5.67485">
        <ele>208.82</ele>
        <time>2019-04-14T09:56:19.000Z</time>
      </trkpt>
      <trkpt lat="45.21747" lon="5.67454">
        <ele>207.87</ele>
        <time>2019-04-14T09:56:24.000Z</time>
      </trkpt>
      <trkpt lat="45.21769" lon="5.67425">
        <ele>209.42</ele>
        <time>2019-04-14T09:56:29.000Z</time>
      </trkpt>
      <trkpt lat="45.21791" lon="5.67402">
        <ele>208.61</ele>
        <time>2019-04-14T09:56:34.000Z</time>
      </trkpt>
      <trkpt lat="45.21814" lon="5.6738">
        <ele>207.19</ele>
        <time>2019-04-14T09:56:39.000Z</time>
      </trkpt>
      <trkpt lat="45.21836" lon="5.67357">
        <ele>206.61</ele>
        <time>2019-04-14T09:56:44.000Z</time>
      </trkpt>
      <trkpt lat="45.21862" lon="5.67332">
        <ele>205.92</ele>
        <time>2019-04-14T09:56:49.000Z</time>
      </trkpt>
      <trkpt lat="45.21887" lon="5.67313">
        <ele>205.07</ele>
        <time>2019-04-14T09:56:54.000Z</time>
      </trkpt>
      <trkpt lat="45.21912" lon="5.67293">
        <ele>206.12</ele>
        <time>2019-04-14T09:56:59.000Z</time>
      </trkpt>
      <trkpt lat="45.21935" lon="5.67276">
        <ele>207.23</ele>
        <time>2019-04-14T09:57:04.000Z</time>
      </trkpt>
      <trkpt lat="45.21956" lon="5.67259">
        <ele>208.39</ele>
        <time>2019-04-14T09:57:09.000Z</time>
      </trkpt>
      <trkpt lat="45.21979" lon="5.67242">
        <ele>209.85</ele>
        <time>2019-04-14T09:57:14.000Z</time>
      </trkpt>
      <trkpt lat="45.22001" lon="5.67223">
        <ele>208.34</ele>
        <time>2019-04-14T09:57:19.000Z</time>
      </trkpt>
      <trkpt lat="45.22025" lon="5.67202">
        <ele>208.57</ele>
        <time>2019-04-14T09:57:24.000Z</time>
      </trkpt>
      <trkpt lat="45.22051" lon="5.67185">
        <ele>206.55</ele>
        <time>2019-04-14T09:57:29.000Z</time>
      </trkpt>
      <trkpt lat="45.22077" lon="5.67164">
        <ele>209.43</ele>
        <time>2019-04-14T09:57:34.000Z</time>
      </trkpt>
      <trkpt lat="45.22105" lon="5.67143">
        <ele>214.37</ele>
        <time>2019-04-14T09:57:39.000Z</time>
      </trkpt>
      <trkpt lat="45.22133" lon="5.67125">
        <ele>217.28</ele>
        <time>2019-04-14T09:57:44.000Z</time>
      </trkpt>
      <trkpt lat="45.22157" lon="5.67109">
        <ele>215.12</ele>
        <time>2019-04-14T09:57:49.000Z</time>
      </trkpt>
      <trkpt lat="45.22184" lon="5.67088">
        <ele>213.45</ele>
        <time>2019-04-14T09:57:54.000Z</time>
      </trkpt>
      <trkpt lat="45.2221" lon="5.67069">
        <ele>213.02</ele>
        <time>2019-04-14T09:57:59.000Z</time>
      </trkpt>
      <trkpt lat="45.22235" lon="5.67049">
        <ele>212.5</ele>
        <time>2019-04-14T09:58:04.000Z</time>
      </trkpt>
      <trkpt lat="45.22262" lon="5.67031">
        <ele>210.44</ele>
        <time>2019-04-14T09:58:09.000Z</time>
      </trkpt>
      <trkpt lat="45.22287" lon="5.67013">
        <ele>210.58</ele>
        <time>2019-04-14T09:58:14.000Z</time>
      </trkpt>
      <trkpt lat="45.22313" lon="5.66994">
        <ele>210.4</ele>
        <time>2019-04-14T09:58:19.000Z</time>
      </trkpt>
      <trkpt lat="45.22338" lon="5.66976">
        <ele>209.92</ele>
        <time>2019-04-14T09:58:24.000Z</time>
      </trkpt>
      <trkpt lat="45.22363" lon="5.66957">
        <ele>210.84</ele>
        <time>2019-04-14T09:58:29.000Z</time>
      </trkpt>
      <trkpt lat="45.22386" lon="5.66939">
        <ele>212.28</ele>
        <time>2019-04-14T09:58:34.000Z</time>
      </trkpt>
      <trkpt lat="45.22409" lon="5.66925">
        <ele>210.35</ele>
        <time>2019-04-14T09:58:39.000Z</time>
      </trkpt>
      <trkpt lat="45.22432" lon="5.66909">
        <ele>210.15</ele>
        <time>2019-04-14T09:58:44.000Z</time>
      </trkpt>
      <trkpt lat="45.22457" lon="5.66887">
        <ele>213.22</ele>
        <time>2019-04-14T09:58:49.000Z</time>
      </trkpt>
      <trkpt lat="45.22482" lon="5.66869">
        <ele>212.58</ele>
        <time>2019-04-14T09:58:54.000Z</time>
      </trkpt>
      <trkpt lat="45.22506" lon="5.66852">
        <ele>212</ele>
        <time>2019-04-14T09:58:59.000Z</time>
      </trkpt>
      <trkpt lat="45.22533" lon="5.66834">
        <ele>213.22</ele>
        <time>2019-04-14T09:59:04.000Z</time>
      </trkpt>
      <trkpt lat="45.22556" lon="5.66822">
        <ele>211.39</ele>
        <time>2019-04-14T09:59:09.000Z</time>
      </trkpt>
      <trkpt lat="45.2258" lon="5.66804">
        <ele>212.65</ele>
        <time>2019-04-14T09:59:14.000Z</time>
      </trkpt>
      <trkpt lat="45.22603" lon="5.66786">
        <ele>211.93</ele>
        <time>2019-04-14T09:59:19.000Z</time>
      </trkpt>
      <trkpt lat="45.22631" lon="5.66767">
        <ele>213.26</ele>
        <time>2019-04-14T09:59:24.000Z</time>
      </trkpt>
      <trkpt lat="45.22654" lon="5.6675">
        <ele>213.45</ele>
        <time>2019-04-14T09:59:29.000Z</time>
      </trkpt>
      <trkpt lat="45.22678" lon="5.66732">
        <ele>214.03</ele>
        <time>2019-04-14T09:59:34.000Z</time>
      </trkpt>
      <trkpt lat="45.22701" lon="5.66714">
        <ele>210.86</ele>
        <time>2019-04-14T09:59:39.000Z</time>
      </trkpt>
      <trkpt lat="45.22726" lon="5.66695">
        <ele>210.36</ele>
        <time>2019-04-14T09:59:44.000Z</time>
      </trkpt>
      <trkpt lat="45.22751" lon="5.66676">
        <ele>209.26</ele>
        <time>2019-04-14T09:59:49.000Z</time>
      </trkpt>
      <trkpt lat="45.22773" lon="5.66658">
        <ele>207.36</ele>
        <time>2019-04-14T09:59:54.000Z</time>
      </trkpt>
      <trkpt lat="45.22797" lon="5.66638">
        <ele>209.73</ele>
        <time>2019-04-14T09:59:59.000Z</time>
      </trkpt>
      <trkpt lat="45.22822" lon="5.66617">
        <ele>210.51</ele>
        <time>2019-04-14T10:00:04.000Z</time>
      </trkpt>
      <trkpt lat="45.22844" lon="5.666">
        <ele>211.13</ele>
        <time>2019-04-14T10:00:09.000Z</time>
      </trkpt>
      <trkpt lat="45.2287" lon="5.66582">
        <ele>212.27</ele>
        <time>2019-04-14T10:00:14.000Z</time>
      </trkpt>
      <trkpt lat="45.22893" lon="5.66565">
        <ele>211.75</ele>
        <time>2019-04-14T10:00:19.000Z</time>
      </trkpt>
      <trkpt lat="45.22915" lon="5.66554">
        <ele>214.93</ele>
        <time>2019-04-14T10:00:24.000Z</time>
      </trkpt>
      <trkpt lat="45.22941" lon="5.66538">
        <ele>212.38</ele>
        <time>2019-04-14T10:00:29.000Z</time>
      </trkpt>
      <trkpt lat="45.22967" lon="5.66519">
        <ele>210.93</ele>
        <time>2019-04-14T10:00:34.000Z</time>
      </trkpt>
      <trkpt lat="45.22988" lon="5.66502">
        <ele>209.45</ele>
        <time>2019-04-14T10:00:39.000Z</time>
      </trkpt>
      <trkpt lat="45.23012" lon="5.66487">
        <ele>208.29</ele>
        <time>2019-04-14T10:00:44.000Z</time>
      </trkpt>
      <trkpt lat="45.23038" lon="5.66469">
        <ele>208.05</ele>
        <time>2019-04-14T10:00:49.000Z</time>
      </trkpt>
      <trkpt lat="45.23062" lon="5.66452">
        <ele>207.48</ele>
        <time>2019-04-14T10:00:54.000Z</time>
      </trkpt>
      <trkpt lat="45.23089" lon="5.66435">
        <ele>208.64</ele>
        <time>2019-04-14T10:00:59.000Z</time>
      </trkpt>
      <trkpt lat="45.23114" lon="5.66417">
        <ele>209.37</ele>
        <time>2019-04-14T10:01:04.000Z</time>
      </trkpt>
      <trkpt lat="45.2314" lon="5.66401">
        <ele>213.55</ele>
        <time>2019-04-14T10:01:09.000Z</time>
      </trkpt>
      <trkpt lat="45.23165" lon="5.66382">
        <ele>211.34</ele>
        <time>2019-04-14T10:01:14.000Z</time>
      </trkpt>
      <trkpt lat="45.23189" lon="5.66361">
        <ele>210.3</ele>
        <time>2019-04-14T10:01:19.000Z</time>
      </trkpt>
      <trkpt lat="45.23213" lon="5.66341">
        <ele>210.29</ele>
        <time>2019-04-14T10:01:24.000Z</time>
      </trkpt>
      <trkpt lat="45.23238" lon="5.66322">
        <ele>206.84</ele>
        <time>2019-04-14T10:01:29.000Z</time>
      </trkpt>
      <trkpt lat="45.23261" lon="5.66307">
        <ele>205.96</ele>
        <time>2019-04-14T10:01:34.000Z</time>
      </trkpt>
      <trkpt lat="45.23284" lon="5.66287">
        <ele>208.14</ele>
        <time>2019-04-14T10:01:39.000Z</time>
      </trkpt>
      <trkpt lat="45.23309" lon="5.6627">
        <ele>208.46</ele>
        <time>2019-04-14T10:01:44.000Z</time>
      </trkpt>
      <trkpt lat="45.2333" lon="5.66253">
        <ele>205.23</ele>
        <time>2019-04-14T10:01:49.000Z</time>
      </trkpt>
      <trkpt lat="45.23354" lon="5.66238">
        <ele>205.67</ele>
        <time>2019-04-14T10:01:54.000Z</time>
      </trkpt>
      <trkpt lat="45.23378" lon="5.66221">
        <ele>208.05</ele>
        <time>2019-04-14T10:01:59.000Z</time>
      </trkpt>
      <trkpt lat="45.234" lon="5.66205">
        <ele>207.98</ele>
        <time>2019-04-14T10:02:04.000Z</time>
      </trkpt>
      <trkpt lat="45.23426" lon="5.66185">
        <ele>208.75</ele>
        <time>2019-04-14T10:02:09.000Z</time>
      </trkpt>
      <trkpt lat="45.2345" lon="5.66168">
        <ele>210.96</ele>
        <time>2019-04-14T10:02:14.000Z</time>
      </trkpt>
      <trkpt lat="45.23474" lon="5.66151">
        <ele>210.85</ele>
        <time>2019-04-14T10:02:19.000Z</time>
      </trkpt>
      <trkpt lat="45.23497" lon="5.66134">
        <ele>210.6</ele>
        <time>2019-04-14T10:02:24.000Z</time>
      </trkpt>
      <trkpt lat="45.23519" lon="5.66117">
        <ele>208.79</ele>
        <time>2019-04-14T10:02:29.000Z</time>
      </trkpt>
      <trkpt lat="45.23544" lon="5.66098">
        <ele>210.03</ele>
        <time>2019-04-14T10:02:34.000Z</time>
      </trkpt>
      <trkpt lat="45.23569" lon="5.6608">
        <ele>208.54</ele>
        <time>2019-04-14T10:02:39.000Z</time>
      </trkpt>
      <trkpt lat="45.23591" lon="5.66066">
        <ele>210.09</ele>
        <time>2019-04-14T10:02:44.000Z</time>
      </trkpt>
      <trkpt lat="45.23613" lon="5.66057">
        <ele>207.86</ele>
        <time>2019-04-14T10:02:49.000Z</time>
      </trkpt>
      <trkpt lat="45.23642" lon="5.66052">
        <ele>207.43</ele>
        <time>2019-04-14T10:02:54.000Z</time>
      </trkpt>
      <trkpt lat="45.23675" lon="5.66053">
        <ele>205.46</ele>
        <time>2019-04-14T10:02:59.000Z</time>
      </trkpt>
      <trkpt lat="45.23707" lon="5.66045">
        <ele>206.91</ele>
        <time>2019-04-14T10:03:04.000Z</time>
      </trkpt>
      <trkpt lat="45.23702" lon="5.66019">
        <ele>207.82</ele>
        <time>2019-04-14T10:03:09.000Z</time>
      </trkpt>
      <trkpt lat="45.23699" lon="5.65998">
        <ele>209.93</ele>
        <time>2019-04-14T10:03:14.000Z</time>
      </trkpt>
      <trkpt lat="45.23694" lon="5.65983">
        <ele>208.64</ele>
        <time>2019-04-14T10:03:19.000Z</time>
      </trkpt>
      <trkpt lat="45.23685" lon="5.65986">
        <ele>209.29</ele>
        <time>2019-04-14T10:03:26.000Z</time>
      </trkpt>
      <trkpt lat="45.23678" lon="5.65973">
        <ele>208.28</ele>
        <time>2019-04-14T10:04:27.000Z</time>
      </trkpt>
      <trkpt lat="45.23667" lon="5.65948">
        <ele>207.17</ele>
        <time>2019-04-14T10:04:32.000Z</time>
      </trkpt>
      <trkpt lat="45.23655" lon="5.6592">
        <ele>208.11</ele>
        <time>2019-04-14T10:04:37.000Z</time>
      </trkpt>
      <trkpt lat="45.23646" lon="5.65891">
        <ele>208.12</ele>
        <time>2019-04-14T10:04:42.000Z</time>
      </trkpt>
      <trkpt lat="45.23635" lon="5.65864">
        <ele>206.99</ele>
        <time>2019-04-14T10:04:47.000Z</time>
      </trkpt>
      <trkpt lat="45.23622" lon="5.65835">
        <ele>210.56</ele>
        <time>2019-04-14T10:04:52.000Z</time>
      </trkpt>
      <trkpt lat="45.2361" lon="5.65807">
        <ele>209.11</ele>
        <time>2019-04-14T10:04:57.000Z</time>
      </trkpt>
      <trkpt lat="45.23601" lon="5.65779">
        <ele>207.64</ele>
        <time>2019-04-14T10:05:02.000Z</time>
      </trkpt>
      <trkpt lat="45.23592" lon="5.6575">
        <ele>208.01</ele>
        <time>2019-04-14T10:05:07.000Z</time>
      </trkpt>
      <trkpt lat="45.23579" lon="5.65721">
        <ele>207.44</ele>
        <time>2019-04-14T10:05:12.000Z</time>
      </trkpt>
      <trkpt lat="45.23574" lon="5.65688">
        <ele>208.6</ele>
        <time>2019-04-14T10:05:17.000Z</time>
      </trkpt>
      <trkpt lat="45.23563" lon="5.65652">
        <ele>210.97</ele>
        <time>2019-04-14T10:05:22.000Z</time>
      </trkpt>
      <trkpt lat="45.23548" lon="5.65612">
        <ele>209.3</ele>
        <time>2019-04-14T10:05:27.000Z</time>
      </trkpt>
      <trkpt lat="45.23542" lon="5.6558">
        <ele>208.73</ele>
        <time>2019-04-14T10:05:32.000Z</time>
      </trkpt>
      <trkpt lat="45.23549" lon="5.65566">
        <ele>207.4</ele>
        <time>2019-04-14T10:05:37.000Z</time>
      </trkpt>
      <trkpt lat="45.2357" lon="5.65555">
        <ele>209.22</ele>
        <time>2019-04-14T10:05:42.000Z</time>
      </trkpt>
      <trkpt lat="45.23591" lon="5.65546">
        <ele>208.13</ele>
        <time>2019-04-14T10:05:47.000Z</time>
      </trkpt>
      <trkpt lat="45.23611" lon="5.6554">
        <ele>208.27</ele>
        <time>2019-04-14T10:05:52.000Z</time>
      </trkpt>
      <trkpt lat="45.23638" lon="5.65537">
        <ele>209.61</ele>
        <time>2019-04-14T10:05:57.000Z</time>
      </trkpt>
      <trkpt lat="45.23658" lon="5.65537">
        <ele>212.28</ele>
        <time>2019-04-14T10:06:02.000Z</time>
      </trkpt>
      <trkpt lat="45.23683" lon="5.65534">
        <ele>210.99</ele>
        <time>2019-04-14T10:06:07.000Z</time>
      </trkpt>
      <trkpt lat="45.23708" lon="5.65532">
        <ele>210.7</ele>
        <time>2019-04-14T10:06:12.000Z</time>
      </trkpt>
      <trkpt lat="45.23731" lon="5.65532">
        <ele>212.11</ele>
        <time>2019-04-14T10:06:17.000Z</time>
      </trkpt>
      <trkpt lat="45.23758" lon="5.65518">
        <ele>214.12</ele>
        <time>2019-04-14T10:06:22.000Z</time>
      </trkpt>
      <trkpt lat="45.23783" lon="5.65499">
        <ele>212.28</ele>
        <time>2019-04-14T10:06:27.000Z</time>
      </trkpt>
      <trkpt lat="45.2381" lon="5.65484">
        <ele>214.19</ele>
        <time>2019-04-14T10:06:32.000Z</time>
      </trkpt>
      <trkpt lat="45.2383" lon="5.65471">
        <ele>213.74</ele>
        <time>2019-04-14T10:06:37.000Z</time>
      </trkpt>
      <trkpt lat="45.23853" lon="5.65452">
        <ele>210.19</ele>
        <time>2019-04-14T10:06:42.000Z</time>
      </trkpt>
      <trkpt lat="45.23874" lon="5.65435">
        <ele>209.65</ele>
        <time>2019-04-14T10:06:47.000Z</time>
      </trkpt>
      <trkpt lat="45.23896" lon="5.65418">
        <ele>213.45</ele>
        <time>2019-04-14T10:06:52.000Z</time>
      </trkpt>
      <trkpt lat="45.23924" lon="5.65402">
        <ele>214.87</ele>
        <time>2019-04-14T10:06:57.000Z</time>
      </trkpt>
      <trkpt lat="45.23951" lon="5.65395">
        <ele>213.49</ele>
        <time>2019-04-14T10:07:02.000Z</time>
      </trkpt>
      <trkpt lat="45.23969" lon="5.6538">
        <ele>210.76</ele>
        <time>2019-04-14T10:07:07.000Z</time>
      </trkpt>
      <trkpt lat="45.23991" lon="5.65359">
        <ele>210.26</ele>
        <time>2019-04-14T10:07:12.000Z</time>
      </trkpt>
      <trkpt lat="45.24015" lon="5.65339">
        <ele>209.64</ele>
        <time>2019-04-14T10:07:17.000Z</time>
      </trkpt>
      <trkpt lat="45.24035" lon="5.65322">
        <ele>211.44</ele>
        <time>2019-04-14T10:07:22.000Z</time>
      </trkpt>
      <trkpt lat="45.24056" lon="5.65308">
        <ele>215.17</ele>
        <time>2019-04-14T10:07:27.000Z</time>
      </trkpt>
      <trkpt lat="45.24082" lon="5.65295">
        <ele>215.7</ele>
        <time>2019-04-14T10:07:32.000Z</time>
      </trkpt>
      <trkpt lat="45.24107" lon="5.65278">
        <ele>212.93</ele>
        <time>2019-04-14T10:07:37.000Z</time>
      </trkpt>
      <trkpt lat="45.24132" lon="5.65266">
        <ele>214.07</ele>
        <time>2019-04-14T10:07:42.000Z</time>
      </trkpt>
      <trkpt lat="45.24165" lon="5.65252">
        <ele>215.54</ele>
        <time>2019-04-14T10:07:47.000Z</time>
      </trkpt>
      <trkpt lat="45.24189" lon="5.6524">
        <ele>213.18</ele>
        <time>2019-04-14T10:07:52.000Z</time>
      </trkpt>
      <trkpt lat="45.24213" lon="5.65235">
        <ele>207.34</ele>
        <time>2019-04-14T10:07:57.000Z</time>
      </trkpt>
      <trkpt lat="45.24237" lon="5.65224">
        <ele>204.48</ele>
        <time>2019-04-14T10:08:02.000Z</time>
      </trkpt>
      <trkpt lat="45.24258" lon="5.65201">
        <ele>206.08</ele>
        <time>2019-04-14T10:08:07.000Z</time>
      </trkpt>
      <trkpt lat="45.24284" lon="5.65189">
        <ele>207.26</ele>
        <time>2019-04-14T10:08:12.000Z</time>
      </trkpt>
      <trkpt lat="45.24308" lon="5.65173">
        <ele>209.21</ele>
        <time>2019-04-14T10:08:17.000Z</time>
      </trkpt>
      <trkpt lat="45.24328" lon="5.65157">
        <ele>205.7</ele>
        <time>2019-04-14T10:08:22.000Z</time>
      </trkpt>
      <trkpt lat="45.24352" lon="5.65139">
        <ele>201.97</ele>
        <time>2019-04-14T10:08:27.000Z</time>
      </trkpt>
      <trkpt lat="45.24379" lon="5.65117">
        <ele>203.2</ele>
        <time>2019-04-14T10:08:32.000Z</time>
      </trkpt>
      <trkpt lat="45.24407" lon="5.65101">
        <ele>202.99</ele>
        <time>2019-04-14T10:08:37.000Z</time>
      </trkpt>
      <trkpt lat="45.24436" lon="5.65078">
        <ele>208.51</ele>
        <time>2019-04-14T10:08:42.000Z</time>
      </trkpt>
      <trkpt lat="45.24457" lon="5.65059">
        <ele>206.82</ele>
        <time>2019-04-14T10:08:47.000Z</time>
      </trkpt>
      <trkpt lat="45.24478" lon="5.65045">
        <ele>206.83</ele>
        <time>2019-04-14T10:08:52.000Z</time>
      </trkpt>
      <trkpt lat="45.24499" lon="5.6503">
        <ele>205.95</ele>
        <time>2019-04-14T10:08:57.000Z</time>
      </trkpt>
      <trkpt lat="45.24531" lon="5.65011">
        <ele>211.22</ele>
        <time>2019-04-14T10:09:02.000Z</time>
      </trkpt>
      <trkpt lat="45.24555" lon="5.64992">
        <ele>211.37</ele>
        <time>2019-04-14T10:09:07.000Z</time>
      </trkpt>
      <trkpt lat="45.24573" lon="5.64972">
        <ele>208.18</ele>
        <time>2019-04-14T10:09:12.000Z</time>
      </trkpt>
      <trkpt lat="45.24599" lon="5.64956">
        <ele>207.69</ele>
        <time>2019-04-14T10:09:17.000Z</time>
      </trkpt>
      <trkpt lat="45.24625" lon="5.6494">
        <ele>205.58</ele>
        <time>2019-04-14T10:09:22.000Z</time>
      </trkpt>
      <trkpt lat="45.24646" lon="5.64923">
        <ele>207.01</ele>
        <time>2019-04-14T10:09:27.000Z</time>
      </trkpt>
      <trkpt lat="45.24666" lon="5.64903">
        <ele>204.43</ele>
        <time>2019-04-14T10:09:32.000Z</time>
      </trkpt>
      <trkpt lat="45.24686" lon="5.64884">
        <ele>203.62</ele>
        <time>2019-04-14T10:09:37.000Z</time>
      </trkpt>
      <trkpt lat="45.24706" lon="5.64866">
        <ele>203.69</ele>
        <time>2019-04-14T10:09:42.000Z</time>
      </trkpt>
      <trkpt lat="45.24728" lon="5.64843">
        <ele>203.78</ele>
        <time>2019-04-14T10:09:47.000Z</time>
      </trkpt>
      <trkpt lat="45.24751" lon="5.6482">
        <ele>204.55</ele>
        <time>2019-04-14T10:09:52.000Z</time>
      </trkpt>
      <trkpt lat="45.24773" lon="5.64794">
        <ele>204.01</ele>
        <time>2019-04-14T10:09:57.000Z</time>
      </trkpt>
      <trkpt lat="45.24792" lon="5.64775">
        <ele>205.23</ele>
        <time>2019-04-14T10:10:02.000Z</time>
      </trkpt>
      <trkpt lat="45.2481" lon="5.64753">
        <ele>203.19</ele>
        <time>2019-04-14T10:10:07.000Z</time>
      </trkpt>
      <trkpt lat="45.24826" lon="5.64734">
        <ele>200.09</ele>
        <time>2019-04-14T10:10:12.000Z</time>
      </trkpt>
      <trkpt lat="45.24847" lon="5.64713">
        <ele>197.38</ele>
        <time>2019-04-14T10:10:17.000Z</time>
      </trkpt>
      <trkpt lat="45.24864" lon="5.64688">
        <ele>196.28</ele>
        <time>2019-04-14T10:10:22.000Z</time>
      </trkpt>
      <trkpt lat="45.24884" lon="5.64666">
        <ele>199.04</ele>
        <time>2019-04-14T10:10:27.000Z</time>
      </trkpt>
      <trkpt lat="45.24909" lon="5.6464">
        <ele>206.23</ele>
        <time>2019-04-14T10:10:32.000Z</time>
      </trkpt>
      <trkpt lat="45.24929" lon="5.64614">
        <ele>205.54</ele>
        <time>2019-04-14T10:10:37.000Z</time>
      </trkpt>
      <trkpt lat="45.24948" lon="5.6458">
        <ele>203.76</ele>
        <time>2019-04-14T10:10:42.000Z</time>
      </trkpt>
      <trkpt lat="45.24969" lon="5.64555">
        <ele>204.97</ele>
        <time>2019-04-14T10:10:47.000Z</time>
      </trkpt>
      <trkpt lat="45.24988" lon="5.64529">
        <ele>201.77</ele>
        <time>2019-04-14T10:10:52.000Z</time>
      </trkpt>
      <trkpt lat="45.25004" lon="5.64502">
        <ele>201.47</ele>
        <time>2019-04-14T10:10:57.000Z</time>
      </trkpt>
      <trkpt lat="45.25027" lon="5.64473">
        <ele>201.46</ele>
        <time>2019-04-14T10:11:02.000Z</time>
      </trkpt>
      <trkpt lat="45.25042" lon="5.6445">
        <ele>198.53</ele>
        <time>2019-04-14T10:11:07.000Z</time>
      </trkpt>
      <trkpt lat="45.2506" lon="5.64423">
        <ele>199.5</ele>
        <time>2019-04-14T10:11:12.000Z</time>
      </trkpt>
      <trkpt lat="45.25079" lon="5.64393">
        <ele>199.92</ele>
        <time>2019-04-14T10:11:17.000Z</time>
      </trkpt>
      <trkpt lat="45.25099" lon="5.64368">
        <ele>196.31</ele>
        <time>2019-04-14T10:11:22.000Z</time>
      </trkpt>
      <trkpt lat="45.25119" lon="5.64344">
        <ele>200.92</ele>
        <time>2019-04-14T10:11:27.000Z</time>
      </trkpt>
      <trkpt lat="45.25139" lon="5.6432">
        <ele>204.21</ele>
        <time>2019-04-14T10:11:32.000Z</time>
      </trkpt>
      <trkpt lat="45.25161" lon="5.64289">
        <ele>204.67</ele>
        <time>2019-04-14T10:11:37.000Z</time>
      </trkpt>
      <trkpt lat="45.25179" lon="5.64263">
        <ele>202.26</ele>
        <time>2019-04-14T10:11:42.000Z</time>
      </trkpt>
      <trkpt lat="45.25201" lon="5.6424">
        <ele>205.77</ele>
        <time>2019-04-14T10:11:47.000Z</time>
      </trkpt>
      <trkpt lat="45.25219" lon="5.6421">
        <ele>203.28</ele>
        <time>2019-04-14T10:11:52.000Z</time>
      </trkpt>
      <trkpt lat="45.25238" lon="5.64183">
        <ele>200.32</ele>
        <time>2019-04-14T10:11:57.000Z</time>
      </trkpt>
      <trkpt lat="45.25257" lon="5.64158">
        <ele>199.67</ele>
        <time>2019-04-14T10:12:02.000Z</time>
      </trkpt>
      <trkpt lat="45.25277" lon="5.64126">
        <ele>200.69</ele>
        <time>2019-04-14T10:12:07.000Z</time>
      </trkpt>
      <trkpt lat="45.25296" lon="5.64103">
        <ele>204.04</ele>
        <time>2019-04-14T10:12:12.000Z</time>
      </trkpt>
      <trkpt lat="45.25314" lon="5.64078">
        <ele>204.1</ele>
        <time>2019-04-14T10:12:17.000Z</time>
      </trkpt>
      <trkpt lat="45.25331" lon="5.64046">
        <ele>205.56</ele>
        <time>2019-04-14T10:12:22.000Z</time>
      </trkpt>
      <trkpt lat="45.25347" lon="5.64014">
        <ele>206.71</ele>
        <time>2019-04-14T10:12:27.000Z</time>
      </trkpt>
      <trkpt lat="45.25357" lon="5.63984">
        <ele>206.68</ele>
        <time>2019-04-14T10:12:32.000Z</time>
      </trkpt>
      <trkpt lat="45.25371" lon="5.63953">
        <ele>207.05</ele>
        <time>2019-04-14T10:12:37.000Z</time>
      </trkpt>
      <trkpt lat="45.2539" lon="5.63911">
        <ele>205.6</ele>
        <time>2019-04-14T10:12:42.000Z</time>
      </trkpt>
      <trkpt lat="45.25409" lon="5.6389">
        <ele>202.73</ele>
        <time>2019-04-14T10:12:47.000Z</time>
      </trkpt>
      <trkpt lat="45.25416" lon="5.63843">
        <ele>200.77</ele>
        <time>2019-04-14T10:12:52.000Z</time>
      </trkpt>
      <trkpt lat="45.25429" lon="5.63813">
        <ele>200.83</ele>
        <time>2019-04-14T10:12:57.000Z</time>
      </trkpt>
      <trkpt lat="45.25445" lon="5.63782">
        <ele>199.61</ele>
        <time>2019-04-14T10:13:02.000Z</time>
      </trkpt>
      <trkpt lat="45.25456" lon="5.63752">
        <ele>200.01</ele>
        <time>2019-04-14T10:13:07.000Z</time>
      </trkpt>
      <trkpt lat="45.25473" lon="5.63719">
        <ele>199.76</ele>
        <time>2019-04-14T10:13:12.000Z</time>
      </trkpt>
      <trkpt lat="45.2549" lon="5.63686">
        <ele>203.79</ele>
        <time>2019-04-14T10:13:17.000Z</time>
      </trkpt>
      <trkpt lat="45.25505" lon="5.63655">
        <ele>199.45</ele>
        <time>2019-04-14T10:13:22.000Z</time>
      </trkpt>
      <trkpt lat="45.25525" lon="5.63626">
        <ele>202.39</ele>
        <time>2019-04-14T10:13:27.000Z</time>
      </trkpt>
      <trkpt lat="45.25544" lon="5.63604">
        <ele>199.44</ele>
        <time>2019-04-14T10:13:32.000Z</time>
      </trkpt>
      <trkpt lat="45.25561" lon="5.63579">
        <ele>199.92</ele>
        <time>2019-04-14T10:13:37.000Z</time>
      </trkpt>
      <trkpt lat="45.25585" lon="5.6356">
        <ele>201.25</ele>
        <time>2019-04-14T10:13:42.000Z</time>
      </trkpt>
      <trkpt lat="45.25605" lon="5.63533">
        <ele>199.87</ele>
        <time>2019-04-14T10:13:47.000Z</time>
      </trkpt>
      <trkpt lat="45.25626" lon="5.63513">
        <ele>196.35</ele>
        <time>2019-04-14T10:13:52.000Z</time>
      </trkpt>
      <trkpt lat="45.25646" lon="5.63487">
        <ele>195.67</ele>
        <time>2019-04-14T10:13:57.000Z</time>
      </trkpt>
      <trkpt lat="45.2567" lon="5.63456">
        <ele>198.95</ele>
        <time>2019-04-14T10:14:02.000Z</time>
      </trkpt>
      <trkpt lat="45.25685" lon="5.63427">
        <ele>198.14</ele>
        <time>2019-04-14T10:14:07.000Z</time>
      </trkpt>
      <trkpt lat="45.25706" lon="5.63403">
        <ele>200.09</ele>
        <time>2019-04-14T10:14:12.000Z</time>
      </trkpt>
      <trkpt lat="45.2573" lon="5.63379">
        <ele>205.54</ele>
        <time>2019-04-14T10:14:17.000Z</time>
      </trkpt>
      <trkpt lat="45.25749" lon="5.63354">
        <ele>207.32</ele>
        <time>2019-04-14T10:14:22.000Z</time>
      </trkpt>
      <trkpt lat="45.25769" lon="5.63327">
        <ele>205.09</ele>
        <time>2019-04-14T10:14:27.000Z</time>
      </trkpt>
      <trkpt lat="45.25788" lon="5.633">
        <ele>202.6</ele>
        <time>2019-04-14T10:14:32.000Z</time>
      </trkpt>
      <trkpt lat="45.25807" lon="5.63273">
        <ele>200.94</ele>
        <time>2019-04-14T10:14:37.000Z</time>
      </trkpt>
      <trkpt lat="45.25829" lon="5.63248">
        <ele>198.38</ele>
        <time>2019-04-14T10:14:42.000Z</time>
      </trkpt>
      <trkpt lat="45.25847" lon="5.63225">
        <ele>197.24</ele>
        <time>2019-04-14T10:14:47.000Z</time>
      </trkpt>
      <trkpt lat="45.25871" lon="5.63198">
        <ele>196.58</ele>
        <time>2019-04-14T10:14:52.000Z</time>
      </trkpt>
      <trkpt lat="45.25892" lon="5.63167">
        <ele>195.29</ele>
        <time>2019-04-14T10:14:57.000Z</time>
      </trkpt>
      <trkpt lat="45.25912" lon="5.63141">
        <ele>194.65</ele>
        <time>2019-04-14T10:15:02.000Z</time>
      </trkpt>
      <trkpt lat="45.25933" lon="5.63116">
        <ele>193.4</ele>
        <time>2019-04-14T10:15:07.000Z</time>
      </trkpt>
      <trkpt lat="45.25952" lon="5.63089">
        <ele>192.19</ele>
        <time>2019-04-14T10:15:12.000Z</time>
      </trkpt>
      <trkpt lat="45.25973" lon="5.63062">
        <ele>194.08</ele>
        <time>2019-04-14T10:15:17.000Z</time>
      </trkpt>
      <trkpt lat="45.25994" lon="5.63035">
        <ele>191.75</ele>
        <time>2019-04-14T10:15:22.000Z</time>
      </trkpt>
      <trkpt lat="45.26016" lon="5.63007">
        <ele>189.47</ele>
        <time>2019-04-14T10:15:27.000Z</time>
      </trkpt>
      <trkpt lat="45.26036" lon="5.62982">
        <ele>189.26</ele>
        <time>2019-04-14T10:15:32.000Z</time>
      </trkpt>
      <trkpt lat="45.26055" lon="5.62959">
        <ele>189.1</ele>
        <time>2019-04-14T10:15:37.000Z</time>
      </trkpt>
      <trkpt lat="45.26076" lon="5.62938">
        <ele>187.63</ele>
        <time>2019-04-14T10:15:42.000Z</time>
      </trkpt>
      <trkpt lat="45.261" lon="5.62911">
        <ele>188.32</ele>
        <time>2019-04-14T10:15:47.000Z</time>
      </trkpt>
      <trkpt lat="45.2612" lon="5.62887">
        <ele>193.31</ele>
        <time>2019-04-14T10:15:52.000Z</time>
      </trkpt>
      <trkpt lat="45.26141" lon="5.62863">
        <ele>197.51</ele>
        <time>2019-04-14T10:15:57.000Z</time>
      </trkpt>
      <trkpt lat="45.26159" lon="5.62837">
        <ele>196.54</ele>
        <time>2019-04-14T10:16:02.000Z</time>
      </trkpt>
      <trkpt lat="45.26182" lon="5.62806">
        <ele>195.23</ele>
        <time>2019-04-14T10:16:07.000Z</time>
      </trkpt>
      <trkpt lat="45.26201" lon="5.62779">
        <ele>196.54</ele>
        <time>2019-04-14T10:16:12.000Z</time>
      </trkpt>
      <trkpt lat="45.26222" lon="5.62754">
        <ele>197.42</ele>
        <time>2019-04-14T10:16:17.000Z</time>
      </trkpt>
      <trkpt lat="45.2624" lon="5.62728">
        <ele>196.84</ele>
        <time>2019-04-14T10:16:22.000Z</time>
      </trkpt>
      <trkpt lat="45.26261" lon="5.62705">
        <ele>192.01</ele>
        <time>2019-04-14T10:16:27.000Z</time>
      </trkpt>
      <trkpt lat="45.26279" lon="5.62684">
        <ele>189.93</ele>
        <time>2019-04-14T10:16:32.000Z</time>
      </trkpt>
      <trkpt lat="45.26301" lon="5.6266">
        <ele>188.78</ele>
        <time>2019-04-14T10:16:37.000Z</time>
      </trkpt>
      <trkpt lat="45.26324" lon="5.62632">
        <ele>186.71</ele>
        <time>2019-04-14T10:16:42.000Z</time>
      </trkpt>
      <trkpt lat="45.26346" lon="5.62605">
        <ele>186.71</ele>
        <time>2019-04-14T10:16:47.000Z</time>
      </trkpt>
      <trkpt lat="45.26367" lon="5.62576">
        <ele>186.45</ele>
        <time>2019-04-14T10:16:52.000Z</time>
      </trkpt>
      <trkpt lat="45.26386" lon="5.62551">
        <ele>187.54</ele>
        <time>2019-04-14T10:16:57.000Z</time>
      </trkpt>
      <trkpt lat="45.26404" lon="5.62534">
        <ele>190.89</ele>
        <time>2019-04-14T10:17:02.000Z</time>
      </trkpt>
      <trkpt lat="45.26431" lon="5.62511">
        <ele>189.43</ele>
        <time>2019-04-14T10:17:07.000Z</time>
      </trkpt>
      <trkpt lat="45.26453" lon="5.62489">
        <ele>188.81</ele>
        <time>2019-04-14T10:17:12.000Z</time>
      </trkpt>
      <trkpt lat="45.26477" lon="5.62469">
        <ele>191.32</ele>
        <time>2019-04-14T10:17:17.000Z</time>
      </trkpt>
      <trkpt lat="45.26501" lon="5.62447">
        <ele>191.18</ele>
        <time>2019-04-14T10:17:22.000Z</time>
      </trkpt>
      <trkpt lat="45.26523" lon="5.62429">
        <ele>191.45</ele>
        <time>2019-04-14T10:17:27.000Z</time>
      </trkpt>
      <trkpt lat="45.26544" lon="5.62407">
        <ele>191.09</ele>
        <time>2019-04-14T10:17:32.000Z</time>
      </trkpt>
      <trkpt lat="45.26567" lon="5.62387">
        <ele>192.28</ele>
        <time>2019-04-14T10:17:37.000Z</time>
      </trkpt>
      <trkpt lat="45.26591" lon="5.62367">
        <ele>193.07</ele>
        <time>2019-04-14T10:17:42.000Z</time>
      </trkpt>
      <trkpt lat="45.26612" lon="5.62348">
        <ele>195.05</ele>
        <time>2019-04-14T10:17:47.000Z</time>
      </trkpt>
      <trkpt lat="45.26634" lon="5.62329">
        <ele>196.13</ele>
        <time>2019-04-14T10:17:52.000Z</time>
      </trkpt>
      <trkpt lat="45.26657" lon="5.62308">
        <ele>196.69</ele>
        <time>2019-04-14T10:17:57.000Z</time>
      </trkpt>
      <trkpt lat="45.26678" lon="5.62289">
        <ele>193.76</ele>
        <time>2019-04-14T10:18:02.000Z</time>
      </trkpt>
      <trkpt lat="45.26704" lon="5.62264">
        <ele>194.93</ele>
        <time>2019-04-14T10:18:07.000Z</time>
      </trkpt>
      <trkpt lat="45.26727" lon="5.62242">
        <ele>194.4</ele>
        <time>2019-04-14T10:18:12.000Z</time>
      </trkpt>
      <trkpt lat="45.26748" lon="5.6222">
        <ele>195.44</ele>
        <time>2019-04-14T10:18:17.000Z</time>
      </trkpt>
      <trkpt lat="45.26763" lon="5.62203">
        <ele>193.24</ele>
        <time>2019-04-14T10:18:22.000Z</time>
      </trkpt>
      <trkpt lat="45.26778" lon="5.62187">
        <ele>191.43</ele>
        <time>2019-04-14T10:18:27.000Z</time>
      </trkpt>
      <trkpt lat="45.26791" lon="5.6217">
        <ele>188.64</ele>
        <time>2019-04-14T10:18:32.000Z</time>
      </trkpt>
      <trkpt lat="45.26808" lon="5.62152">
        <ele>190.67</ele>
        <time>2019-04-14T10:18:37.000Z</time>
      </trkpt>
      <trkpt lat="45.26828" lon="5.6214">
        <ele>192.39</ele>
        <time>2019-04-14T10:18:42.000Z</time>
      </trkpt>
      <trkpt lat="45.2683" lon="5.62114">
        <ele>193.8</ele>
        <time>2019-04-14T10:18:47.000Z</time>
      </trkpt>
      <trkpt lat="45.26829" lon="5.62082">
        <ele>191.44</ele>
        <time>2019-04-14T10:18:52.000Z</time>
      </trkpt>
      <trkpt lat="45.26825" lon="5.62064">
        <ele>193.42</ele>
        <time>2019-04-14T10:18:57.000Z</time>
      </trkpt>
      <trkpt lat="45.26814" lon="5.62053">
        <ele>192.95</ele>
        <time>2019-04-14T10:19:02.000Z</time>
      </trkpt>
      <trkpt lat="45.26804" lon="5.62043">
        <ele>193.29</ele>
        <time>2019-04-14T10:19:07.000Z</time>
      </trkpt>
      <trkpt lat="45.26807" lon="5.62019">
        <ele>191.69</ele>
        <time>2019-04-14T10:19:12.000Z</time>
      </trkpt>
      <trkpt lat="45.26802" lon="5.61996">
        <ele>195.02</ele>
        <time>2019-04-14T10:19:17.000Z</time>
      </trkpt>
      <trkpt lat="45.26798" lon="5.61974">
        <ele>196.99</ele>
        <time>2019-04-14T10:19:22.000Z</time>
      </trkpt>
      <trkpt lat="45.26803" lon="5.61961">
        <ele>193.57</ele>
        <time>2019-04-14T10:19:28.000Z</time>
      </trkpt>
      <trkpt lat="45.26823" lon="5.61951">
        <ele>189.92</ele>
        <time>2019-04-14T10:19:33.000Z</time>
      </trkpt>
      <trkpt lat="45.26842" lon="5.61935">
        <ele>190.37</ele>
        <time>2019-04-14T10:19:38.000Z</time>
      </trkpt>
      <trkpt lat="45.26858" lon="5.61916">
        <ele>193.64</ele>
        <time>2019-04-14T10:19:43.000Z</time>
      </trkpt>
      <trkpt lat="45.26874" lon="5.61891">
        <ele>195.26</ele>
        <time>2019-04-14T10:19:48.000Z</time>
      </trkpt>
      <trkpt lat="45.26896" lon="5.61864">
        <ele>197.12</ele>
        <time>2019-04-14T10:19:53.000Z</time>
      </trkpt>
      <trkpt lat="45.26913" lon="5.61852">
        <ele>196.06</ele>
        <time>2019-04-14T10:19:58.000Z</time>
      </trkpt>
      <trkpt lat="45.2693" lon="5.6184">
        <ele>193.31</ele>
        <time>2019-04-14T10:20:03.000Z</time>
      </trkpt>
      <trkpt lat="45.26947" lon="5.6183">
        <ele>188.56</ele>
        <time>2019-04-14T10:20:08.000Z</time>
      </trkpt>
      <trkpt lat="45.26963" lon="5.61826">
        <ele>190.51</ele>
        <time>2019-04-14T10:20:13.000Z</time>
      </trkpt>
      <trkpt lat="45.26983" lon="5.61825">
        <ele>192.91</ele>
        <time>2019-04-14T10:20:18.000Z</time>
      </trkpt>
      <trkpt lat="45.2699" lon="5.61794">
        <ele>193.76</ele>
        <time>2019-04-14T10:20:23.000Z</time>
      </trkpt>
      <trkpt lat="45.26997" lon="5.61763">
        <ele>191.51</ele>
        <time>2019-04-14T10:20:28.000Z</time>
      </trkpt>
      <trkpt lat="45.27002" lon="5.61734">
        <ele>192.69</ele>
        <time>2019-04-14T10:20:33.000Z</time>
      </trkpt>
      <trkpt lat="45.27012" lon="5.61703">
        <ele>188.39</ele>
        <time>2019-04-14T10:20:38.000Z</time>
      </trkpt>
      <trkpt lat="45.2702" lon="5.61678">
        <ele>190.83</ele>
        <time>2019-04-14T10:20:43.000Z</time>
      </trkpt>
      <trkpt lat="45.27036" lon="5.61664">
        <ele>194.97</ele>
        <time>2019-04-14T10:20:48.000Z</time>
      </trkpt>
      <trkpt lat="45.2705" lon="5.6165">
        <ele>198.43</ele>
        <time>2019-04-14T10:20:53.000Z</time>
      </trkpt>
      <trkpt lat="45.27059" lon="5.61649">
        <ele>203.61</ele>
        <time>2019-04-14T10:21:03.000Z</time>
      </trkpt>
      <trkpt lat="45.27067" lon="5.61636">
        <ele>209.23</ele>
        <time>2019-04-14T10:23:01.000Z</time>
      </trkpt>
      <trkpt lat="45.27082" lon="5.61627">
        <ele>212.44</ele>
        <time>2019-04-14T10:23:06.000Z</time>
      </trkpt>
      <trkpt lat="45.27097" lon="5.61622">
        <ele>214.48</ele>
        <time>2019-04-14T10:23:11.000Z</time>
      </trkpt>
      <trkpt lat="45.27114" lon="5.61618">
        <ele>218.64</ele>
        <time>2019-04-14T10:23:16.000Z</time>
      </trkpt>
      <trkpt lat="45.27131" lon="5.61616">
        <ele>221.59</ele>
        <time>2019-04-14T10:23:21.000Z</time>
      </trkpt>
      <trkpt lat="45.27151" lon="5.61612">
        <ele>222.65</ele>
        <time>2019-04-14T10:23:26.000Z</time>
      </trkpt>
      <trkpt lat="45.27169" lon="5.61614">
        <ele>225.79</ele>
        <time>2019-04-14T10:23:31.000Z</time>
      </trkpt>
      <trkpt lat="45.27187" lon="5.6161">
        <ele>222.41</ele>
        <time>2019-04-14T10:23:36.000Z</time>
      </trkpt>
      <trkpt lat="45.27198" lon="5.61596">
        <ele>223.67</ele>
        <time>2019-04-14T10:23:41.000Z</time>
      </trkpt>
      <trkpt lat="45.27209" lon="5.61577">
        <ele>219.02</ele>
        <time>2019-04-14T10:23:46.000Z</time>
      </trkpt>
      <trkpt lat="45.27226" lon="5.61564">
        <ele>223.09</ele>
        <time>2019-04-14T10:23:51.000Z</time>
      </trkpt>
      <trkpt lat="45.27242" lon="5.61554">
        <ele>228.1</ele>
        <time>2019-04-14T10:23:56.000Z</time>
      </trkpt>
      <trkpt lat="45.27254" lon="5.61533">
        <ele>230.74</ele>
        <time>2019-04-14T10:24:01.000Z</time>
      </trkpt>
      <trkpt lat="45.27256" lon="5.61506">
        <ele>235.05</ele>
        <time>2019-04-14T10:24:06.000Z</time>
      </trkpt>
      <trkpt lat="45.27249" lon="5.61475">
        <ele>235.54</ele>
        <time>2019-04-14T10:24:11.000Z</time>
      </trkpt>
      <trkpt lat="45.27247" lon="5.61449">
        <ele>235.68</ele>
        <time>2019-04-14T10:24:16.000Z</time>
      </trkpt>
      <trkpt lat="45.27254" lon="5.61416">
        <ele>237.3</ele>
        <time>2019-04-14T10:24:21.000Z</time>
      </trkpt>
      <trkpt lat="45.27259" lon="5.61389">
        <ele>234.45</ele>
        <time>2019-04-14T10:24:26.000Z</time>
      </trkpt>
      <trkpt lat="45.27267" lon="5.6136">
        <ele>230.51</ele>
        <time>2019-04-14T10:24:31.000Z</time>
      </trkpt>
      <trkpt lat="45.27272" lon="5.61336">
        <ele>230.67</ele>
        <time>2019-04-14T10:24:36.000Z</time>
      </trkpt>
      <trkpt lat="45.27282" lon="5.6131">
        <ele>231.69</ele>
        <time>2019-04-14T10:24:41.000Z</time>
      </trkpt>
      <trkpt lat="45.27295" lon="5.6129">
        <ele>234.3</ele>
        <time>2019-04-14T10:24:46.000Z</time>
      </trkpt>
      <trkpt lat="45.27313" lon="5.61281">
        <ele>233.67</ele>
        <time>2019-04-14T10:24:51.000Z</time>
      </trkpt>
      <trkpt lat="45.27335" lon="5.61269">
        <ele>232.97</ele>
        <time>2019-04-14T10:24:56.000Z</time>
      </trkpt>
      <trkpt lat="45.27356" lon="5.61276">
        <ele>238.69</ele>
        <time>2019-04-14T10:25:01.000Z</time>
      </trkpt>
      <trkpt lat="45.27374" lon="5.61292">
        <ele>239.93</ele>
        <time>2019-04-14T10:25:06.000Z</time>
      </trkpt>
      <trkpt lat="45.27388" lon="5.61311">
        <ele>240.46</ele>
        <time>2019-04-14T10:25:11.000Z</time>
      </trkpt>
      <trkpt lat="45.27405" lon="5.61324">
        <ele>241.46</ele>
        <time>2019-04-14T10:25:16.000Z</time>
      </trkpt>
      <trkpt lat="45.27423" lon="5.61331">
        <ele>242.16</ele>
        <time>2019-04-14T10:25:21.000Z</time>
      </trkpt>
      <trkpt lat="45.27444" lon="5.61323">
        <ele>239.1</ele>
        <time>2019-04-14T10:25:26.000Z</time>
      </trkpt>
      <trkpt lat="45.27461" lon="5.61315">
        <ele>240.39</ele>
        <time>2019-04-14T10:25:31.000Z</time>
      </trkpt>
      <trkpt lat="45.27475" lon="5.61301">
        <ele>240.97</ele>
        <time>2019-04-14T10:25:36.000Z</time>
      </trkpt>
      <trkpt lat="45.27489" lon="5.61281">
        <ele>242.33</ele>
        <time>2019-04-14T10:25:41.000Z</time>
      </trkpt>
      <trkpt lat="45.27486" lon="5.61255">
        <ele>243.4</ele>
        <time>2019-04-14T10:25:46.000Z</time>
      </trkpt>
      <trkpt lat="45.27466" lon="5.61246">
        <ele>244.03</ele>
        <time>2019-04-14T10:25:51.000Z</time>
      </trkpt>
      <trkpt lat="45.27447" lon="5.61257">
        <ele>248.53</ele>
        <time>2019-04-14T10:25:56.000Z</time>
      </trkpt>
      <trkpt lat="45.27431" lon="5.61257">
        <ele>251.16</ele>
        <time>2019-04-14T10:26:01.000Z</time>
      </trkpt>
      <trkpt lat="45.27425" lon="5.61237">
        <ele>250.33</ele>
        <time>2019-04-14T10:26:06.000Z</time>
      </trkpt>
      <trkpt lat="45.27441" lon="5.61219">
        <ele>250.04</ele>
        <time>2019-04-14T10:26:11.000Z</time>
      </trkpt>
      <trkpt lat="45.27461" lon="5.61219">
        <ele>252.99</ele>
        <time>2019-04-14T10:26:16.000Z</time>
      </trkpt>
      <trkpt lat="45.27478" lon="5.61204">
        <ele>254.19</ele>
        <time>2019-04-14T10:26:21.000Z</time>
      </trkpt>
      <trkpt lat="45.27484" lon="5.61179">
        <ele>256.01</ele>
        <time>2019-04-14T10:26:26.000Z</time>
      </trkpt>
      <trkpt lat="45.27489" lon="5.61153">
        <ele>256.42</ele>
        <time>2019-04-14T10:26:31.000Z</time>
      </trkpt>
      <trkpt lat="45.27504" lon="5.61132">
        <ele>259.89</ele>
        <time>2019-04-14T10:26:36.000Z</time>
      </trkpt>
      <trkpt lat="45.27523" lon="5.61141">
        <ele>263.12</ele>
        <time>2019-04-14T10:26:41.000Z</time>
      </trkpt>
      <trkpt lat="45.27534" lon="5.61163">
        <ele>269.67</ele>
        <time>2019-04-14T10:26:46.000Z</time>
      </trkpt>
      <trkpt lat="45.27546" lon="5.61187">
        <ele>272.22</ele>
        <time>2019-04-14T10:26:51.000Z</time>
      </trkpt>
      <trkpt lat="45.27563" lon="5.612">
        <ele>273.54</ele>
        <time>2019-04-14T10:26:56.000Z</time>
      </trkpt>
      <trkpt lat="45.2758" lon="5.6121">
        <ele>275.13</ele>
        <time>2019-04-14T10:27:01.000Z</time>
      </trkpt>
      <trkpt lat="45.27598" lon="5.61214">
        <ele>275.47</ele>
        <time>2019-04-14T10:27:06.000Z</time>
      </trkpt>
      <trkpt lat="45.27615" lon="5.61217">
        <ele>275.86</ele>
        <time>2019-04-14T10:27:11.000Z</time>
      </trkpt>
      <trkpt lat="45.27631" lon="5.61223">
        <ele>278.34</ele>
        <time>2019-04-14T10:27:16.000Z</time>
      </trkpt>
      <trkpt lat="45.27647" lon="5.61232">
        <ele>278.09</ele>
        <time>2019-04-14T10:27:21.000Z</time>
      </trkpt>
      <trkpt lat="45.27662" lon="5.61242">
        <ele>279.99</ele>
        <time>2019-04-14T10:27:26.000Z</time>
      </trkpt>
      <trkpt lat="45.27679" lon="5.61248">
        <ele>283.24</ele>
        <time>2019-04-14T10:27:31.000Z</time>
      </trkpt>
      <trkpt lat="45.27696" lon="5.61255">
        <ele>285.28</ele>
        <time>2019-04-14T10:27:36.000Z</time>
      </trkpt>
      <trkpt lat="45.27713" lon="5.61266">
        <ele>285.95</ele>
        <time>2019-04-14T10:27:41.000Z</time>
      </trkpt>
      <trkpt lat="45.27727" lon="5.61284">
        <ele>284.42</ele>
        <time>2019-04-14T10:27:46.000Z</time>
      </trkpt>
      <trkpt lat="45.27743" lon="5.61296">
        <ele>285.52</ele>
        <time>2019-04-14T10:27:51.000Z</time>
      </trkpt>
      <trkpt lat="45.27758" lon="5.61279">
        <ele>287.51</ele>
        <time>2019-04-14T10:27:56.000Z</time>
      </trkpt>
      <trkpt lat="45.27757" lon="5.61248">
        <ele>286.5</ele>
        <time>2019-04-14T10:28:01.000Z</time>
      </trkpt>
      <trkpt lat="45.2774" lon="5.6123">
        <ele>286.48</ele>
        <time>2019-04-14T10:28:06.000Z</time>
      </trkpt>
      <trkpt lat="45.27725" lon="5.61214">
        <ele>287.84</ele>
        <time>2019-04-14T10:28:11.000Z</time>
      </trkpt>
      <trkpt lat="45.27708" lon="5.61197">
        <ele>288.06</ele>
        <time>2019-04-14T10:28:16.000Z</time>
      </trkpt>
      <trkpt lat="45.27692" lon="5.61183">
        <ele>286.24</ele>
        <time>2019-04-14T10:28:21.000Z</time>
      </trkpt>
      <trkpt lat="45.27679" lon="5.61167">
        <ele>290.92</ele>
        <time>2019-04-14T10:28:26.000Z</time>
      </trkpt>
      <trkpt lat="45.27666" lon="5.61151">
        <ele>292.93</ele>
        <time>2019-04-14T10:28:31.000Z</time>
      </trkpt>
      <trkpt lat="45.27655" lon="5.61131">
        <ele>295.8</ele>
        <time>2019-04-14T10:28:36.000Z</time>
      </trkpt>
      <trkpt lat="45.27645" lon="5.61109">
        <ele>299.7</ele>
        <time>2019-04-14T10:28:41.000Z</time>
      </trkpt>
      <trkpt lat="45.27635" lon="5.6109">
        <ele>298.6</ele>
        <time>2019-04-14T10:28:46.000Z</time>
      </trkpt>
      <trkpt lat="45.27624" lon="5.61068">
        <ele>300.96</ele>
        <time>2019-04-14T10:28:51.000Z</time>
      </trkpt>
      <trkpt lat="45.27614" lon="5.61046">
        <ele>302.38</ele>
        <time>2019-04-14T10:28:56.000Z</time>
      </trkpt>
      <trkpt lat="45.27605" lon="5.61022">
        <ele>303.73</ele>
        <time>2019-04-14T10:29:01.000Z</time>
      </trkpt>
      <trkpt lat="45.27598" lon="5.60998">
        <ele>305.7</ele>
        <time>2019-04-14T10:29:06.000Z</time>
      </trkpt>
      <trkpt lat="45.27595" lon="5.60971">
        <ele>307.09</ele>
        <time>2019-04-14T10:29:11.000Z</time>
      </trkpt>
      <trkpt lat="45.27589" lon="5.60947">
        <ele>308.44</ele>
        <time>2019-04-14T10:29:16.000Z</time>
      </trkpt>
      <trkpt lat="45.27577" lon="5.60929">
        <ele>308.99</ele>
        <time>2019-04-14T10:29:21.000Z</time>
      </trkpt>
      <trkpt lat="45.27561" lon="5.60914">
        <ele>311.11</ele>
        <time>2019-04-14T10:29:26.000Z</time>
      </trkpt>
      <trkpt lat="45.27545" lon="5.60899">
        <ele>310.43</ele>
        <time>2019-04-14T10:29:31.000Z</time>
      </trkpt>
      <trkpt lat="45.27531" lon="5.60881">
        <ele>308.76</ele>
        <time>2019-04-14T10:29:36.000Z</time>
      </trkpt>
      <trkpt lat="45.27516" lon="5.60863">
        <ele>308.82</ele>
        <time>2019-04-14T10:29:41.000Z</time>
      </trkpt>
      <trkpt lat="45.27507" lon="5.60836">
        <ele>310.93</ele>
        <time>2019-04-14T10:29:46.000Z</time>
      </trkpt>
      <trkpt lat="45.27507" lon="5.60809">
        <ele>314.88</ele>
        <time>2019-04-14T10:29:51.000Z</time>
      </trkpt>
      <trkpt lat="45.27511" lon="5.60781">
        <ele>317.88</ele>
        <time>2019-04-14T10:29:56.000Z</time>
      </trkpt>
      <trkpt lat="45.27507" lon="5.60755">
        <ele>322.38</ele>
        <time>2019-04-14T10:30:01.000Z</time>
      </trkpt>
      <trkpt lat="45.275" lon="5.60734">
        <ele>324.47</ele>
        <time>2019-04-14T10:30:06.000Z</time>
      </trkpt>
      <trkpt lat="45.27493" lon="5.60713">
        <ele>322.93</ele>
        <time>2019-04-14T10:30:11.000Z</time>
      </trkpt>
      <trkpt lat="45.27485" lon="5.60691">
        <ele>320.78</ele>
        <time>2019-04-14T10:30:16.000Z</time>
      </trkpt>
      <trkpt lat="45.27483" lon="5.60664">
        <ele>317.68</ele>
        <time>2019-04-14T10:30:21.000Z</time>
      </trkpt>
      <trkpt lat="45.27476" lon="5.60639">
        <ele>320.06</ele>
        <time>2019-04-14T10:30:26.000Z</time>
      </trkpt>
      <trkpt lat="45.27466" lon="5.60615">
        <ele>322.62</ele>
        <time>2019-04-14T10:30:31.000Z</time>
      </trkpt>
      <trkpt lat="45.27456" lon="5.60596">
        <ele>323.22</ele>
        <time>2019-04-14T10:30:36.000Z</time>
      </trkpt>
      <trkpt lat="45.27446" lon="5.60578">
        <ele>323.51</ele>
        <time>2019-04-14T10:30:41.000Z</time>
      </trkpt>
      <trkpt lat="45.27434" lon="5.60559">
        <ele>324.78</ele>
        <time>2019-04-14T10:30:46.000Z</time>
      </trkpt>
      <trkpt lat="45.27421" lon="5.60535">
        <ele>325.45</ele>
        <time>2019-04-14T10:30:51.000Z</time>
      </trkpt>
      <trkpt lat="45.27408" lon="5.60514">
        <ele>328.97</ele>
        <time>2019-04-14T10:30:56.000Z</time>
      </trkpt>
      <trkpt lat="45.27393" lon="5.60496">
        <ele>330.95</ele>
        <time>2019-04-14T10:31:01.000Z</time>
      </trkpt>
      <trkpt lat="45.27379" lon="5.60482">
        <ele>331.64</ele>
        <time>2019-04-14T10:31:06.000Z</time>
      </trkpt>
      <trkpt lat="45.27364" lon="5.60486">
        <ele>333.65</ele>
        <time>2019-04-14T10:31:11.000Z</time>
      </trkpt>
      <trkpt lat="45.27355" lon="5.60498">
        <ele>336.45</ele>
        <time>2019-04-14T10:31:16.000Z</time>
      </trkpt>
      <trkpt lat="45.27358" lon="5.60484">
        <ele>340.06</ele>
        <time>2019-04-14T10:31:28.000Z</time>
      </trkpt>
      <trkpt lat="45.27351" lon="5.60476">
        <ele>343.53</ele>
        <time>2019-04-14T10:31:57.000Z</time>
      </trkpt>
      <trkpt lat="45.27346" lon="5.60488">
        <ele>351.09</ele>
        <time>2019-04-14T10:32:53.000Z</time>
      </trkpt>
      <trkpt lat="45.2733" lon="5.60497">
        <ele>354.85</ele>
        <time>2019-04-14T10:32:58.000Z</time>
      </trkpt>
      <trkpt lat="45.27314" lon="5.60487">
        <ele>353.64</ele>
        <time>2019-04-14T10:33:03.000Z</time>
      </trkpt>
      <trkpt lat="45.27309" lon="5.60463">
        <ele>355.03</ele>
        <time>2019-04-14T10:33:08.000Z</time>
      </trkpt>
      <trkpt lat="45.27307" lon="5.60436">
        <ele>356.17</ele>
        <time>2019-04-14T10:33:13.000Z</time>
      </trkpt>
      <trkpt lat="45.27301" lon="5.60414">
        <ele>354.55</ele>
        <time>2019-04-14T10:33:18.000Z</time>
      </trkpt>
      <trkpt lat="45.27296" lon="5.60389">
        <ele>356.77</ele>
        <time>2019-04-14T10:33:23.000Z</time>
      </trkpt>
      <trkpt lat="45.27292" lon="5.60364">
        <ele>359.59</ele>
        <time>2019-04-14T10:33:28.000Z</time>
      </trkpt>
      <trkpt lat="45.27281" lon="5.60341">
        <ele>357.91</ele>
        <time>2019-04-14T10:33:33.000Z</time>
      </trkpt>
      <trkpt lat="45.27272" lon="5.60314">
        <ele>361.01</ele>
        <time>2019-04-14T10:33:38.000Z</time>
      </trkpt>
      <trkpt lat="45.27273" lon="5.60286">
        <ele>360.88</ele>
        <time>2019-04-14T10:33:43.000Z</time>
      </trkpt>
      <trkpt lat="45.27285" lon="5.60254">
        <ele>364.65</ele>
        <time>2019-04-14T10:33:48.000Z</time>
      </trkpt>
      <trkpt lat="45.2729" lon="5.60228">
        <ele>365.13</ele>
        <time>2019-04-14T10:33:53.000Z</time>
      </trkpt>
      <trkpt lat="45.27291" lon="5.602">
        <ele>367.59</ele>
        <time>2019-04-14T10:33:58.000Z</time>
      </trkpt>
      <trkpt lat="45.27283" lon="5.60175">
        <ele>368.34</ele>
        <time>2019-04-14T10:34:03.000Z</time>
      </trkpt>
      <trkpt lat="45.27269" lon="5.60155">
        <ele>369.8</ele>
        <time>2019-04-14T10:34:08.000Z</time>
      </trkpt>
      <trkpt lat="45.27257" lon="5.60134">
        <ele>370.98</ele>
        <time>2019-04-14T10:34:13.000Z</time>
      </trkpt>
      <trkpt lat="45.27245" lon="5.60114">
        <ele>374.43</ele>
        <time>2019-04-14T10:34:18.000Z</time>
      </trkpt>
      <trkpt lat="45.27236" lon="5.60088">
        <ele>375.04</ele>
        <time>2019-04-14T10:34:23.000Z</time>
      </trkpt>
      <trkpt lat="45.27231" lon="5.6006">
        <ele>377.57</ele>
        <time>2019-04-14T10:34:28.000Z</time>
      </trkpt>
      <trkpt lat="45.27229" lon="5.6003">
        <ele>381.06</ele>
        <time>2019-04-14T10:34:33.000Z</time>
      </trkpt>
      <trkpt lat="45.2722" lon="5.6001">
        <ele>384.47</ele>
        <time>2019-04-14T10:34:38.000Z</time>
      </trkpt>
      <trkpt lat="45.27203" lon="5.59993">
        <ele>382.48</ele>
        <time>2019-04-14T10:34:43.000Z</time>
      </trkpt>
      <trkpt lat="45.27187" lon="5.59973">
        <ele>384.81</ele>
        <time>2019-04-14T10:34:48.000Z</time>
      </trkpt>
      <trkpt lat="45.27173" lon="5.59959">
        <ele>384.16</ele>
        <time>2019-04-14T10:34:53.000Z</time>
      </trkpt>
      <trkpt lat="45.2716" lon="5.5994">
        <ele>386.65</ele>
        <time>2019-04-14T10:34:58.000Z</time>
      </trkpt>
      <trkpt lat="45.27155" lon="5.59916">
        <ele>389.2</ele>
        <time>2019-04-14T10:35:03.000Z</time>
      </trkpt>
      <trkpt lat="45.27147" lon="5.59889">
        <ele>391.95</ele>
        <time>2019-04-14T10:35:08.000Z</time>
      </trkpt>
      <trkpt lat="45.2714" lon="5.59862">
        <ele>390.56</ele>
        <time>2019-04-14T10:35:13.000Z</time>
      </trkpt>
      <trkpt lat="45.27125" lon="5.59841">
        <ele>391.57</ele>
        <time>2019-04-14T10:35:18.000Z</time>
      </trkpt>
      <trkpt lat="45.27109" lon="5.59823">
        <ele>395.85</ele>
        <time>2019-04-14T10:35:23.000Z</time>
      </trkpt>
      <trkpt lat="45.27092" lon="5.59811">
        <ele>396.94</ele>
        <time>2019-04-14T10:35:28.000Z</time>
      </trkpt>
      <trkpt lat="45.27072" lon="5.59803">
        <ele>397.5</ele>
        <time>2019-04-14T10:35:33.000Z</time>
      </trkpt>
      <trkpt lat="45.27056" lon="5.59787">
        <ele>399.51</ele>
        <time>2019-04-14T10:35:38.000Z</time>
      </trkpt>
      <trkpt lat="45.27042" lon="5.59765">
        <ele>397.49</ele>
        <time>2019-04-14T10:35:43.000Z</time>
      </trkpt>
      <trkpt lat="45.2703" lon="5.59747">
        <ele>398.59</ele>
        <time>2019-04-14T10:35:48.000Z</time>
      </trkpt>
      <trkpt lat="45.27018" lon="5.59724">
        <ele>402.91</ele>
        <time>2019-04-14T10:35:53.000Z</time>
      </trkpt>
      <trkpt lat="45.27007" lon="5.59702">
        <ele>404.01</ele>
        <time>2019-04-14T10:35:58.000Z</time>
      </trkpt>
      <trkpt lat="45.26993" lon="5.59683">
        <ele>408.15</ele>
        <time>2019-04-14T10:36:03.000Z</time>
      </trkpt>
      <trkpt lat="45.26978" lon="5.59664">
        <ele>408.31</ele>
        <time>2019-04-14T10:36:08.000Z</time>
      </trkpt>
      <trkpt lat="45.26963" lon="5.59647">
        <ele>411.49</ele>
        <time>2019-04-14T10:36:13.000Z</time>
      </trkpt>
      <trkpt lat="45.26951" lon="5.59626">
        <ele>415.1</ele>
        <time>2019-04-14T10:36:18.000Z</time>
      </trkpt>
      <trkpt lat="45.26935" lon="5.59608">
        <ele>420.88</ele>
        <time>2019-04-14T10:36:23.000Z</time>
      </trkpt>
      <trkpt lat="45.26918" lon="5.59595">
        <ele>419.49</ele>
        <time>2019-04-14T10:36:28.000Z</time>
      </trkpt>
      <trkpt lat="45.269" lon="5.59579">
        <ele>421.87</ele>
        <time>2019-04-14T10:36:33.000Z</time>
      </trkpt>
      <trkpt lat="45.26885" lon="5.5956">
        <ele>422.7</ele>
        <time>2019-04-14T10:36:38.000Z</time>
      </trkpt>
      <trkpt lat="45.26871" lon="5.59541">
        <ele>425.3</ele>
        <time>2019-04-14T10:36:43.000Z</time>
      </trkpt>
      <trkpt lat="45.26857" lon="5.59521">
        <ele>428.26</ele>
        <time>2019-04-14T10:36:48.000Z</time>
      </trkpt>
      <trkpt lat="45.26842" lon="5.59506">
        <ele>430.83</ele>
        <time>2019-04-14T10:36:53.000Z</time>
      </trkpt>
      <trkpt lat="45.26829" lon="5.59487">
        <ele>429.88</ele>
        <time>2019-04-14T10:36:58.000Z</time>
      </trkpt>
      <trkpt lat="45.2682" lon="5.59465">
        <ele>429.58</ele>
        <time>2019-04-14T10:37:03.000Z</time>
      </trkpt>
      <trkpt lat="45.26808" lon="5.59446">
        <ele>426.1</ele>
        <time>2019-04-14T10:37:08.000Z</time>
      </trkpt>
      <trkpt lat="45.26796" lon="5.59429">
        <ele>426.21</ele>
        <time>2019-04-14T10:37:13.000Z</time>
      </trkpt>
      <trkpt lat="45.26781" lon="5.59413">
        <ele>426.17</ele>
        <time>2019-04-14T10:37:18.000Z</time>
      </trkpt>
      <trkpt lat="45.26765" lon="5.59397">
        <ele>430.14</ele>
        <time>2019-04-14T10:37:23.000Z</time>
      </trkpt>
      <trkpt lat="45.26751" lon="5.59381">
        <ele>431.25</ele>
        <time>2019-04-14T10:37:28.000Z</time>
      </trkpt>
      <trkpt lat="45.26737" lon="5.59363">
        <ele>432.84</ele>
        <time>2019-04-14T10:37:33.000Z</time>
      </trkpt>
      <trkpt lat="45.26724" lon="5.59341">
        <ele>436.21</ele>
        <time>2019-04-14T10:37:38.000Z</time>
      </trkpt>
      <trkpt lat="45.26714" lon="5.5932">
        <ele>437.14</ele>
        <time>2019-04-14T10:37:43.000Z</time>
      </trkpt>
      <trkpt lat="45.26705" lon="5.59299">
        <ele>438.81</ele>
        <time>2019-04-14T10:37:48.000Z</time>
      </trkpt>
      <trkpt lat="45.26696" lon="5.5928">
        <ele>440.29</ele>
        <time>2019-04-14T10:37:53.000Z</time>
      </trkpt>
      <trkpt lat="45.26684" lon="5.59261">
        <ele>442.93</ele>
        <time>2019-04-14T10:37:58.000Z</time>
      </trkpt>
      <trkpt lat="45.26674" lon="5.59242">
        <ele>443.14</ele>
        <time>2019-04-14T10:38:03.000Z</time>
      </trkpt>
      <trkpt lat="45.2666" lon="5.59223">
        <ele>447.29</ele>
        <time>2019-04-14T10:38:08.000Z</time>
      </trkpt>
      <trkpt lat="45.26645" lon="5.59205">
        <ele>446.11</ele>
        <time>2019-04-14T10:38:13.000Z</time>
      </trkpt>
      <trkpt lat="45.2663" lon="5.59188">
        <ele>448.14</ele>
        <time>2019-04-14T10:38:18.000Z</time>
      </trkpt>
      <trkpt lat="45.26622" lon="5.59168">
        <ele>448.52</ele>
        <time>2019-04-14T10:38:23.000Z</time>
      </trkpt>
      <trkpt lat="45.26612" lon="5.59148">
        <ele>448.74</ele>
        <time>2019-04-14T10:38:28.000Z</time>
      </trkpt>
      <trkpt lat="45.266" lon="5.59131">
        <ele>454.78</ele>
        <time>2019-04-14T10:38:33.000Z</time>
      </trkpt>
      <trkpt lat="45.26587" lon="5.59115">
        <ele>465.2</ele>
        <time>2019-04-14T10:38:38.000Z</time>
      </trkpt>
      <trkpt lat="45.26576" lon="5.591">
        <ele>471.94</ele>
        <time>2019-04-14T10:38:43.000Z</time>
      </trkpt>
      <trkpt lat="45.26569" lon="5.59084">
        <ele>474.21</ele>
        <time>2019-04-14T10:38:48.000Z</time>
      </trkpt>
      <trkpt lat="45.26559" lon="5.59069">
        <ele>474.38</ele>
        <time>2019-04-14T10:38:53.000Z</time>
      </trkpt>
      <trkpt lat="45.26547" lon="5.59055">
        <ele>476.96</ele>
        <time>2019-04-14T10:38:58.000Z</time>
      </trkpt>
      <trkpt lat="45.26533" lon="5.59041">
        <ele>477.81</ele>
        <time>2019-04-14T10:39:03.000Z</time>
      </trkpt>
      <trkpt lat="45.26518" lon="5.59034">
        <ele>482.04</ele>
        <time>2019-04-14T10:39:08.000Z</time>
      </trkpt>
      <trkpt lat="45.26505" lon="5.59021">
        <ele>483.55</ele>
        <time>2019-04-14T10:39:13.000Z</time>
      </trkpt>
      <trkpt lat="45.26489" lon="5.59009">
        <ele>482.72</ele>
        <time>2019-04-14T10:39:18.000Z</time>
      </trkpt>
      <trkpt lat="45.26473" lon="5.58998">
        <ele>485.92</ele>
        <time>2019-04-14T10:39:23.000Z</time>
      </trkpt>
      <trkpt lat="45.26461" lon="5.58989">
        <ele>487.54</ele>
        <time>2019-04-14T10:39:28.000Z</time>
      </trkpt>
      <trkpt lat="45.26452" lon="5.58972">
        <ele>486.16</ele>
        <time>2019-04-14T10:39:33.000Z</time>
      </trkpt>
      <trkpt lat="45.2644" lon="5.58957">
        <ele>492.85</ele>
        <time>2019-04-14T10:39:38.000Z</time>
      </trkpt>
      <trkpt lat="45.26435" lon="5.58937">
        <ele>493.65</ele>
        <time>2019-04-14T10:39:43.000Z</time>
      </trkpt>
      <trkpt lat="45.26433" lon="5.58916">
        <ele>496.81</ele>
        <time>2019-04-14T10:39:48.000Z</time>
      </trkpt>
      <trkpt lat="45.26435" lon="5.58895">
        <ele>493.87</ele>
        <time>2019-04-14T10:39:53.000Z</time>
      </trkpt>
      <trkpt lat="45.26439" lon="5.58872">
        <ele>496.35</ele>
        <time>2019-04-14T10:39:58.000Z</time>
      </trkpt>
      <trkpt lat="45.26446" lon="5.5885">
        <ele>503.14</ele>
        <time>2019-04-14T10:40:03.000Z</time>
      </trkpt>
      <trkpt lat="45.26447" lon="5.58832">
        <ele>506.41</ele>
        <time>2019-04-14T10:40:08.000Z</time>
      </trkpt>
      <trkpt lat="45.2644" lon="5.58816">
        <ele>510.91</ele>
        <time>2019-04-14T10:40:13.000Z</time>
      </trkpt>
      <trkpt lat="45.26435" lon="5.58796">
        <ele>513.74</ele>
        <time>2019-04-14T10:40:18.000Z</time>
      </trkpt>
      <trkpt lat="45.26432" lon="5.58777">
        <ele>517.11</ele>
        <time>2019-04-14T10:40:23.000Z</time>
      </trkpt>
      <trkpt lat="45.26431" lon="5.58754">
        <ele>520.04</ele>
        <time>2019-04-14T10:40:28.000Z</time>
      </trkpt>
      <trkpt lat="45.26437" lon="5.58731">
        <ele>525.12</ele>
        <time>2019-04-14T10:40:33.000Z</time>
      </trkpt>
      <trkpt lat="45.2644" lon="5.58699">
        <ele>527.25</ele>
        <time>2019-04-14T10:40:38.000Z</time>
      </trkpt>
      <trkpt lat="45.26438" lon="5.58676">
        <ele>522.04</ele>
        <time>2019-04-14T10:40:43.000Z</time>
      </trkpt>
      <trkpt lat="45.26448" lon="5.58648">
        <ele>521.87</ele>
        <time>2019-04-14T10:40:48.000Z</time>
      </trkpt>
      <trkpt lat="45.26455" lon="5.58626">
        <ele>524.99</ele>
        <time>2019-04-14T10:40:53.000Z</time>
      </trkpt>
      <trkpt lat="45.26451" lon="5.58602">
        <ele>528.95</ele>
        <time>2019-04-14T10:40:58.000Z</time>
      </trkpt>
      <trkpt lat="45.26437" lon="5.58592">
        <ele>531.04</ele>
        <time>2019-04-14T10:41:03.000Z</time>
      </trkpt>
      <trkpt lat="45.26427" lon="5.58596">
        <ele>535.91</ele>
        <time>2019-04-14T10:41:09.000Z</time>
      </trkpt>
      <trkpt lat="45.26411" lon="5.586">
        <ele>535.12</ele>
        <time>2019-04-14T10:41:14.000Z</time>
      </trkpt>
      <trkpt lat="45.26395" lon="5.5859">
        <ele>540.18</ele>
        <time>2019-04-14T10:41:19.000Z</time>
      </trkpt>
      <trkpt lat="45.26383" lon="5.58572">
        <ele>542.05</ele>
        <time>2019-04-14T10:41:24.000Z</time>
      </trkpt>
      <trkpt lat="45.26373" lon="5.5856">
        <ele>542.97</ele>
        <time>2019-04-14T10:41:29.000Z</time>
      </trkpt>
      <trkpt lat="45.26366" lon="5.58545">
        <ele>548.93</ele>
        <time>2019-04-14T10:41:34.000Z</time>
      </trkpt>
      <trkpt lat="45.26358" lon="5.58527">
        <ele>552.4</ele>
        <time>2019-04-14T10:41:39.000Z</time>
      </trkpt>
      <trkpt lat="45.26348" lon="5.58508">
        <ele>558.21</ele>
        <time>2019-04-14T10:41:44.000Z</time>
      </trkpt>
      <trkpt lat="45.26347" lon="5.58486">
        <ele>559.65</ele>
        <time>2019-04-14T10:41:49.000Z</time>
      </trkpt>
      <trkpt lat="45.26343" lon="5.58459">
        <ele>558.05</ele>
        <time>2019-04-14T10:41:54.000Z</time>
      </trkpt>
      <trkpt lat="45.2634" lon="5.58435">
        <ele>560.99</ele>
        <time>2019-04-14T10:41:59.000Z</time>
      </trkpt>
      <trkpt lat="45.26332" lon="5.58411">
        <ele>560.1</ele>
        <time>2019-04-14T10:42:04.000Z</time>
      </trkpt>
      <trkpt lat="45.26321" lon="5.58398">
        <ele>560.78</ele>
        <time>2019-04-14T10:42:09.000Z</time>
      </trkpt>
      <trkpt lat="45.26309" lon="5.58384">
        <ele>560.38</ele>
        <time>2019-04-14T10:42:14.000Z</time>
      </trkpt>
      <trkpt lat="45.26299" lon="5.58368">
        <ele>559.48</ele>
        <time>2019-04-14T10:42:19.000Z</time>
      </trkpt>
      <trkpt lat="45.26292" lon="5.58348">
        <ele>562.72</ele>
        <time>2019-04-14T10:42:24.000Z</time>
      </trkpt>
      <trkpt lat="45.26288" lon="5.58328">
        <ele>564</ele>
        <time>2019-04-14T10:42:29.000Z</time>
      </trkpt>
      <trkpt lat="45.26279" lon="5.58302">
        <ele>565.33</ele>
        <time>2019-04-14T10:42:34.000Z</time>
      </trkpt>
      <trkpt lat="45.26275" lon="5.58275">
        <ele>566.65</ele>
        <time>2019-04-14T10:42:39.000Z</time>
      </trkpt>
      <trkpt lat="45.26279" lon="5.58249">
        <ele>567.17</ele>
        <time>2019-04-14T10:42:44.000Z</time>
      </trkpt>
      <trkpt lat="45.26279" lon="5.58224">
        <ele>569.48</ele>
        <time>2019-04-14T10:42:49.000Z</time>
      </trkpt>
      <trkpt lat="45.2627" lon="5.58207">
        <ele>575.79</ele>
        <time>2019-04-14T10:42:54.000Z</time>
      </trkpt>
      <trkpt lat="45.2626" lon="5.58191">
        <ele>578.85</ele>
        <time>2019-04-14T10:42:59.000Z</time>
      </trkpt>
      <trkpt lat="45.26251" lon="5.58177">
        <ele>578.35</ele>
        <time>2019-04-14T10:43:04.000Z</time>
      </trkpt>
      <trkpt lat="45.2625" lon="5.58159">
        <ele>581.8</ele>
        <time>2019-04-14T10:43:09.000Z</time>
      </trkpt>
      <trkpt lat="45.26262" lon="5.58162">
        <ele>581.16</ele>
        <time>2019-04-14T10:43:17.000Z</time>
      </trkpt>
      <trkpt lat="45.26272" lon="5.58172">
        <ele>586.05</ele>
        <time>2019-04-14T10:43:22.000Z</time>
      </trkpt>
      <trkpt lat="45.26281" lon="5.58182">
        <ele>594.43</ele>
        <time>2019-04-14T10:43:27.000Z</time>
      </trkpt>
      <trkpt lat="45.26295" lon="5.5819">
        <ele>596.4</ele>
        <time>2019-04-14T10:43:32.000Z</time>
      </trkpt>
      <trkpt lat="45.26314" lon="5.58196">
        <ele>595.12</ele>
        <time>2019-04-14T10:43:37.000Z</time>
      </trkpt>
      <trkpt lat="45.26352" lon="5.58192">
        <ele>594.8</ele>
        <time>2019-04-14T10:43:42.000Z</time>
      </trkpt>
      <trkpt lat="45.26365" lon="5.58195">
        <ele>599.64</ele>
        <time>2019-04-14T10:43:47.000Z</time>
      </trkpt>
      <trkpt lat="45.26382" lon="5.58196">
        <ele>599.64</ele>
        <time>2019-04-14T10:43:52.000Z</time>
      </trkpt>
      <trkpt lat="45.26393" lon="5.58181">
        <ele>601.89</ele>
        <time>2019-04-14T10:43:57.000Z</time>
      </trkpt>
      <trkpt lat="45.26393" lon="5.58159">
        <ele>605.28</ele>
        <time>2019-04-14T10:44:02.000Z</time>
      </trkpt>
      <trkpt lat="45.26389" lon="5.58136">
        <ele>603.97</ele>
        <time>2019-04-14T10:44:07.000Z</time>
      </trkpt>
      <trkpt lat="45.26389" lon="5.5811">
        <ele>606.25</ele>
        <time>2019-04-14T10:44:12.000Z</time>
      </trkpt>
      <trkpt lat="45.26389" lon="5.58085">
        <ele>608.25</ele>
        <time>2019-04-14T10:44:17.000Z</time>
      </trkpt>
      <trkpt lat="45.26389" lon="5.58061">
        <ele>611.57</ele>
        <time>2019-04-14T10:44:22.000Z</time>
      </trkpt>
      <trkpt lat="45.26386" lon="5.58038">
        <ele>612.29</ele>
        <time>2019-04-14T10:44:27.000Z</time>
      </trkpt>
      <trkpt lat="45.26381" lon="5.58014">
        <ele>611.63</ele>
        <time>2019-04-14T10:44:32.000Z</time>
      </trkpt>
      <trkpt lat="45.26375" lon="5.57991">
        <ele>609.54</ele>
        <time>2019-04-14T10:44:37.000Z</time>
      </trkpt>
      <trkpt lat="45.2637" lon="5.57971">
        <ele>613.26</ele>
        <time>2019-04-14T10:44:42.000Z</time>
      </trkpt>
      <trkpt lat="45.26367" lon="5.57945">
        <ele>614.98</ele>
        <time>2019-04-14T10:44:47.000Z</time>
      </trkpt>
      <trkpt lat="45.26362" lon="5.57921">
        <ele>611.76</ele>
        <time>2019-04-14T10:44:52.000Z</time>
      </trkpt>
      <trkpt lat="45.2636" lon="5.57897">
        <ele>613.52</ele>
        <time>2019-04-14T10:44:57.000Z</time>
      </trkpt>
      <trkpt lat="45.26358" lon="5.57873">
        <ele>615.54</ele>
        <time>2019-04-14T10:45:02.000Z</time>
      </trkpt>
      <trkpt lat="45.26353" lon="5.57851">
        <ele>617.34</ele>
        <time>2019-04-14T10:45:07.000Z</time>
      </trkpt>
      <trkpt lat="45.26352" lon="5.57826">
        <ele>621.45</ele>
        <time>2019-04-14T10:45:12.000Z</time>
      </trkpt>
      <trkpt lat="45.26355" lon="5.57801">
        <ele>624.14</ele>
        <time>2019-04-14T10:45:17.000Z</time>
      </trkpt>
      <trkpt lat="45.26352" lon="5.57779">
        <ele>626.26</ele>
        <time>2019-04-14T10:45:22.000Z</time>
      </trkpt>
      <trkpt lat="45.26349" lon="5.57756">
        <ele>628.07</ele>
        <time>2019-04-14T10:45:27.000Z</time>
      </trkpt>
      <trkpt lat="45.26341" lon="5.57737">
        <ele>627.99</ele>
        <time>2019-04-14T10:45:32.000Z</time>
      </trkpt>
      <trkpt lat="45.26331" lon="5.5772">
        <ele>630.68</ele>
        <time>2019-04-14T10:45:37.000Z</time>
      </trkpt>
      <trkpt lat="45.26323" lon="5.57702">
        <ele>631.97</ele>
        <time>2019-04-14T10:45:42.000Z</time>
      </trkpt>
      <trkpt lat="45.26315" lon="5.57683">
        <ele>632.65</ele>
        <time>2019-04-14T10:45:47.000Z</time>
      </trkpt>
      <trkpt lat="45.26307" lon="5.57661">
        <ele>635.22</ele>
        <time>2019-04-14T10:45:52.000Z</time>
      </trkpt>
      <trkpt lat="45.26305" lon="5.57635">
        <ele>637.6</ele>
        <time>2019-04-14T10:45:57.000Z</time>
      </trkpt>
      <trkpt lat="45.2631" lon="5.5761">
        <ele>639.13</ele>
        <time>2019-04-14T10:46:02.000Z</time>
      </trkpt>
      <trkpt lat="45.26317" lon="5.57588">
        <ele>641.4</ele>
        <time>2019-04-14T10:46:07.000Z</time>
      </trkpt>
      <trkpt lat="45.26326" lon="5.57568">
        <ele>643.14</ele>
        <time>2019-04-14T10:46:12.000Z</time>
      </trkpt>
      <trkpt lat="45.26336" lon="5.57546">
        <ele>643.8</ele>
        <time>2019-04-14T10:46:17.000Z</time>
      </trkpt>
      <trkpt lat="45.26342" lon="5.57523">
        <ele>645.21</ele>
        <time>2019-04-14T10:46:22.000Z</time>
      </trkpt>
      <trkpt lat="45.26344" lon="5.57499">
        <ele>644.35</ele>
        <time>2019-04-14T10:46:27.000Z</time>
      </trkpt>
      <trkpt lat="45.26341" lon="5.57475">
        <ele>643.5</ele>
        <time>2019-04-14T10:46:32.000Z</time>
      </trkpt>
      <trkpt lat="45.26334" lon="5.57451">
        <ele>643.26</ele>
        <time>2019-04-14T10:46:37.000Z</time>
      </trkpt>
      <trkpt lat="45.26326" lon="5.57427">
        <ele>644.06</ele>
        <time>2019-04-14T10:46:42.000Z</time>
      </trkpt>
      <trkpt lat="45.2632" lon="5.57406">
        <ele>648.73</ele>
        <time>2019-04-14T10:46:47.000Z</time>
      </trkpt>
      <trkpt lat="45.26317" lon="5.57392">
        <ele>646.33</ele>
        <time>2019-04-14T10:46:52.000Z</time>
      </trkpt>
      <trkpt lat="45.26307" lon="5.5739">
        <ele>652.1</ele>
        <time>2019-04-14T10:49:37.000Z</time>
      </trkpt>
      <trkpt lat="45.2629" lon="5.57378">
        <ele>653.1</ele>
        <time>2019-04-14T10:49:42.000Z</time>
      </trkpt>
      <trkpt lat="45.26272" lon="5.57371">
        <ele>656.52</ele>
        <time>2019-04-14T10:49:47.000Z</time>
      </trkpt>
      <trkpt lat="45.26254" lon="5.57369">
        <ele>660.31</ele>
        <time>2019-04-14T10:49:52.000Z</time>
      </trkpt>
      <trkpt lat="45.26236" lon="5.57374">
        <ele>662.74</ele>
        <time>2019-04-14T10:49:57.000Z</time>
      </trkpt>
      <trkpt lat="45.26219" lon="5.57385">
        <ele>664.64</ele>
        <time>2019-04-14T10:50:02.000Z</time>
      </trkpt>
      <trkpt lat="45.26202" lon="5.57401">
        <ele>666.82</ele>
        <time>2019-04-14T10:50:07.000Z</time>
      </trkpt>
      <trkpt lat="45.26188" lon="5.57421">
        <ele>667.52</ele>
        <time>2019-04-14T10:50:12.000Z</time>
      </trkpt>
      <trkpt lat="45.26174" lon="5.57438">
        <ele>671.73</ele>
        <time>2019-04-14T10:50:17.000Z</time>
      </trkpt>
      <trkpt lat="45.2616" lon="5.5745">
        <ele>675.24</ele>
        <time>2019-04-14T10:50:22.000Z</time>
      </trkpt>
      <trkpt lat="45.26145" lon="5.57463">
        <ele>677.92</ele>
        <time>2019-04-14T10:50:27.000Z</time>
      </trkpt>
      <trkpt lat="45.26132" lon="5.57478">
        <ele>679.2</ele>
        <time>2019-04-14T10:50:32.000Z</time>
      </trkpt>
      <trkpt lat="45.26121" lon="5.57495">
        <ele>680.11</ele>
        <time>2019-04-14T10:50:37.000Z</time>
      </trkpt>
      <trkpt lat="45.26113" lon="5.57513">
        <ele>685.29</ele>
        <time>2019-04-14T10:50:42.000Z</time>
      </trkpt>
      <trkpt lat="45.26103" lon="5.57532">
        <ele>686.83</ele>
        <time>2019-04-14T10:50:47.000Z</time>
      </trkpt>
      <trkpt lat="45.26092" lon="5.57551">
        <ele>687.28</ele>
        <time>2019-04-14T10:50:52.000Z</time>
      </trkpt>
      <trkpt lat="45.26076" lon="5.57568">
        <ele>686.79</ele>
        <time>2019-04-14T10:50:57.000Z</time>
      </trkpt>
      <trkpt lat="45.26059" lon="5.57583">
        <ele>688.32</ele>
        <time>2019-04-14T10:51:02.000Z</time>
      </trkpt>
      <trkpt lat="45.26041" lon="5.57592">
        <ele>686.85</ele>
        <time>2019-04-14T10:51:07.000Z</time>
      </trkpt>
      <trkpt lat="45.26027" lon="5.57582">
        <ele>688.3</ele>
        <time>2019-04-14T10:51:12.000Z</time>
      </trkpt>
      <trkpt lat="45.26022" lon="5.57554">
        <ele>690.73</ele>
        <time>2019-04-14T10:51:17.000Z</time>
      </trkpt>
      <trkpt lat="45.26021" lon="5.57528">
        <ele>693.71</ele>
        <time>2019-04-14T10:51:22.000Z</time>
      </trkpt>
      <trkpt lat="45.26018" lon="5.5751">
        <ele>702.61</ele>
        <time>2019-04-14T10:51:27.000Z</time>
      </trkpt>
      <trkpt lat="45.26017" lon="5.57497">
        <ele>700.46</ele>
        <time>2019-04-14T10:51:33.000Z</time>
      </trkpt>
      <trkpt lat="45.2602" lon="5.57484">
        <ele>697.68</ele>
        <time>2019-04-14T10:51:41.000Z</time>
      </trkpt>
      <trkpt lat="45.26023" lon="5.5747">
        <ele>701.81</ele>
        <time>2019-04-14T10:51:48.000Z</time>
      </trkpt>
      <trkpt lat="45.26028" lon="5.57457">
        <ele>705.72</ele>
        <time>2019-04-14T10:52:32.000Z</time>
      </trkpt>
      <trkpt lat="45.26034" lon="5.57439">
        <ele>709.12</ele>
        <time>2019-04-14T10:52:37.000Z</time>
      </trkpt>
      <trkpt lat="45.26043" lon="5.57412">
        <ele>710.87</ele>
        <time>2019-04-14T10:52:42.000Z</time>
      </trkpt>
      <trkpt lat="45.26052" lon="5.57386">
        <ele>708.79</ele>
        <time>2019-04-14T10:52:47.000Z</time>
      </trkpt>
      <trkpt lat="45.2606" lon="5.57359">
        <ele>704.45</ele>
        <time>2019-04-14T10:52:52.000Z</time>
      </trkpt>
      <trkpt lat="45.2607" lon="5.57332">
        <ele>703.71</ele>
        <time>2019-04-14T10:52:57.000Z</time>
      </trkpt>
      <trkpt lat="45.26083" lon="5.573">
        <ele>704.79</ele>
        <time>2019-04-14T10:53:02.000Z</time>
      </trkpt>
      <trkpt lat="45.26094" lon="5.57266">
        <ele>706.52</ele>
        <time>2019-04-14T10:53:07.000Z</time>
      </trkpt>
      <trkpt lat="45.26103" lon="5.57238">
        <ele>705.78</ele>
        <time>2019-04-14T10:53:12.000Z</time>
      </trkpt>
      <trkpt lat="45.26113" lon="5.57208">
        <ele>703.41</ele>
        <time>2019-04-14T10:53:17.000Z</time>
      </trkpt>
      <trkpt lat="45.26127" lon="5.57173">
        <ele>703.94</ele>
        <time>2019-04-14T10:53:22.000Z</time>
      </trkpt>
      <trkpt lat="45.26136" lon="5.5714">
        <ele>703.43</ele>
        <time>2019-04-14T10:53:27.000Z</time>
      </trkpt>
      <trkpt lat="45.26146" lon="5.57106">
        <ele>704.85</ele>
        <time>2019-04-14T10:53:32.000Z</time>
      </trkpt>
      <trkpt lat="45.26152" lon="5.57071">
        <ele>700.06</ele>
        <time>2019-04-14T10:53:37.000Z</time>
      </trkpt>
      <trkpt lat="45.26156" lon="5.57035">
        <ele>699.76</ele>
        <time>2019-04-14T10:53:42.000Z</time>
      </trkpt>
      <trkpt lat="45.26156" lon="5.56997">
        <ele>696.77</ele>
        <time>2019-04-14T10:53:47.000Z</time>
      </trkpt>
      <trkpt lat="45.26164" lon="5.56951">
        <ele>696.66</ele>
        <time>2019-04-14T10:53:52.000Z</time>
      </trkpt>
      <trkpt lat="45.26164" lon="5.56912">
        <ele>697.66</ele>
        <time>2019-04-14T10:53:57.000Z</time>
      </trkpt>
      <trkpt lat="45.26171" lon="5.56867">
        <ele>696.42</ele>
        <time>2019-04-14T10:54:02.000Z</time>
      </trkpt>
      <trkpt lat="45.26183" lon="5.56827">
        <ele>699.34</ele>
        <time>2019-04-14T10:54:07.000Z</time>
      </trkpt>
      <trkpt lat="45.262" lon="5.56793">
        <ele>698.32</ele>
        <time>2019-04-14T10:54:12.000Z</time>
      </trkpt>
      <trkpt lat="45.26222" lon="5.56759">
        <ele>700.17</ele>
        <time>2019-04-14T10:54:17.000Z</time>
      </trkpt>
      <trkpt lat="45.2624" lon="5.56723">
        <ele>700.53</ele>
        <time>2019-04-14T10:54:22.000Z</time>
      </trkpt>
      <trkpt lat="45.26253" lon="5.5669">
        <ele>696.97</ele>
        <time>2019-04-14T10:54:27.000Z</time>
      </trkpt>
      <trkpt lat="45.26267" lon="5.5666">
        <ele>701.15</ele>
        <time>2019-04-14T10:54:32.000Z</time>
      </trkpt>
      <trkpt lat="45.2628" lon="5.56632">
        <ele>703.23</ele>
        <time>2019-04-14T10:54:37.000Z</time>
      </trkpt>
      <trkpt lat="45.2629" lon="5.56605">
        <ele>703.71</ele>
        <time>2019-04-14T10:54:42.000Z</time>
      </trkpt>
      <trkpt lat="45.26307" lon="5.56587">
        <ele>703.84</ele>
        <time>2019-04-14T10:54:47.000Z</time>
      </trkpt>
      <trkpt lat="45.26331" lon="5.56594">
        <ele>701.69</ele>
        <time>2019-04-14T10:54:52.000Z</time>
      </trkpt>
      <trkpt lat="45.26344" lon="5.56598">
        <ele>695.88</ele>
        <time>2019-04-14T10:54:57.000Z</time>
      </trkpt>
      <trkpt lat="45.26362" lon="5.56607">
        <ele>690.52</ele>
        <time>2019-04-14T10:55:02.000Z</time>
      </trkpt>
      <trkpt lat="45.26369" lon="5.56624">
        <ele>689.11</ele>
        <time>2019-04-14T10:55:07.000Z</time>
      </trkpt>
      <trkpt lat="45.26373" lon="5.56639">
        <ele>687.67</ele>
        <time>2019-04-14T10:55:12.000Z</time>
      </trkpt>
      <trkpt lat="45.26381" lon="5.56644">
        <ele>699.07</ele>
        <time>2019-04-14T10:55:26.000Z</time>
      </trkpt>
      <trkpt lat="45.26374" lon="5.56636">
        <ele>695.7</ele>
        <time>2019-04-14T10:56:15.000Z</time>
      </trkpt>
      <trkpt lat="45.26371" lon="5.56624">
        <ele>692.22</ele>
        <time>2019-04-14T10:56:23.000Z</time>
      </trkpt>
      <trkpt lat="45.26382" lon="5.56619">
        <ele>682.1</ele>
        <time>2019-04-14T10:57:32.000Z</time>
      </trkpt>
      <trkpt lat="45.26405" lon="5.56622">
        <ele>681.03</ele>
        <time>2019-04-14T10:57:37.000Z</time>
      </trkpt>
      <trkpt lat="45.26425" lon="5.5662">
        <ele>679.35</ele>
        <time>2019-04-14T10:57:42.000Z</time>
      </trkpt>
      <trkpt lat="45.26442" lon="5.56612">
        <ele>676.75</ele>
        <time>2019-04-14T10:57:47.000Z</time>
      </trkpt>
      <trkpt lat="45.26468" lon="5.56612">
        <ele>673.66</ele>
        <time>2019-04-14T10:57:52.000Z</time>
      </trkpt>
      <trkpt lat="45.26497" lon="5.5659">
        <ele>671.97</ele>
        <time>2019-04-14T10:57:57.000Z</time>
      </trkpt>
      <trkpt lat="45.26516" lon="5.56547">
        <ele>670.15</ele>
        <time>2019-04-14T10:58:02.000Z</time>
      </trkpt>
      <trkpt lat="45.26544" lon="5.56516">
        <ele>670.62</ele>
        <time>2019-04-14T10:58:07.000Z</time>
      </trkpt>
      <trkpt lat="45.26573" lon="5.56475">
        <ele>672.35</ele>
        <time>2019-04-14T10:58:12.000Z</time>
      </trkpt>
      <trkpt lat="45.26593" lon="5.56423">
        <ele>670.56</ele>
        <time>2019-04-14T10:58:17.000Z</time>
      </trkpt>
      <trkpt lat="45.26621" lon="5.56381">
        <ele>668.67</ele>
        <time>2019-04-14T10:58:22.000Z</time>
      </trkpt>
      <trkpt lat="45.26652" lon="5.56367">
        <ele>666.64</ele>
        <time>2019-04-14T10:58:27.000Z</time>
      </trkpt>
      <trkpt lat="45.26663" lon="5.56328">
        <ele>669.09</ele>
        <time>2019-04-14T10:58:32.000Z</time>
      </trkpt>
      <trkpt lat="45.26674" lon="5.5628">
        <ele>665.94</ele>
        <time>2019-04-14T10:58:37.000Z</time>
      </trkpt>
      <trkpt lat="45.267" lon="5.56226">
        <ele>665.47</ele>
        <time>2019-04-14T10:58:42.000Z</time>
      </trkpt>
      <trkpt lat="45.26739" lon="5.56182">
        <ele>667.24</ele>
        <time>2019-04-14T10:58:47.000Z</time>
      </trkpt>
      <trkpt lat="45.26766" lon="5.56126">
        <ele>666.96</ele>
        <time>2019-04-14T10:58:52.000Z</time>
      </trkpt>
      <trkpt lat="45.26782" lon="5.56056">
        <ele>662.36</ele>
        <time>2019-04-14T10:58:57.000Z</time>
      </trkpt>
      <trkpt lat="45.26784" lon="5.56001">
        <ele>657.18</ele>
        <time>2019-04-14T10:59:02.000Z</time>
      </trkpt>
      <trkpt lat="45.26798" lon="5.55936">
        <ele>652.51</ele>
        <time>2019-04-14T10:59:07.000Z</time>
      </trkpt>
      <trkpt lat="45.26817" lon="5.55863">
        <ele>647.19</ele>
        <time>2019-04-14T10:59:12.000Z</time>
      </trkpt>
      <trkpt lat="45.26833" lon="5.55787">
        <ele>647.85</ele>
        <time>2019-04-14T10:59:17.000Z</time>
      </trkpt>
      <trkpt lat="45.26844" lon="5.55728">
        <ele>642.35</ele>
        <time>2019-04-14T10:59:22.000Z</time>
      </trkpt>
      <trkpt lat="45.26863" lon="5.55674">
        <ele>633.45</ele>
        <time>2019-04-14T10:59:27.000Z</time>
      </trkpt>
      <trkpt lat="45.26894" lon="5.55626">
        <ele>625.8</ele>
        <time>2019-04-14T10:59:32.000Z</time>
      </trkpt>
      <trkpt lat="45.26941" lon="5.55621">
        <ele>620.43</ele>
        <time>2019-04-14T10:59:37.000Z</time>
      </trkpt>
      <trkpt lat="45.26966" lon="5.55627">
        <ele>614.26</ele>
        <time>2019-04-14T10:59:42.000Z</time>
      </trkpt>
      <trkpt lat="45.26995" lon="5.55649">
        <ele>610.06</ele>
        <time>2019-04-14T10:59:47.000Z</time>
      </trkpt>
      <trkpt lat="45.27023" lon="5.55687">
        <ele>608.46</ele>
        <time>2019-04-14T10:59:52.000Z</time>
      </trkpt>
      <trkpt lat="45.27049" lon="5.55702">
        <ele>607.3</ele>
        <time>2019-04-14T10:59:57.000Z</time>
      </trkpt>
      <trkpt lat="45.27059" lon="5.55703">
        <ele>603.99</ele>
        <time>2019-04-14T11:02:16.000Z</time>
      </trkpt>
      <trkpt lat="45.27067" lon="5.55708">
        <ele>605.47</ele>
        <time>2019-04-14T11:02:22.000Z</time>
      </trkpt>
      <trkpt lat="45.27089" lon="5.55726">
        <ele>610.74</ele>
        <time>2019-04-14T11:02:27.000Z</time>
      </trkpt>
      <trkpt lat="45.27105" lon="5.55744">
        <ele>606.92</ele>
        <time>2019-04-14T11:02:32.000Z</time>
      </trkpt>
      <trkpt lat="45.27116" lon="5.55757">
        <ele>602.4</ele>
        <time>2019-04-14T11:02:37.000Z</time>
      </trkpt>
      <trkpt lat="45.27126" lon="5.5576">
        <ele>601.34</ele>
        <time>2019-04-14T11:02:53.000Z</time>
      </trkpt>
      <trkpt lat="45.27152" lon="5.55772">
        <ele>598.62</ele>
        <time>2019-04-14T11:02:58.000Z</time>
      </trkpt>
      <trkpt lat="45.27188" lon="5.55783">
        <ele>596.84</ele>
        <time>2019-04-14T11:03:03.000Z</time>
      </trkpt>
      <trkpt lat="45.27229" lon="5.5579">
        <ele>592.39</ele>
        <time>2019-04-14T11:03:08.000Z</time>
      </trkpt>
      <trkpt lat="45.27276" lon="5.55796">
        <ele>589.83</ele>
        <time>2019-04-14T11:03:13.000Z</time>
      </trkpt>
      <trkpt lat="45.27318" lon="5.55798">
        <ele>589.2</ele>
        <time>2019-04-14T11:03:18.000Z</time>
      </trkpt>
      <trkpt lat="45.27359" lon="5.55828">
        <ele>586.85</ele>
        <time>2019-04-14T11:03:23.000Z</time>
      </trkpt>
      <trkpt lat="45.27387" lon="5.55849">
        <ele>584.25</ele>
        <time>2019-04-14T11:03:28.000Z</time>
      </trkpt>
      <trkpt lat="45.27417" lon="5.55857">
        <ele>580.94</ele>
        <time>2019-04-14T11:03:33.000Z</time>
      </trkpt>
      <trkpt lat="45.2746" lon="5.55873">
        <ele>578.86</ele>
        <time>2019-04-14T11:03:38.000Z</time>
      </trkpt>
      <trkpt lat="45.27503" lon="5.55914">
        <ele>574.89</ele>
        <time>2019-04-14T11:03:43.000Z</time>
      </trkpt>
      <trkpt lat="45.27547" lon="5.55962">
        <ele>570.84</ele>
        <time>2019-04-14T11:03:48.000Z</time>
      </trkpt>
      <trkpt lat="45.27595" lon="5.56005">
        <ele>567.91</ele>
        <time>2019-04-14T11:03:53.000Z</time>
      </trkpt>
      <trkpt lat="45.27648" lon="5.56043">
        <ele>561.37</ele>
        <time>2019-04-14T11:03:58.000Z</time>
      </trkpt>
      <trkpt lat="45.27692" lon="5.56071">
        <ele>557.3</ele>
        <time>2019-04-14T11:04:03.000Z</time>
      </trkpt>
      <trkpt lat="45.27731" lon="5.56113">
        <ele>551.58</ele>
        <time>2019-04-14T11:04:08.000Z</time>
      </trkpt>
      <trkpt lat="45.27757" lon="5.56161">
        <ele>545.68</ele>
        <time>2019-04-14T11:04:13.000Z</time>
      </trkpt>
      <trkpt lat="45.27779" lon="5.56173">
        <ele>539.2</ele>
        <time>2019-04-14T11:04:18.000Z</time>
      </trkpt>
      <trkpt lat="45.27782" lon="5.56134">
        <ele>539.08</ele>
        <time>2019-04-14T11:04:23.000Z</time>
      </trkpt>
      <trkpt lat="45.27769" lon="5.56081">
        <ele>534.82</ele>
        <time>2019-04-14T11:04:28.000Z</time>
      </trkpt>
      <trkpt lat="45.27748" lon="5.56016">
        <ele>532.98</ele>
        <time>2019-04-14T11:04:33.000Z</time>
      </trkpt>
      <trkpt lat="45.27722" lon="5.55954">
        <ele>531.18</ele>
        <time>2019-04-14T11:04:38.000Z</time>
      </trkpt>
      <trkpt lat="45.27688" lon="5.55894">
        <ele>526.81</ele>
        <time>2019-04-14T11:04:43.000Z</time>
      </trkpt>
      <trkpt lat="45.27662" lon="5.55831">
        <ele>525.48</ele>
        <time>2019-04-14T11:04:48.000Z</time>
      </trkpt>
      <trkpt lat="45.27649" lon="5.55771">
        <ele>521.48</ele>
        <time>2019-04-14T11:04:53.000Z</time>
      </trkpt>
      <trkpt lat="45.27648" lon="5.55757">
        <ele>515.25</ele>
        <time>2019-04-14T11:04:58.000Z</time>
      </trkpt>
      <trkpt lat="45.27641" lon="5.55748">
        <ele>496.88</ele>
        <time>2019-04-14T11:07:46.000Z</time>
      </trkpt>
      <trkpt lat="45.27608" lon="5.55724">
        <ele>487.78</ele>
        <time>2019-04-14T11:07:51.000Z</time>
      </trkpt>
      <trkpt lat="45.27575" lon="5.55696">
        <ele>478.58</ele>
        <time>2019-04-14T11:07:56.000Z</time>
      </trkpt>
      <trkpt lat="45.2753" lon="5.55657">
        <ele>474.82</ele>
        <time>2019-04-14T11:08:01.000Z</time>
      </trkpt>
      <trkpt lat="45.27497" lon="5.55606">
        <ele>475.21</ele>
        <time>2019-04-14T11:08:06.000Z</time>
      </trkpt>
      <trkpt lat="45.27462" lon="5.55537">
        <ele>472.58</ele>
        <time>2019-04-14T11:08:11.000Z</time>
      </trkpt>
      <trkpt lat="45.27413" lon="5.55483">
        <ele>462.78</ele>
        <time>2019-04-14T11:08:16.000Z</time>
      </trkpt>
      <trkpt lat="45.27372" lon="5.55414">
        <ele>462.18</ele>
        <time>2019-04-14T11:08:21.000Z</time>
      </trkpt>
      <trkpt lat="45.27325" lon="5.55353">
        <ele>461.91</ele>
        <time>2019-04-14T11:08:26.000Z</time>
      </trkpt>
      <trkpt lat="45.27303" lon="5.55278">
        <ele>460.59</ele>
        <time>2019-04-14T11:08:31.000Z</time>
      </trkpt>
      <trkpt lat="45.27306" lon="5.5522">
        <ele>457.49</ele>
        <time>2019-04-14T11:08:36.000Z</time>
      </trkpt>
      <trkpt lat="45.27311" lon="5.55163">
        <ele>455.19</ele>
        <time>2019-04-14T11:08:41.000Z</time>
      </trkpt>
      <trkpt lat="45.27314" lon="5.55131">
        <ele>447.25</ele>
        <time>2019-04-14T11:08:46.000Z</time>
      </trkpt>
      <trkpt lat="45.27324" lon="5.55181">
        <ele>440.53</ele>
        <time>2019-04-14T11:08:51.000Z</time>
      </trkpt>
      <trkpt lat="45.27354" lon="5.55238">
        <ele>435.2</ele>
        <time>2019-04-14T11:08:56.000Z</time>
      </trkpt>
      <trkpt lat="45.274" lon="5.55279">
        <ele>427.28</ele>
        <time>2019-04-14T11:09:01.000Z</time>
      </trkpt>
      <trkpt lat="45.27452" lon="5.55324">
        <ele>417.18</ele>
        <time>2019-04-14T11:09:06.000Z</time>
      </trkpt>
      <trkpt lat="45.27492" lon="5.55382">
        <ele>413.56</ele>
        <time>2019-04-14T11:09:11.000Z</time>
      </trkpt>
      <trkpt lat="45.2754" lon="5.55442">
        <ele>411.74</ele>
        <time>2019-04-14T11:09:16.000Z</time>
      </trkpt>
      <trkpt lat="45.27594" lon="5.55501">
        <ele>405</ele>
        <time>2019-04-14T11:09:21.000Z</time>
      </trkpt>
      <trkpt lat="45.27649" lon="5.55571">
        <ele>398.75</ele>
        <time>2019-04-14T11:09:26.000Z</time>
      </trkpt>
      <trkpt lat="45.27705" lon="5.55636">
        <ele>388.36</ele>
        <time>2019-04-14T11:09:31.000Z</time>
      </trkpt>
      <trkpt lat="45.27765" lon="5.55691">
        <ele>380.2</ele>
        <time>2019-04-14T11:09:36.000Z</time>
      </trkpt>
      <trkpt lat="45.2781" lon="5.55748">
        <ele>377.4</ele>
        <time>2019-04-14T11:09:41.000Z</time>
      </trkpt>
      <trkpt lat="45.27834" lon="5.5578">
        <ele>374.14</ele>
        <time>2019-04-14T11:09:46.000Z</time>
      </trkpt>
      <trkpt lat="45.27826" lon="5.55741">
        <ele>371.13</ele>
        <time>2019-04-14T11:09:51.000Z</time>
      </trkpt>
      <trkpt lat="45.27799" lon="5.55702">
        <ele>365.22</ele>
        <time>2019-04-14T11:09:56.000Z</time>
      </trkpt>
      <trkpt lat="45.27753" lon="5.55656">
        <ele>354.9</ele>
        <time>2019-04-14T11:10:01.000Z</time>
      </trkpt>
      <trkpt lat="45.2772" lon="5.55597">
        <ele>347.81</ele>
        <time>2019-04-14T11:10:06.000Z</time>
      </trkpt>
      <trkpt lat="45.2768" lon="5.55521">
        <ele>343.61</ele>
        <time>2019-04-14T11:10:11.000Z</time>
      </trkpt>
      <trkpt lat="45.27631" lon="5.55461">
        <ele>336.65</ele>
        <time>2019-04-14T11:10:16.000Z</time>
      </trkpt>
      <trkpt lat="45.27615" lon="5.55381">
        <ele>335.12</ele>
        <time>2019-04-14T11:10:21.000Z</time>
      </trkpt>
      <trkpt lat="45.27586" lon="5.55329">
        <ele>328.62</ele>
        <time>2019-04-14T11:10:26.000Z</time>
      </trkpt>
      <trkpt lat="45.27576" lon="5.55259">
        <ele>321.99</ele>
        <time>2019-04-14T11:10:31.000Z</time>
      </trkpt>
      <trkpt lat="45.27557" lon="5.55202">
        <ele>316.31</ele>
        <time>2019-04-14T11:10:36.000Z</time>
      </trkpt>
      <trkpt lat="45.27572" lon="5.55148">
        <ele>313.79</ele>
        <time>2019-04-14T11:10:41.000Z</time>
      </trkpt>
      <trkpt lat="45.2755" lon="5.55122">
        <ele>313.42</ele>
        <time>2019-04-14T11:10:46.000Z</time>
      </trkpt>
      <trkpt lat="45.2753" lon="5.55093">
        <ele>307.09</ele>
        <time>2019-04-14T11:10:51.000Z</time>
      </trkpt>
      <trkpt lat="45.27552" lon="5.55044">
        <ele>300.19</ele>
        <time>2019-04-14T11:10:56.000Z</time>
      </trkpt>
      <trkpt lat="45.27598" lon="5.55031">
        <ele>292.51</ele>
        <time>2019-04-14T11:11:01.000Z</time>
      </trkpt>
      <trkpt lat="45.2764" lon="5.54998">
        <ele>289.21</ele>
        <time>2019-04-14T11:11:06.000Z</time>
      </trkpt>
      <trkpt lat="45.27675" lon="5.54953">
        <ele>284.39</ele>
        <time>2019-04-14T11:11:11.000Z</time>
      </trkpt>
      <trkpt lat="45.27691" lon="5.54889">
        <ele>281.95</ele>
        <time>2019-04-14T11:11:16.000Z</time>
      </trkpt>
      <trkpt lat="45.27696" lon="5.54831">
        <ele>280.91</ele>
        <time>2019-04-14T11:11:21.000Z</time>
      </trkpt>
      <trkpt lat="45.27687" lon="5.54798">
        <ele>275.63</ele>
        <time>2019-04-14T11:11:26.000Z</time>
      </trkpt>
      <trkpt lat="45.27674" lon="5.54754">
        <ele>276.21</ele>
        <time>2019-04-14T11:11:31.000Z</time>
      </trkpt>
      <trkpt lat="45.27657" lon="5.54692">
        <ele>275.49</ele>
        <time>2019-04-14T11:11:36.000Z</time>
      </trkpt>
      <trkpt lat="45.27649" lon="5.5465">
        <ele>269.71</ele>
        <time>2019-04-14T11:11:41.000Z</time>
      </trkpt>
      <trkpt lat="45.27641" lon="5.54602">
        <ele>266.38</ele>
        <time>2019-04-14T11:11:46.000Z</time>
      </trkpt>
      <trkpt lat="45.27652" lon="5.54553">
        <ele>263.55</ele>
        <time>2019-04-14T11:11:51.000Z</time>
      </trkpt>
      <trkpt lat="45.27668" lon="5.54502">
        <ele>261.6</ele>
        <time>2019-04-14T11:11:56.000Z</time>
      </trkpt>
      <trkpt lat="45.27703" lon="5.54488">
        <ele>257.78</ele>
        <time>2019-04-14T11:12:01.000Z</time>
      </trkpt>
      <trkpt lat="45.27743" lon="5.54497">
        <ele>259.4</ele>
        <time>2019-04-14T11:12:06.000Z</time>
      </trkpt>
      <trkpt lat="45.27787" lon="5.54513">
        <ele>256.48</ele>
        <time>2019-04-14T11:12:11.000Z</time>
      </trkpt>
      <trkpt lat="45.27834" lon="5.54533">
        <ele>248.67</ele>
        <time>2019-04-14T11:12:16.000Z</time>
      </trkpt>
      <trkpt lat="45.27883" lon="5.54535">
        <ele>244.32</ele>
        <time>2019-04-14T11:12:21.000Z</time>
      </trkpt>
      <trkpt lat="45.27935" lon="5.54556">
        <ele>240.17</ele>
        <time>2019-04-14T11:12:26.000Z</time>
      </trkpt>
      <trkpt lat="45.27983" lon="5.5458">
        <ele>239.52</ele>
        <time>2019-04-14T11:12:31.000Z</time>
      </trkpt>
      <trkpt lat="45.2803" lon="5.54623">
        <ele>234.62</ele>
        <time>2019-04-14T11:12:36.000Z</time>
      </trkpt>
      <trkpt lat="45.28071" lon="5.54665">
        <ele>233.4</ele>
        <time>2019-04-14T11:12:41.000Z</time>
      </trkpt>
      <trkpt lat="45.28088" lon="5.54678">
        <ele>229.21</ele>
        <time>2019-04-14T11:12:46.000Z</time>
      </trkpt>
      <trkpt lat="45.28097" lon="5.54669">
        <ele>229.01</ele>
        <time>2019-04-14T11:12:51.000Z</time>
      </trkpt>
      <trkpt lat="45.281" lon="5.54655">
        <ele>232.08</ele>
        <time>2019-04-14T11:12:56.000Z</time>
      </trkpt>
      <trkpt lat="45.28099" lon="5.54643">
        <ele>228.51</ele>
        <time>2019-04-14T11:13:06.000Z</time>
      </trkpt>
      <trkpt lat="45.28097" lon="5.54629">
        <ele>228.13</ele>
        <time>2019-04-14T11:13:15.000Z</time>
      </trkpt>
      <trkpt lat="45.28096" lon="5.54616">
        <ele>223.09</ele>
        <time>2019-04-14T11:13:30.000Z</time>
      </trkpt>
      <trkpt lat="45.28098" lon="5.54602">
        <ele>220.7</ele>
        <time>2019-04-14T11:33:04.000Z</time>
      </trkpt>
      <trkpt lat="45.28101" lon="5.5459">
        <ele>227.45</ele>
        <time>2019-04-14T11:33:57.000Z</time>
      </trkpt>
      <trkpt lat="45.28101" lon="5.54566">
        <ele>224.31</ele>
        <time>2019-04-14T11:34:02.000Z</time>
      </trkpt>
      <trkpt lat="45.28099" lon="5.54525">
        <ele>225.62</ele>
        <time>2019-04-14T11:34:07.000Z</time>
      </trkpt>
      <trkpt lat="45.281" lon="5.54482">
        <ele>226.33</ele>
        <time>2019-04-14T11:34:12.000Z</time>
      </trkpt>
      <trkpt lat="45.28098" lon="5.54428">
        <ele>223.47</ele>
        <time>2019-04-14T11:34:17.000Z</time>
      </trkpt>
      <trkpt lat="45.28097" lon="5.54376">
        <ele>218.49</ele>
        <time>2019-04-14T11:34:22.000Z</time>
      </trkpt>
      <trkpt lat="45.2809" lon="5.54318">
        <ele>213.37</ele>
        <time>2019-04-14T11:34:27.000Z</time>
      </trkpt>
      <trkpt lat="45.28072" lon="5.54266">
        <ele>208.17</ele>
        <time>2019-04-14T11:34:32.000Z</time>
      </trkpt>
      <trkpt lat="45.28048" lon="5.54216">
        <ele>205.77</ele>
        <time>2019-04-14T11:34:37.000Z</time>
      </trkpt>
      <trkpt lat="45.28028" lon="5.5415">
        <ele>201.39</ele>
        <time>2019-04-14T11:34:42.000Z</time>
      </trkpt>
      <trkpt lat="45.28007" lon="5.54091">
        <ele>197.85</ele>
        <time>2019-04-14T11:34:47.000Z</time>
      </trkpt>
      <trkpt lat="45.27979" lon="5.54043">
        <ele>198.37</ele>
        <time>2019-04-14T11:34:52.000Z</time>
      </trkpt>
      <trkpt lat="45.27977" lon="5.53983">
        <ele>196.52</ele>
        <time>2019-04-14T11:34:57.000Z</time>
      </trkpt>
      <trkpt lat="45.27979" lon="5.53934">
        <ele>199.12</ele>
        <time>2019-04-14T11:35:02.000Z</time>
      </trkpt>
      <trkpt lat="45.27976" lon="5.53918">
        <ele>196.4</ele>
        <time>2019-04-14T11:35:07.000Z</time>
      </trkpt>
      <trkpt lat="45.27981" lon="5.53904">
        <ele>194.68</ele>
        <time>2019-04-14T11:35:12.000Z</time>
      </trkpt>
      <trkpt lat="45.27991" lon="5.53897">
        <ele>195.16</ele>
        <time>2019-04-14T11:35:22.000Z</time>
      </trkpt>
      <trkpt lat="45.28005" lon="5.53884">
        <ele>191.68</ele>
        <time>2019-04-14T11:35:27.000Z</time>
      </trkpt>
      <trkpt lat="45.28018" lon="5.53858">
        <ele>194.88</ele>
        <time>2019-04-14T11:35:32.000Z</time>
      </trkpt>
      <trkpt lat="45.28042" lon="5.53818">
        <ele>191.57</ele>
        <time>2019-04-14T11:35:37.000Z</time>
      </trkpt>
      <trkpt lat="45.28069" lon="5.53785">
        <ele>187.73</ele>
        <time>2019-04-14T11:35:42.000Z</time>
      </trkpt>
      <trkpt lat="45.28095" lon="5.53742">
        <ele>181.7</ele>
        <time>2019-04-14T11:35:47.000Z</time>
      </trkpt>
      <trkpt lat="45.28114" lon="5.5371">
        <ele>181.3</ele>
        <time>2019-04-14T11:35:52.000Z</time>
      </trkpt>
      <trkpt lat="45.28144" lon="5.53666">
        <ele>182</ele>
        <time>2019-04-14T11:35:57.000Z</time>
      </trkpt>
      <trkpt lat="45.28165" lon="5.53636">
        <ele>182.33</ele>
        <time>2019-04-14T11:36:02.000Z</time>
      </trkpt>
      <trkpt lat="45.28188" lon="5.53603">
        <ele>180.15</ele>
        <time>2019-04-14T11:36:07.000Z</time>
      </trkpt>
      <trkpt lat="45.28203" lon="5.53579">
        <ele>180.99</ele>
        <time>2019-04-14T11:36:12.000Z</time>
      </trkpt>
      <trkpt lat="45.28223" lon="5.5354">
        <ele>183.67</ele>
        <time>2019-04-14T11:36:17.000Z</time>
      </trkpt>
      <trkpt lat="45.28245" lon="5.53502">
        <ele>184.59</ele>
        <time>2019-04-14T11:36:22.000Z</time>
      </trkpt>
      <trkpt lat="45.28264" lon="5.53475">
        <ele>187.94</ele>
        <time>2019-04-14T11:36:27.000Z</time>
      </trkpt>
      <trkpt lat="45.28284" lon="5.53445">
        <ele>186.92</ele>
        <time>2019-04-14T11:36:32.000Z</time>
      </trkpt>
      <trkpt lat="45.28309" lon="5.53411">
        <ele>188.17</ele>
        <time>2019-04-14T11:36:37.000Z</time>
      </trkpt>
      <trkpt lat="45.28329" lon="5.53375">
        <ele>185.72</ele>
        <time>2019-04-14T11:36:42.000Z</time>
      </trkpt>
      <trkpt lat="45.28347" lon="5.53346">
        <ele>185.01</ele>
        <time>2019-04-14T11:36:47.000Z</time>
      </trkpt>
      <trkpt lat="45.28365" lon="5.5332">
        <ele>185.89</ele>
        <time>2019-04-14T11:36:52.000Z</time>
      </trkpt>
      <trkpt lat="45.28381" lon="5.53283">
        <ele>185.66</ele>
        <time>2019-04-14T11:36:57.000Z</time>
      </trkpt>
      <trkpt lat="45.28395" lon="5.53262">
        <ele>184.73</ele>
        <time>2019-04-14T11:37:02.000Z</time>
      </trkpt>
      <trkpt lat="45.28411" lon="5.5323">
        <ele>181.79</ele>
        <time>2019-04-14T11:37:07.000Z</time>
      </trkpt>
      <trkpt lat="45.28423" lon="5.53209">
        <ele>180.5</ele>
        <time>2019-04-14T11:37:12.000Z</time>
      </trkpt>
      <trkpt lat="45.28432" lon="5.53183">
        <ele>181.67</ele>
        <time>2019-04-14T11:37:17.000Z</time>
      </trkpt>
      <trkpt lat="45.28441" lon="5.53157">
        <ele>182.48</ele>
        <time>2019-04-14T11:37:22.000Z</time>
      </trkpt>
      <trkpt lat="45.28451" lon="5.53129">
        <ele>184.68</ele>
        <time>2019-04-14T11:37:27.000Z</time>
      </trkpt>
      <trkpt lat="45.28463" lon="5.53097">
        <ele>187.59</ele>
        <time>2019-04-14T11:37:32.000Z</time>
      </trkpt>
      <trkpt lat="45.28475" lon="5.53065">
        <ele>188.79</ele>
        <time>2019-04-14T11:37:37.000Z</time>
      </trkpt>
      <trkpt lat="45.28487" lon="5.53035">
        <ele>192.2</ele>
        <time>2019-04-14T11:37:42.000Z</time>
      </trkpt>
      <trkpt lat="45.28502" lon="5.53003">
        <ele>191.93</ele>
        <time>2019-04-14T11:37:47.000Z</time>
      </trkpt>
      <trkpt lat="45.28513" lon="5.52983">
        <ele>197.47</ele>
        <time>2019-04-14T11:37:52.000Z</time>
      </trkpt>
      <trkpt lat="45.28522" lon="5.52953">
        <ele>196.89</ele>
        <time>2019-04-14T11:37:57.000Z</time>
      </trkpt>
      <trkpt lat="45.28529" lon="5.52932">
        <ele>196.4</ele>
        <time>2019-04-14T11:38:02.000Z</time>
      </trkpt>
      <trkpt lat="45.28544" lon="5.52901">
        <ele>193.93</ele>
        <time>2019-04-14T11:38:07.000Z</time>
      </trkpt>
      <trkpt lat="45.28555" lon="5.52878">
        <ele>191.01</ele>
        <time>2019-04-14T11:38:12.000Z</time>
      </trkpt>
      <trkpt lat="45.28564" lon="5.52854">
        <ele>191.12</ele>
        <time>2019-04-14T11:38:17.000Z</time>
      </trkpt>
      <trkpt lat="45.28572" lon="5.5283">
        <ele>192.81</ele>
        <time>2019-04-14T11:38:22.000Z</time>
      </trkpt>
      <trkpt lat="45.28579" lon="5.52804">
        <ele>193.25</ele>
        <time>2019-04-14T11:38:27.000Z</time>
      </trkpt>
      <trkpt lat="45.28589" lon="5.52773">
        <ele>195.07</ele>
        <time>2019-04-14T11:38:32.000Z</time>
      </trkpt>
      <trkpt lat="45.286" lon="5.52744">
        <ele>196.56</ele>
        <time>2019-04-14T11:38:37.000Z</time>
      </trkpt>
      <trkpt lat="45.28611" lon="5.52714">
        <ele>194.97</ele>
        <time>2019-04-14T11:38:42.000Z</time>
      </trkpt>
      <trkpt lat="45.28623" lon="5.52684">
        <ele>194.27</ele>
        <time>2019-04-14T11:38:47.000Z</time>
      </trkpt>
      <trkpt lat="45.28635" lon="5.52657">
        <ele>190.35</ele>
        <time>2019-04-14T11:38:52.000Z</time>
      </trkpt>
      <trkpt lat="45.2865" lon="5.52665">
        <ele>187.93</ele>
        <time>2019-04-14T11:38:57.000Z</time>
      </trkpt>
      <trkpt lat="45.28669" lon="5.52679">
        <ele>186.96</ele>
        <time>2019-04-14T11:39:02.000Z</time>
      </trkpt>
      <trkpt lat="45.28692" lon="5.52705">
        <ele>184.62</ele>
        <time>2019-04-14T11:39:07.000Z</time>
      </trkpt>
      <trkpt lat="45.28714" lon="5.5273">
        <ele>180.16</ele>
        <time>2019-04-14T11:39:12.000Z</time>
      </trkpt>
      <trkpt lat="45.28731" lon="5.52751">
        <ele>179.69</ele>
        <time>2019-04-14T11:39:17.000Z</time>
      </trkpt>
      <trkpt lat="45.28751" lon="5.52773">
        <ele>178.28</ele>
        <time>2019-04-14T11:39:22.000Z</time>
      </trkpt>
      <trkpt lat="45.28773" lon="5.52791">
        <ele>176.48</ele>
        <time>2019-04-14T11:39:27.000Z</time>
      </trkpt>
      <trkpt lat="45.28788" lon="5.52805">
        <ele>176.51</ele>
        <time>2019-04-14T11:39:32.000Z</time>
      </trkpt>
      <trkpt lat="45.28813" lon="5.5282">
        <ele>178.01</ele>
        <time>2019-04-14T11:39:37.000Z</time>
      </trkpt>
      <trkpt lat="45.28835" lon="5.52832">
        <ele>182.64</ele>
        <time>2019-04-14T11:39:42.000Z</time>
      </trkpt>
      <trkpt lat="45.28858" lon="5.52841">
        <ele>184.07</ele>
        <time>2019-04-14T11:39:47.000Z</time>
      </trkpt>
      <trkpt lat="45.28879" lon="5.52849">
        <ele>183.29</ele>
        <time>2019-04-14T11:39:52.000Z</time>
      </trkpt>
      <trkpt lat="45.28903" lon="5.52865">
        <ele>184.27</ele>
        <time>2019-04-14T11:39:57.000Z</time>
      </trkpt>
      <trkpt lat="45.28922" lon="5.52888">
        <ele>181.05</ele>
        <time>2019-04-14T11:40:02.000Z</time>
      </trkpt>
      <trkpt lat="45.28939" lon="5.52907">
        <ele>181.72</ele>
        <time>2019-04-14T11:40:07.000Z</time>
      </trkpt>
      <trkpt lat="45.28956" lon="5.52933">
        <ele>182.7</ele>
        <time>2019-04-14T11:40:12.000Z</time>
      </trkpt>
      <trkpt lat="45.28973" lon="5.52958">
        <ele>183.42</ele>
        <time>2019-04-14T11:40:17.000Z</time>
      </trkpt>
      <trkpt lat="45.28991" lon="5.52985">
        <ele>181.55</ele>
        <time>2019-04-14T11:40:22.000Z</time>
      </trkpt>
      <trkpt lat="45.29007" lon="5.53014">
        <ele>185.26</ele>
        <time>2019-04-14T11:40:27.000Z</time>
      </trkpt>
      <trkpt lat="45.29025" lon="5.53042">
        <ele>185.59</ele>
        <time>2019-04-14T11:40:32.000Z</time>
      </trkpt>
      <trkpt lat="45.29042" lon="5.5307">
        <ele>188.57</ele>
        <time>2019-04-14T11:40:37.000Z</time>
      </trkpt>
      <trkpt lat="45.29055" lon="5.531">
        <ele>190.25</ele>
        <time>2019-04-14T11:40:42.000Z</time>
      </trkpt>
      <trkpt lat="45.29074" lon="5.53133">
        <ele>188.65</ele>
        <time>2019-04-14T11:40:47.000Z</time>
      </trkpt>
      <trkpt lat="45.29087" lon="5.53166">
        <ele>189.62</ele>
        <time>2019-04-14T11:40:52.000Z</time>
      </trkpt>
      <trkpt lat="45.29101" lon="5.532">
        <ele>188.39</ele>
        <time>2019-04-14T11:40:57.000Z</time>
      </trkpt>
      <trkpt lat="45.29112" lon="5.53234">
        <ele>185.47</ele>
        <time>2019-04-14T11:41:02.000Z</time>
      </trkpt>
      <trkpt lat="45.29122" lon="5.53267">
        <ele>184.14</ele>
        <time>2019-04-14T11:41:07.000Z</time>
      </trkpt>
      <trkpt lat="45.29133" lon="5.53304">
        <ele>186.29</ele>
        <time>2019-04-14T11:41:12.000Z</time>
      </trkpt>
      <trkpt lat="45.29141" lon="5.5334">
        <ele>186.79</ele>
        <time>2019-04-14T11:41:17.000Z</time>
      </trkpt>
      <trkpt lat="45.29151" lon="5.53371">
        <ele>185.72</ele>
        <time>2019-04-14T11:41:22.000Z</time>
      </trkpt>
      <trkpt lat="45.29158" lon="5.534">
        <ele>186.59</ele>
        <time>2019-04-14T11:41:27.000Z</time>
      </trkpt>
      <trkpt lat="45.29162" lon="5.53428">
        <ele>186.44</ele>
        <time>2019-04-14T11:41:32.000Z</time>
      </trkpt>
      <trkpt lat="45.29171" lon="5.53462">
        <ele>187.66</ele>
        <time>2019-04-14T11:41:37.000Z</time>
      </trkpt>
      <trkpt lat="45.29179" lon="5.53498">
        <ele>188.32</ele>
        <time>2019-04-14T11:41:42.000Z</time>
      </trkpt>
      <trkpt lat="45.29186" lon="5.53531">
        <ele>187.94</ele>
        <time>2019-04-14T11:41:47.000Z</time>
      </trkpt>
      <trkpt lat="45.29191" lon="5.53565">
        <ele>186.88</ele>
        <time>2019-04-14T11:41:52.000Z</time>
      </trkpt>
      <trkpt lat="45.29197" lon="5.53602">
        <ele>185.64</ele>
        <time>2019-04-14T11:41:57.000Z</time>
      </trkpt>
      <trkpt lat="45.29203" lon="5.53635">
        <ele>186.03</ele>
        <time>2019-04-14T11:42:02.000Z</time>
      </trkpt>
      <trkpt lat="45.2921" lon="5.5367">
        <ele>186.9</ele>
        <time>2019-04-14T11:42:07.000Z</time>
      </trkpt>
      <trkpt lat="45.29218" lon="5.53706">
        <ele>185.74</ele>
        <time>2019-04-14T11:42:12.000Z</time>
      </trkpt>
      <trkpt lat="45.29224" lon="5.53746">
        <ele>184.44</ele>
        <time>2019-04-14T11:42:17.000Z</time>
      </trkpt>
      <trkpt lat="45.29228" lon="5.53783">
        <ele>186.52</ele>
        <time>2019-04-14T11:42:22.000Z</time>
      </trkpt>
      <trkpt lat="45.29234" lon="5.53819">
        <ele>183.2</ele>
        <time>2019-04-14T11:42:27.000Z</time>
      </trkpt>
      <trkpt lat="45.29245" lon="5.53854">
        <ele>178.74</ele>
        <time>2019-04-14T11:42:32.000Z</time>
      </trkpt>
      <trkpt lat="45.29251" lon="5.53891">
        <ele>180.18</ele>
        <time>2019-04-14T11:42:37.000Z</time>
      </trkpt>
      <trkpt lat="45.29259" lon="5.53928">
        <ele>181.78</ele>
        <time>2019-04-14T11:42:42.000Z</time>
      </trkpt>
      <trkpt lat="45.29265" lon="5.53969">
        <ele>182.91</ele>
        <time>2019-04-14T11:42:47.000Z</time>
      </trkpt>
      <trkpt lat="45.29271" lon="5.54004">
        <ele>183.51</ele>
        <time>2019-04-14T11:42:52.000Z</time>
      </trkpt>
      <trkpt lat="45.29277" lon="5.54041">
        <ele>182.98</ele>
        <time>2019-04-14T11:42:57.000Z</time>
      </trkpt>
      <trkpt lat="45.29285" lon="5.54076">
        <ele>182.71</ele>
        <time>2019-04-14T11:43:02.000Z</time>
      </trkpt>
      <trkpt lat="45.2929" lon="5.54118">
        <ele>183.6</ele>
        <time>2019-04-14T11:43:07.000Z</time>
      </trkpt>
      <trkpt lat="45.29297" lon="5.54155">
        <ele>182.62</ele>
        <time>2019-04-14T11:43:12.000Z</time>
      </trkpt>
      <trkpt lat="45.29302" lon="5.54189">
        <ele>182.09</ele>
        <time>2019-04-14T11:43:17.000Z</time>
      </trkpt>
      <trkpt lat="45.29306" lon="5.54229">
        <ele>184.89</ele>
        <time>2019-04-14T11:43:22.000Z</time>
      </trkpt>
      <trkpt lat="45.29312" lon="5.54263">
        <ele>186.3</ele>
        <time>2019-04-14T11:43:27.000Z</time>
      </trkpt>
      <trkpt lat="45.29321" lon="5.54296">
        <ele>182.24</ele>
        <time>2019-04-14T11:43:32.000Z</time>
      </trkpt>
      <trkpt lat="45.29324" lon="5.54334">
        <ele>182.65</ele>
        <time>2019-04-14T11:43:37.000Z</time>
      </trkpt>
      <trkpt lat="45.29328" lon="5.54368">
        <ele>182.25</ele>
        <time>2019-04-14T11:43:42.000Z</time>
      </trkpt>
      <trkpt lat="45.29333" lon="5.54404">
        <ele>180.7</ele>
        <time>2019-04-14T11:43:47.000Z</time>
      </trkpt>
      <trkpt lat="45.2934" lon="5.54436">
        <ele>181.95</ele>
        <time>2019-04-14T11:43:52.000Z</time>
      </trkpt>
      <trkpt lat="45.29344" lon="5.54474">
        <ele>182.64</ele>
        <time>2019-04-14T11:43:57.000Z</time>
      </trkpt>
      <trkpt lat="45.29349" lon="5.5451">
        <ele>182.46</ele>
        <time>2019-04-14T11:44:02.000Z</time>
      </trkpt>
      <trkpt lat="45.29354" lon="5.54544">
        <ele>183.88</ele>
        <time>2019-04-14T11:44:07.000Z</time>
      </trkpt>
      <trkpt lat="45.29354" lon="5.54576">
        <ele>183.19</ele>
        <time>2019-04-14T11:44:12.000Z</time>
      </trkpt>
      <trkpt lat="45.29357" lon="5.54614">
        <ele>182.9</ele>
        <time>2019-04-14T11:44:17.000Z</time>
      </trkpt>
      <trkpt lat="45.29359" lon="5.54651">
        <ele>183.95</ele>
        <time>2019-04-14T11:44:22.000Z</time>
      </trkpt>
      <trkpt lat="45.29363" lon="5.54683">
        <ele>185.68</ele>
        <time>2019-04-14T11:44:27.000Z</time>
      </trkpt>
      <trkpt lat="45.29367" lon="5.54719">
        <ele>186.33</ele>
        <time>2019-04-14T11:44:32.000Z</time>
      </trkpt>
      <trkpt lat="45.29371" lon="5.54753">
        <ele>188.46</ele>
        <time>2019-04-14T11:44:37.000Z</time>
      </trkpt>
      <trkpt lat="45.29376" lon="5.54792">
        <ele>191.05</ele>
        <time>2019-04-14T11:44:42.000Z</time>
      </trkpt>
      <trkpt lat="45.29379" lon="5.54828">
        <ele>190.13</ele>
        <time>2019-04-14T11:44:47.000Z</time>
      </trkpt>
      <trkpt lat="45.29379" lon="5.54867">
        <ele>192.15</ele>
        <time>2019-04-14T11:44:52.000Z</time>
      </trkpt>
      <trkpt lat="45.29386" lon="5.54896">
        <ele>191.32</ele>
        <time>2019-04-14T11:44:57.000Z</time>
      </trkpt>
      <trkpt lat="45.29389" lon="5.54936">
        <ele>189.84</ele>
        <time>2019-04-14T11:45:02.000Z</time>
      </trkpt>
      <trkpt lat="45.29391" lon="5.54976">
        <ele>188.81</ele>
        <time>2019-04-14T11:45:07.000Z</time>
      </trkpt>
      <trkpt lat="45.29394" lon="5.55012">
        <ele>188.22</ele>
        <time>2019-04-14T11:45:12.000Z</time>
      </trkpt>
      <trkpt lat="45.29397" lon="5.55049">
        <ele>187.05</ele>
        <time>2019-04-14T11:45:17.000Z</time>
      </trkpt>
      <trkpt lat="45.29397" lon="5.55086">
        <ele>187.03</ele>
        <time>2019-04-14T11:45:22.000Z</time>
      </trkpt>
      <trkpt lat="45.29392" lon="5.55124">
        <ele>186.95</ele>
        <time>2019-04-14T11:45:27.000Z</time>
      </trkpt>
      <trkpt lat="45.29388" lon="5.55165">
        <ele>186.52</ele>
        <time>2019-04-14T11:45:32.000Z</time>
      </trkpt>
      <trkpt lat="45.29386" lon="5.55203">
        <ele>188.52</ele>
        <time>2019-04-14T11:45:37.000Z</time>
      </trkpt>
      <trkpt lat="45.29383" lon="5.55237">
        <ele>187.2</ele>
        <time>2019-04-14T11:45:42.000Z</time>
      </trkpt>
      <trkpt lat="45.29382" lon="5.55277">
        <ele>187.95</ele>
        <time>2019-04-14T11:45:47.000Z</time>
      </trkpt>
      <trkpt lat="45.29378" lon="5.55316">
        <ele>187.87</ele>
        <time>2019-04-14T11:45:52.000Z</time>
      </trkpt>
      <trkpt lat="45.29377" lon="5.55357">
        <ele>189.51</ele>
        <time>2019-04-14T11:45:57.000Z</time>
      </trkpt>
      <trkpt lat="45.29375" lon="5.55387">
        <ele>189.4</ele>
        <time>2019-04-14T11:46:02.000Z</time>
      </trkpt>
      <trkpt lat="45.29374" lon="5.55422">
        <ele>188.4</ele>
        <time>2019-04-14T11:46:07.000Z</time>
      </trkpt>
      <trkpt lat="45.29377" lon="5.55461">
        <ele>188.13</ele>
        <time>2019-04-14T11:46:12.000Z</time>
      </trkpt>
      <trkpt lat="45.29377" lon="5.55499">
        <ele>185.99</ele>
        <time>2019-04-14T11:46:17.000Z</time>
      </trkpt>
      <trkpt lat="45.2938" lon="5.55537">
        <ele>189.27</ele>
        <time>2019-04-14T11:46:22.000Z</time>
      </trkpt>
      <trkpt lat="45.29384" lon="5.55571">
        <ele>189.1</ele>
        <time>2019-04-14T11:46:27.000Z</time>
      </trkpt>
      <trkpt lat="45.2939" lon="5.55604">
        <ele>190.35</ele>
        <time>2019-04-14T11:46:32.000Z</time>
      </trkpt>
      <trkpt lat="45.29395" lon="5.55638">
        <ele>191.02</ele>
        <time>2019-04-14T11:46:37.000Z</time>
      </trkpt>
      <trkpt lat="45.29407" lon="5.55672">
        <ele>193.67</ele>
        <time>2019-04-14T11:46:42.000Z</time>
      </trkpt>
      <trkpt lat="45.29414" lon="5.55703">
        <ele>191.22</ele>
        <time>2019-04-14T11:46:47.000Z</time>
      </trkpt>
      <trkpt lat="45.29424" lon="5.55732">
        <ele>190.72</ele>
        <time>2019-04-14T11:46:52.000Z</time>
      </trkpt>
      <trkpt lat="45.29431" lon="5.55759">
        <ele>187.39</ele>
        <time>2019-04-14T11:46:57.000Z</time>
      </trkpt>
      <trkpt lat="45.29442" lon="5.55789">
        <ele>188.54</ele>
        <time>2019-04-14T11:47:02.000Z</time>
      </trkpt>
      <trkpt lat="45.29456" lon="5.5582">
        <ele>188.18</ele>
        <time>2019-04-14T11:47:07.000Z</time>
      </trkpt>
      <trkpt lat="45.29468" lon="5.5585">
        <ele>188.71</ele>
        <time>2019-04-14T11:47:12.000Z</time>
      </trkpt>
      <trkpt lat="45.29483" lon="5.55876">
        <ele>187.63</ele>
        <time>2019-04-14T11:47:17.000Z</time>
      </trkpt>
      <trkpt lat="45.29505" lon="5.55907">
        <ele>188.29</ele>
        <time>2019-04-14T11:47:22.000Z</time>
      </trkpt>
      <trkpt lat="45.29527" lon="5.55935">
        <ele>189.13</ele>
        <time>2019-04-14T11:47:27.000Z</time>
      </trkpt>
      <trkpt lat="45.29546" lon="5.55959">
        <ele>186.58</ele>
        <time>2019-04-14T11:47:32.000Z</time>
      </trkpt>
      <trkpt lat="45.29561" lon="5.55979">
        <ele>183.55</ele>
        <time>2019-04-14T11:47:37.000Z</time>
      </trkpt>
      <trkpt lat="45.2958" lon="5.56003">
        <ele>184.98</ele>
        <time>2019-04-14T11:47:42.000Z</time>
      </trkpt>
      <trkpt lat="45.29596" lon="5.56024">
        <ele>185.17</ele>
        <time>2019-04-14T11:47:47.000Z</time>
      </trkpt>
      <trkpt lat="45.29618" lon="5.56048">
        <ele>186.05</ele>
        <time>2019-04-14T11:47:52.000Z</time>
      </trkpt>
      <trkpt lat="45.29639" lon="5.56074">
        <ele>190.25</ele>
        <time>2019-04-14T11:47:57.000Z</time>
      </trkpt>
      <trkpt lat="45.29654" lon="5.56096">
        <ele>191.63</ele>
        <time>2019-04-14T11:48:02.000Z</time>
      </trkpt>
      <trkpt lat="45.29671" lon="5.56113">
        <ele>193.21</ele>
        <time>2019-04-14T11:48:07.000Z</time>
      </trkpt>
      <trkpt lat="45.29691" lon="5.56134">
        <ele>191.45</ele>
        <time>2019-04-14T11:48:12.000Z</time>
      </trkpt>
      <trkpt lat="45.29708" lon="5.56154">
        <ele>192.21</ele>
        <time>2019-04-14T11:48:17.000Z</time>
      </trkpt>
      <trkpt lat="45.29726" lon="5.56176">
        <ele>191.72</ele>
        <time>2019-04-14T11:48:22.000Z</time>
      </trkpt>
      <trkpt lat="45.29745" lon="5.562">
        <ele>190.7</ele>
        <time>2019-04-14T11:48:27.000Z</time>
      </trkpt>
      <trkpt lat="45.29763" lon="5.56224">
        <ele>193.77</ele>
        <time>2019-04-14T11:48:32.000Z</time>
      </trkpt>
      <trkpt lat="45.29779" lon="5.56248">
        <ele>193.82</ele>
        <time>2019-04-14T11:48:37.000Z</time>
      </trkpt>
      <trkpt lat="45.29794" lon="5.56271">
        <ele>192.3</ele>
        <time>2019-04-14T11:48:42.000Z</time>
      </trkpt>
      <trkpt lat="45.29808" lon="5.56294">
        <ele>188.92</ele>
        <time>2019-04-14T11:48:47.000Z</time>
      </trkpt>
      <trkpt lat="45.29824" lon="5.56322">
        <ele>189.06</ele>
        <time>2019-04-14T11:48:52.000Z</time>
      </trkpt>
      <trkpt lat="45.29837" lon="5.56348">
        <ele>188.82</ele>
        <time>2019-04-14T11:48:57.000Z</time>
      </trkpt>
      <trkpt lat="45.29849" lon="5.56376">
        <ele>188.08</ele>
        <time>2019-04-14T11:49:02.000Z</time>
      </trkpt>
      <trkpt lat="45.29858" lon="5.56405">
        <ele>187.45</ele>
        <time>2019-04-14T11:49:07.000Z</time>
      </trkpt>
      <trkpt lat="45.29867" lon="5.56436">
        <ele>186.68</ele>
        <time>2019-04-14T11:49:12.000Z</time>
      </trkpt>
      <trkpt lat="45.29876" lon="5.56469">
        <ele>187.72</ele>
        <time>2019-04-14T11:49:17.000Z</time>
      </trkpt>
      <trkpt lat="45.29884" lon="5.56502">
        <ele>187.35</ele>
        <time>2019-04-14T11:49:22.000Z</time>
      </trkpt>
      <trkpt lat="45.2989" lon="5.56536">
        <ele>187.82</ele>
        <time>2019-04-14T11:49:27.000Z</time>
      </trkpt>
      <trkpt lat="45.29892" lon="5.56572">
        <ele>187.62</ele>
        <time>2019-04-14T11:49:32.000Z</time>
      </trkpt>
      <trkpt lat="45.29893" lon="5.56602">
        <ele>191.37</ele>
        <time>2019-04-14T11:49:37.000Z</time>
      </trkpt>
      <trkpt lat="45.29895" lon="5.56634">
        <ele>190.19</ele>
        <time>2019-04-14T11:49:42.000Z</time>
      </trkpt>
      <trkpt lat="45.29891" lon="5.5667">
        <ele>188.31</ele>
        <time>2019-04-14T11:49:47.000Z</time>
      </trkpt>
      <trkpt lat="45.29887" lon="5.56705">
        <ele>189.9</ele>
        <time>2019-04-14T11:49:52.000Z</time>
      </trkpt>
      <trkpt lat="45.29882" lon="5.56742">
        <ele>191.66</ele>
        <time>2019-04-14T11:49:57.000Z</time>
      </trkpt>
      <trkpt lat="45.29877" lon="5.56775">
        <ele>189.89</ele>
        <time>2019-04-14T11:50:02.000Z</time>
      </trkpt>
      <trkpt lat="45.29867" lon="5.56811">
        <ele>189.45</ele>
        <time>2019-04-14T11:50:07.000Z</time>
      </trkpt>
      <trkpt lat="45.2986" lon="5.56849">
        <ele>189.47</ele>
        <time>2019-04-14T11:50:12.000Z</time>
      </trkpt>
      <trkpt lat="45.29848" lon="5.56881">
        <ele>188.72</ele>
        <time>2019-04-14T11:50:17.000Z</time>
      </trkpt>
      <trkpt lat="45.29841" lon="5.56912">
        <ele>186.97</ele>
        <time>2019-04-14T11:50:22.000Z</time>
      </trkpt>
      <trkpt lat="45.29832" lon="5.56947">
        <ele>186.88</ele>
        <time>2019-04-14T11:50:27.000Z</time>
      </trkpt>
      <trkpt lat="45.29827" lon="5.56972">
        <ele>181.82</ele>
        <time>2019-04-14T11:50:32.000Z</time>
      </trkpt>
      <trkpt lat="45.29816" lon="5.57008">
        <ele>183.74</ele>
        <time>2019-04-14T11:50:37.000Z</time>
      </trkpt>
      <trkpt lat="45.29808" lon="5.5704">
        <ele>182.28</ele>
        <time>2019-04-14T11:50:42.000Z</time>
      </trkpt>
      <trkpt lat="45.29802" lon="5.57067">
        <ele>180.15</ele>
        <time>2019-04-14T11:50:47.000Z</time>
      </trkpt>
      <trkpt lat="45.29792" lon="5.57099">
        <ele>182.35</ele>
        <time>2019-04-14T11:50:52.000Z</time>
      </trkpt>
      <trkpt lat="45.29783" lon="5.57133">
        <ele>183.15</ele>
        <time>2019-04-14T11:50:57.000Z</time>
      </trkpt>
      <trkpt lat="45.29771" lon="5.57171">
        <ele>182.28</ele>
        <time>2019-04-14T11:51:02.000Z</time>
      </trkpt>
      <trkpt lat="45.29764" lon="5.57204">
        <ele>182.43</ele>
        <time>2019-04-14T11:51:07.000Z</time>
      </trkpt>
      <trkpt lat="45.29757" lon="5.57235">
        <ele>186.27</ele>
        <time>2019-04-14T11:51:12.000Z</time>
      </trkpt>
      <trkpt lat="45.29743" lon="5.57268">
        <ele>183.15</ele>
        <time>2019-04-14T11:51:17.000Z</time>
      </trkpt>
      <trkpt lat="45.29736" lon="5.57301">
        <ele>183.86</ele>
        <time>2019-04-14T11:51:22.000Z</time>
      </trkpt>
      <trkpt lat="45.29729" lon="5.57334">
        <ele>183.16</ele>
        <time>2019-04-14T11:51:27.000Z</time>
      </trkpt>
      <trkpt lat="45.29717" lon="5.5737">
        <ele>182.34</ele>
        <time>2019-04-14T11:51:32.000Z</time>
      </trkpt>
      <trkpt lat="45.29711" lon="5.57406">
        <ele>186</ele>
        <time>2019-04-14T11:51:37.000Z</time>
      </trkpt>
      <trkpt lat="45.29701" lon="5.5744">
        <ele>185.25</ele>
        <time>2019-04-14T11:51:42.000Z</time>
      </trkpt>
      <trkpt lat="45.29691" lon="5.57474">
        <ele>184.53</ele>
        <time>2019-04-14T11:51:47.000Z</time>
      </trkpt>
      <trkpt lat="45.29684" lon="5.57505">
        <ele>183.16</ele>
        <time>2019-04-14T11:51:52.000Z</time>
      </trkpt>
      <trkpt lat="45.29674" lon="5.57542">
        <ele>180.92</ele>
        <time>2019-04-14T11:51:57.000Z</time>
      </trkpt>
      <trkpt lat="45.29666" lon="5.57572">
        <ele>177.6</ele>
        <time>2019-04-14T11:52:02.000Z</time>
      </trkpt>
      <trkpt lat="45.29655" lon="5.57609">
        <ele>183.3</ele>
        <time>2019-04-14T11:52:07.000Z</time>
      </trkpt>
      <trkpt lat="45.2965" lon="5.57641">
        <ele>181.92</ele>
        <time>2019-04-14T11:52:12.000Z</time>
      </trkpt>
      <trkpt lat="45.29648" lon="5.57671">
        <ele>179.56</ele>
        <time>2019-04-14T11:52:17.000Z</time>
      </trkpt>
      <trkpt lat="45.29648" lon="5.57703">
        <ele>181.9</ele>
        <time>2019-04-14T11:52:22.000Z</time>
      </trkpt>
      <trkpt lat="45.29645" lon="5.57743">
        <ele>181.81</ele>
        <time>2019-04-14T11:52:27.000Z</time>
      </trkpt>
      <trkpt lat="45.29642" lon="5.57785">
        <ele>183.98</ele>
        <time>2019-04-14T11:52:32.000Z</time>
      </trkpt>
      <trkpt lat="45.29641" lon="5.57824">
        <ele>189.28</ele>
        <time>2019-04-14T11:52:37.000Z</time>
      </trkpt>
      <trkpt lat="45.29641" lon="5.5786">
        <ele>188.84</ele>
        <time>2019-04-14T11:52:42.000Z</time>
      </trkpt>
      <trkpt lat="45.29645" lon="5.57893">
        <ele>191.06</ele>
        <time>2019-04-14T11:52:47.000Z</time>
      </trkpt>
      <trkpt lat="45.29654" lon="5.57927">
        <ele>188.83</ele>
        <time>2019-04-14T11:52:52.000Z</time>
      </trkpt>
      <trkpt lat="45.29662" lon="5.57964">
        <ele>186.31</ele>
        <time>2019-04-14T11:52:57.000Z</time>
      </trkpt>
      <trkpt lat="45.29672" lon="5.58004">
        <ele>186.55</ele>
        <time>2019-04-14T11:53:02.000Z</time>
      </trkpt>
      <trkpt lat="45.29679" lon="5.58031">
        <ele>188.4</ele>
        <time>2019-04-14T11:53:07.000Z</time>
      </trkpt>
      <trkpt lat="45.29687" lon="5.58057">
        <ele>187.66</ele>
        <time>2019-04-14T11:53:12.000Z</time>
      </trkpt>
      <trkpt lat="45.29698" lon="5.58093">
        <ele>188.06</ele>
        <time>2019-04-14T11:53:17.000Z</time>
      </trkpt>
      <trkpt lat="45.2971" lon="5.58129">
        <ele>187.69</ele>
        <time>2019-04-14T11:53:22.000Z</time>
      </trkpt>
      <trkpt lat="45.29721" lon="5.58158">
        <ele>185.74</ele>
        <time>2019-04-14T11:53:27.000Z</time>
      </trkpt>
      <trkpt lat="45.29738" lon="5.58187">
        <ele>184.11</ele>
        <time>2019-04-14T11:53:32.000Z</time>
      </trkpt>
      <trkpt lat="45.29754" lon="5.58211">
        <ele>185.16</ele>
        <time>2019-04-14T11:53:37.000Z</time>
      </trkpt>
      <trkpt lat="45.2977" lon="5.58236">
        <ele>185.49</ele>
        <time>2019-04-14T11:53:42.000Z</time>
      </trkpt>
      <trkpt lat="45.2979" lon="5.58264">
        <ele>186.72</ele>
        <time>2019-04-14T11:53:47.000Z</time>
      </trkpt>
      <trkpt lat="45.29804" lon="5.58287">
        <ele>187.18</ele>
        <time>2019-04-14T11:53:52.000Z</time>
      </trkpt>
      <trkpt lat="45.29822" lon="5.58311">
        <ele>188.1</ele>
        <time>2019-04-14T11:53:57.000Z</time>
      </trkpt>
      <trkpt lat="45.29841" lon="5.58337">
        <ele>190.35</ele>
        <time>2019-04-14T11:54:02.000Z</time>
      </trkpt>
      <trkpt lat="45.29858" lon="5.58366">
        <ele>189.81</ele>
        <time>2019-04-14T11:54:07.000Z</time>
      </trkpt>
      <trkpt lat="45.29878" lon="5.58389">
        <ele>188.5</ele>
        <time>2019-04-14T11:54:12.000Z</time>
      </trkpt>
      <trkpt lat="45.29897" lon="5.58422">
        <ele>191.4</ele>
        <time>2019-04-14T11:54:17.000Z</time>
      </trkpt>
      <trkpt lat="45.29916" lon="5.58446">
        <ele>192.6</ele>
        <time>2019-04-14T11:54:22.000Z</time>
      </trkpt>
      <trkpt lat="45.29933" lon="5.58473">
        <ele>191.74</ele>
        <time>2019-04-14T11:54:27.000Z</time>
      </trkpt>
      <trkpt lat="45.29951" lon="5.58498">
        <ele>191.85</ele>
        <time>2019-04-14T11:54:32.000Z</time>
      </trkpt>
      <trkpt lat="45.29966" lon="5.58521">
        <ele>191.59</ele>
        <time>2019-04-14T11:54:37.000Z</time>
      </trkpt>
      <trkpt lat="45.29982" lon="5.58546">
        <ele>192.46</ele>
        <time>2019-04-14T11:54:42.000Z</time>
      </trkpt>
      <trkpt lat="45.29999" lon="5.5857">
        <ele>190.98</ele>
        <time>2019-04-14T11:54:47.000Z</time>
      </trkpt>
      <trkpt lat="45.30016" lon="5.58596">
        <ele>190.6</ele>
        <time>2019-04-14T11:54:52.000Z</time>
      </trkpt>
      <trkpt lat="45.30035" lon="5.58622">
        <ele>191.24</ele>
        <time>2019-04-14T11:54:57.000Z</time>
      </trkpt>
      <trkpt lat="45.30051" lon="5.58646">
        <ele>190.42</ele>
        <time>2019-04-14T11:55:02.000Z</time>
      </trkpt>
      <trkpt lat="45.3007" lon="5.58673">
        <ele>190.73</ele>
        <time>2019-04-14T11:55:07.000Z</time>
      </trkpt>
      <trkpt lat="45.3009" lon="5.587">
        <ele>189.9</ele>
        <time>2019-04-14T11:55:12.000Z</time>
      </trkpt>
      <trkpt lat="45.30106" lon="5.58726">
        <ele>194.3</ele>
        <time>2019-04-14T11:55:17.000Z</time>
      </trkpt>
      <trkpt lat="45.30119" lon="5.5875">
        <ele>194.68</ele>
        <time>2019-04-14T11:55:22.000Z</time>
      </trkpt>
      <trkpt lat="45.30133" lon="5.58782">
        <ele>191.73</ele>
        <time>2019-04-14T11:55:27.000Z</time>
      </trkpt>
      <trkpt lat="45.30151" lon="5.5881">
        <ele>190.27</ele>
        <time>2019-04-14T11:55:32.000Z</time>
      </trkpt>
      <trkpt lat="45.30169" lon="5.5884">
        <ele>191.96</ele>
        <time>2019-04-14T11:55:37.000Z</time>
      </trkpt>
      <trkpt lat="45.30183" lon="5.58872">
        <ele>195.04</ele>
        <time>2019-04-14T11:55:42.000Z</time>
      </trkpt>
      <trkpt lat="45.30199" lon="5.58901">
        <ele>194.6</ele>
        <time>2019-04-14T11:55:47.000Z</time>
      </trkpt>
      <trkpt lat="45.30214" lon="5.5893">
        <ele>194.31</ele>
        <time>2019-04-14T11:55:52.000Z</time>
      </trkpt>
      <trkpt lat="45.30227" lon="5.58961">
        <ele>193.58</ele>
        <time>2019-04-14T11:55:57.000Z</time>
      </trkpt>
      <trkpt lat="45.30238" lon="5.58995">
        <ele>193.94</ele>
        <time>2019-04-14T11:56:02.000Z</time>
      </trkpt>
      <trkpt lat="45.30248" lon="5.59031">
        <ele>193.29</ele>
        <time>2019-04-14T11:56:07.000Z</time>
      </trkpt>
      <trkpt lat="45.30259" lon="5.59065">
        <ele>193.96</ele>
        <time>2019-04-14T11:56:12.000Z</time>
      </trkpt>
      <trkpt lat="45.30268" lon="5.59104">
        <ele>195.04</ele>
        <time>2019-04-14T11:56:17.000Z</time>
      </trkpt>
      <trkpt lat="45.30277" lon="5.59135">
        <ele>196.09</ele>
        <time>2019-04-14T11:56:22.000Z</time>
      </trkpt>
      <trkpt lat="45.30281" lon="5.59158">
        <ele>192.69</ele>
        <time>2019-04-14T11:56:27.000Z</time>
      </trkpt>
      <trkpt lat="45.30288" lon="5.59183">
        <ele>195.65</ele>
        <time>2019-04-14T11:56:32.000Z</time>
      </trkpt>
      <trkpt lat="45.30294" lon="5.59209">
        <ele>194.23</ele>
        <time>2019-04-14T11:56:37.000Z</time>
      </trkpt>
      <trkpt lat="45.30298" lon="5.59238">
        <ele>194.44</ele>
        <time>2019-04-14T11:56:42.000Z</time>
      </trkpt>
      <trkpt lat="45.30302" lon="5.59269">
        <ele>194.57</ele>
        <time>2019-04-14T11:56:47.000Z</time>
      </trkpt>
      <trkpt lat="45.30305" lon="5.59282">
        <ele>194.66</ele>
        <time>2019-04-14T11:56:52.000Z</time>
      </trkpt>
      <trkpt lat="45.3031" lon="5.59294">
        <ele>194.71</ele>
        <time>2019-04-14T12:00:28.000Z</time>
      </trkpt>
      <trkpt lat="45.30313" lon="5.59317">
        <ele>195.09</ele>
        <time>2019-04-14T12:00:33.000Z</time>
      </trkpt>
      <trkpt lat="45.30318" lon="5.59343">
        <ele>194.17</ele>
        <time>2019-04-14T12:00:38.000Z</time>
      </trkpt>
      <trkpt lat="45.30318" lon="5.59372">
        <ele>193.91</ele>
        <time>2019-04-14T12:00:43.000Z</time>
      </trkpt>
      <trkpt lat="45.30319" lon="5.59405">
        <ele>196.1</ele>
        <time>2019-04-14T12:00:48.000Z</time>
      </trkpt>
      <trkpt lat="45.30317" lon="5.59435">
        <ele>192.87</ele>
        <time>2019-04-14T12:00:53.000Z</time>
      </trkpt>
      <trkpt lat="45.30315" lon="5.59471">
        <ele>190.51</ele>
        <time>2019-04-14T12:00:58.000Z</time>
      </trkpt>
      <trkpt lat="45.30311" lon="5.59509">
        <ele>188.4</ele>
        <time>2019-04-14T12:01:03.000Z</time>
      </trkpt>
      <trkpt lat="45.30311" lon="5.59545">
        <ele>189.62</ele>
        <time>2019-04-14T12:01:08.000Z</time>
      </trkpt>
      <trkpt lat="45.30312" lon="5.59577">
        <ele>190.3</ele>
        <time>2019-04-14T12:01:13.000Z</time>
      </trkpt>
      <trkpt lat="45.30314" lon="5.59613">
        <ele>192.31</ele>
        <time>2019-04-14T12:01:18.000Z</time>
      </trkpt>
      <trkpt lat="45.3032" lon="5.59646">
        <ele>193.91</ele>
        <time>2019-04-14T12:01:23.000Z</time>
      </trkpt>
      <trkpt lat="45.30325" lon="5.59681">
        <ele>194.58</ele>
        <time>2019-04-14T12:01:28.000Z</time>
      </trkpt>
      <trkpt lat="45.30329" lon="5.59711">
        <ele>194.56</ele>
        <time>2019-04-14T12:01:33.000Z</time>
      </trkpt>
      <trkpt lat="45.30332" lon="5.59743">
        <ele>193.04</ele>
        <time>2019-04-14T12:01:38.000Z</time>
      </trkpt>
      <trkpt lat="45.30335" lon="5.59779">
        <ele>194.01</ele>
        <time>2019-04-14T12:01:43.000Z</time>
      </trkpt>
      <trkpt lat="45.30335" lon="5.59813">
        <ele>192.77</ele>
        <time>2019-04-14T12:01:48.000Z</time>
      </trkpt>
      <trkpt lat="45.30333" lon="5.5985">
        <ele>194.1</ele>
        <time>2019-04-14T12:01:53.000Z</time>
      </trkpt>
      <trkpt lat="45.30333" lon="5.59882">
        <ele>192.38</ele>
        <time>2019-04-14T12:01:58.000Z</time>
      </trkpt>
      <trkpt lat="45.30329" lon="5.59918">
        <ele>194.97</ele>
        <time>2019-04-14T12:02:03.000Z</time>
      </trkpt>
      <trkpt lat="45.30325" lon="5.59952">
        <ele>192</ele>
        <time>2019-04-14T12:02:08.000Z</time>
      </trkpt>
      <trkpt lat="45.30321" lon="5.60003">
        <ele>189.4</ele>
        <time>2019-04-14T12:02:13.000Z</time>
      </trkpt>
      <trkpt lat="45.3032" lon="5.60057">
        <ele>191.39</ele>
        <time>2019-04-14T12:02:18.000Z</time>
      </trkpt>
      <trkpt lat="45.30322" lon="5.60092">
        <ele>191.66</ele>
        <time>2019-04-14T12:02:23.000Z</time>
      </trkpt>
      <trkpt lat="45.30321" lon="5.6011">
        <ele>194.12</ele>
        <time>2019-04-14T12:02:28.000Z</time>
      </trkpt>
      <trkpt lat="45.3032" lon="5.60129">
        <ele>192.17</ele>
        <time>2019-04-14T12:02:33.000Z</time>
      </trkpt>
      <trkpt lat="45.30319" lon="5.60149">
        <ele>191.16</ele>
        <time>2019-04-14T12:02:38.000Z</time>
      </trkpt>
      <trkpt lat="45.30318" lon="5.60171">
        <ele>189.53</ele>
        <time>2019-04-14T12:02:43.000Z</time>
      </trkpt>
      <trkpt lat="45.30317" lon="5.60195">
        <ele>189.12</ele>
        <time>2019-04-14T12:02:48.000Z</time>
      </trkpt>
      <trkpt lat="45.30315" lon="5.60218">
        <ele>186.72</ele>
        <time>2019-04-14T12:02:53.000Z</time>
      </trkpt>
      <trkpt lat="45.30309" lon="5.60244">
        <ele>182.3</ele>
        <time>2019-04-14T12:02:58.000Z</time>
      </trkpt>
      <trkpt lat="45.30305" lon="5.60272">
        <ele>183.03</ele>
        <time>2019-04-14T12:03:03.000Z</time>
      </trkpt>
      <trkpt lat="45.303" lon="5.60301">
        <ele>178.51</ele>
        <time>2019-04-14T12:03:08.000Z</time>
      </trkpt>
      <trkpt lat="45.30293" lon="5.60334">
        <ele>178.96</ele>
        <time>2019-04-14T12:03:13.000Z</time>
      </trkpt>
      <trkpt lat="45.30283" lon="5.60377">
        <ele>177.27</ele>
        <time>2019-04-14T12:03:18.000Z</time>
      </trkpt>
      <trkpt lat="45.30282" lon="5.60413">
        <ele>174.27</ele>
        <time>2019-04-14T12:03:23.000Z</time>
      </trkpt>
      <trkpt lat="45.30282" lon="5.60443">
        <ele>175.9</ele>
        <time>2019-04-14T12:03:28.000Z</time>
      </trkpt>
      <trkpt lat="45.30275" lon="5.60473">
        <ele>174.72</ele>
        <time>2019-04-14T12:03:33.000Z</time>
      </trkpt>
      <trkpt lat="45.3027" lon="5.60505">
        <ele>174.88</ele>
        <time>2019-04-14T12:03:38.000Z</time>
      </trkpt>
      <trkpt lat="45.30268" lon="5.60535">
        <ele>176.56</ele>
        <time>2019-04-14T12:03:43.000Z</time>
      </trkpt>
      <trkpt lat="45.3027" lon="5.60566">
        <ele>177.21</ele>
        <time>2019-04-14T12:03:48.000Z</time>
      </trkpt>
      <trkpt lat="45.30264" lon="5.60612">
        <ele>177.33</ele>
        <time>2019-04-14T12:03:53.000Z</time>
      </trkpt>
      <trkpt lat="45.30255" lon="5.60653">
        <ele>177.98</ele>
        <time>2019-04-14T12:03:58.000Z</time>
      </trkpt>
      <trkpt lat="45.30246" lon="5.60693">
        <ele>178.11</ele>
        <time>2019-04-14T12:04:03.000Z</time>
      </trkpt>
      <trkpt lat="45.30228" lon="5.60735">
        <ele>180.69</ele>
        <time>2019-04-14T12:04:08.000Z</time>
      </trkpt>
      <trkpt lat="45.30212" lon="5.60768">
        <ele>179.08</ele>
        <time>2019-04-14T12:04:13.000Z</time>
      </trkpt>
      <trkpt lat="45.30199" lon="5.60801">
        <ele>181.87</ele>
        <time>2019-04-14T12:04:18.000Z</time>
      </trkpt>
      <trkpt lat="45.30182" lon="5.60831">
        <ele>179.78</ele>
        <time>2019-04-14T12:04:23.000Z</time>
      </trkpt>
      <trkpt lat="45.30162" lon="5.60867">
        <ele>180.38</ele>
        <time>2019-04-14T12:04:28.000Z</time>
      </trkpt>
      <trkpt lat="45.30149" lon="5.60907">
        <ele>180.81</ele>
        <time>2019-04-14T12:04:33.000Z</time>
      </trkpt>
      <trkpt lat="45.30139" lon="5.60944">
        <ele>181.02</ele>
        <time>2019-04-14T12:04:38.000Z</time>
      </trkpt>
      <trkpt lat="45.30125" lon="5.60981">
        <ele>181.06</ele>
        <time>2019-04-14T12:04:43.000Z</time>
      </trkpt>
      <trkpt lat="45.30113" lon="5.61018">
        <ele>183.49</ele>
        <time>2019-04-14T12:04:48.000Z</time>
      </trkpt>
      <trkpt lat="45.30102" lon="5.61051">
        <ele>185.05</ele>
        <time>2019-04-14T12:04:53.000Z</time>
      </trkpt>
      <trkpt lat="45.30091" lon="5.61079">
        <ele>185.05</ele>
        <time>2019-04-14T12:04:58.000Z</time>
      </trkpt>
      <trkpt lat="45.30078" lon="5.61113">
        <ele>187.64</ele>
        <time>2019-04-14T12:05:03.000Z</time>
      </trkpt>
      <trkpt lat="45.30065" lon="5.61144">
        <ele>190.46</ele>
        <time>2019-04-14T12:05:08.000Z</time>
      </trkpt>
      <trkpt lat="45.30053" lon="5.61176">
        <ele>192.95</ele>
        <time>2019-04-14T12:05:13.000Z</time>
      </trkpt>
      <trkpt lat="45.30038" lon="5.61212">
        <ele>195.21</ele>
        <time>2019-04-14T12:05:18.000Z</time>
      </trkpt>
      <trkpt lat="45.30024" lon="5.61248">
        <ele>196.68</ele>
        <time>2019-04-14T12:05:23.000Z</time>
      </trkpt>
      <trkpt lat="45.30011" lon="5.61281">
        <ele>201.13</ele>
        <time>2019-04-14T12:05:28.000Z</time>
      </trkpt>
      <trkpt lat="45.29995" lon="5.61315">
        <ele>201.1</ele>
        <time>2019-04-14T12:05:33.000Z</time>
      </trkpt>
      <trkpt lat="45.2998" lon="5.61346">
        <ele>197.97</ele>
        <time>2019-04-14T12:05:38.000Z</time>
      </trkpt>
      <trkpt lat="45.29961" lon="5.61373">
        <ele>201.02</ele>
        <time>2019-04-14T12:05:43.000Z</time>
      </trkpt>
      <trkpt lat="45.29942" lon="5.614">
        <ele>196.74</ele>
        <time>2019-04-14T12:05:48.000Z</time>
      </trkpt>
      <trkpt lat="45.29923" lon="5.61419">
        <ele>192.84</ele>
        <time>2019-04-14T12:05:53.000Z</time>
      </trkpt>
      <trkpt lat="45.29904" lon="5.61444">
        <ele>190.05</ele>
        <time>2019-04-14T12:05:58.000Z</time>
      </trkpt>
      <trkpt lat="45.29884" lon="5.61464">
        <ele>184.75</ele>
        <time>2019-04-14T12:06:03.000Z</time>
      </trkpt>
      <trkpt lat="45.29864" lon="5.61488">
        <ele>183.43</ele>
        <time>2019-04-14T12:06:08.000Z</time>
      </trkpt>
      <trkpt lat="45.29845" lon="5.61508">
        <ele>182.08</ele>
        <time>2019-04-14T12:06:13.000Z</time>
      </trkpt>
      <trkpt lat="45.29825" lon="5.61528">
        <ele>182.79</ele>
        <time>2019-04-14T12:06:18.000Z</time>
      </trkpt>
      <trkpt lat="45.2981" lon="5.61545">
        <ele>182.32</ele>
        <time>2019-04-14T12:06:23.000Z</time>
      </trkpt>
      <trkpt lat="45.29789" lon="5.61565">
        <ele>183.12</ele>
        <time>2019-04-14T12:06:28.000Z</time>
      </trkpt>
      <trkpt lat="45.29766" lon="5.61585">
        <ele>185.42</ele>
        <time>2019-04-14T12:06:33.000Z</time>
      </trkpt>
      <trkpt lat="45.29742" lon="5.61606">
        <ele>184.8</ele>
        <time>2019-04-14T12:06:38.000Z</time>
      </trkpt>
      <trkpt lat="45.29726" lon="5.61618">
        <ele>188.88</ele>
        <time>2019-04-14T12:06:43.000Z</time>
      </trkpt>
      <trkpt lat="45.29708" lon="5.61633">
        <ele>191.46</ele>
        <time>2019-04-14T12:06:48.000Z</time>
      </trkpt>
      <trkpt lat="45.29683" lon="5.61657">
        <ele>190.45</ele>
        <time>2019-04-14T12:06:53.000Z</time>
      </trkpt>
      <trkpt lat="45.29662" lon="5.6168">
        <ele>190.7</ele>
        <time>2019-04-14T12:06:58.000Z</time>
      </trkpt>
      <trkpt lat="45.29643" lon="5.617">
        <ele>187.26</ele>
        <time>2019-04-14T12:07:03.000Z</time>
      </trkpt>
      <trkpt lat="45.29621" lon="5.61716">
        <ele>190.97</ele>
        <time>2019-04-14T12:07:08.000Z</time>
      </trkpt>
      <trkpt lat="45.29595" lon="5.61721">
        <ele>192.1</ele>
        <time>2019-04-14T12:07:13.000Z</time>
      </trkpt>
      <trkpt lat="45.2957" lon="5.6173">
        <ele>193.87</ele>
        <time>2019-04-14T12:07:18.000Z</time>
      </trkpt>
      <trkpt lat="45.29543" lon="5.61738">
        <ele>188.6</ele>
        <time>2019-04-14T12:07:23.000Z</time>
      </trkpt>
      <trkpt lat="45.29518" lon="5.61746">
        <ele>190.74</ele>
        <time>2019-04-14T12:07:28.000Z</time>
      </trkpt>
      <trkpt lat="45.29495" lon="5.61751">
        <ele>192.13</ele>
        <time>2019-04-14T12:07:33.000Z</time>
      </trkpt>
      <trkpt lat="45.29466" lon="5.61755">
        <ele>194.01</ele>
        <time>2019-04-14T12:07:38.000Z</time>
      </trkpt>
      <trkpt lat="45.2944" lon="5.6176">
        <ele>190.9</ele>
        <time>2019-04-14T12:07:43.000Z</time>
      </trkpt>
      <trkpt lat="45.29412" lon="5.61764">
        <ele>190.6</ele>
        <time>2019-04-14T12:07:48.000Z</time>
      </trkpt>
      <trkpt lat="45.29382" lon="5.61769">
        <ele>190.1</ele>
        <time>2019-04-14T12:07:53.000Z</time>
      </trkpt>
      <trkpt lat="45.29356" lon="5.61773">
        <ele>192.24</ele>
        <time>2019-04-14T12:07:58.000Z</time>
      </trkpt>
      <trkpt lat="45.29332" lon="5.6178">
        <ele>192.22</ele>
        <time>2019-04-14T12:08:03.000Z</time>
      </trkpt>
      <trkpt lat="45.29306" lon="5.61782">
        <ele>187.41</ele>
        <time>2019-04-14T12:08:08.000Z</time>
      </trkpt>
      <trkpt lat="45.29279" lon="5.61789">
        <ele>184.58</ele>
        <time>2019-04-14T12:08:13.000Z</time>
      </trkpt>
      <trkpt lat="45.29253" lon="5.618">
        <ele>185.81</ele>
        <time>2019-04-14T12:08:18.000Z</time>
      </trkpt>
      <trkpt lat="45.29227" lon="5.61809">
        <ele>188.07</ele>
        <time>2019-04-14T12:08:23.000Z</time>
      </trkpt>
      <trkpt lat="45.29201" lon="5.61813">
        <ele>185.59</ele>
        <time>2019-04-14T12:08:28.000Z</time>
      </trkpt>
      <trkpt lat="45.29177" lon="5.6182">
        <ele>187.45</ele>
        <time>2019-04-14T12:08:33.000Z</time>
      </trkpt>
      <trkpt lat="45.29152" lon="5.61823">
        <ele>186.87</ele>
        <time>2019-04-14T12:08:38.000Z</time>
      </trkpt>
      <trkpt lat="45.29128" lon="5.61828">
        <ele>187.67</ele>
        <time>2019-04-14T12:08:43.000Z</time>
      </trkpt>
      <trkpt lat="45.29103" lon="5.61838">
        <ele>189.5</ele>
        <time>2019-04-14T12:08:48.000Z</time>
      </trkpt>
      <trkpt lat="45.29076" lon="5.61838">
        <ele>188.42</ele>
        <time>2019-04-14T12:08:53.000Z</time>
      </trkpt>
      <trkpt lat="45.29054" lon="5.61842">
        <ele>187.12</ele>
        <time>2019-04-14T12:08:58.000Z</time>
      </trkpt>
      <trkpt lat="45.2903" lon="5.61844">
        <ele>185.43</ele>
        <time>2019-04-14T12:09:03.000Z</time>
      </trkpt>
      <trkpt lat="45.29009" lon="5.61851">
        <ele>186.38</ele>
        <time>2019-04-14T12:09:08.000Z</time>
      </trkpt>
      <trkpt lat="45.28991" lon="5.61855">
        <ele>186.12</ele>
        <time>2019-04-14T12:09:13.000Z</time>
      </trkpt>
      <trkpt lat="45.28971" lon="5.61862">
        <ele>188.28</ele>
        <time>2019-04-14T12:09:18.000Z</time>
      </trkpt>
      <trkpt lat="45.2895" lon="5.61866">
        <ele>190.18</ele>
        <time>2019-04-14T12:09:23.000Z</time>
      </trkpt>
      <trkpt lat="45.28927" lon="5.61873">
        <ele>194.01</ele>
        <time>2019-04-14T12:09:28.000Z</time>
      </trkpt>
      <trkpt lat="45.28901" lon="5.61877">
        <ele>191.92</ele>
        <time>2019-04-14T12:09:33.000Z</time>
      </trkpt>
      <trkpt lat="45.28879" lon="5.61883">
        <ele>191.33</ele>
        <time>2019-04-14T12:09:38.000Z</time>
      </trkpt>
      <trkpt lat="45.28856" lon="5.61887">
        <ele>191.12</ele>
        <time>2019-04-14T12:09:43.000Z</time>
      </trkpt>
      <trkpt lat="45.28833" lon="5.61893">
        <ele>193.04</ele>
        <time>2019-04-14T12:09:48.000Z</time>
      </trkpt>
      <trkpt lat="45.28808" lon="5.61897">
        <ele>190.12</ele>
        <time>2019-04-14T12:09:53.000Z</time>
      </trkpt>
      <trkpt lat="45.28783" lon="5.61904">
        <ele>186.83</ele>
        <time>2019-04-14T12:09:58.000Z</time>
      </trkpt>
      <trkpt lat="45.28758" lon="5.6191">
        <ele>185.32</ele>
        <time>2019-04-14T12:10:03.000Z</time>
      </trkpt>
      <trkpt lat="45.28734" lon="5.61917">
        <ele>188.22</ele>
        <time>2019-04-14T12:10:08.000Z</time>
      </trkpt>
      <trkpt lat="45.28711" lon="5.6192">
        <ele>187.67</ele>
        <time>2019-04-14T12:10:13.000Z</time>
      </trkpt>
      <trkpt lat="45.28688" lon="5.61926">
        <ele>187.28</ele>
        <time>2019-04-14T12:10:18.000Z</time>
      </trkpt>
      <trkpt lat="45.28663" lon="5.61933">
        <ele>187.12</ele>
        <time>2019-04-14T12:10:23.000Z</time>
      </trkpt>
      <trkpt lat="45.28637" lon="5.6194">
        <ele>187.32</ele>
        <time>2019-04-14T12:10:28.000Z</time>
      </trkpt>
      <trkpt lat="45.28614" lon="5.61946">
        <ele>189.21</ele>
        <time>2019-04-14T12:10:33.000Z</time>
      </trkpt>
      <trkpt lat="45.28591" lon="5.61955">
        <ele>185.88</ele>
        <time>2019-04-14T12:10:38.000Z</time>
      </trkpt>
      <trkpt lat="45.28568" lon="5.61963">
        <ele>186.18</ele>
        <time>2019-04-14T12:10:43.000Z</time>
      </trkpt>
      <trkpt lat="45.28542" lon="5.61967">
        <ele>183.27</ele>
        <time>2019-04-14T12:10:48.000Z</time>
      </trkpt>
      <trkpt lat="45.28519" lon="5.61969">
        <ele>180.94</ele>
        <time>2019-04-14T12:10:53.000Z</time>
      </trkpt>
      <trkpt lat="45.28496" lon="5.61981">
        <ele>181.79</ele>
        <time>2019-04-14T12:10:58.000Z</time>
      </trkpt>
      <trkpt lat="45.28471" lon="5.61984">
        <ele>181.82</ele>
        <time>2019-04-14T12:11:03.000Z</time>
      </trkpt>
      <trkpt lat="45.28448" lon="5.61988">
        <ele>182.92</ele>
        <time>2019-04-14T12:11:08.000Z</time>
      </trkpt>
      <trkpt lat="45.28425" lon="5.61988">
        <ele>182.22</ele>
        <time>2019-04-14T12:11:13.000Z</time>
      </trkpt>
      <trkpt lat="45.28402" lon="5.61995">
        <ele>180.72</ele>
        <time>2019-04-14T12:11:18.000Z</time>
      </trkpt>
      <trkpt lat="45.28383" lon="5.61998">
        <ele>181.84</ele>
        <time>2019-04-14T12:11:23.000Z</time>
      </trkpt>
      <trkpt lat="45.28356" lon="5.62006">
        <ele>180.44</ele>
        <time>2019-04-14T12:11:28.000Z</time>
      </trkpt>
      <trkpt lat="45.28331" lon="5.62011">
        <ele>179.81</ele>
        <time>2019-04-14T12:11:33.000Z</time>
      </trkpt>
      <trkpt lat="45.2831" lon="5.62015">
        <ele>180.96</ele>
        <time>2019-04-14T12:11:38.000Z</time>
      </trkpt>
      <trkpt lat="45.28285" lon="5.6202">
        <ele>181.8</ele>
        <time>2019-04-14T12:11:43.000Z</time>
      </trkpt>
      <trkpt lat="45.28261" lon="5.62027">
        <ele>186.88</ele>
        <time>2019-04-14T12:11:48.000Z</time>
      </trkpt>
      <trkpt lat="45.28238" lon="5.62031">
        <ele>187.26</ele>
        <time>2019-04-14T12:11:53.000Z</time>
      </trkpt>
      <trkpt lat="45.28214" lon="5.62038">
        <ele>189.54</ele>
        <time>2019-04-14T12:11:58.000Z</time>
      </trkpt>
      <trkpt lat="45.28191" lon="5.62041">
        <ele>189.23</ele>
        <time>2019-04-14T12:12:03.000Z</time>
      </trkpt>
      <trkpt lat="45.28169" lon="5.62045">
        <ele>187.25</ele>
        <time>2019-04-14T12:12:08.000Z</time>
      </trkpt>
      <trkpt lat="45.28148" lon="5.62051">
        <ele>183.55</ele>
        <time>2019-04-14T12:12:13.000Z</time>
      </trkpt>
      <trkpt lat="45.28124" lon="5.62055">
        <ele>185.79</ele>
        <time>2019-04-14T12:12:18.000Z</time>
      </trkpt>
      <trkpt lat="45.28098" lon="5.6206">
        <ele>186.48</ele>
        <time>2019-04-14T12:12:23.000Z</time>
      </trkpt>
      <trkpt lat="45.28071" lon="5.62062">
        <ele>179.76</ele>
        <time>2019-04-14T12:12:28.000Z</time>
      </trkpt>
      <trkpt lat="45.2805" lon="5.62063">
        <ele>179.6</ele>
        <time>2019-04-14T12:12:33.000Z</time>
      </trkpt>
      <trkpt lat="45.2803" lon="5.62064">
        <ele>183.23</ele>
        <time>2019-04-14T12:12:38.000Z</time>
      </trkpt>
      <trkpt lat="45.28006" lon="5.62062">
        <ele>185.69</ele>
        <time>2019-04-14T12:12:43.000Z</time>
      </trkpt>
      <trkpt lat="45.27985" lon="5.62064">
        <ele>182.09</ele>
        <time>2019-04-14T12:12:48.000Z</time>
      </trkpt>
      <trkpt lat="45.27965" lon="5.62067">
        <ele>183.19</ele>
        <time>2019-04-14T12:12:53.000Z</time>
      </trkpt>
      <trkpt lat="45.27949" lon="5.62067">
        <ele>182.57</ele>
        <time>2019-04-14T12:12:58.000Z</time>
      </trkpt>
      <trkpt lat="45.27933" lon="5.62066">
        <ele>182.38</ele>
        <time>2019-04-14T12:13:03.000Z</time>
      </trkpt>
      <trkpt lat="45.27919" lon="5.6207">
        <ele>182.95</ele>
        <time>2019-04-14T12:13:08.000Z</time>
      </trkpt>
      <trkpt lat="45.279" lon="5.62074">
        <ele>185.79</ele>
        <time>2019-04-14T12:13:13.000Z</time>
      </trkpt>
      <trkpt lat="45.27873" lon="5.62076">
        <ele>185.67</ele>
        <time>2019-04-14T12:13:18.000Z</time>
      </trkpt>
      <trkpt lat="45.27851" lon="5.62079">
        <ele>184.12</ele>
        <time>2019-04-14T12:13:23.000Z</time>
      </trkpt>
      <trkpt lat="45.27826" lon="5.62088">
        <ele>185.21</ele>
        <time>2019-04-14T12:13:28.000Z</time>
      </trkpt>
      <trkpt lat="45.27797" lon="5.6209">
        <ele>187.05</ele>
        <time>2019-04-14T12:13:33.000Z</time>
      </trkpt>
      <trkpt lat="45.27772" lon="5.62095">
        <ele>186.7</ele>
        <time>2019-04-14T12:13:38.000Z</time>
      </trkpt>
      <trkpt lat="45.27746" lon="5.62099">
        <ele>187.39</ele>
        <time>2019-04-14T12:13:43.000Z</time>
      </trkpt>
      <trkpt lat="45.27717" lon="5.62107">
        <ele>189.65</ele>
        <time>2019-04-14T12:13:48.000Z</time>
      </trkpt>
      <trkpt lat="45.27691" lon="5.62108">
        <ele>186.49</ele>
        <time>2019-04-14T12:13:53.000Z</time>
      </trkpt>
      <trkpt lat="45.2767" lon="5.62112">
        <ele>189.67</ele>
        <time>2019-04-14T12:13:58.000Z</time>
      </trkpt>
      <trkpt lat="45.27651" lon="5.62117">
        <ele>190.25</ele>
        <time>2019-04-14T12:14:03.000Z</time>
      </trkpt>
      <trkpt lat="45.27633" lon="5.62125">
        <ele>189.83</ele>
        <time>2019-04-14T12:14:08.000Z</time>
      </trkpt>
      <trkpt lat="45.27613" lon="5.62133">
        <ele>192.73</ele>
        <time>2019-04-14T12:14:13.000Z</time>
      </trkpt>
      <trkpt lat="45.27587" lon="5.62135">
        <ele>194.46</ele>
        <time>2019-04-14T12:14:18.000Z</time>
      </trkpt>
      <trkpt lat="45.27558" lon="5.62136">
        <ele>194.64</ele>
        <time>2019-04-14T12:14:23.000Z</time>
      </trkpt>
      <trkpt lat="45.27536" lon="5.62137">
        <ele>195.51</ele>
        <time>2019-04-14T12:14:28.000Z</time>
      </trkpt>
      <trkpt lat="45.2752" lon="5.62134">
        <ele>196.34</ele>
        <time>2019-04-14T12:14:33.000Z</time>
      </trkpt>
      <trkpt lat="45.27494" lon="5.62127">
        <ele>196.04</ele>
        <time>2019-04-14T12:14:38.000Z</time>
      </trkpt>
      <trkpt lat="45.27474" lon="5.6213">
        <ele>198.38</ele>
        <time>2019-04-14T12:14:43.000Z</time>
      </trkpt>
      <trkpt lat="45.27452" lon="5.62137">
        <ele>196.5</ele>
        <time>2019-04-14T12:14:48.000Z</time>
      </trkpt>
      <trkpt lat="45.27429" lon="5.62144">
        <ele>197.67</ele>
        <time>2019-04-14T12:14:53.000Z</time>
      </trkpt>
      <trkpt lat="45.2741" lon="5.62151">
        <ele>196.26</ele>
        <time>2019-04-14T12:14:58.000Z</time>
      </trkpt>
      <trkpt lat="45.27392" lon="5.62155">
        <ele>196.41</ele>
        <time>2019-04-14T12:15:03.000Z</time>
      </trkpt>
      <trkpt lat="45.27372" lon="5.62156">
        <ele>197.15</ele>
        <time>2019-04-14T12:15:08.000Z</time>
      </trkpt>
      <trkpt lat="45.27354" lon="5.62159">
        <ele>196.29</ele>
        <time>2019-04-14T12:15:13.000Z</time>
      </trkpt>
      <trkpt lat="45.27338" lon="5.62168">
        <ele>200.95</ele>
        <time>2019-04-14T12:15:18.000Z</time>
      </trkpt>
      <trkpt lat="45.27322" lon="5.62179">
        <ele>204.84</ele>
        <time>2019-04-14T12:15:23.000Z</time>
      </trkpt>
      <trkpt lat="45.27305" lon="5.62191">
        <ele>207.92</ele>
        <time>2019-04-14T12:15:28.000Z</time>
      </trkpt>
      <trkpt lat="45.27283" lon="5.62203">
        <ele>209.46</ele>
        <time>2019-04-14T12:15:33.000Z</time>
      </trkpt>
      <trkpt lat="45.27263" lon="5.62214">
        <ele>212.8</ele>
        <time>2019-04-14T12:15:38.000Z</time>
      </trkpt>
      <trkpt lat="45.27243" lon="5.62223">
        <ele>212.96</ele>
        <time>2019-04-14T12:15:43.000Z</time>
      </trkpt>
      <trkpt lat="45.2721" lon="5.62231">
        <ele>207.49</ele>
        <time>2019-04-14T12:15:48.000Z</time>
      </trkpt>
      <trkpt lat="45.27177" lon="5.62248">
        <ele>203.4</ele>
        <time>2019-04-14T12:15:53.000Z</time>
      </trkpt>
      <trkpt lat="45.27152" lon="5.62265">
        <ele>199.69</ele>
        <time>2019-04-14T12:15:58.000Z</time>
      </trkpt>
      <trkpt lat="45.2713" lon="5.62273">
        <ele>197.86</ele>
        <time>2019-04-14T12:16:03.000Z</time>
      </trkpt>
      <trkpt lat="45.27118" lon="5.62285">
        <ele>199.98</ele>
        <time>2019-04-14T12:16:08.000Z</time>
      </trkpt>
      <trkpt lat="45.27103" lon="5.62294">
        <ele>199.21</ele>
        <time>2019-04-14T12:16:13.000Z</time>
      </trkpt>
      <trkpt lat="45.27088" lon="5.62305">
        <ele>198.96</ele>
        <time>2019-04-14T12:16:18.000Z</time>
      </trkpt>
      <trkpt lat="45.27072" lon="5.62317">
        <ele>202.16</ele>
        <time>2019-04-14T12:16:23.000Z</time>
      </trkpt>
      <trkpt lat="45.27046" lon="5.62334">
        <ele>203.47</ele>
        <time>2019-04-14T12:16:28.000Z</time>
      </trkpt>
      <trkpt lat="45.27018" lon="5.62348">
        <ele>203</ele>
        <time>2019-04-14T12:16:33.000Z</time>
      </trkpt>
      <trkpt lat="45.26991" lon="5.62361">
        <ele>203.87</ele>
        <time>2019-04-14T12:16:38.000Z</time>
      </trkpt>
      <trkpt lat="45.26965" lon="5.6237">
        <ele>200.73</ele>
        <time>2019-04-14T12:16:43.000Z</time>
      </trkpt>
      <trkpt lat="45.26942" lon="5.62384">
        <ele>198.31</ele>
        <time>2019-04-14T12:16:48.000Z</time>
      </trkpt>
      <trkpt lat="45.26918" lon="5.62402">
        <ele>197.19</ele>
        <time>2019-04-14T12:16:53.000Z</time>
      </trkpt>
      <trkpt lat="45.26904" lon="5.62418">
        <ele>201.64</ele>
        <time>2019-04-14T12:16:58.000Z</time>
      </trkpt>
      <trkpt lat="45.26881" lon="5.62438">
        <ele>200.05</ele>
        <time>2019-04-14T12:17:03.000Z</time>
      </trkpt>
      <trkpt lat="45.26858" lon="5.6246">
        <ele>196.26</ele>
        <time>2019-04-14T12:17:08.000Z</time>
      </trkpt>
      <trkpt lat="45.26837" lon="5.62483">
        <ele>199.84</ele>
        <time>2019-04-14T12:17:13.000Z</time>
      </trkpt>
      <trkpt lat="45.26816" lon="5.62504">
        <ele>199.7</ele>
        <time>2019-04-14T12:17:18.000Z</time>
      </trkpt>
      <trkpt lat="45.26791" lon="5.62519">
        <ele>198.22</ele>
        <time>2019-04-14T12:17:23.000Z</time>
      </trkpt>
      <trkpt lat="45.26769" lon="5.62539">
        <ele>196.52</ele>
        <time>2019-04-14T12:17:28.000Z</time>
      </trkpt>
      <trkpt lat="45.26747" lon="5.62556">
        <ele>196.85</ele>
        <time>2019-04-14T12:17:33.000Z</time>
      </trkpt>
      <trkpt lat="45.26725" lon="5.62575">
        <ele>196</ele>
        <time>2019-04-14T12:17:38.000Z</time>
      </trkpt>
      <trkpt lat="45.26708" lon="5.62592">
        <ele>191.41</ele>
        <time>2019-04-14T12:17:43.000Z</time>
      </trkpt>
      <trkpt lat="45.26694" lon="5.62606">
        <ele>189.82</ele>
        <time>2019-04-14T12:17:48.000Z</time>
      </trkpt>
      <trkpt lat="45.26678" lon="5.62625">
        <ele>190.92</ele>
        <time>2019-04-14T12:17:53.000Z</time>
      </trkpt>
      <trkpt lat="45.26663" lon="5.62645">
        <ele>196.29</ele>
        <time>2019-04-14T12:17:58.000Z</time>
      </trkpt>
      <trkpt lat="45.26646" lon="5.62664">
        <ele>195.08</ele>
        <time>2019-04-14T12:18:03.000Z</time>
      </trkpt>
      <trkpt lat="45.26627" lon="5.62685">
        <ele>194.5</ele>
        <time>2019-04-14T12:18:08.000Z</time>
      </trkpt>
      <trkpt lat="45.26605" lon="5.62705">
        <ele>192.81</ele>
        <time>2019-04-14T12:18:13.000Z</time>
      </trkpt>
      <trkpt lat="45.26584" lon="5.62722">
        <ele>191.75</ele>
        <time>2019-04-14T12:18:18.000Z</time>
      </trkpt>
      <trkpt lat="45.2656" lon="5.62737">
        <ele>192.58</ele>
        <time>2019-04-14T12:18:23.000Z</time>
      </trkpt>
      <trkpt lat="45.26545" lon="5.62755">
        <ele>191.03</ele>
        <time>2019-04-14T12:18:28.000Z</time>
      </trkpt>
      <trkpt lat="45.26527" lon="5.62774">
        <ele>189.92</ele>
        <time>2019-04-14T12:18:33.000Z</time>
      </trkpt>
      <trkpt lat="45.26508" lon="5.62795">
        <ele>193.44</ele>
        <time>2019-04-14T12:18:38.000Z</time>
      </trkpt>
      <trkpt lat="45.26485" lon="5.62819">
        <ele>191.1</ele>
        <time>2019-04-14T12:18:43.000Z</time>
      </trkpt>
      <trkpt lat="45.26464" lon="5.62843">
        <ele>189.09</ele>
        <time>2019-04-14T12:18:48.000Z</time>
      </trkpt>
      <trkpt lat="45.26442" lon="5.62867">
        <ele>190</ele>
        <time>2019-04-14T12:18:53.000Z</time>
      </trkpt>
      <trkpt lat="45.26422" lon="5.62886">
        <ele>188.21</ele>
        <time>2019-04-14T12:18:58.000Z</time>
      </trkpt>
      <trkpt lat="45.26404" lon="5.62908">
        <ele>187.21</ele>
        <time>2019-04-14T12:19:03.000Z</time>
      </trkpt>
      <trkpt lat="45.26385" lon="5.62929">
        <ele>189.03</ele>
        <time>2019-04-14T12:19:08.000Z</time>
      </trkpt>
      <trkpt lat="45.26368" lon="5.62953">
        <ele>188.36</ele>
        <time>2019-04-14T12:19:13.000Z</time>
      </trkpt>
      <trkpt lat="45.26348" lon="5.6298">
        <ele>186.15</ele>
        <time>2019-04-14T12:19:18.000Z</time>
      </trkpt>
      <trkpt lat="45.26327" lon="5.63002">
        <ele>188.32</ele>
        <time>2019-04-14T12:19:23.000Z</time>
      </trkpt>
      <trkpt lat="45.26307" lon="5.63029">
        <ele>194.22</ele>
        <time>2019-04-14T12:19:28.000Z</time>
      </trkpt>
      <trkpt lat="45.26286" lon="5.6305">
        <ele>197.23</ele>
        <time>2019-04-14T12:19:33.000Z</time>
      </trkpt>
      <trkpt lat="45.26272" lon="5.63073">
        <ele>202.09</ele>
        <time>2019-04-14T12:19:38.000Z</time>
      </trkpt>
      <trkpt lat="45.26254" lon="5.63096">
        <ele>201.16</ele>
        <time>2019-04-14T12:19:43.000Z</time>
      </trkpt>
      <trkpt lat="45.26238" lon="5.63118">
        <ele>199.48</ele>
        <time>2019-04-14T12:19:48.000Z</time>
      </trkpt>
      <trkpt lat="45.26215" lon="5.6314">
        <ele>197.87</ele>
        <time>2019-04-14T12:19:53.000Z</time>
      </trkpt>
      <trkpt lat="45.26194" lon="5.63164">
        <ele>198.21</ele>
        <time>2019-04-14T12:19:58.000Z</time>
      </trkpt>
      <trkpt lat="45.26174" lon="5.63188">
        <ele>199.74</ele>
        <time>2019-04-14T12:20:03.000Z</time>
      </trkpt>
      <trkpt lat="45.26156" lon="5.63211">
        <ele>201.84</ele>
        <time>2019-04-14T12:20:08.000Z</time>
      </trkpt>
      <trkpt lat="45.26136" lon="5.63234">
        <ele>202.25</ele>
        <time>2019-04-14T12:20:13.000Z</time>
      </trkpt>
      <trkpt lat="45.26117" lon="5.63258">
        <ele>203.95</ele>
        <time>2019-04-14T12:20:18.000Z</time>
      </trkpt>
      <trkpt lat="45.26099" lon="5.63282">
        <ele>206.02</ele>
        <time>2019-04-14T12:20:23.000Z</time>
      </trkpt>
      <trkpt lat="45.26084" lon="5.633">
        <ele>207.71</ele>
        <time>2019-04-14T12:20:28.000Z</time>
      </trkpt>
      <trkpt lat="45.26069" lon="5.6332">
        <ele>209.84</ele>
        <time>2019-04-14T12:20:33.000Z</time>
      </trkpt>
      <trkpt lat="45.26051" lon="5.6334">
        <ele>209.91</ele>
        <time>2019-04-14T12:20:38.000Z</time>
      </trkpt>
      <trkpt lat="45.26032" lon="5.63365">
        <ele>206.24</ele>
        <time>2019-04-14T12:20:43.000Z</time>
      </trkpt>
      <trkpt lat="45.26017" lon="5.63389">
        <ele>207.24</ele>
        <time>2019-04-14T12:20:48.000Z</time>
      </trkpt>
      <trkpt lat="45.26" lon="5.63411">
        <ele>203.35</ele>
        <time>2019-04-14T12:20:53.000Z</time>
      </trkpt>
      <trkpt lat="45.25983" lon="5.63433">
        <ele>203.48</ele>
        <time>2019-04-14T12:20:58.000Z</time>
      </trkpt>
      <trkpt lat="45.25959" lon="5.63458">
        <ele>200.72</ele>
        <time>2019-04-14T12:21:03.000Z</time>
      </trkpt>
      <trkpt lat="45.25941" lon="5.63475">
        <ele>200.14</ele>
        <time>2019-04-14T12:21:08.000Z</time>
      </trkpt>
      <trkpt lat="45.25925" lon="5.63498">
        <ele>201</ele>
        <time>2019-04-14T12:21:13.000Z</time>
      </trkpt>
      <trkpt lat="45.2591" lon="5.63522">
        <ele>204.49</ele>
        <time>2019-04-14T12:21:18.000Z</time>
      </trkpt>
      <trkpt lat="45.25893" lon="5.63543">
        <ele>206.98</ele>
        <time>2019-04-14T12:21:23.000Z</time>
      </trkpt>
      <trkpt lat="45.25866" lon="5.63563">
        <ele>206.87</ele>
        <time>2019-04-14T12:21:28.000Z</time>
      </trkpt>
      <trkpt lat="45.25843" lon="5.63592">
        <ele>202.3</ele>
        <time>2019-04-14T12:21:33.000Z</time>
      </trkpt>
      <trkpt lat="45.25825" lon="5.63617">
        <ele>202.27</ele>
        <time>2019-04-14T12:21:38.000Z</time>
      </trkpt>
      <trkpt lat="45.25806" lon="5.63638">
        <ele>200.09</ele>
        <time>2019-04-14T12:21:43.000Z</time>
      </trkpt>
      <trkpt lat="45.25793" lon="5.63655">
        <ele>201.09</ele>
        <time>2019-04-14T12:21:48.000Z</time>
      </trkpt>
      <trkpt lat="45.25778" lon="5.6367">
        <ele>200.55</ele>
        <time>2019-04-14T12:21:53.000Z</time>
      </trkpt>
      <trkpt lat="45.2576" lon="5.63689">
        <ele>197.91</ele>
        <time>2019-04-14T12:21:58.000Z</time>
      </trkpt>
      <trkpt lat="45.25742" lon="5.63707">
        <ele>197.19</ele>
        <time>2019-04-14T12:22:03.000Z</time>
      </trkpt>
      <trkpt lat="45.25722" lon="5.63735">
        <ele>197.43</ele>
        <time>2019-04-14T12:22:08.000Z</time>
      </trkpt>
      <trkpt lat="45.25703" lon="5.6376">
        <ele>195.04</ele>
        <time>2019-04-14T12:22:13.000Z</time>
      </trkpt>
      <trkpt lat="45.25681" lon="5.63786">
        <ele>198.52</ele>
        <time>2019-04-14T12:22:18.000Z</time>
      </trkpt>
      <trkpt lat="45.25663" lon="5.63811">
        <ele>196.69</ele>
        <time>2019-04-14T12:22:23.000Z</time>
      </trkpt>
      <trkpt lat="45.25647" lon="5.63836">
        <ele>198.72</ele>
        <time>2019-04-14T12:22:28.000Z</time>
      </trkpt>
      <trkpt lat="45.25633" lon="5.63863">
        <ele>200.33</ele>
        <time>2019-04-14T12:22:33.000Z</time>
      </trkpt>
      <trkpt lat="45.2562" lon="5.63892">
        <ele>201.28</ele>
        <time>2019-04-14T12:22:38.000Z</time>
      </trkpt>
      <trkpt lat="45.25604" lon="5.63927">
        <ele>199.79</ele>
        <time>2019-04-14T12:22:43.000Z</time>
      </trkpt>
      <trkpt lat="45.25591" lon="5.63959">
        <ele>201.55</ele>
        <time>2019-04-14T12:22:48.000Z</time>
      </trkpt>
      <trkpt lat="45.25581" lon="5.63988">
        <ele>205.72</ele>
        <time>2019-04-14T12:22:53.000Z</time>
      </trkpt>
      <trkpt lat="45.2557" lon="5.64015">
        <ele>207.39</ele>
        <time>2019-04-14T12:22:58.000Z</time>
      </trkpt>
      <trkpt lat="45.25558" lon="5.64049">
        <ele>205.47</ele>
        <time>2019-04-14T12:23:03.000Z</time>
      </trkpt>
      <trkpt lat="45.25542" lon="5.64077">
        <ele>201.86</ele>
        <time>2019-04-14T12:23:08.000Z</time>
      </trkpt>
      <trkpt lat="45.25524" lon="5.6411">
        <ele>199.82</ele>
        <time>2019-04-14T12:23:13.000Z</time>
      </trkpt>
      <trkpt lat="45.25512" lon="5.64137">
        <ele>196.51</ele>
        <time>2019-04-14T12:23:18.000Z</time>
      </trkpt>
      <trkpt lat="45.25497" lon="5.64161">
        <ele>194.89</ele>
        <time>2019-04-14T12:23:23.000Z</time>
      </trkpt>
      <trkpt lat="45.25487" lon="5.64182">
        <ele>198.52</ele>
        <time>2019-04-14T12:23:28.000Z</time>
      </trkpt>
      <trkpt lat="45.25473" lon="5.64207">
        <ele>197.28</ele>
        <time>2019-04-14T12:23:33.000Z</time>
      </trkpt>
      <trkpt lat="45.25461" lon="5.64226">
        <ele>196.16</ele>
        <time>2019-04-14T12:23:38.000Z</time>
      </trkpt>
      <trkpt lat="45.25457" lon="5.64239">
        <ele>199.34</ele>
        <time>2019-04-14T12:23:45.000Z</time>
      </trkpt>
      <trkpt lat="45.2545" lon="5.64247">
        <ele>199.9</ele>
        <time>2019-04-14T12:23:53.000Z</time>
      </trkpt>
      <trkpt lat="45.25447" lon="5.64261">
        <ele>203.58</ele>
        <time>2019-04-14T12:26:13.000Z</time>
      </trkpt>
      <trkpt lat="45.25436" lon="5.64284">
        <ele>203.39</ele>
        <time>2019-04-14T12:26:18.000Z</time>
      </trkpt>
      <trkpt lat="45.25426" lon="5.64304">
        <ele>205.62</ele>
        <time>2019-04-14T12:26:23.000Z</time>
      </trkpt>
      <trkpt lat="45.25411" lon="5.64331">
        <ele>209.29</ele>
        <time>2019-04-14T12:26:28.000Z</time>
      </trkpt>
      <trkpt lat="45.25394" lon="5.64354">
        <ele>204.98</ele>
        <time>2019-04-14T12:26:33.000Z</time>
      </trkpt>
      <trkpt lat="45.25371" lon="5.64381">
        <ele>207.34</ele>
        <time>2019-04-14T12:26:38.000Z</time>
      </trkpt>
      <trkpt lat="45.25353" lon="5.64411">
        <ele>205.98</ele>
        <time>2019-04-14T12:26:43.000Z</time>
      </trkpt>
      <trkpt lat="45.25337" lon="5.64432">
        <ele>205.91</ele>
        <time>2019-04-14T12:26:48.000Z</time>
      </trkpt>
      <trkpt lat="45.25318" lon="5.6446">
        <ele>208.92</ele>
        <time>2019-04-14T12:26:53.000Z</time>
      </trkpt>
      <trkpt lat="45.25299" lon="5.64487">
        <ele>208.93</ele>
        <time>2019-04-14T12:26:58.000Z</time>
      </trkpt>
      <trkpt lat="45.2528" lon="5.64512">
        <ele>207.99</ele>
        <time>2019-04-14T12:27:03.000Z</time>
      </trkpt>
      <trkpt lat="45.25262" lon="5.64535">
        <ele>206.92</ele>
        <time>2019-04-14T12:27:08.000Z</time>
      </trkpt>
      <trkpt lat="45.25241" lon="5.64559">
        <ele>204.65</ele>
        <time>2019-04-14T12:27:13.000Z</time>
      </trkpt>
      <trkpt lat="45.2522" lon="5.64585">
        <ele>204.54</ele>
        <time>2019-04-14T12:27:18.000Z</time>
      </trkpt>
      <trkpt lat="45.25202" lon="5.6461">
        <ele>204.61</ele>
        <time>2019-04-14T12:27:23.000Z</time>
      </trkpt>
      <trkpt lat="45.25183" lon="5.64633">
        <ele>203.77</ele>
        <time>2019-04-14T12:27:28.000Z</time>
      </trkpt>
      <trkpt lat="45.25163" lon="5.64654">
        <ele>201.75</ele>
        <time>2019-04-14T12:27:33.000Z</time>
      </trkpt>
      <trkpt lat="45.25147" lon="5.64675">
        <ele>201.89</ele>
        <time>2019-04-14T12:27:38.000Z</time>
      </trkpt>
      <trkpt lat="45.2513" lon="5.64696">
        <ele>202.68</ele>
        <time>2019-04-14T12:27:43.000Z</time>
      </trkpt>
      <trkpt lat="45.25114" lon="5.64717">
        <ele>201.78</ele>
        <time>2019-04-14T12:27:48.000Z</time>
      </trkpt>
      <trkpt lat="45.25097" lon="5.64739">
        <ele>200.95</ele>
        <time>2019-04-14T12:27:53.000Z</time>
      </trkpt>
      <trkpt lat="45.25076" lon="5.64765">
        <ele>201.12</ele>
        <time>2019-04-14T12:27:58.000Z</time>
      </trkpt>
      <trkpt lat="45.25057" lon="5.64788">
        <ele>198.95</ele>
        <time>2019-04-14T12:28:03.000Z</time>
      </trkpt>
      <trkpt lat="45.25041" lon="5.64813">
        <ele>199.46</ele>
        <time>2019-04-14T12:28:08.000Z</time>
      </trkpt>
      <trkpt lat="45.25026" lon="5.64837">
        <ele>200.76</ele>
        <time>2019-04-14T12:28:13.000Z</time>
      </trkpt>
      <trkpt lat="45.25007" lon="5.64858">
        <ele>198.65</ele>
        <time>2019-04-14T12:28:18.000Z</time>
      </trkpt>
      <trkpt lat="45.24993" lon="5.64882">
        <ele>195.8</ele>
        <time>2019-04-14T12:28:23.000Z</time>
      </trkpt>
      <trkpt lat="45.24971" lon="5.64907">
        <ele>196.08</ele>
        <time>2019-04-14T12:28:28.000Z</time>
      </trkpt>
      <trkpt lat="45.24956" lon="5.64929">
        <ele>192.56</ele>
        <time>2019-04-14T12:28:33.000Z</time>
      </trkpt>
      <trkpt lat="45.24935" lon="5.64951">
        <ele>193.28</ele>
        <time>2019-04-14T12:28:38.000Z</time>
      </trkpt>
      <trkpt lat="45.24917" lon="5.64979">
        <ele>192.22</ele>
        <time>2019-04-14T12:28:43.000Z</time>
      </trkpt>
      <trkpt lat="45.24897" lon="5.65005">
        <ele>194.83</ele>
        <time>2019-04-14T12:28:48.000Z</time>
      </trkpt>
      <trkpt lat="45.2488" lon="5.65027">
        <ele>195.82</ele>
        <time>2019-04-14T12:28:53.000Z</time>
      </trkpt>
      <trkpt lat="45.24866" lon="5.65049">
        <ele>196.61</ele>
        <time>2019-04-14T12:28:58.000Z</time>
      </trkpt>
      <trkpt lat="45.2485" lon="5.6507">
        <ele>199.91</ele>
        <time>2019-04-14T12:29:03.000Z</time>
      </trkpt>
      <trkpt lat="45.24836" lon="5.65091">
        <ele>198.71</ele>
        <time>2019-04-14T12:29:08.000Z</time>
      </trkpt>
      <trkpt lat="45.24818" lon="5.65116">
        <ele>195.38</ele>
        <time>2019-04-14T12:29:13.000Z</time>
      </trkpt>
      <trkpt lat="45.24797" lon="5.65144">
        <ele>193.08</ele>
        <time>2019-04-14T12:29:18.000Z</time>
      </trkpt>
      <trkpt lat="45.24776" lon="5.65172">
        <ele>193.68</ele>
        <time>2019-04-14T12:29:23.000Z</time>
      </trkpt>
      <trkpt lat="45.24753" lon="5.65189">
        <ele>190.05</ele>
        <time>2019-04-14T12:29:28.000Z</time>
      </trkpt>
      <trkpt lat="45.24732" lon="5.6521">
        <ele>191.83</ele>
        <time>2019-04-14T12:29:33.000Z</time>
      </trkpt>
      <trkpt lat="45.24712" lon="5.65231">
        <ele>195.31</ele>
        <time>2019-04-14T12:29:38.000Z</time>
      </trkpt>
      <trkpt lat="45.24688" lon="5.65248">
        <ele>195.06</ele>
        <time>2019-04-14T12:29:43.000Z</time>
      </trkpt>
      <trkpt lat="45.24666" lon="5.65264">
        <ele>191.28</ele>
        <time>2019-04-14T12:29:48.000Z</time>
      </trkpt>
      <trkpt lat="45.24647" lon="5.65281">
        <ele>189.12</ele>
        <time>2019-04-14T12:29:53.000Z</time>
      </trkpt>
      <trkpt lat="45.24631" lon="5.65298">
        <ele>193.4</ele>
        <time>2019-04-14T12:29:58.000Z</time>
      </trkpt>
      <trkpt lat="45.24609" lon="5.65312">
        <ele>196.16</ele>
        <time>2019-04-14T12:30:03.000Z</time>
      </trkpt>
      <trkpt lat="45.24591" lon="5.65324">
        <ele>198.06</ele>
        <time>2019-04-14T12:30:08.000Z</time>
      </trkpt>
      <trkpt lat="45.24571" lon="5.6534">
        <ele>198.44</ele>
        <time>2019-04-14T12:30:13.000Z</time>
      </trkpt>
      <trkpt lat="45.24551" lon="5.65355">
        <ele>202.6</ele>
        <time>2019-04-14T12:30:18.000Z</time>
      </trkpt>
      <trkpt lat="45.24527" lon="5.65376">
        <ele>204.05</ele>
        <time>2019-04-14T12:30:23.000Z</time>
      </trkpt>
      <trkpt lat="45.24509" lon="5.65392">
        <ele>204.81</ele>
        <time>2019-04-14T12:30:28.000Z</time>
      </trkpt>
      <trkpt lat="45.24489" lon="5.65404">
        <ele>203.14</ele>
        <time>2019-04-14T12:30:33.000Z</time>
      </trkpt>
      <trkpt lat="45.24463" lon="5.65423">
        <ele>204.51</ele>
        <time>2019-04-14T12:30:38.000Z</time>
      </trkpt>
      <trkpt lat="45.24437" lon="5.65444">
        <ele>207.76</ele>
        <time>2019-04-14T12:30:43.000Z</time>
      </trkpt>
      <trkpt lat="45.24412" lon="5.65461">
        <ele>207.47</ele>
        <time>2019-04-14T12:30:48.000Z</time>
      </trkpt>
      <trkpt lat="45.24387" lon="5.6548">
        <ele>202.93</ele>
        <time>2019-04-14T12:30:53.000Z</time>
      </trkpt>
      <trkpt lat="45.24364" lon="5.655">
        <ele>202.02</ele>
        <time>2019-04-14T12:30:58.000Z</time>
      </trkpt>
      <trkpt lat="45.2434" lon="5.65516">
        <ele>200.12</ele>
        <time>2019-04-14T12:31:03.000Z</time>
      </trkpt>
      <trkpt lat="45.24318" lon="5.6553">
        <ele>196.75</ele>
        <time>2019-04-14T12:31:08.000Z</time>
      </trkpt>
      <trkpt lat="45.24295" lon="5.65546">
        <ele>195.89</ele>
        <time>2019-04-14T12:31:13.000Z</time>
      </trkpt>
      <trkpt lat="45.24273" lon="5.65561">
        <ele>193.98</ele>
        <time>2019-04-14T12:31:18.000Z</time>
      </trkpt>
      <trkpt lat="45.24253" lon="5.65576">
        <ele>192.63</ele>
        <time>2019-04-14T12:31:23.000Z</time>
      </trkpt>
      <trkpt lat="45.24235" lon="5.65589">
        <ele>190.78</ele>
        <time>2019-04-14T12:31:28.000Z</time>
      </trkpt>
      <trkpt lat="45.24217" lon="5.65605">
        <ele>193.25</ele>
        <time>2019-04-14T12:31:33.000Z</time>
      </trkpt>
      <trkpt lat="45.24196" lon="5.65624">
        <ele>192.12</ele>
        <time>2019-04-14T12:31:38.000Z</time>
      </trkpt>
      <trkpt lat="45.24174" lon="5.65638">
        <ele>192.86</ele>
        <time>2019-04-14T12:31:43.000Z</time>
      </trkpt>
      <trkpt lat="45.24156" lon="5.65651">
        <ele>192.25</ele>
        <time>2019-04-14T12:31:48.000Z</time>
      </trkpt>
      <trkpt lat="45.24136" lon="5.65663">
        <ele>191.54</ele>
        <time>2019-04-14T12:31:53.000Z</time>
      </trkpt>
      <trkpt lat="45.24106" lon="5.65684">
        <ele>188.24</ele>
        <time>2019-04-14T12:31:58.000Z</time>
      </trkpt>
      <trkpt lat="45.24082" lon="5.65701">
        <ele>188.83</ele>
        <time>2019-04-14T12:32:03.000Z</time>
      </trkpt>
      <trkpt lat="45.24057" lon="5.65713">
        <ele>189.71</ele>
        <time>2019-04-14T12:32:08.000Z</time>
      </trkpt>
      <trkpt lat="45.24035" lon="5.65731">
        <ele>192.73</ele>
        <time>2019-04-14T12:32:13.000Z</time>
      </trkpt>
      <trkpt lat="45.24018" lon="5.65748">
        <ele>194.62</ele>
        <time>2019-04-14T12:32:18.000Z</time>
      </trkpt>
      <trkpt lat="45.23997" lon="5.6576">
        <ele>193.3</ele>
        <time>2019-04-14T12:32:23.000Z</time>
      </trkpt>
      <trkpt lat="45.23971" lon="5.65772">
        <ele>192.66</ele>
        <time>2019-04-14T12:32:28.000Z</time>
      </trkpt>
      <trkpt lat="45.23951" lon="5.65795">
        <ele>197.34</ele>
        <time>2019-04-14T12:32:33.000Z</time>
      </trkpt>
      <trkpt lat="45.2393" lon="5.65807">
        <ele>196.58</ele>
        <time>2019-04-14T12:32:38.000Z</time>
      </trkpt>
      <trkpt lat="45.23912" lon="5.65823">
        <ele>194.26</ele>
        <time>2019-04-14T12:32:43.000Z</time>
      </trkpt>
      <trkpt lat="45.23905" lon="5.65853">
        <ele>196.55</ele>
        <time>2019-04-14T12:32:48.000Z</time>
      </trkpt>
      <trkpt lat="45.23903" lon="5.65882">
        <ele>198.37</ele>
        <time>2019-04-14T12:32:53.000Z</time>
      </trkpt>
      <trkpt lat="45.23911" lon="5.6591">
        <ele>199.48</ele>
        <time>2019-04-14T12:32:58.000Z</time>
      </trkpt>
      <trkpt lat="45.23921" lon="5.65937">
        <ele>198.69</ele>
        <time>2019-04-14T12:33:03.000Z</time>
      </trkpt>
      <trkpt lat="45.23906" lon="5.6596">
        <ele>198.16</ele>
        <time>2019-04-14T12:33:08.000Z</time>
      </trkpt>
      <trkpt lat="45.23887" lon="5.65976">
        <ele>201.31</ele>
        <time>2019-04-14T12:33:13.000Z</time>
      </trkpt>
      <trkpt lat="45.23862" lon="5.65992">
        <ele>202.68</ele>
        <time>2019-04-14T12:33:18.000Z</time>
      </trkpt>
      <trkpt lat="45.23837" lon="5.65985">
        <ele>199.45</ele>
        <time>2019-04-14T12:33:23.000Z</time>
      </trkpt>
      <trkpt lat="45.23813" lon="5.65977">
        <ele>198.39</ele>
        <time>2019-04-14T12:33:28.000Z</time>
      </trkpt>
      <trkpt lat="45.23788" lon="5.65971">
        <ele>198.81</ele>
        <time>2019-04-14T12:33:33.000Z</time>
      </trkpt>
      <trkpt lat="45.23767" lon="5.65964">
        <ele>196.9</ele>
        <time>2019-04-14T12:33:38.000Z</time>
      </trkpt>
      <trkpt lat="45.23749" lon="5.65959">
        <ele>195.5</ele>
        <time>2019-04-14T12:33:43.000Z</time>
      </trkpt>
      <trkpt lat="45.23728" lon="5.65961">
        <ele>196.47</ele>
        <time>2019-04-14T12:33:48.000Z</time>
      </trkpt>
      <trkpt lat="45.23711" lon="5.65973">
        <ele>197.7</ele>
        <time>2019-04-14T12:33:53.000Z</time>
      </trkpt>
      <trkpt lat="45.23693" lon="5.65981">
        <ele>195.92</ele>
        <time>2019-04-14T12:33:58.000Z</time>
      </trkpt>
      <trkpt lat="45.23696" lon="5.65998">
        <ele>204.49</ele>
        <time>2019-04-14T12:34:37.000Z</time>
      </trkpt>
      <trkpt lat="45.237" lon="5.66028">
        <ele>201.85</ele>
        <time>2019-04-14T12:34:42.000Z</time>
      </trkpt>
      <trkpt lat="45.2369" lon="5.6605">
        <ele>204.29</ele>
        <time>2019-04-14T12:34:47.000Z</time>
      </trkpt>
      <trkpt lat="45.23664" lon="5.66056">
        <ele>204.98</ele>
        <time>2019-04-14T12:34:54.000Z</time>
      </trkpt>
      <trkpt lat="45.23648" lon="5.66085">
        <ele>207.04</ele>
        <time>2019-04-14T12:34:59.000Z</time>
      </trkpt>
      <trkpt lat="45.23645" lon="5.66113">
        <ele>205.79</ele>
        <time>2019-04-14T12:35:04.000Z</time>
      </trkpt>
      <trkpt lat="45.23658" lon="5.66141">
        <ele>208.06</ele>
        <time>2019-04-14T12:35:09.000Z</time>
      </trkpt>
      <trkpt lat="45.23672" lon="5.66155">
        <ele>209.61</ele>
        <time>2019-04-14T12:35:14.000Z</time>
      </trkpt>
      <trkpt lat="45.23687" lon="5.66165">
        <ele>208.43</ele>
        <time>2019-04-14T12:35:19.000Z</time>
      </trkpt>
      <trkpt lat="45.23693" lon="5.66191">
        <ele>205.64</ele>
        <time>2019-04-14T12:35:24.000Z</time>
      </trkpt>
      <trkpt lat="45.23698" lon="5.66218">
        <ele>205.66</ele>
        <time>2019-04-14T12:35:29.000Z</time>
      </trkpt>
      <trkpt lat="45.23705" lon="5.66247">
        <ele>204.94</ele>
        <time>2019-04-14T12:35:34.000Z</time>
      </trkpt>
      <trkpt lat="45.23705" lon="5.66277">
        <ele>206.25</ele>
        <time>2019-04-14T12:35:39.000Z</time>
      </trkpt>
      <trkpt lat="45.23681" lon="5.66289">
        <ele>208.07</ele>
        <time>2019-04-14T12:35:44.000Z</time>
      </trkpt>
      <trkpt lat="45.23652" lon="5.66295">
        <ele>207.2</ele>
        <time>2019-04-14T12:35:49.000Z</time>
      </trkpt>
      <trkpt lat="45.2364" lon="5.66316">
        <ele>208.83</ele>
        <time>2019-04-14T12:35:54.000Z</time>
      </trkpt>
      <trkpt lat="45.23648" lon="5.66331">
        <ele>202.19</ele>
        <time>2019-04-14T12:35:59.000Z</time>
      </trkpt>
      <trkpt lat="45.23671" lon="5.66325">
        <ele>203.13</ele>
        <time>2019-04-14T12:36:04.000Z</time>
      </trkpt>
      <trkpt lat="45.23694" lon="5.66323">
        <ele>200.65</ele>
        <time>2019-04-14T12:36:09.000Z</time>
      </trkpt>
      <trkpt lat="45.23707" lon="5.66337">
        <ele>199.98</ele>
        <time>2019-04-14T12:36:14.000Z</time>
      </trkpt>
      <trkpt lat="45.23724" lon="5.66346">
        <ele>196.6</ele>
        <time>2019-04-14T12:36:19.000Z</time>
      </trkpt>
      <trkpt lat="45.23739" lon="5.66364">
        <ele>197.33</ele>
        <time>2019-04-14T12:36:24.000Z</time>
      </trkpt>
      <trkpt lat="45.23749" lon="5.66386">
        <ele>196.96</ele>
        <time>2019-04-14T12:36:29.000Z</time>
      </trkpt>
      <trkpt lat="45.23763" lon="5.66408">
        <ele>197.85</ele>
        <time>2019-04-14T12:36:34.000Z</time>
      </trkpt>
      <trkpt lat="45.23779" lon="5.66434">
        <ele>199.25</ele>
        <time>2019-04-14T12:36:39.000Z</time>
      </trkpt>
      <trkpt lat="45.23798" lon="5.66461">
        <ele>196.21</ele>
        <time>2019-04-14T12:36:44.000Z</time>
      </trkpt>
      <trkpt lat="45.2382" lon="5.66486">
        <ele>196.97</ele>
        <time>2019-04-14T12:36:49.000Z</time>
      </trkpt>
      <trkpt lat="45.23841" lon="5.66511">
        <ele>199.18</ele>
        <time>2019-04-14T12:36:54.000Z</time>
      </trkpt>
      <trkpt lat="45.23867" lon="5.66532">
        <ele>201.17</ele>
        <time>2019-04-14T12:36:59.000Z</time>
      </trkpt>
      <trkpt lat="45.23886" lon="5.66553">
        <ele>205.03</ele>
        <time>2019-04-14T12:37:04.000Z</time>
      </trkpt>
      <trkpt lat="45.23905" lon="5.66572">
        <ele>203.27</ele>
        <time>2019-04-14T12:37:09.000Z</time>
      </trkpt>
      <trkpt lat="45.23922" lon="5.66599">
        <ele>202.81</ele>
        <time>2019-04-14T12:37:14.000Z</time>
      </trkpt>
      <trkpt lat="45.23935" lon="5.66626">
        <ele>203.12</ele>
        <time>2019-04-14T12:37:19.000Z</time>
      </trkpt>
      <trkpt lat="45.23941" lon="5.66647">
        <ele>203.49</ele>
        <time>2019-04-14T12:37:24.000Z</time>
      </trkpt>
      <trkpt lat="45.23949" lon="5.66655">
        <ele>199.8</ele>
        <time>2019-04-14T12:37:31.000Z</time>
      </trkpt>
      <trkpt lat="45.2396" lon="5.66667">
        <ele>200.32</ele>
        <time>2019-04-14T12:37:36.000Z</time>
      </trkpt>
      <trkpt lat="45.23972" lon="5.66681">
        <ele>198.13</ele>
        <time>2019-04-14T12:37:41.000Z</time>
      </trkpt>
      <trkpt lat="45.23985" lon="5.66686">
        <ele>198.79</ele>
        <time>2019-04-14T12:37:46.000Z</time>
      </trkpt>
      <trkpt lat="45.23994" lon="5.66679">
        <ele>198.96</ele>
        <time>2019-04-14T12:37:57.000Z</time>
      </trkpt>
      <trkpt lat="45.23996" lon="5.66663">
        <ele>199.98</ele>
        <time>2019-04-14T12:38:02.000Z</time>
      </trkpt>
      <trkpt lat="45.24004" lon="5.66642">
        <ele>199.88</ele>
        <time>2019-04-14T12:38:07.000Z</time>
      </trkpt>
      <trkpt lat="45.24013" lon="5.66626">
        <ele>197.37</ele>
        <time>2019-04-14T12:38:12.000Z</time>
      </trkpt>
      <trkpt lat="45.24026" lon="5.66642">
        <ele>200.79</ele>
        <time>2019-04-14T12:38:17.000Z</time>
      </trkpt>
      <trkpt lat="45.24036" lon="5.66657">
        <ele>202.6</ele>
        <time>2019-04-14T12:38:22.000Z</time>
      </trkpt>
      <trkpt lat="45.24048" lon="5.66669">
        <ele>205.35</ele>
        <time>2019-04-14T12:38:27.000Z</time>
      </trkpt>
      <trkpt lat="45.24061" lon="5.66687">
        <ele>207.03</ele>
        <time>2019-04-14T12:38:32.000Z</time>
      </trkpt>
      <trkpt lat="45.24077" lon="5.66705">
        <ele>207.54</ele>
        <time>2019-04-14T12:38:37.000Z</time>
      </trkpt>
      <trkpt lat="45.24093" lon="5.66719">
        <ele>209.79</ele>
        <time>2019-04-14T12:38:42.000Z</time>
      </trkpt>
      <trkpt lat="45.24109" lon="5.6674">
        <ele>206.96</ele>
        <time>2019-04-14T12:38:47.000Z</time>
      </trkpt>
      <trkpt lat="45.24126" lon="5.66766">
        <ele>209.73</ele>
        <time>2019-04-14T12:38:52.000Z</time>
      </trkpt>
      <trkpt lat="45.24141" lon="5.66785">
        <ele>211.24</ele>
        <time>2019-04-14T12:38:57.000Z</time>
      </trkpt>
      <trkpt lat="45.24156" lon="5.66809">
        <ele>213.55</ele>
        <time>2019-04-14T12:39:02.000Z</time>
      </trkpt>
      <trkpt lat="45.2417" lon="5.66828">
        <ele>212.65</ele>
        <time>2019-04-14T12:39:07.000Z</time>
      </trkpt>
      <trkpt lat="45.24181" lon="5.6685">
        <ele>213.24</ele>
        <time>2019-04-14T12:39:12.000Z</time>
      </trkpt>
      <trkpt lat="45.24192" lon="5.66871">
        <ele>210.95</ele>
        <time>2019-04-14T12:39:17.000Z</time>
      </trkpt>
      <trkpt lat="45.24204" lon="5.66895">
        <ele>212.84</ele>
        <time>2019-04-14T12:39:22.000Z</time>
      </trkpt>
      <trkpt lat="45.24218" lon="5.66923">
        <ele>212.07</ele>
        <time>2019-04-14T12:39:27.000Z</time>
      </trkpt>
      <trkpt lat="45.24237" lon="5.66962">
        <ele>207.74</ele>
        <time>2019-04-14T12:39:32.000Z</time>
      </trkpt>
      <trkpt lat="45.24255" lon="5.67">
        <ele>208.66</ele>
        <time>2019-04-14T12:39:37.000Z</time>
      </trkpt>
      <trkpt lat="45.24267" lon="5.67033">
        <ele>206.77</ele>
        <time>2019-04-14T12:39:42.000Z</time>
      </trkpt>
      <trkpt lat="45.24281" lon="5.67047">
        <ele>205.48</ele>
        <time>2019-04-14T12:39:47.000Z</time>
      </trkpt>
      <trkpt lat="45.24285" lon="5.67064">
        <ele>205.48</ele>
        <time>2019-04-14T12:39:52.000Z</time>
      </trkpt>
      <trkpt lat="45.24292" lon="5.67079">
        <ele>205.09</ele>
        <time>2019-04-14T12:39:57.000Z</time>
      </trkpt>
      <trkpt lat="45.243" lon="5.67096">
        <ele>204.86</ele>
        <time>2019-04-14T12:40:02.000Z</time>
      </trkpt>
      <trkpt lat="45.24302" lon="5.67112">
        <ele>203.14</ele>
        <time>2019-04-14T12:40:07.000Z</time>
      </trkpt>
      <trkpt lat="45.24311" lon="5.67129">
        <ele>205.73</ele>
        <time>2019-04-14T12:40:12.000Z</time>
      </trkpt>
      <trkpt lat="45.24317" lon="5.67145">
        <ele>207.95</ele>
        <time>2019-04-14T12:40:17.000Z</time>
      </trkpt>
      <trkpt lat="45.24322" lon="5.67161">
        <ele>208.05</ele>
        <time>2019-04-14T12:40:22.000Z</time>
      </trkpt>
      <trkpt lat="45.24328" lon="5.67177">
        <ele>208.97</ele>
        <time>2019-04-14T12:40:27.000Z</time>
      </trkpt>
      <trkpt lat="45.24328" lon="5.6719">
        <ele>212.05</ele>
        <time>2019-04-14T12:40:35.000Z</time>
      </trkpt>
      <trkpt lat="45.24318" lon="5.67193">
        <ele>210.32</ele>
        <time>2019-04-14T12:40:41.000Z</time>
      </trkpt>
      <trkpt lat="45.2432" lon="5.67211">
        <ele>206.84</ele>
        <time>2019-04-14T12:40:46.000Z</time>
      </trkpt>
      <trkpt lat="45.2433" lon="5.67227">
        <ele>203.13</ele>
        <time>2019-04-14T12:40:51.000Z</time>
      </trkpt>
      <trkpt lat="45.2434" lon="5.67246">
        <ele>205.87</ele>
        <time>2019-04-14T12:40:56.000Z</time>
      </trkpt>
      <trkpt lat="45.24348" lon="5.67266">
        <ele>206.64</ele>
        <time>2019-04-14T12:41:01.000Z</time>
      </trkpt>
      <trkpt lat="45.24356" lon="5.67284">
        <ele>207.13</ele>
        <time>2019-04-14T12:41:06.000Z</time>
      </trkpt>
      <trkpt lat="45.24365" lon="5.67309">
        <ele>209.21</ele>
        <time>2019-04-14T12:41:11.000Z</time>
      </trkpt>
      <trkpt lat="45.24373" lon="5.67337">
        <ele>208.13</ele>
        <time>2019-04-14T12:41:16.000Z</time>
      </trkpt>
      <trkpt lat="45.24381" lon="5.67361">
        <ele>206.53</ele>
        <time>2019-04-14T12:41:21.000Z</time>
      </trkpt>
      <trkpt lat="45.24393" lon="5.67384">
        <ele>203.59</ele>
        <time>2019-04-14T12:41:26.000Z</time>
      </trkpt>
      <trkpt lat="45.24408" lon="5.67412">
        <ele>204.89</ele>
        <time>2019-04-14T12:41:31.000Z</time>
      </trkpt>
      <trkpt lat="45.24419" lon="5.67442">
        <ele>204.88</ele>
        <time>2019-04-14T12:41:36.000Z</time>
      </trkpt>
      <trkpt lat="45.24428" lon="5.67468">
        <ele>205.4</ele>
        <time>2019-04-14T12:41:41.000Z</time>
      </trkpt>
      <trkpt lat="45.24435" lon="5.67495">
        <ele>205.97</ele>
        <time>2019-04-14T12:41:46.000Z</time>
      </trkpt>
      <trkpt lat="45.24443" lon="5.67523">
        <ele>209.53</ele>
        <time>2019-04-14T12:41:51.000Z</time>
      </trkpt>
      <trkpt lat="45.24454" lon="5.67553">
        <ele>209.81</ele>
        <time>2019-04-14T12:41:56.000Z</time>
      </trkpt>
      <trkpt lat="45.24461" lon="5.67581">
        <ele>209.3</ele>
        <time>2019-04-14T12:42:01.000Z</time>
      </trkpt>
      <trkpt lat="45.24471" lon="5.67609">
        <ele>207.64</ele>
        <time>2019-04-14T12:42:06.000Z</time>
      </trkpt>
      <trkpt lat="45.24479" lon="5.67641">
        <ele>205.68</ele>
        <time>2019-04-14T12:42:11.000Z</time>
      </trkpt>
      <trkpt lat="45.24482" lon="5.67669">
        <ele>207.11</ele>
        <time>2019-04-14T12:42:16.000Z</time>
      </trkpt>
      <trkpt lat="45.2448" lon="5.6769">
        <ele>209.11</ele>
        <time>2019-04-14T12:42:21.000Z</time>
      </trkpt>
      <trkpt lat="45.24477" lon="5.67713">
        <ele>210.93</ele>
        <time>2019-04-14T12:42:26.000Z</time>
      </trkpt>
      <trkpt lat="45.24473" lon="5.67737">
        <ele>207.91</ele>
        <time>2019-04-14T12:42:31.000Z</time>
      </trkpt>
      <trkpt lat="45.24472" lon="5.6776">
        <ele>205.99</ele>
        <time>2019-04-14T12:42:36.000Z</time>
      </trkpt>
      <trkpt lat="45.24472" lon="5.67783">
        <ele>202.32</ele>
        <time>2019-04-14T12:42:41.000Z</time>
      </trkpt>
      <trkpt lat="45.24467" lon="5.678">
        <ele>202.42</ele>
        <time>2019-04-14T12:42:46.000Z</time>
      </trkpt>
      <trkpt lat="45.24457" lon="5.67807">
        <ele>202.79</ele>
        <time>2019-04-14T12:42:51.000Z</time>
      </trkpt>
      <trkpt lat="45.24454" lon="5.67821">
        <ele>217.08</ele>
        <time>2019-04-14T12:46:17.000Z</time>
      </trkpt>
      <trkpt lat="45.24449" lon="5.67838">
        <ele>209.84</ele>
        <time>2019-04-14T12:46:22.000Z</time>
      </trkpt>
      <trkpt lat="45.24443" lon="5.67857">
        <ele>206.96</ele>
        <time>2019-04-14T12:46:27.000Z</time>
      </trkpt>
      <trkpt lat="45.24429" lon="5.67876">
        <ele>206.97</ele>
        <time>2019-04-14T12:46:32.000Z</time>
      </trkpt>
      <trkpt lat="45.2441" lon="5.67887">
        <ele>204.84</ele>
        <time>2019-04-14T12:46:37.000Z</time>
      </trkpt>
      <trkpt lat="45.2439" lon="5.67897">
        <ele>202.82</ele>
        <time>2019-04-14T12:46:42.000Z</time>
      </trkpt>
      <trkpt lat="45.2437" lon="5.67904">
        <ele>203.35</ele>
        <time>2019-04-14T12:46:47.000Z</time>
      </trkpt>
      <trkpt lat="45.24352" lon="5.67903">
        <ele>204.37</ele>
        <time>2019-04-14T12:46:52.000Z</time>
      </trkpt>
      <trkpt lat="45.24343" lon="5.67928">
        <ele>208.03</ele>
        <time>2019-04-14T12:46:57.000Z</time>
      </trkpt>
      <trkpt lat="45.24343" lon="5.67957">
        <ele>210.83</ele>
        <time>2019-04-14T12:47:02.000Z</time>
      </trkpt>
      <trkpt lat="45.24328" lon="5.67976">
        <ele>212.93</ele>
        <time>2019-04-14T12:47:07.000Z</time>
      </trkpt>
      <trkpt lat="45.24308" lon="5.67993">
        <ele>217.23</ele>
        <time>2019-04-14T12:47:12.000Z</time>
      </trkpt>
      <trkpt lat="45.24287" lon="5.6801">
        <ele>216.12</ele>
        <time>2019-04-14T12:47:17.000Z</time>
      </trkpt>
      <trkpt lat="45.24268" lon="5.68026">
        <ele>217.04</ele>
        <time>2019-04-14T12:47:22.000Z</time>
      </trkpt>
      <trkpt lat="45.24251" lon="5.68041">
        <ele>220.51</ele>
        <time>2019-04-14T12:47:27.000Z</time>
      </trkpt>
      <trkpt lat="45.24233" lon="5.68054">
        <ele>219.99</ele>
        <time>2019-04-14T12:47:32.000Z</time>
      </trkpt>
      <trkpt lat="45.24215" lon="5.68072">
        <ele>224.36</ele>
        <time>2019-04-14T12:47:37.000Z</time>
      </trkpt>
      <trkpt lat="45.24199" lon="5.68086">
        <ele>226.5</ele>
        <time>2019-04-14T12:47:42.000Z</time>
      </trkpt>
      <trkpt lat="45.24184" lon="5.68106">
        <ele>227.11</ele>
        <time>2019-04-14T12:47:47.000Z</time>
      </trkpt>
      <trkpt lat="45.2417" lon="5.68125">
        <ele>228.23</ele>
        <time>2019-04-14T12:47:52.000Z</time>
      </trkpt>
      <trkpt lat="45.24154" lon="5.68144">
        <ele>231.5</ele>
        <time>2019-04-14T12:47:57.000Z</time>
      </trkpt>
      <trkpt lat="45.24131" lon="5.68165">
        <ele>231.81</ele>
        <time>2019-04-14T12:48:02.000Z</time>
      </trkpt>
      <trkpt lat="45.24112" lon="5.68183">
        <ele>235.2</ele>
        <time>2019-04-14T12:48:07.000Z</time>
      </trkpt>
      <trkpt lat="45.24091" lon="5.68203">
        <ele>238.74</ele>
        <time>2019-04-14T12:48:12.000Z</time>
      </trkpt>
      <trkpt lat="45.24069" lon="5.68227">
        <ele>237.22</ele>
        <time>2019-04-14T12:48:17.000Z</time>
      </trkpt>
      <trkpt lat="45.24046" lon="5.6825">
        <ele>243.07</ele>
        <time>2019-04-14T12:48:22.000Z</time>
      </trkpt>
      <trkpt lat="45.24032" lon="5.68273">
        <ele>245.13</ele>
        <time>2019-04-14T12:48:27.000Z</time>
      </trkpt>
      <trkpt lat="45.24028" lon="5.683">
        <ele>242.89</ele>
        <time>2019-04-14T12:48:32.000Z</time>
      </trkpt>
      <trkpt lat="45.24029" lon="5.68337">
        <ele>242.7</ele>
        <time>2019-04-14T12:48:37.000Z</time>
      </trkpt>
      <trkpt lat="45.24027" lon="5.6837">
        <ele>240.53</ele>
        <time>2019-04-14T12:48:42.000Z</time>
      </trkpt>
      <trkpt lat="45.24011" lon="5.68399">
        <ele>238.47</ele>
        <time>2019-04-14T12:48:47.000Z</time>
      </trkpt>
      <trkpt lat="45.23996" lon="5.68421">
        <ele>238.74</ele>
        <time>2019-04-14T12:48:52.000Z</time>
      </trkpt>
      <trkpt lat="45.23978" lon="5.68445">
        <ele>239.44</ele>
        <time>2019-04-14T12:48:57.000Z</time>
      </trkpt>
      <trkpt lat="45.23967" lon="5.68465">
        <ele>236.05</ele>
        <time>2019-04-14T12:49:02.000Z</time>
      </trkpt>
      <trkpt lat="45.23951" lon="5.68491">
        <ele>236.09</ele>
        <time>2019-04-14T12:49:07.000Z</time>
      </trkpt>
      <trkpt lat="45.2394" lon="5.68515">
        <ele>238.47</ele>
        <time>2019-04-14T12:49:12.000Z</time>
      </trkpt>
      <trkpt lat="45.23928" lon="5.6854">
        <ele>238.85</ele>
        <time>2019-04-14T12:49:17.000Z</time>
      </trkpt>
      <trkpt lat="45.23914" lon="5.68564">
        <ele>240.84</ele>
        <time>2019-04-14T12:49:22.000Z</time>
      </trkpt>
      <trkpt lat="45.239" lon="5.68591">
        <ele>240.05</ele>
        <time>2019-04-14T12:49:27.000Z</time>
      </trkpt>
      <trkpt lat="45.2389" lon="5.68621">
        <ele>238.72</ele>
        <time>2019-04-14T12:49:32.000Z</time>
      </trkpt>
      <trkpt lat="45.23876" lon="5.68647">
        <ele>241.02</ele>
        <time>2019-04-14T12:49:37.000Z</time>
      </trkpt>
      <trkpt lat="45.23875" lon="5.68674">
        <ele>242.46</ele>
        <time>2019-04-14T12:49:42.000Z</time>
      </trkpt>
      <trkpt lat="45.23885" lon="5.68692">
        <ele>245.25</ele>
        <time>2019-04-14T12:49:47.000Z</time>
      </trkpt>
      <trkpt lat="45.23901" lon="5.6871">
        <ele>245.33</ele>
        <time>2019-04-14T12:49:52.000Z</time>
      </trkpt>
      <trkpt lat="45.23911" lon="5.68733">
        <ele>241.6</ele>
        <time>2019-04-14T12:49:57.000Z</time>
      </trkpt>
      <trkpt lat="45.23929" lon="5.68757">
        <ele>243.51</ele>
        <time>2019-04-14T12:50:02.000Z</time>
      </trkpt>
      <trkpt lat="45.23938" lon="5.68782">
        <ele>240.14</ele>
        <time>2019-04-14T12:50:07.000Z</time>
      </trkpt>
      <trkpt lat="45.23954" lon="5.68807">
        <ele>239.44</ele>
        <time>2019-04-14T12:50:12.000Z</time>
      </trkpt>
      <trkpt lat="45.23973" lon="5.6883">
        <ele>240.54</ele>
        <time>2019-04-14T12:50:17.000Z</time>
      </trkpt>
      <trkpt lat="45.2399" lon="5.68843">
        <ele>241.46</ele>
        <time>2019-04-14T12:50:22.000Z</time>
      </trkpt>
      <trkpt lat="45.23998" lon="5.68874">
        <ele>243.31</ele>
        <time>2019-04-14T12:50:27.000Z</time>
      </trkpt>
      <trkpt lat="45.23996" lon="5.68906">
        <ele>245.3</ele>
        <time>2019-04-14T12:50:32.000Z</time>
      </trkpt>
      <trkpt lat="45.23986" lon="5.68932">
        <ele>244.72</ele>
        <time>2019-04-14T12:50:37.000Z</time>
      </trkpt>
      <trkpt lat="45.23973" lon="5.68955">
        <ele>245.61</ele>
        <time>2019-04-14T12:50:42.000Z</time>
      </trkpt>
      <trkpt lat="45.23959" lon="5.68978">
        <ele>246.23</ele>
        <time>2019-04-14T12:50:47.000Z</time>
      </trkpt>
      <trkpt lat="45.2396" lon="5.68992">
        <ele>248.54</ele>
        <time>2019-04-14T12:50:53.000Z</time>
      </trkpt>
      <trkpt lat="45.23954" lon="5.69004">
        <ele>244.42</ele>
        <time>2019-04-14T12:51:00.000Z</time>
      </trkpt>
      <trkpt lat="45.23958" lon="5.69021">
        <ele>245.33</ele>
        <time>2019-04-14T12:51:05.000Z</time>
      </trkpt>
      <trkpt lat="45.23969" lon="5.69049">
        <ele>240.79</ele>
        <time>2019-04-14T12:51:10.000Z</time>
      </trkpt>
      <trkpt lat="45.23981" lon="5.69084">
        <ele>240.75</ele>
        <time>2019-04-14T12:51:15.000Z</time>
      </trkpt>
      <trkpt lat="45.23996" lon="5.69106">
        <ele>242.97</ele>
        <time>2019-04-14T12:51:20.000Z</time>
      </trkpt>
      <trkpt lat="45.24009" lon="5.69109">
        <ele>242.06</ele>
        <time>2019-04-14T12:51:25.000Z</time>
      </trkpt>
      <trkpt lat="45.24025" lon="5.69119">
        <ele>242.11</ele>
        <time>2019-04-14T12:51:30.000Z</time>
      </trkpt>
      <trkpt lat="45.24047" lon="5.69129">
        <ele>240.48</ele>
        <time>2019-04-14T12:51:35.000Z</time>
      </trkpt>
      <trkpt lat="45.2407" lon="5.69135">
        <ele>240.82</ele>
        <time>2019-04-14T12:51:40.000Z</time>
      </trkpt>
      <trkpt lat="45.2409" lon="5.69147">
        <ele>245.39</ele>
        <time>2019-04-14T12:51:45.000Z</time>
      </trkpt>
      <trkpt lat="45.24112" lon="5.69155">
        <ele>244.68</ele>
        <time>2019-04-14T12:51:50.000Z</time>
      </trkpt>
      <trkpt lat="45.24133" lon="5.6917">
        <ele>247.15</ele>
        <time>2019-04-14T12:51:55.000Z</time>
      </trkpt>
      <trkpt lat="45.24156" lon="5.69192">
        <ele>247.04</ele>
        <time>2019-04-14T12:52:00.000Z</time>
      </trkpt>
      <trkpt lat="45.24176" lon="5.69212">
        <ele>248.93</ele>
        <time>2019-04-14T12:52:05.000Z</time>
      </trkpt>
      <trkpt lat="45.24191" lon="5.6924">
        <ele>247.55</ele>
        <time>2019-04-14T12:52:10.000Z</time>
      </trkpt>
      <trkpt lat="45.24213" lon="5.69262">
        <ele>244.12</ele>
        <time>2019-04-14T12:52:15.000Z</time>
      </trkpt>
      <trkpt lat="45.24232" lon="5.69279">
        <ele>247.99</ele>
        <time>2019-04-14T12:52:20.000Z</time>
      </trkpt>
      <trkpt lat="45.24255" lon="5.69293">
        <ele>246.67</ele>
        <time>2019-04-14T12:52:25.000Z</time>
      </trkpt>
      <trkpt lat="45.24276" lon="5.69305">
        <ele>248.32</ele>
        <time>2019-04-14T12:52:30.000Z</time>
      </trkpt>
      <trkpt lat="45.24292" lon="5.69311">
        <ele>249.08</ele>
        <time>2019-04-14T12:52:35.000Z</time>
      </trkpt>
      <trkpt lat="45.24308" lon="5.69314">
        <ele>253.41</ele>
        <time>2019-04-14T12:52:41.000Z</time>
      </trkpt>
      <trkpt lat="45.24327" lon="5.69315">
        <ele>256.7</ele>
        <time>2019-04-14T12:52:46.000Z</time>
      </trkpt>
      <trkpt lat="45.24343" lon="5.69317">
        <ele>259.94</ele>
        <time>2019-04-14T12:52:51.000Z</time>
      </trkpt>
      <trkpt lat="45.24358" lon="5.69317">
        <ele>261.46</ele>
        <time>2019-04-14T12:52:56.000Z</time>
      </trkpt>
      <trkpt lat="45.24372" lon="5.69316">
        <ele>260.25</ele>
        <time>2019-04-14T12:53:01.000Z</time>
      </trkpt>
      <trkpt lat="45.24389" lon="5.69324">
        <ele>260.59</ele>
        <time>2019-04-14T12:53:06.000Z</time>
      </trkpt>
      <trkpt lat="45.24407" lon="5.69327">
        <ele>261.96</ele>
        <time>2019-04-14T12:53:11.000Z</time>
      </trkpt>
      <trkpt lat="45.2443" lon="5.6933">
        <ele>263.32</ele>
        <time>2019-04-14T12:53:16.000Z</time>
      </trkpt>
      <trkpt lat="45.24451" lon="5.69342">
        <ele>265.34</ele>
        <time>2019-04-14T12:53:21.000Z</time>
      </trkpt>
      <trkpt lat="45.2447" lon="5.69351">
        <ele>267.79</ele>
        <time>2019-04-14T12:53:26.000Z</time>
      </trkpt>
      <trkpt lat="45.24488" lon="5.69362">
        <ele>268.01</ele>
        <time>2019-04-14T12:53:31.000Z</time>
      </trkpt>
      <trkpt lat="45.2451" lon="5.69373">
        <ele>270.45</ele>
        <time>2019-04-14T12:53:36.000Z</time>
      </trkpt>
      <trkpt lat="45.24531" lon="5.6939">
        <ele>271.64</ele>
        <time>2019-04-14T12:53:41.000Z</time>
      </trkpt>
      <trkpt lat="45.24545" lon="5.69419">
        <ele>272.88</ele>
        <time>2019-04-14T12:53:46.000Z</time>
      </trkpt>
      <trkpt lat="45.24555" lon="5.69451">
        <ele>275.11</ele>
        <time>2019-04-14T12:53:51.000Z</time>
      </trkpt>
      <trkpt lat="45.24558" lon="5.6949">
        <ele>275.8</ele>
        <time>2019-04-14T12:53:56.000Z</time>
      </trkpt>
      <trkpt lat="45.2456" lon="5.6953">
        <ele>280.76</ele>
        <time>2019-04-14T12:54:01.000Z</time>
      </trkpt>
      <trkpt lat="45.24562" lon="5.69565">
        <ele>281.33</ele>
        <time>2019-04-14T12:54:06.000Z</time>
      </trkpt>
      <trkpt lat="45.24567" lon="5.69601">
        <ele>279.07</ele>
        <time>2019-04-14T12:54:11.000Z</time>
      </trkpt>
      <trkpt lat="45.24581" lon="5.69633">
        <ele>278.47</ele>
        <time>2019-04-14T12:54:16.000Z</time>
      </trkpt>
      <trkpt lat="45.246" lon="5.69664">
        <ele>276.22</ele>
        <time>2019-04-14T12:54:21.000Z</time>
      </trkpt>
      <trkpt lat="45.24611" lon="5.69692">
        <ele>278.39</ele>
        <time>2019-04-14T12:54:26.000Z</time>
      </trkpt>
      <trkpt lat="45.24623" lon="5.69721">
        <ele>281.19</ele>
        <time>2019-04-14T12:54:31.000Z</time>
      </trkpt>
      <trkpt lat="45.24634" lon="5.69753">
        <ele>279.18</ele>
        <time>2019-04-14T12:54:36.000Z</time>
      </trkpt>
      <trkpt lat="45.24645" lon="5.6978">
        <ele>281.11</ele>
        <time>2019-04-14T12:54:41.000Z</time>
      </trkpt>
      <trkpt lat="45.2466" lon="5.69801">
        <ele>274.42</ele>
        <time>2019-04-14T12:54:46.000Z</time>
      </trkpt>
      <trkpt lat="45.24676" lon="5.69828">
        <ele>274.04</ele>
        <time>2019-04-14T12:54:51.000Z</time>
      </trkpt>
      <trkpt lat="45.24695" lon="5.6985">
        <ele>274.66</ele>
        <time>2019-04-14T12:54:56.000Z</time>
      </trkpt>
      <trkpt lat="45.24715" lon="5.69876">
        <ele>276.42</ele>
        <time>2019-04-14T12:55:01.000Z</time>
      </trkpt>
      <trkpt lat="45.24726" lon="5.69912">
        <ele>278.8</ele>
        <time>2019-04-14T12:55:06.000Z</time>
      </trkpt>
      <trkpt lat="45.2474" lon="5.69924">
        <ele>281.63</ele>
        <time>2019-04-14T12:55:11.000Z</time>
      </trkpt>
      <trkpt lat="45.24757" lon="5.69924">
        <ele>285.02</ele>
        <time>2019-04-14T12:55:16.000Z</time>
      </trkpt>
      <trkpt lat="45.24772" lon="5.6992">
        <ele>288.38</ele>
        <time>2019-04-14T12:55:21.000Z</time>
      </trkpt>
      <trkpt lat="45.24793" lon="5.69915">
        <ele>291.63</ele>
        <time>2019-04-14T12:55:26.000Z</time>
      </trkpt>
      <trkpt lat="45.24796" lon="5.69928">
        <ele>289.24</ele>
        <time>2019-04-14T12:55:31.000Z</time>
      </trkpt>
      <trkpt lat="45.2478" lon="5.6993">
        <ele>288.69</ele>
        <time>2019-04-14T12:55:36.000Z</time>
      </trkpt>
      <trkpt lat="45.24761" lon="5.69934">
        <ele>288.38</ele>
        <time>2019-04-14T12:55:41.000Z</time>
      </trkpt>
      <trkpt lat="45.24745" lon="5.69939">
        <ele>282.26</ele>
        <time>2019-04-14T12:55:46.000Z</time>
      </trkpt>
      <trkpt lat="45.2474" lon="5.6996">
        <ele>277.6</ele>
        <time>2019-04-14T12:55:51.000Z</time>
      </trkpt>
      <trkpt lat="45.24755" lon="5.69976">
        <ele>282.37</ele>
        <time>2019-04-14T12:55:56.000Z</time>
      </trkpt>
      <trkpt lat="45.24774" lon="5.69974">
        <ele>285.66</ele>
        <time>2019-04-14T12:56:01.000Z</time>
      </trkpt>
      <trkpt lat="45.24791" lon="5.69968">
        <ele>289.84</ele>
        <time>2019-04-14T12:56:06.000Z</time>
      </trkpt>
      <trkpt lat="45.24809" lon="5.69964">
        <ele>293.28</ele>
        <time>2019-04-14T12:56:11.000Z</time>
      </trkpt>
      <trkpt lat="45.24826" lon="5.69963">
        <ele>295.67</ele>
        <time>2019-04-14T12:56:16.000Z</time>
      </trkpt>
      <trkpt lat="45.24843" lon="5.69967">
        <ele>299.08</ele>
        <time>2019-04-14T12:56:21.000Z</time>
      </trkpt>
      <trkpt lat="45.24858" lon="5.6997">
        <ele>302.03</ele>
        <time>2019-04-14T12:56:26.000Z</time>
      </trkpt>
      <trkpt lat="45.24875" lon="5.69981">
        <ele>305.67</ele>
        <time>2019-04-14T12:56:31.000Z</time>
      </trkpt>
      <trkpt lat="45.24887" lon="5.69997">
        <ele>306.95</ele>
        <time>2019-04-14T12:56:36.000Z</time>
      </trkpt>
      <trkpt lat="45.24894" lon="5.70017">
        <ele>310.49</ele>
        <time>2019-04-14T12:56:41.000Z</time>
      </trkpt>
      <trkpt lat="45.24896" lon="5.70041">
        <ele>311.99</ele>
        <time>2019-04-14T12:56:46.000Z</time>
      </trkpt>
      <trkpt lat="45.24902" lon="5.7006">
        <ele>315.5</ele>
        <time>2019-04-14T12:56:51.000Z</time>
      </trkpt>
      <trkpt lat="45.24912" lon="5.70069">
        <ele>315.85</ele>
        <time>2019-04-14T12:56:56.000Z</time>
      </trkpt>
      <trkpt lat="45.24924" lon="5.70075">
        <ele>314.8</ele>
        <time>2019-04-14T12:57:17.000Z</time>
      </trkpt>
      <trkpt lat="45.24939" lon="5.70081">
        <ele>318.29</ele>
        <time>2019-04-14T12:57:22.000Z</time>
      </trkpt>
      <trkpt lat="45.24954" lon="5.70085">
        <ele>318.59</ele>
        <time>2019-04-14T12:57:27.000Z</time>
      </trkpt>
      <trkpt lat="45.24969" lon="5.70092">
        <ele>321.8</ele>
        <time>2019-04-14T12:57:32.000Z</time>
      </trkpt>
      <trkpt lat="45.24987" lon="5.70103">
        <ele>322.67</ele>
        <time>2019-04-14T12:57:37.000Z</time>
      </trkpt>
      <trkpt lat="45.24999" lon="5.70118">
        <ele>328.1</ele>
        <time>2019-04-14T12:57:42.000Z</time>
      </trkpt>
      <trkpt lat="45.25008" lon="5.70131">
        <ele>331.1</ele>
        <time>2019-04-14T12:57:47.000Z</time>
      </trkpt>
      <trkpt lat="45.25016" lon="5.70144">
        <ele>334.04</ele>
        <time>2019-04-14T12:57:52.000Z</time>
      </trkpt>
      <trkpt lat="45.25021" lon="5.7016">
        <ele>334.59</ele>
        <time>2019-04-14T12:57:57.000Z</time>
      </trkpt>
      <trkpt lat="45.25027" lon="5.70171">
        <ele>336.4</ele>
        <time>2019-04-14T12:58:02.000Z</time>
      </trkpt>
      <trkpt lat="45.25035" lon="5.70161">
        <ele>354.3</ele>
        <time>2019-04-14T13:01:59.000Z</time>
      </trkpt>
      <trkpt lat="45.25027" lon="5.70141">
        <ele>354.74</ele>
        <time>2019-04-14T13:02:04.000Z</time>
      </trkpt>
      <trkpt lat="45.25017" lon="5.70126">
        <ele>353.64</ele>
        <time>2019-04-14T13:02:09.000Z</time>
      </trkpt>
      <trkpt lat="45.25006" lon="5.70106">
        <ele>353.14</ele>
        <time>2019-04-14T13:02:14.000Z</time>
      </trkpt>
      <trkpt lat="45.24998" lon="5.70086">
        <ele>351.12</ele>
        <time>2019-04-14T13:02:19.000Z</time>
      </trkpt>
      <trkpt lat="45.24989" lon="5.70071">
        <ele>351.37</ele>
        <time>2019-04-14T13:02:24.000Z</time>
      </trkpt>
      <trkpt lat="45.24973" lon="5.70059">
        <ele>353.15</ele>
        <time>2019-04-14T13:02:29.000Z</time>
      </trkpt>
      <trkpt lat="45.24956" lon="5.70053">
        <ele>357.23</ele>
        <time>2019-04-14T13:02:34.000Z</time>
      </trkpt>
      <trkpt lat="45.24939" lon="5.70043">
        <ele>351.53</ele>
        <time>2019-04-14T13:02:39.000Z</time>
      </trkpt>
      <trkpt lat="45.24935" lon="5.70023">
        <ele>351.46</ele>
        <time>2019-04-14T13:02:44.000Z</time>
      </trkpt>
      <trkpt lat="45.24947" lon="5.70017">
        <ele>352.92</ele>
        <time>2019-04-14T13:02:49.000Z</time>
      </trkpt>
      <trkpt lat="45.24964" lon="5.70025">
        <ele>349.61</ele>
        <time>2019-04-14T13:02:54.000Z</time>
      </trkpt>
      <trkpt lat="45.24979" lon="5.70035">
        <ele>351.31</ele>
        <time>2019-04-14T13:02:59.000Z</time>
      </trkpt>
      <trkpt lat="45.24994" lon="5.70049">
        <ele>352.87</ele>
        <time>2019-04-14T13:03:04.000Z</time>
      </trkpt>
      <trkpt lat="45.2501" lon="5.70061">
        <ele>353.21</ele>
        <time>2019-04-14T13:03:09.000Z</time>
      </trkpt>
      <trkpt lat="45.25023" lon="5.70073">
        <ele>357.41</ele>
        <time>2019-04-14T13:03:14.000Z</time>
      </trkpt>
      <trkpt lat="45.25033" lon="5.70088">
        <ele>360.42</ele>
        <time>2019-04-14T13:03:19.000Z</time>
      </trkpt>
      <trkpt lat="45.25044" lon="5.701">
        <ele>360.66</ele>
        <time>2019-04-14T13:03:24.000Z</time>
      </trkpt>
      <trkpt lat="45.25063" lon="5.70104">
        <ele>365.85</ele>
        <time>2019-04-14T13:03:29.000Z</time>
      </trkpt>
      <trkpt lat="45.25076" lon="5.70118">
        <ele>368.43</ele>
        <time>2019-04-14T13:03:34.000Z</time>
      </trkpt>
      <trkpt lat="45.25084" lon="5.70139">
        <ele>371.45</ele>
        <time>2019-04-14T13:03:39.000Z</time>
      </trkpt>
      <trkpt lat="45.25088" lon="5.70157">
        <ele>375.7</ele>
        <time>2019-04-14T13:03:44.000Z</time>
      </trkpt>
      <trkpt lat="45.25092" lon="5.70176">
        <ele>378.03</ele>
        <time>2019-04-14T13:03:49.000Z</time>
      </trkpt>
      <trkpt lat="45.25104" lon="5.7019">
        <ele>380.86</ele>
        <time>2019-04-14T13:03:54.000Z</time>
      </trkpt>
      <trkpt lat="45.25115" lon="5.70209">
        <ele>383.77</ele>
        <time>2019-04-14T13:03:59.000Z</time>
      </trkpt>
      <trkpt lat="45.25124" lon="5.70224">
        <ele>385.33</ele>
        <time>2019-04-14T13:04:04.000Z</time>
      </trkpt>
      <trkpt lat="45.25134" lon="5.70236">
        <ele>387.81</ele>
        <time>2019-04-14T13:04:09.000Z</time>
      </trkpt>
      <trkpt lat="45.25149" lon="5.70242">
        <ele>390.45</ele>
        <time>2019-04-14T13:04:14.000Z</time>
      </trkpt>
      <trkpt lat="45.25164" lon="5.70248">
        <ele>391.32</ele>
        <time>2019-04-14T13:04:19.000Z</time>
      </trkpt>
      <trkpt lat="45.25174" lon="5.70249">
        <ele>392.87</ele>
        <time>2019-04-14T13:04:24.000Z</time>
      </trkpt>
      <trkpt lat="45.25173" lon="5.70236">
        <ele>394.22</ele>
        <time>2019-04-14T13:04:53.000Z</time>
      </trkpt>
      <trkpt lat="45.25154" lon="5.70231">
        <ele>391.57</ele>
        <time>2019-04-14T13:04:58.000Z</time>
      </trkpt>
      <trkpt lat="45.25139" lon="5.70216">
        <ele>395.1</ele>
        <time>2019-04-14T13:05:03.000Z</time>
      </trkpt>
      <trkpt lat="45.25131" lon="5.70198">
        <ele>398</ele>
        <time>2019-04-14T13:05:08.000Z</time>
      </trkpt>
      <trkpt lat="45.25127" lon="5.70176">
        <ele>395.99</ele>
        <time>2019-04-14T13:05:13.000Z</time>
      </trkpt>
      <trkpt lat="45.25127" lon="5.70158">
        <ele>398.05</ele>
        <time>2019-04-14T13:05:18.000Z</time>
      </trkpt>
      <trkpt lat="45.25146" lon="5.70151">
        <ele>397.12</ele>
        <time>2019-04-14T13:05:23.000Z</time>
      </trkpt>
      <trkpt lat="45.25166" lon="5.70155">
        <ele>398.48</ele>
        <time>2019-04-14T13:05:28.000Z</time>
      </trkpt>
      <trkpt lat="45.25182" lon="5.70147">
        <ele>403.84</ele>
        <time>2019-04-14T13:05:33.000Z</time>
      </trkpt>
      <trkpt lat="45.25193" lon="5.70139">
        <ele>407.86</ele>
        <time>2019-04-14T13:05:38.000Z</time>
      </trkpt>
      <trkpt lat="45.25203" lon="5.70131">
        <ele>407.22</ele>
        <time>2019-04-14T13:05:43.000Z</time>
      </trkpt>
      <trkpt lat="45.25214" lon="5.70119">
        <ele>408.03</ele>
        <time>2019-04-14T13:05:48.000Z</time>
      </trkpt>
      <trkpt lat="45.25222" lon="5.70103">
        <ele>409.28</ele>
        <time>2019-04-14T13:05:53.000Z</time>
      </trkpt>
      <trkpt lat="45.2523" lon="5.70083">
        <ele>413.4</ele>
        <time>2019-04-14T13:05:58.000Z</time>
      </trkpt>
      <trkpt lat="45.25243" lon="5.70063">
        <ele>415.34</ele>
        <time>2019-04-14T13:06:03.000Z</time>
      </trkpt>
      <trkpt lat="45.25258" lon="5.70047">
        <ele>419.49</ele>
        <time>2019-04-14T13:06:08.000Z</time>
      </trkpt>
      <trkpt lat="45.25273" lon="5.70037">
        <ele>424.51</ele>
        <time>2019-04-14T13:06:13.000Z</time>
      </trkpt>
      <trkpt lat="45.25287" lon="5.70032">
        <ele>427.71</ele>
        <time>2019-04-14T13:06:18.000Z</time>
      </trkpt>
      <trkpt lat="45.25301" lon="5.70031">
        <ele>429.52</ele>
        <time>2019-04-14T13:06:23.000Z</time>
      </trkpt>
      <trkpt lat="45.25317" lon="5.70032">
        <ele>430.63</ele>
        <time>2019-04-14T13:06:28.000Z</time>
      </trkpt>
      <trkpt lat="45.25334" lon="5.70032">
        <ele>430.49</ele>
        <time>2019-04-14T13:06:33.000Z</time>
      </trkpt>
      <trkpt lat="45.2535" lon="5.70025">
        <ele>434.82</ele>
        <time>2019-04-14T13:06:38.000Z</time>
      </trkpt>
      <trkpt lat="45.25368" lon="5.70024">
        <ele>436.34</ele>
        <time>2019-04-14T13:06:43.000Z</time>
      </trkpt>
      <trkpt lat="45.25384" lon="5.70025">
        <ele>437.22</ele>
        <time>2019-04-14T13:06:48.000Z</time>
      </trkpt>
      <trkpt lat="45.254" lon="5.70026">
        <ele>441.49</ele>
        <time>2019-04-14T13:06:53.000Z</time>
      </trkpt>
      <trkpt lat="45.25414" lon="5.70033">
        <ele>440.51</ele>
        <time>2019-04-14T13:06:58.000Z</time>
      </trkpt>
      <trkpt lat="45.25421" lon="5.70054">
        <ele>441.97</ele>
        <time>2019-04-14T13:07:03.000Z</time>
      </trkpt>
      <trkpt lat="45.2542" lon="5.70079">
        <ele>441.92</ele>
        <time>2019-04-14T13:07:08.000Z</time>
      </trkpt>
      <trkpt lat="45.25413" lon="5.701">
        <ele>444.55</ele>
        <time>2019-04-14T13:07:13.000Z</time>
      </trkpt>
      <trkpt lat="45.25404" lon="5.70122">
        <ele>446.99</ele>
        <time>2019-04-14T13:07:18.000Z</time>
      </trkpt>
      <trkpt lat="45.25398" lon="5.70142">
        <ele>446.65</ele>
        <time>2019-04-14T13:07:23.000Z</time>
      </trkpt>
      <trkpt lat="45.25393" lon="5.70167">
        <ele>448.16</ele>
        <time>2019-04-14T13:07:28.000Z</time>
      </trkpt>
      <trkpt lat="45.25389" lon="5.70189">
        <ele>451.56</ele>
        <time>2019-04-14T13:07:33.000Z</time>
      </trkpt>
      <trkpt lat="45.25385" lon="5.70211">
        <ele>454.46</ele>
        <time>2019-04-14T13:07:38.000Z</time>
      </trkpt>
      <trkpt lat="45.25387" lon="5.70234">
        <ele>457.04</ele>
        <time>2019-04-14T13:07:43.000Z</time>
      </trkpt>
      <trkpt lat="45.25393" lon="5.70257">
        <ele>459.12</ele>
        <time>2019-04-14T13:07:48.000Z</time>
      </trkpt>
      <trkpt lat="45.25398" lon="5.70282">
        <ele>459.47</ele>
        <time>2019-04-14T13:07:53.000Z</time>
      </trkpt>
      <trkpt lat="45.25403" lon="5.70305">
        <ele>461.55</ele>
        <time>2019-04-14T13:07:58.000Z</time>
      </trkpt>
      <trkpt lat="45.25408" lon="5.70328">
        <ele>461.45</ele>
        <time>2019-04-14T13:08:03.000Z</time>
      </trkpt>
      <trkpt lat="45.25415" lon="5.7035">
        <ele>463.45</ele>
        <time>2019-04-14T13:08:08.000Z</time>
      </trkpt>
      <trkpt lat="45.25423" lon="5.70371">
        <ele>466.25</ele>
        <time>2019-04-14T13:08:13.000Z</time>
      </trkpt>
      <trkpt lat="45.25431" lon="5.70393">
        <ele>468.3</ele>
        <time>2019-04-14T13:08:18.000Z</time>
      </trkpt>
      <trkpt lat="45.25439" lon="5.70416">
        <ele>471.1</ele>
        <time>2019-04-14T13:08:23.000Z</time>
      </trkpt>
      <trkpt lat="45.25445" lon="5.70436">
        <ele>472.04</ele>
        <time>2019-04-14T13:08:28.000Z</time>
      </trkpt>
      <trkpt lat="45.25454" lon="5.70456">
        <ele>474.3</ele>
        <time>2019-04-14T13:08:33.000Z</time>
      </trkpt>
      <trkpt lat="45.25467" lon="5.70471">
        <ele>478.05</ele>
        <time>2019-04-14T13:08:38.000Z</time>
      </trkpt>
      <trkpt lat="45.25479" lon="5.70486">
        <ele>481.85</ele>
        <time>2019-04-14T13:08:43.000Z</time>
      </trkpt>
      <trkpt lat="45.25492" lon="5.70498">
        <ele>482.67</ele>
        <time>2019-04-14T13:08:48.000Z</time>
      </trkpt>
      <trkpt lat="45.25505" lon="5.70512">
        <ele>484.31</ele>
        <time>2019-04-14T13:08:53.000Z</time>
      </trkpt>
      <trkpt lat="45.25518" lon="5.70515">
        <ele>495.81</ele>
        <time>2019-04-14T13:10:18.000Z</time>
      </trkpt>
      <trkpt lat="45.25555" lon="5.70526">
        <ele>493.75</ele>
        <time>2019-04-14T13:10:23.000Z</time>
      </trkpt>
      <trkpt lat="45.25574" lon="5.70536">
        <ele>495.94</ele>
        <time>2019-04-14T13:10:28.000Z</time>
      </trkpt>
      <trkpt lat="45.25589" lon="5.70544">
        <ele>497.69</ele>
        <time>2019-04-14T13:10:33.000Z</time>
      </trkpt>
      <trkpt lat="45.25607" lon="5.70555">
        <ele>497.12</ele>
        <time>2019-04-14T13:10:38.000Z</time>
      </trkpt>
      <trkpt lat="45.25621" lon="5.7056">
        <ele>500.6</ele>
        <time>2019-04-14T13:10:43.000Z</time>
      </trkpt>
      <trkpt lat="45.25633" lon="5.7057">
        <ele>502.56</ele>
        <time>2019-04-14T13:10:48.000Z</time>
      </trkpt>
      <trkpt lat="45.25647" lon="5.70578">
        <ele>501.58</ele>
        <time>2019-04-14T13:10:53.000Z</time>
      </trkpt>
      <trkpt lat="45.2566" lon="5.70592">
        <ele>503.08</ele>
        <time>2019-04-14T13:10:58.000Z</time>
      </trkpt>
      <trkpt lat="45.25675" lon="5.70602">
        <ele>499.22</ele>
        <time>2019-04-14T13:11:03.000Z</time>
      </trkpt>
      <trkpt lat="45.25694" lon="5.70611">
        <ele>498.86</ele>
        <time>2019-04-14T13:11:08.000Z</time>
      </trkpt>
      <trkpt lat="45.25713" lon="5.70617">
        <ele>502.66</ele>
        <time>2019-04-14T13:11:13.000Z</time>
      </trkpt>
      <trkpt lat="45.2573" lon="5.70624">
        <ele>503.36</ele>
        <time>2019-04-14T13:11:18.000Z</time>
      </trkpt>
      <trkpt lat="45.25747" lon="5.70636">
        <ele>505.64</ele>
        <time>2019-04-14T13:11:23.000Z</time>
      </trkpt>
      <trkpt lat="45.25761" lon="5.70652">
        <ele>509.75</ele>
        <time>2019-04-14T13:11:28.000Z</time>
      </trkpt>
      <trkpt lat="45.25775" lon="5.70668">
        <ele>510.06</ele>
        <time>2019-04-14T13:11:33.000Z</time>
      </trkpt>
      <trkpt lat="45.2579" lon="5.7068">
        <ele>510.28</ele>
        <time>2019-04-14T13:11:38.000Z</time>
      </trkpt>
      <trkpt lat="45.25799" lon="5.70698">
        <ele>511.99</ele>
        <time>2019-04-14T13:11:43.000Z</time>
      </trkpt>
      <trkpt lat="45.25803" lon="5.70725">
        <ele>513.72</ele>
        <time>2019-04-14T13:11:48.000Z</time>
      </trkpt>
      <trkpt lat="45.25807" lon="5.70751">
        <ele>521.25</ele>
        <time>2019-04-14T13:11:53.000Z</time>
      </trkpt>
      <trkpt lat="45.2581" lon="5.70772">
        <ele>526.18</ele>
        <time>2019-04-14T13:11:58.000Z</time>
      </trkpt>
      <trkpt lat="45.25809" lon="5.70794">
        <ele>528.74</ele>
        <time>2019-04-14T13:12:03.000Z</time>
      </trkpt>
      <trkpt lat="45.25795" lon="5.70818">
        <ele>530.84</ele>
        <time>2019-04-14T13:12:08.000Z</time>
      </trkpt>
      <trkpt lat="45.25776" lon="5.70817">
        <ele>532.09</ele>
        <time>2019-04-14T13:12:13.000Z</time>
      </trkpt>
      <trkpt lat="45.25762" lon="5.70802">
        <ele>533.02</ele>
        <time>2019-04-14T13:12:18.000Z</time>
      </trkpt>
      <trkpt lat="45.25745" lon="5.70788">
        <ele>533.02</ele>
        <time>2019-04-14T13:12:23.000Z</time>
      </trkpt>
      <trkpt lat="45.25726" lon="5.70778">
        <ele>533.51</ele>
        <time>2019-04-14T13:12:28.000Z</time>
      </trkpt>
      <trkpt lat="45.25707" lon="5.70798">
        <ele>535.41</ele>
        <time>2019-04-14T13:12:33.000Z</time>
      </trkpt>
      <trkpt lat="45.25688" lon="5.70823">
        <ele>533.55</ele>
        <time>2019-04-14T13:12:38.000Z</time>
      </trkpt>
      <trkpt lat="45.25678" lon="5.70854">
        <ele>534.54</ele>
        <time>2019-04-14T13:12:43.000Z</time>
      </trkpt>
      <trkpt lat="45.25662" lon="5.70886">
        <ele>534.38</ele>
        <time>2019-04-14T13:12:48.000Z</time>
      </trkpt>
      <trkpt lat="45.2565" lon="5.70919">
        <ele>532.19</ele>
        <time>2019-04-14T13:12:53.000Z</time>
      </trkpt>
      <trkpt lat="45.25636" lon="5.70954">
        <ele>530.99</ele>
        <time>2019-04-14T13:12:58.000Z</time>
      </trkpt>
      <trkpt lat="45.25625" lon="5.70986">
        <ele>529.64</ele>
        <time>2019-04-14T13:13:03.000Z</time>
      </trkpt>
      <trkpt lat="45.25625" lon="5.71014">
        <ele>530.64</ele>
        <time>2019-04-14T13:13:08.000Z</time>
      </trkpt>
      <trkpt lat="45.25637" lon="5.71045">
        <ele>530.19</ele>
        <time>2019-04-14T13:13:13.000Z</time>
      </trkpt>
      <trkpt lat="45.25638" lon="5.7108">
        <ele>526.22</ele>
        <time>2019-04-14T13:13:18.000Z</time>
      </trkpt>
      <trkpt lat="45.25634" lon="5.71112">
        <ele>526.88</ele>
        <time>2019-04-14T13:13:23.000Z</time>
      </trkpt>
      <trkpt lat="45.25639" lon="5.71142">
        <ele>527.67</ele>
        <time>2019-04-14T13:13:28.000Z</time>
      </trkpt>
      <trkpt lat="45.2565" lon="5.71177">
        <ele>530.43</ele>
        <time>2019-04-14T13:13:33.000Z</time>
      </trkpt>
      <trkpt lat="45.25652" lon="5.71204">
        <ele>528.62</ele>
        <time>2019-04-14T13:13:38.000Z</time>
      </trkpt>
      <trkpt lat="45.25633" lon="5.71231">
        <ele>528.22</ele>
        <time>2019-04-14T13:13:43.000Z</time>
      </trkpt>
      <trkpt lat="45.25607" lon="5.7125">
        <ele>527.92</ele>
        <time>2019-04-14T13:13:48.000Z</time>
      </trkpt>
      <trkpt lat="45.25597" lon="5.71254">
        <ele>526.58</ele>
        <time>2019-04-14T13:13:53.000Z</time>
      </trkpt>
      <trkpt lat="45.25587" lon="5.71256">
        <ele>523.3</ele>
        <time>2019-04-14T13:14:02.000Z</time>
      </trkpt>
      <trkpt lat="45.25574" lon="5.71265">
        <ele>524.94</ele>
        <time>2019-04-14T13:14:07.000Z</time>
      </trkpt>
      <trkpt lat="45.25554" lon="5.71274">
        <ele>522.61</ele>
        <time>2019-04-14T13:14:12.000Z</time>
      </trkpt>
      <trkpt lat="45.25527" lon="5.71299">
        <ele>516.9</ele>
        <time>2019-04-14T13:14:17.000Z</time>
      </trkpt>
      <trkpt lat="45.25506" lon="5.71322">
        <ele>515.91</ele>
        <time>2019-04-14T13:14:22.000Z</time>
      </trkpt>
      <trkpt lat="45.2548" lon="5.71333">
        <ele>517.92</ele>
        <time>2019-04-14T13:14:27.000Z</time>
      </trkpt>
      <trkpt lat="45.2545" lon="5.71349">
        <ele>515.97</ele>
        <time>2019-04-14T13:14:32.000Z</time>
      </trkpt>
      <trkpt lat="45.25428" lon="5.71352">
        <ele>517.48</ele>
        <time>2019-04-14T13:14:37.000Z</time>
      </trkpt>
      <trkpt lat="45.25407" lon="5.7137">
        <ele>515.92</ele>
        <time>2019-04-14T13:14:42.000Z</time>
      </trkpt>
      <trkpt lat="45.25379" lon="5.71387">
        <ele>516.84</ele>
        <time>2019-04-14T13:14:47.000Z</time>
      </trkpt>
      <trkpt lat="45.25356" lon="5.7141">
        <ele>520.41</ele>
        <time>2019-04-14T13:14:52.000Z</time>
      </trkpt>
      <trkpt lat="45.25335" lon="5.71437">
        <ele>521.32</ele>
        <time>2019-04-14T13:14:57.000Z</time>
      </trkpt>
      <trkpt lat="45.25311" lon="5.71474">
        <ele>522.16</ele>
        <time>2019-04-14T13:15:02.000Z</time>
      </trkpt>
      <trkpt lat="45.25309" lon="5.71524">
        <ele>519.86</ele>
        <time>2019-04-14T13:15:07.000Z</time>
      </trkpt>
      <trkpt lat="45.25297" lon="5.71561">
        <ele>519.42</ele>
        <time>2019-04-14T13:15:12.000Z</time>
      </trkpt>
      <trkpt lat="45.25289" lon="5.71597">
        <ele>520.4</ele>
        <time>2019-04-14T13:15:17.000Z</time>
      </trkpt>
      <trkpt lat="45.25282" lon="5.71636">
        <ele>524.11</ele>
        <time>2019-04-14T13:15:22.000Z</time>
      </trkpt>
      <trkpt lat="45.25294" lon="5.7167">
        <ele>523.88</ele>
        <time>2019-04-14T13:15:27.000Z</time>
      </trkpt>
      <trkpt lat="45.25317" lon="5.71698">
        <ele>520.51</ele>
        <time>2019-04-14T13:15:32.000Z</time>
      </trkpt>
      <trkpt lat="45.2532" lon="5.71736">
        <ele>522.18</ele>
        <time>2019-04-14T13:15:37.000Z</time>
      </trkpt>
      <trkpt lat="45.25309" lon="5.7177">
        <ele>523.44</ele>
        <time>2019-04-14T13:15:42.000Z</time>
      </trkpt>
      <trkpt lat="45.25298" lon="5.71788">
        <ele>525.46</ele>
        <time>2019-04-14T13:15:47.000Z</time>
      </trkpt>
      <trkpt lat="45.25287" lon="5.71798">
        <ele>526.18</ele>
        <time>2019-04-14T13:15:52.000Z</time>
      </trkpt>
      <trkpt lat="45.2528" lon="5.71808">
        <ele>531.94</ele>
        <time>2019-04-14T13:17:03.000Z</time>
      </trkpt>
      <trkpt lat="45.25287" lon="5.71845">
        <ele>529.65</ele>
        <time>2019-04-14T13:17:08.000Z</time>
      </trkpt>
      <trkpt lat="45.25301" lon="5.71905">
        <ele>531.68</ele>
        <time>2019-04-14T13:17:13.000Z</time>
      </trkpt>
      <trkpt lat="45.253" lon="5.71962">
        <ele>533.56</ele>
        <time>2019-04-14T13:17:18.000Z</time>
      </trkpt>
      <trkpt lat="45.25333" lon="5.7198">
        <ele>531.39</ele>
        <time>2019-04-14T13:17:23.000Z</time>
      </trkpt>
      <trkpt lat="45.25354" lon="5.71996">
        <ele>531.59</ele>
        <time>2019-04-14T13:17:28.000Z</time>
      </trkpt>
      <trkpt lat="45.25318" lon="5.72022">
        <ele>529.91</ele>
        <time>2019-04-14T13:17:33.000Z</time>
      </trkpt>
      <trkpt lat="45.25287" lon="5.72057">
        <ele>529.02</ele>
        <time>2019-04-14T13:17:38.000Z</time>
      </trkpt>
      <trkpt lat="45.25245" lon="5.721">
        <ele>523.83</ele>
        <time>2019-04-14T13:17:43.000Z</time>
      </trkpt>
      <trkpt lat="45.25227" lon="5.72171">
        <ele>515.19</ele>
        <time>2019-04-14T13:17:48.000Z</time>
      </trkpt>
      <trkpt lat="45.25193" lon="5.72216">
        <ele>509.77</ele>
        <time>2019-04-14T13:17:53.000Z</time>
      </trkpt>
      <trkpt lat="45.25157" lon="5.72266">
        <ele>507.66</ele>
        <time>2019-04-14T13:17:58.000Z</time>
      </trkpt>
      <trkpt lat="45.25122" lon="5.72334">
        <ele>506.93</ele>
        <time>2019-04-14T13:18:03.000Z</time>
      </trkpt>
      <trkpt lat="45.25087" lon="5.72403">
        <ele>503.76</ele>
        <time>2019-04-14T13:18:08.000Z</time>
      </trkpt>
      <trkpt lat="45.2506" lon="5.72431">
        <ele>501.44</ele>
        <time>2019-04-14T13:18:13.000Z</time>
      </trkpt>
      <trkpt lat="45.25045" lon="5.72387">
        <ele>499.71</ele>
        <time>2019-04-14T13:18:18.000Z</time>
      </trkpt>
      <trkpt lat="45.25069" lon="5.7232">
        <ele>496.06</ele>
        <time>2019-04-14T13:18:23.000Z</time>
      </trkpt>
      <trkpt lat="45.25053" lon="5.72256">
        <ele>494.64</ele>
        <time>2019-04-14T13:18:28.000Z</time>
      </trkpt>
      <trkpt lat="45.25056" lon="5.72183">
        <ele>490.52</ele>
        <time>2019-04-14T13:18:33.000Z</time>
      </trkpt>
      <trkpt lat="45.25024" lon="5.72153">
        <ele>486.93</ele>
        <time>2019-04-14T13:18:38.000Z</time>
      </trkpt>
      <trkpt lat="45.25009" lon="5.72172">
        <ele>483.72</ele>
        <time>2019-04-14T13:18:43.000Z</time>
      </trkpt>
      <trkpt lat="45.25013" lon="5.72195">
        <ele>479.96</ele>
        <time>2019-04-14T13:18:48.000Z</time>
      </trkpt>
      <trkpt lat="45.25023" lon="5.72226">
        <ele>475.31</ele>
        <time>2019-04-14T13:18:53.000Z</time>
      </trkpt>
      <trkpt lat="45.25028" lon="5.72282">
        <ele>473.38</ele>
        <time>2019-04-14T13:18:58.000Z</time>
      </trkpt>
      <trkpt lat="45.2501" lon="5.72356">
        <ele>467.36</ele>
        <time>2019-04-14T13:19:03.000Z</time>
      </trkpt>
      <trkpt lat="45.24969" lon="5.7242">
        <ele>460.12</ele>
        <time>2019-04-14T13:19:08.000Z</time>
      </trkpt>
      <trkpt lat="45.2496" lon="5.72486">
        <ele>458.37</ele>
        <time>2019-04-14T13:19:13.000Z</time>
      </trkpt>
      <trkpt lat="45.24952" lon="5.72558">
        <ele>455.6</ele>
        <time>2019-04-14T13:19:18.000Z</time>
      </trkpt>
      <trkpt lat="45.24943" lon="5.72608">
        <ele>450.52</ele>
        <time>2019-04-14T13:19:23.000Z</time>
      </trkpt>
      <trkpt lat="45.24913" lon="5.7258">
        <ele>448.14</ele>
        <time>2019-04-14T13:19:28.000Z</time>
      </trkpt>
      <trkpt lat="45.24908" lon="5.72535">
        <ele>451.33</ele>
        <time>2019-04-14T13:19:33.000Z</time>
      </trkpt>
      <trkpt lat="45.24891" lon="5.72507">
        <ele>451.19</ele>
        <time>2019-04-14T13:19:38.000Z</time>
      </trkpt>
      <trkpt lat="45.24874" lon="5.72485">
        <ele>452.69</ele>
        <time>2019-04-14T13:19:43.000Z</time>
      </trkpt>
      <trkpt lat="45.24863" lon="5.72458">
        <ele>452.95</ele>
        <time>2019-04-14T13:19:48.000Z</time>
      </trkpt>
      <trkpt lat="45.24852" lon="5.72431">
        <ele>453.98</ele>
        <time>2019-04-14T13:19:53.000Z</time>
      </trkpt>
      <trkpt lat="45.24845" lon="5.72408">
        <ele>457.89</ele>
        <time>2019-04-14T13:19:58.000Z</time>
      </trkpt>
      <trkpt lat="45.24837" lon="5.72385">
        <ele>459.34</ele>
        <time>2019-04-14T13:20:03.000Z</time>
      </trkpt>
      <trkpt lat="45.24827" lon="5.72356">
        <ele>459.8</ele>
        <time>2019-04-14T13:20:08.000Z</time>
      </trkpt>
      <trkpt lat="45.24816" lon="5.7233">
        <ele>458.88</ele>
        <time>2019-04-14T13:20:13.000Z</time>
      </trkpt>
      <trkpt lat="45.24801" lon="5.72309">
        <ele>458.17</ele>
        <time>2019-04-14T13:20:18.000Z</time>
      </trkpt>
      <trkpt lat="45.24784" lon="5.72292">
        <ele>458.53</ele>
        <time>2019-04-14T13:20:23.000Z</time>
      </trkpt>
      <trkpt lat="45.24764" lon="5.72285">
        <ele>460.02</ele>
        <time>2019-04-14T13:20:28.000Z</time>
      </trkpt>
      <trkpt lat="45.24742" lon="5.72289">
        <ele>460.08</ele>
        <time>2019-04-14T13:20:33.000Z</time>
      </trkpt>
      <trkpt lat="45.24723" lon="5.72295">
        <ele>462.62</ele>
        <time>2019-04-14T13:20:38.000Z</time>
      </trkpt>
      <trkpt lat="45.24705" lon="5.72301">
        <ele>464.54</ele>
        <time>2019-04-14T13:20:43.000Z</time>
      </trkpt>
      <trkpt lat="45.24688" lon="5.72307">
        <ele>466.01</ele>
        <time>2019-04-14T13:20:48.000Z</time>
      </trkpt>
      <trkpt lat="45.2467" lon="5.72314">
        <ele>470.45</ele>
        <time>2019-04-14T13:20:53.000Z</time>
      </trkpt>
      <trkpt lat="45.24653" lon="5.72321">
        <ele>475.22</ele>
        <time>2019-04-14T13:20:58.000Z</time>
      </trkpt>
      <trkpt lat="45.24634" lon="5.72325">
        <ele>476.18</ele>
        <time>2019-04-14T13:21:03.000Z</time>
      </trkpt>
      <trkpt lat="45.24616" lon="5.72327">
        <ele>478.45</ele>
        <time>2019-04-14T13:21:08.000Z</time>
      </trkpt>
      <trkpt lat="45.246" lon="5.72327">
        <ele>482.6</ele>
        <time>2019-04-14T13:21:13.000Z</time>
      </trkpt>
      <trkpt lat="45.2458" lon="5.72332">
        <ele>485.15</ele>
        <time>2019-04-14T13:21:18.000Z</time>
      </trkpt>
      <trkpt lat="45.24562" lon="5.72333">
        <ele>486.77</ele>
        <time>2019-04-14T13:21:23.000Z</time>
      </trkpt>
      <trkpt lat="45.24548" lon="5.72335">
        <ele>490.14</ele>
        <time>2019-04-14T13:21:28.000Z</time>
      </trkpt>
      <trkpt lat="45.24532" lon="5.7234">
        <ele>492.03</ele>
        <time>2019-04-14T13:21:33.000Z</time>
      </trkpt>
      <trkpt lat="45.24515" lon="5.72346">
        <ele>496.17</ele>
        <time>2019-04-14T13:21:38.000Z</time>
      </trkpt>
      <trkpt lat="45.24499" lon="5.72351">
        <ele>497.21</ele>
        <time>2019-04-14T13:21:43.000Z</time>
      </trkpt>
      <trkpt lat="45.24483" lon="5.72355">
        <ele>497.57</ele>
        <time>2019-04-14T13:21:48.000Z</time>
      </trkpt>
      <trkpt lat="45.24466" lon="5.72362">
        <ele>499.68</ele>
        <time>2019-04-14T13:21:53.000Z</time>
      </trkpt>
      <trkpt lat="45.24448" lon="5.7237">
        <ele>501.08</ele>
        <time>2019-04-14T13:21:58.000Z</time>
      </trkpt>
      <trkpt lat="45.2443" lon="5.72377">
        <ele>501.8</ele>
        <time>2019-04-14T13:22:03.000Z</time>
      </trkpt>
      <trkpt lat="45.24413" lon="5.72386">
        <ele>503.54</ele>
        <time>2019-04-14T13:22:08.000Z</time>
      </trkpt>
      <trkpt lat="45.24397" lon="5.72396">
        <ele>505.7</ele>
        <time>2019-04-14T13:22:13.000Z</time>
      </trkpt>
      <trkpt lat="45.24378" lon="5.72408">
        <ele>506.1</ele>
        <time>2019-04-14T13:22:18.000Z</time>
      </trkpt>
      <trkpt lat="45.24362" lon="5.72423">
        <ele>506.43</ele>
        <time>2019-04-14T13:22:23.000Z</time>
      </trkpt>
      <trkpt lat="45.24347" lon="5.72438">
        <ele>509.3</ele>
        <time>2019-04-14T13:22:28.000Z</time>
      </trkpt>
      <trkpt lat="45.24332" lon="5.72452">
        <ele>510.19</ele>
        <time>2019-04-14T13:22:33.000Z</time>
      </trkpt>
      <trkpt lat="45.2432" lon="5.72473">
        <ele>511.18</ele>
        <time>2019-04-14T13:22:38.000Z</time>
      </trkpt>
      <trkpt lat="45.24307" lon="5.72489">
        <ele>515.09</ele>
        <time>2019-04-14T13:22:43.000Z</time>
      </trkpt>
      <trkpt lat="45.24294" lon="5.72505">
        <ele>513.06</ele>
        <time>2019-04-14T13:22:48.000Z</time>
      </trkpt>
      <trkpt lat="45.24276" lon="5.72521">
        <ele>516.45</ele>
        <time>2019-04-14T13:22:53.000Z</time>
      </trkpt>
      <trkpt lat="45.24262" lon="5.72536">
        <ele>517.7</ele>
        <time>2019-04-14T13:22:58.000Z</time>
      </trkpt>
      <trkpt lat="45.24245" lon="5.72542">
        <ele>517.42</ele>
        <time>2019-04-14T13:23:03.000Z</time>
      </trkpt>
      <trkpt lat="45.24229" lon="5.72553">
        <ele>520.59</ele>
        <time>2019-04-14T13:23:08.000Z</time>
      </trkpt>
      <trkpt lat="45.24235" lon="5.72572">
        <ele>530.09</ele>
        <time>2019-04-14T13:23:13.000Z</time>
      </trkpt>
      <trkpt lat="45.24257" lon="5.72575">
        <ele>534.83</ele>
        <time>2019-04-14T13:23:18.000Z</time>
      </trkpt>
      <trkpt lat="45.24276" lon="5.72578">
        <ele>533.56</ele>
        <time>2019-04-14T13:23:23.000Z</time>
      </trkpt>
      <trkpt lat="45.24295" lon="5.72582">
        <ele>534.94</ele>
        <time>2019-04-14T13:23:28.000Z</time>
      </trkpt>
      <trkpt lat="45.24314" lon="5.72595">
        <ele>535.4</ele>
        <time>2019-04-14T13:23:33.000Z</time>
      </trkpt>
      <trkpt lat="45.24331" lon="5.7262">
        <ele>535.96</ele>
        <time>2019-04-14T13:23:38.000Z</time>
      </trkpt>
      <trkpt lat="45.24349" lon="5.72646">
        <ele>540.1</ele>
        <time>2019-04-14T13:23:43.000Z</time>
      </trkpt>
      <trkpt lat="45.24367" lon="5.72675">
        <ele>542.06</ele>
        <time>2019-04-14T13:23:48.000Z</time>
      </trkpt>
      <trkpt lat="45.24391" lon="5.72692">
        <ele>543.28</ele>
        <time>2019-04-14T13:23:53.000Z</time>
      </trkpt>
      <trkpt lat="45.24411" lon="5.72715">
        <ele>544.22</ele>
        <time>2019-04-14T13:23:58.000Z</time>
      </trkpt>
      <trkpt lat="45.2443" lon="5.72736">
        <ele>544.93</ele>
        <time>2019-04-14T13:24:03.000Z</time>
      </trkpt>
      <trkpt lat="45.24445" lon="5.72758">
        <ele>544.39</ele>
        <time>2019-04-14T13:24:08.000Z</time>
      </trkpt>
      <trkpt lat="45.24469" lon="5.72776">
        <ele>547.77</ele>
        <time>2019-04-14T13:24:13.000Z</time>
      </trkpt>
      <trkpt lat="45.24485" lon="5.728">
        <ele>545.44</ele>
        <time>2019-04-14T13:24:18.000Z</time>
      </trkpt>
      <trkpt lat="45.2451" lon="5.72815">
        <ele>549.3</ele>
        <time>2019-04-14T13:24:23.000Z</time>
      </trkpt>
      <trkpt lat="45.24531" lon="5.72831">
        <ele>550.68</ele>
        <time>2019-04-14T13:24:28.000Z</time>
      </trkpt>
      <trkpt lat="45.24541" lon="5.72853">
        <ele>550.24</ele>
        <time>2019-04-14T13:24:33.000Z</time>
      </trkpt>
      <trkpt lat="45.24555" lon="5.72876">
        <ele>550.64</ele>
        <time>2019-04-14T13:24:38.000Z</time>
      </trkpt>
      <trkpt lat="45.24566" lon="5.72897">
        <ele>550.47</ele>
        <time>2019-04-14T13:24:43.000Z</time>
      </trkpt>
      <trkpt lat="45.24578" lon="5.72912">
        <ele>556.46</ele>
        <time>2019-04-14T13:24:48.000Z</time>
      </trkpt>
      <trkpt lat="45.24568" lon="5.72914">
        <ele>560.15</ele>
        <time>2019-04-14T13:24:54.000Z</time>
      </trkpt>
      <trkpt lat="45.2455" lon="5.72892">
        <ele>561.47</ele>
        <time>2019-04-14T13:24:59.000Z</time>
      </trkpt>
      <trkpt lat="45.24524" lon="5.72876">
        <ele>561.97</ele>
        <time>2019-04-14T13:25:04.000Z</time>
      </trkpt>
      <trkpt lat="45.24503" lon="5.72868">
        <ele>568.19</ele>
        <time>2019-04-14T13:25:09.000Z</time>
      </trkpt>
      <trkpt lat="45.24484" lon="5.72869">
        <ele>572.19</ele>
        <time>2019-04-14T13:25:14.000Z</time>
      </trkpt>
      <trkpt lat="45.2446" lon="5.72873">
        <ele>573.75</ele>
        <time>2019-04-14T13:25:19.000Z</time>
      </trkpt>
      <trkpt lat="45.24439" lon="5.72866">
        <ele>572.37</ele>
        <time>2019-04-14T13:25:24.000Z</time>
      </trkpt>
      <trkpt lat="45.24424" lon="5.72845">
        <ele>570.97</ele>
        <time>2019-04-14T13:25:29.000Z</time>
      </trkpt>
      <trkpt lat="45.24404" lon="5.72829">
        <ele>571.2</ele>
        <time>2019-04-14T13:25:34.000Z</time>
      </trkpt>
      <trkpt lat="45.24383" lon="5.72829">
        <ele>572.5</ele>
        <time>2019-04-14T13:25:39.000Z</time>
      </trkpt>
      <trkpt lat="45.24358" lon="5.72823">
        <ele>574.82</ele>
        <time>2019-04-14T13:25:44.000Z</time>
      </trkpt>
      <trkpt lat="45.24336" lon="5.7281">
        <ele>573.1</ele>
        <time>2019-04-14T13:25:49.000Z</time>
      </trkpt>
      <trkpt lat="45.24309" lon="5.72812">
        <ele>575.27</ele>
        <time>2019-04-14T13:25:54.000Z</time>
      </trkpt>
      <trkpt lat="45.24292" lon="5.72831">
        <ele>574.96</ele>
        <time>2019-04-14T13:25:59.000Z</time>
      </trkpt>
      <trkpt lat="45.24275" lon="5.72861">
        <ele>575.18</ele>
        <time>2019-04-14T13:26:04.000Z</time>
      </trkpt>
      <trkpt lat="45.24256" lon="5.72878">
        <ele>575.99</ele>
        <time>2019-04-14T13:26:09.000Z</time>
      </trkpt>
      <trkpt lat="45.24233" lon="5.72884">
        <ele>578.01</ele>
        <time>2019-04-14T13:26:14.000Z</time>
      </trkpt>
      <trkpt lat="45.2421" lon="5.72879">
        <ele>576.81</ele>
        <time>2019-04-14T13:26:19.000Z</time>
      </trkpt>
      <trkpt lat="45.24192" lon="5.72865">
        <ele>575.32</ele>
        <time>2019-04-14T13:26:24.000Z</time>
      </trkpt>
      <trkpt lat="45.24173" lon="5.7285">
        <ele>576.2</ele>
        <time>2019-04-14T13:26:29.000Z</time>
      </trkpt>
      <trkpt lat="45.24151" lon="5.72864">
        <ele>578.89</ele>
        <time>2019-04-14T13:26:34.000Z</time>
      </trkpt>
      <trkpt lat="45.24132" lon="5.7288">
        <ele>581.87</ele>
        <time>2019-04-14T13:26:39.000Z</time>
      </trkpt>
      <trkpt lat="45.24113" lon="5.7288">
        <ele>582.82</ele>
        <time>2019-04-14T13:26:44.000Z</time>
      </trkpt>
      <trkpt lat="45.24092" lon="5.72866">
        <ele>582.03</ele>
        <time>2019-04-14T13:26:49.000Z</time>
      </trkpt>
      <trkpt lat="45.24064" lon="5.72849">
        <ele>580.46</ele>
        <time>2019-04-14T13:26:54.000Z</time>
      </trkpt>
      <trkpt lat="45.24045" lon="5.72834">
        <ele>587.29</ele>
        <time>2019-04-14T13:26:59.000Z</time>
      </trkpt>
      <trkpt lat="45.24026" lon="5.72828">
        <ele>592.01</ele>
        <time>2019-04-14T13:27:04.000Z</time>
      </trkpt>
      <trkpt lat="45.24004" lon="5.72821">
        <ele>589.88</ele>
        <time>2019-04-14T13:27:09.000Z</time>
      </trkpt>
      <trkpt lat="45.23982" lon="5.72814">
        <ele>591.94</ele>
        <time>2019-04-14T13:27:14.000Z</time>
      </trkpt>
      <trkpt lat="45.23955" lon="5.72799">
        <ele>589.79</ele>
        <time>2019-04-14T13:27:19.000Z</time>
      </trkpt>
      <trkpt lat="45.23931" lon="5.72793">
        <ele>589.29</ele>
        <time>2019-04-14T13:27:24.000Z</time>
      </trkpt>
      <trkpt lat="45.23912" lon="5.72794">
        <ele>593.28</ele>
        <time>2019-04-14T13:27:29.000Z</time>
      </trkpt>
      <trkpt lat="45.23892" lon="5.728">
        <ele>595.51</ele>
        <time>2019-04-14T13:27:34.000Z</time>
      </trkpt>
      <trkpt lat="45.23875" lon="5.72806">
        <ele>594.38</ele>
        <time>2019-04-14T13:27:39.000Z</time>
      </trkpt>
      <trkpt lat="45.23866" lon="5.72791">
        <ele>591.32</ele>
        <time>2019-04-14T13:27:44.000Z</time>
      </trkpt>
      <trkpt lat="45.23851" lon="5.72769">
        <ele>594.84</ele>
        <time>2019-04-14T13:27:49.000Z</time>
      </trkpt>
      <trkpt lat="45.23831" lon="5.72766">
        <ele>600.56</ele>
        <time>2019-04-14T13:27:54.000Z</time>
      </trkpt>
      <trkpt lat="45.23813" lon="5.72784">
        <ele>600.83</ele>
        <time>2019-04-14T13:27:59.000Z</time>
      </trkpt>
      <trkpt lat="45.23788" lon="5.72797">
        <ele>599</ele>
        <time>2019-04-14T13:28:04.000Z</time>
      </trkpt>
      <trkpt lat="45.23765" lon="5.72785">
        <ele>602.02</ele>
        <time>2019-04-14T13:28:09.000Z</time>
      </trkpt>
      <trkpt lat="45.23743" lon="5.72788">
        <ele>599.74</ele>
        <time>2019-04-14T13:28:14.000Z</time>
      </trkpt>
      <trkpt lat="45.23722" lon="5.72803">
        <ele>601.33</ele>
        <time>2019-04-14T13:28:19.000Z</time>
      </trkpt>
      <trkpt lat="45.23712" lon="5.72826">
        <ele>604.23</ele>
        <time>2019-04-14T13:28:24.000Z</time>
      </trkpt>
      <trkpt lat="45.23691" lon="5.72848">
        <ele>604.1</ele>
        <time>2019-04-14T13:28:29.000Z</time>
      </trkpt>
      <trkpt lat="45.23681" lon="5.72836">
        <ele>605.07</ele>
        <time>2019-04-14T13:28:34.000Z</time>
      </trkpt>
      <trkpt lat="45.23679" lon="5.72814">
        <ele>608.52</ele>
        <time>2019-04-14T13:28:39.000Z</time>
      </trkpt>
      <trkpt lat="45.2368" lon="5.7278">
        <ele>609.51</ele>
        <time>2019-04-14T13:28:44.000Z</time>
      </trkpt>
      <trkpt lat="45.23683" lon="5.72742">
        <ele>605.92</ele>
        <time>2019-04-14T13:28:49.000Z</time>
      </trkpt>
      <trkpt lat="45.23679" lon="5.72708">
        <ele>612.15</ele>
        <time>2019-04-14T13:28:54.000Z</time>
      </trkpt>
      <trkpt lat="45.23659" lon="5.72691">
        <ele>615.8</ele>
        <time>2019-04-14T13:28:59.000Z</time>
      </trkpt>
      <trkpt lat="45.23641" lon="5.72677">
        <ele>619.61</ele>
        <time>2019-04-14T13:29:04.000Z</time>
      </trkpt>
      <trkpt lat="45.23622" lon="5.72664">
        <ele>621.26</ele>
        <time>2019-04-14T13:29:09.000Z</time>
      </trkpt>
      <trkpt lat="45.23602" lon="5.72652">
        <ele>624.46</ele>
        <time>2019-04-14T13:29:14.000Z</time>
      </trkpt>
      <trkpt lat="45.23574" lon="5.72639">
        <ele>625.23</ele>
        <time>2019-04-14T13:29:19.000Z</time>
      </trkpt>
      <trkpt lat="45.23548" lon="5.72628">
        <ele>627.76</ele>
        <time>2019-04-14T13:29:24.000Z</time>
      </trkpt>
      <trkpt lat="45.23523" lon="5.72619">
        <ele>627.84</ele>
        <time>2019-04-14T13:29:29.000Z</time>
      </trkpt>
      <trkpt lat="45.23497" lon="5.72609">
        <ele>626.89</ele>
        <time>2019-04-14T13:29:34.000Z</time>
      </trkpt>
      <trkpt lat="45.23477" lon="5.72596">
        <ele>624.49</ele>
        <time>2019-04-14T13:29:39.000Z</time>
      </trkpt>
      <trkpt lat="45.23454" lon="5.72584">
        <ele>622.38</ele>
        <time>2019-04-14T13:29:44.000Z</time>
      </trkpt>
      <trkpt lat="45.2343" lon="5.72582">
        <ele>621.03</ele>
        <time>2019-04-14T13:29:49.000Z</time>
      </trkpt>
      <trkpt lat="45.2342" lon="5.72586">
        <ele>622.29</ele>
        <time>2019-04-14T13:29:54.000Z</time>
      </trkpt>
      <trkpt lat="45.23413" lon="5.726">
        <ele>621.43</ele>
        <time>2019-04-14T13:29:59.000Z</time>
      </trkpt>
      <trkpt lat="45.23415" lon="5.72624">
        <ele>619.6</ele>
        <time>2019-04-14T13:30:04.000Z</time>
      </trkpt>
      <trkpt lat="45.23416" lon="5.72649">
        <ele>621.84</ele>
        <time>2019-04-14T13:30:09.000Z</time>
      </trkpt>
      <trkpt lat="45.23414" lon="5.72671">
        <ele>623.86</ele>
        <time>2019-04-14T13:30:14.000Z</time>
      </trkpt>
      <trkpt lat="45.23406" lon="5.72693">
        <ele>625</ele>
        <time>2019-04-14T13:30:19.000Z</time>
      </trkpt>
      <trkpt lat="45.23395" lon="5.72716">
        <ele>627.98</ele>
        <time>2019-04-14T13:30:24.000Z</time>
      </trkpt>
      <trkpt lat="45.23387" lon="5.72735">
        <ele>630.54</ele>
        <time>2019-04-14T13:30:29.000Z</time>
      </trkpt>
      <trkpt lat="45.23378" lon="5.72758">
        <ele>632.4</ele>
        <time>2019-04-14T13:30:34.000Z</time>
      </trkpt>
      <trkpt lat="45.23365" lon="5.72784">
        <ele>634.77</ele>
        <time>2019-04-14T13:30:39.000Z</time>
      </trkpt>
      <trkpt lat="45.23352" lon="5.72809">
        <ele>635.96</ele>
        <time>2019-04-14T13:30:44.000Z</time>
      </trkpt>
      <trkpt lat="45.23343" lon="5.7283">
        <ele>640.12</ele>
        <time>2019-04-14T13:30:49.000Z</time>
      </trkpt>
      <trkpt lat="45.23333" lon="5.72854">
        <ele>643.57</ele>
        <time>2019-04-14T13:30:54.000Z</time>
      </trkpt>
      <trkpt lat="45.23319" lon="5.72869">
        <ele>640.62</ele>
        <time>2019-04-14T13:30:59.000Z</time>
      </trkpt>
      <trkpt lat="45.23304" lon="5.72881">
        <ele>644.85</ele>
        <time>2019-04-14T13:31:04.000Z</time>
      </trkpt>
      <trkpt lat="45.23288" lon="5.72894">
        <ele>644.84</ele>
        <time>2019-04-14T13:31:09.000Z</time>
      </trkpt>
      <trkpt lat="45.23269" lon="5.72901">
        <ele>649.11</ele>
        <time>2019-04-14T13:31:14.000Z</time>
      </trkpt>
      <trkpt lat="45.23244" lon="5.7291">
        <ele>654.72</ele>
        <time>2019-04-14T13:31:19.000Z</time>
      </trkpt>
      <trkpt lat="45.2323" lon="5.7293">
        <ele>651.31</ele>
        <time>2019-04-14T13:31:24.000Z</time>
      </trkpt>
      <trkpt lat="45.2324" lon="5.7295">
        <ele>649.84</ele>
        <time>2019-04-14T13:31:29.000Z</time>
      </trkpt>
      <trkpt lat="45.23253" lon="5.72948">
        <ele>650.92</ele>
        <time>2019-04-14T13:31:34.000Z</time>
      </trkpt>
      <trkpt lat="45.23273" lon="5.72947">
        <ele>655.99</ele>
        <time>2019-04-14T13:31:39.000Z</time>
      </trkpt>
      <trkpt lat="45.23294" lon="5.72952">
        <ele>662.57</ele>
        <time>2019-04-14T13:31:44.000Z</time>
      </trkpt>
      <trkpt lat="45.23309" lon="5.72961">
        <ele>663.77</ele>
        <time>2019-04-14T13:31:49.000Z</time>
      </trkpt>
      <trkpt lat="45.23327" lon="5.72972">
        <ele>666.93</ele>
        <time>2019-04-14T13:31:54.000Z</time>
      </trkpt>
      <trkpt lat="45.23345" lon="5.72976">
        <ele>670.52</ele>
        <time>2019-04-14T13:31:59.000Z</time>
      </trkpt>
      <trkpt lat="45.23362" lon="5.72977">
        <ele>673.51</ele>
        <time>2019-04-14T13:32:04.000Z</time>
      </trkpt>
      <trkpt lat="45.23381" lon="5.72977">
        <ele>675.4</ele>
        <time>2019-04-14T13:32:09.000Z</time>
      </trkpt>
      <trkpt lat="45.234" lon="5.72978">
        <ele>677.5</ele>
        <time>2019-04-14T13:32:14.000Z</time>
      </trkpt>
      <trkpt lat="45.23416" lon="5.7298">
        <ele>675.75</ele>
        <time>2019-04-14T13:32:19.000Z</time>
      </trkpt>
      <trkpt lat="45.23433" lon="5.72981">
        <ele>674.02</ele>
        <time>2019-04-14T13:32:24.000Z</time>
      </trkpt>
      <trkpt lat="45.2345" lon="5.72985">
        <ele>675.81</ele>
        <time>2019-04-14T13:32:29.000Z</time>
      </trkpt>
      <trkpt lat="45.23467" lon="5.7299">
        <ele>679.31</ele>
        <time>2019-04-14T13:32:34.000Z</time>
      </trkpt>
      <trkpt lat="45.2348" lon="5.72996">
        <ele>682.56</ele>
        <time>2019-04-14T13:32:39.000Z</time>
      </trkpt>
      <trkpt lat="45.23496" lon="5.73008">
        <ele>683.89</ele>
        <time>2019-04-14T13:32:44.000Z</time>
      </trkpt>
      <trkpt lat="45.23509" lon="5.73026">
        <ele>683.69</ele>
        <time>2019-04-14T13:32:49.000Z</time>
      </trkpt>
      <trkpt lat="45.23525" lon="5.73042">
        <ele>682.55</ele>
        <time>2019-04-14T13:32:54.000Z</time>
      </trkpt>
      <trkpt lat="45.23542" lon="5.73048">
        <ele>685.18</ele>
        <time>2019-04-14T13:32:59.000Z</time>
      </trkpt>
      <trkpt lat="45.23559" lon="5.73052">
        <ele>688.61</ele>
        <time>2019-04-14T13:33:04.000Z</time>
      </trkpt>
      <trkpt lat="45.23573" lon="5.73068">
        <ele>690.87</ele>
        <time>2019-04-14T13:33:09.000Z</time>
      </trkpt>
      <trkpt lat="45.2358" lon="5.73088">
        <ele>688.39</ele>
        <time>2019-04-14T13:33:14.000Z</time>
      </trkpt>
      <trkpt lat="45.23593" lon="5.73106">
        <ele>687.55</ele>
        <time>2019-04-14T13:33:19.000Z</time>
      </trkpt>
      <trkpt lat="45.23611" lon="5.73123">
        <ele>687.13</ele>
        <time>2019-04-14T13:33:24.000Z</time>
      </trkpt>
      <trkpt lat="45.23619" lon="5.73137">
        <ele>688.82</ele>
        <time>2019-04-14T13:33:29.000Z</time>
      </trkpt>
      <trkpt lat="45.23625" lon="5.73156">
        <ele>687.48</ele>
        <time>2019-04-14T13:33:34.000Z</time>
      </trkpt>
      <trkpt lat="45.23638" lon="5.7318">
        <ele>688.15</ele>
        <time>2019-04-14T13:33:39.000Z</time>
      </trkpt>
      <trkpt lat="45.23652" lon="5.73197">
        <ele>690.21</ele>
        <time>2019-04-14T13:33:44.000Z</time>
      </trkpt>
      <trkpt lat="45.2367" lon="5.73202">
        <ele>695.83</ele>
        <time>2019-04-14T13:33:49.000Z</time>
      </trkpt>
      <trkpt lat="45.23686" lon="5.73199">
        <ele>699.46</ele>
        <time>2019-04-14T13:33:54.000Z</time>
      </trkpt>
      <trkpt lat="45.23705" lon="5.73196">
        <ele>704.94</ele>
        <time>2019-04-14T13:33:59.000Z</time>
      </trkpt>
      <trkpt lat="45.23725" lon="5.73198">
        <ele>708.28</ele>
        <time>2019-04-14T13:34:04.000Z</time>
      </trkpt>
      <trkpt lat="45.23745" lon="5.73198">
        <ele>708.58</ele>
        <time>2019-04-14T13:34:09.000Z</time>
      </trkpt>
      <trkpt lat="45.23765" lon="5.73184">
        <ele>712.73</ele>
        <time>2019-04-14T13:34:14.000Z</time>
      </trkpt>
      <trkpt lat="45.23782" lon="5.73166">
        <ele>712.96</ele>
        <time>2019-04-14T13:34:19.000Z</time>
      </trkpt>
      <trkpt lat="45.23799" lon="5.73144">
        <ele>715.45</ele>
        <time>2019-04-14T13:34:24.000Z</time>
      </trkpt>
      <trkpt lat="45.23809" lon="5.73123">
        <ele>714.75</ele>
        <time>2019-04-14T13:34:29.000Z</time>
      </trkpt>
      <trkpt lat="45.23836" lon="5.73115">
        <ele>716.9</ele>
        <time>2019-04-14T13:34:34.000Z</time>
      </trkpt>
      <trkpt lat="45.23857" lon="5.7311">
        <ele>715.56</ele>
        <time>2019-04-14T13:34:39.000Z</time>
      </trkpt>
      <trkpt lat="45.23876" lon="5.73133">
        <ele>716.15</ele>
        <time>2019-04-14T13:34:44.000Z</time>
      </trkpt>
      <trkpt lat="45.23868" lon="5.73166">
        <ele>715.31</ele>
        <time>2019-04-14T13:34:49.000Z</time>
      </trkpt>
      <trkpt lat="45.23856" lon="5.73199">
        <ele>712.74</ele>
        <time>2019-04-14T13:34:54.000Z</time>
      </trkpt>
      <trkpt lat="45.23859" lon="5.7323">
        <ele>714.39</ele>
        <time>2019-04-14T13:34:59.000Z</time>
      </trkpt>
      <trkpt lat="45.23865" lon="5.7326">
        <ele>716.74</ele>
        <time>2019-04-14T13:35:04.000Z</time>
      </trkpt>
      <trkpt lat="45.23872" lon="5.73291">
        <ele>719.83</ele>
        <time>2019-04-14T13:35:09.000Z</time>
      </trkpt>
      <trkpt lat="45.23886" lon="5.73317">
        <ele>721.48</ele>
        <time>2019-04-14T13:35:14.000Z</time>
      </trkpt>
      <trkpt lat="45.23903" lon="5.7334">
        <ele>722.7</ele>
        <time>2019-04-14T13:35:19.000Z</time>
      </trkpt>
      <trkpt lat="45.23919" lon="5.73361">
        <ele>725.61</ele>
        <time>2019-04-14T13:35:24.000Z</time>
      </trkpt>
      <trkpt lat="45.23928" lon="5.73393">
        <ele>727.06</ele>
        <time>2019-04-14T13:35:29.000Z</time>
      </trkpt>
      <trkpt lat="45.2393" lon="5.7343">
        <ele>728.15</ele>
        <time>2019-04-14T13:35:34.000Z</time>
      </trkpt>
      <trkpt lat="45.23935" lon="5.73463">
        <ele>727.34</ele>
        <time>2019-04-14T13:35:39.000Z</time>
      </trkpt>
      <trkpt lat="45.23948" lon="5.73492">
        <ele>727.77</ele>
        <time>2019-04-14T13:35:44.000Z</time>
      </trkpt>
      <trkpt lat="45.23961" lon="5.73513">
        <ele>728.01</ele>
        <time>2019-04-14T13:35:49.000Z</time>
      </trkpt>
      <trkpt lat="45.23982" lon="5.73525">
        <ele>727.4</ele>
        <time>2019-04-14T13:35:54.000Z</time>
      </trkpt>
      <trkpt lat="45.24" lon="5.73523">
        <ele>727.34</ele>
        <time>2019-04-14T13:35:59.000Z</time>
      </trkpt>
      <trkpt lat="45.2402" lon="5.73519">
        <ele>729</ele>
        <time>2019-04-14T13:36:04.000Z</time>
      </trkpt>
      <trkpt lat="45.24041" lon="5.73523">
        <ele>728.44</ele>
        <time>2019-04-14T13:36:09.000Z</time>
      </trkpt>
      <trkpt lat="45.24062" lon="5.7352">
        <ele>732.03</ele>
        <time>2019-04-14T13:36:14.000Z</time>
      </trkpt>
      <trkpt lat="45.24084" lon="5.73519">
        <ele>734.39</ele>
        <time>2019-04-14T13:36:19.000Z</time>
      </trkpt>
      <trkpt lat="45.24105" lon="5.7352">
        <ele>739.5</ele>
        <time>2019-04-14T13:36:24.000Z</time>
      </trkpt>
      <trkpt lat="45.24109" lon="5.73547">
        <ele>742.19</ele>
        <time>2019-04-14T13:36:29.000Z</time>
      </trkpt>
      <trkpt lat="45.24128" lon="5.73577">
        <ele>743.84</ele>
        <time>2019-04-14T13:36:34.000Z</time>
      </trkpt>
      <trkpt lat="45.2412" lon="5.73607">
        <ele>738.43</ele>
        <time>2019-04-14T13:36:39.000Z</time>
      </trkpt>
      <trkpt lat="45.24103" lon="5.73636">
        <ele>737.11</ele>
        <time>2019-04-14T13:36:44.000Z</time>
      </trkpt>
      <trkpt lat="45.24116" lon="5.73675">
        <ele>737.18</ele>
        <time>2019-04-14T13:36:49.000Z</time>
      </trkpt>
      <trkpt lat="45.24141" lon="5.73693">
        <ele>737.18</ele>
        <time>2019-04-14T13:36:54.000Z</time>
      </trkpt>
      <trkpt lat="45.24158" lon="5.73709">
        <ele>737.91</ele>
        <time>2019-04-14T13:36:59.000Z</time>
      </trkpt>
      <trkpt lat="45.24179" lon="5.73726">
        <ele>739.85</ele>
        <time>2019-04-14T13:37:04.000Z</time>
      </trkpt>
      <trkpt lat="45.24199" lon="5.73746">
        <ele>742.78</ele>
        <time>2019-04-14T13:37:09.000Z</time>
      </trkpt>
      <trkpt lat="45.24214" lon="5.73757">
        <ele>742.95</ele>
        <time>2019-04-14T13:37:14.000Z</time>
      </trkpt>
      <trkpt lat="45.24235" lon="5.73751">
        <ele>746.12</ele>
        <time>2019-04-14T13:37:19.000Z</time>
      </trkpt>
      <trkpt lat="45.24258" lon="5.73751">
        <ele>747.25</ele>
        <time>2019-04-14T13:37:24.000Z</time>
      </trkpt>
      <trkpt lat="45.2428" lon="5.73765">
        <ele>748.01</ele>
        <time>2019-04-14T13:37:29.000Z</time>
      </trkpt>
      <trkpt lat="45.24293" lon="5.73776">
        <ele>746.87</ele>
        <time>2019-04-14T13:37:34.000Z</time>
      </trkpt>
      <trkpt lat="45.2431" lon="5.73785">
        <ele>747.86</ele>
        <time>2019-04-14T13:37:39.000Z</time>
      </trkpt>
      <trkpt lat="45.2433" lon="5.73786">
        <ele>751.98</ele>
        <time>2019-04-14T13:37:44.000Z</time>
      </trkpt>
      <trkpt lat="45.24349" lon="5.73789">
        <ele>759.58</ele>
        <time>2019-04-14T13:37:49.000Z</time>
      </trkpt>
      <trkpt lat="45.24352" lon="5.73806">
        <ele>756</ele>
        <time>2019-04-14T13:38:15.000Z</time>
      </trkpt>
      <trkpt lat="45.24365" lon="5.73834">
        <ele>754.21</ele>
        <time>2019-04-14T13:38:20.000Z</time>
      </trkpt>
      <trkpt lat="45.24386" lon="5.73871">
        <ele>753.69</ele>
        <time>2019-04-14T13:38:25.000Z</time>
      </trkpt>
      <trkpt lat="45.244" lon="5.73897">
        <ele>754.25</ele>
        <time>2019-04-14T13:38:30.000Z</time>
      </trkpt>
      <trkpt lat="45.24408" lon="5.73923">
        <ele>752.03</ele>
        <time>2019-04-14T13:38:35.000Z</time>
      </trkpt>
      <trkpt lat="45.2441" lon="5.73945">
        <ele>753.16</ele>
        <time>2019-04-14T13:38:40.000Z</time>
      </trkpt>
      <trkpt lat="45.24418" lon="5.73974">
        <ele>753.5</ele>
        <time>2019-04-14T13:38:45.000Z</time>
      </trkpt>
      <trkpt lat="45.24422" lon="5.74005">
        <ele>754.32</ele>
        <time>2019-04-14T13:38:50.000Z</time>
      </trkpt>
      <trkpt lat="45.24432" lon="5.74034">
        <ele>752.12</ele>
        <time>2019-04-14T13:38:55.000Z</time>
      </trkpt>
      <trkpt lat="45.24449" lon="5.74065">
        <ele>753.34</ele>
        <time>2019-04-14T13:39:00.000Z</time>
      </trkpt>
      <trkpt lat="45.24465" lon="5.74099">
        <ele>753.18</ele>
        <time>2019-04-14T13:39:05.000Z</time>
      </trkpt>
      <trkpt lat="45.24494" lon="5.7412">
        <ele>754.28</ele>
        <time>2019-04-14T13:39:10.000Z</time>
      </trkpt>
      <trkpt lat="45.24503" lon="5.74164">
        <ele>754.74</ele>
        <time>2019-04-14T13:39:15.000Z</time>
      </trkpt>
      <trkpt lat="45.24518" lon="5.74206">
        <ele>752.47</ele>
        <time>2019-04-14T13:39:20.000Z</time>
      </trkpt>
      <trkpt lat="45.24528" lon="5.74255">
        <ele>750.77</ele>
        <time>2019-04-14T13:39:25.000Z</time>
      </trkpt>
      <trkpt lat="45.24556" lon="5.74294">
        <ele>752.08</ele>
        <time>2019-04-14T13:39:30.000Z</time>
      </trkpt>
      <trkpt lat="45.24569" lon="5.74341">
        <ele>756.5</ele>
        <time>2019-04-14T13:39:35.000Z</time>
      </trkpt>
      <trkpt lat="45.24554" lon="5.74398">
        <ele>753.14</ele>
        <time>2019-04-14T13:39:40.000Z</time>
      </trkpt>
      <trkpt lat="45.24532" lon="5.74437">
        <ele>752.01</ele>
        <time>2019-04-14T13:39:45.000Z</time>
      </trkpt>
      <trkpt lat="45.24519" lon="5.74472">
        <ele>752.44</ele>
        <time>2019-04-14T13:39:50.000Z</time>
      </trkpt>
      <trkpt lat="45.24497" lon="5.74503">
        <ele>749.19</ele>
        <time>2019-04-14T13:39:55.000Z</time>
      </trkpt>
      <trkpt lat="45.24484" lon="5.74542">
        <ele>749.73</ele>
        <time>2019-04-14T13:40:00.000Z</time>
      </trkpt>
      <trkpt lat="45.24478" lon="5.74575">
        <ele>746.54</ele>
        <time>2019-04-14T13:40:05.000Z</time>
      </trkpt>
      <trkpt lat="45.24464" lon="5.74596">
        <ele>746.93</ele>
        <time>2019-04-14T13:40:10.000Z</time>
      </trkpt>
      <trkpt lat="45.24447" lon="5.74629">
        <ele>746.55</ele>
        <time>2019-04-14T13:40:15.000Z</time>
      </trkpt>
      <trkpt lat="45.2442" lon="5.74648">
        <ele>749.12</ele>
        <time>2019-04-14T13:40:20.000Z</time>
      </trkpt>
      <trkpt lat="45.24409" lon="5.74668">
        <ele>747.35</ele>
        <time>2019-04-14T13:40:25.000Z</time>
      </trkpt>
      <trkpt lat="45.24397" lon="5.74692">
        <ele>746.1</ele>
        <time>2019-04-14T13:40:30.000Z</time>
      </trkpt>
      <trkpt lat="45.24379" lon="5.74703">
        <ele>747.25</ele>
        <time>2019-04-14T13:40:35.000Z</time>
      </trkpt>
      <trkpt lat="45.24348" lon="5.74727">
        <ele>749.15</ele>
        <time>2019-04-14T13:40:40.000Z</time>
      </trkpt>
      <trkpt lat="45.24317" lon="5.74739">
        <ele>747.99</ele>
        <time>2019-04-14T13:40:45.000Z</time>
      </trkpt>
      <trkpt lat="45.24298" lon="5.74769">
        <ele>747.03</ele>
        <time>2019-04-14T13:40:50.000Z</time>
      </trkpt>
      <trkpt lat="45.24291" lon="5.74813">
        <ele>749.51</ele>
        <time>2019-04-14T13:40:55.000Z</time>
      </trkpt>
      <trkpt lat="45.24267" lon="5.7483">
        <ele>751.01</ele>
        <time>2019-04-14T13:41:00.000Z</time>
      </trkpt>
      <trkpt lat="45.24239" lon="5.74841">
        <ele>749.65</ele>
        <time>2019-04-14T13:41:05.000Z</time>
      </trkpt>
      <trkpt lat="45.24217" lon="5.74873">
        <ele>749.35</ele>
        <time>2019-04-14T13:41:10.000Z</time>
      </trkpt>
      <trkpt lat="45.24192" lon="5.74911">
        <ele>750.18</ele>
        <time>2019-04-14T13:41:15.000Z</time>
      </trkpt>
      <trkpt lat="45.24171" lon="5.74937">
        <ele>754.65</ele>
        <time>2019-04-14T13:41:20.000Z</time>
      </trkpt>
      <trkpt lat="45.24143" lon="5.74964">
        <ele>753.38</ele>
        <time>2019-04-14T13:41:25.000Z</time>
      </trkpt>
      <trkpt lat="45.2412" lon="5.74995">
        <ele>750.49</ele>
        <time>2019-04-14T13:41:30.000Z</time>
      </trkpt>
      <trkpt lat="45.24097" lon="5.75017">
        <ele>751.23</ele>
        <time>2019-04-14T13:41:35.000Z</time>
      </trkpt>
      <trkpt lat="45.24069" lon="5.75034">
        <ele>752.84</ele>
        <time>2019-04-14T13:41:40.000Z</time>
      </trkpt>
      <trkpt lat="45.24042" lon="5.75058">
        <ele>747.97</ele>
        <time>2019-04-14T13:41:45.000Z</time>
      </trkpt>
      <trkpt lat="45.24026" lon="5.75077">
        <ele>746.25</ele>
        <time>2019-04-14T13:41:50.000Z</time>
      </trkpt>
      <trkpt lat="45.23993" lon="5.75094">
        <ele>745.36</ele>
        <time>2019-04-14T13:41:55.000Z</time>
      </trkpt>
      <trkpt lat="45.23971" lon="5.75104">
        <ele>746.75</ele>
        <time>2019-04-14T13:42:00.000Z</time>
      </trkpt>
      <trkpt lat="45.23945" lon="5.75112">
        <ele>747.97</ele>
        <time>2019-04-14T13:42:05.000Z</time>
      </trkpt>
      <trkpt lat="45.23915" lon="5.75118">
        <ele>745.64</ele>
        <time>2019-04-14T13:42:10.000Z</time>
      </trkpt>
      <trkpt lat="45.23887" lon="5.75119">
        <ele>745.57</ele>
        <time>2019-04-14T13:42:15.000Z</time>
      </trkpt>
      <trkpt lat="45.23868" lon="5.75118">
        <ele>750.54</ele>
        <time>2019-04-14T13:42:20.000Z</time>
      </trkpt>
      <trkpt lat="45.2385" lon="5.75123">
        <ele>753.94</ele>
        <time>2019-04-14T13:42:25.000Z</time>
      </trkpt>
      <trkpt lat="45.23822" lon="5.75126">
        <ele>758.64</ele>
        <time>2019-04-14T13:42:30.000Z</time>
      </trkpt>
      <trkpt lat="45.238" lon="5.75126">
        <ele>761.05</ele>
        <time>2019-04-14T13:42:35.000Z</time>
      </trkpt>
      <trkpt lat="45.23778" lon="5.7512">
        <ele>761.6</ele>
        <time>2019-04-14T13:42:40.000Z</time>
      </trkpt>
      <trkpt lat="45.23752" lon="5.75112">
        <ele>760.73</ele>
        <time>2019-04-14T13:42:45.000Z</time>
      </trkpt>
      <trkpt lat="45.23728" lon="5.751">
        <ele>757.83</ele>
        <time>2019-04-14T13:42:50.000Z</time>
      </trkpt>
      <trkpt lat="45.2371" lon="5.75102">
        <ele>754.62</ele>
        <time>2019-04-14T13:42:55.000Z</time>
      </trkpt>
      <trkpt lat="45.23687" lon="5.75107">
        <ele>756.46</ele>
        <time>2019-04-14T13:43:00.000Z</time>
      </trkpt>
      <trkpt lat="45.23662" lon="5.7511">
        <ele>757.01</ele>
        <time>2019-04-14T13:43:05.000Z</time>
      </trkpt>
      <trkpt lat="45.23631" lon="5.75109">
        <ele>752.88</ele>
        <time>2019-04-14T13:43:10.000Z</time>
      </trkpt>
      <trkpt lat="45.23601" lon="5.75103">
        <ele>754.6</ele>
        <time>2019-04-14T13:43:15.000Z</time>
      </trkpt>
      <trkpt lat="45.23577" lon="5.75095">
        <ele>751.41</ele>
        <time>2019-04-14T13:43:20.000Z</time>
      </trkpt>
      <trkpt lat="45.23559" lon="5.75091">
        <ele>754.04</ele>
        <time>2019-04-14T13:43:25.000Z</time>
      </trkpt>
      <trkpt lat="45.23553" lon="5.751">
        <ele>754.43</ele>
        <time>2019-04-14T13:43:39.000Z</time>
      </trkpt>
      <trkpt lat="45.23562" lon="5.75105">
        <ele>768.04</ele>
        <time>2019-04-14T13:46:10.000Z</time>
      </trkpt>
      <trkpt lat="45.23565" lon="5.75093">
        <ele>785</ele>
        <time>2019-04-14T13:49:55.000Z</time>
      </trkpt>
      <trkpt lat="45.23556" lon="5.75091">
        <ele>782.61</ele>
        <time>2019-04-14T13:51:03.000Z</time>
      </trkpt>
      <trkpt lat="45.23526" lon="5.75082">
        <ele>782.21</ele>
        <time>2019-04-14T13:51:08.000Z</time>
      </trkpt>
      <trkpt lat="45.23501" lon="5.75097">
        <ele>775.91</ele>
        <time>2019-04-14T13:51:13.000Z</time>
      </trkpt>
      <trkpt lat="45.23465" lon="5.75106">
        <ele>774.21</ele>
        <time>2019-04-14T13:51:18.000Z</time>
      </trkpt>
      <trkpt lat="45.23421" lon="5.75113">
        <ele>777.84</ele>
        <time>2019-04-14T13:51:23.000Z</time>
      </trkpt>
      <trkpt lat="45.23381" lon="5.75103">
        <ele>775.35</ele>
        <time>2019-04-14T13:51:28.000Z</time>
      </trkpt>
      <trkpt lat="45.23332" lon="5.7511">
        <ele>774.44</ele>
        <time>2019-04-14T13:51:33.000Z</time>
      </trkpt>
      <trkpt lat="45.23262" lon="5.75111">
        <ele>775.41</ele>
        <time>2019-04-14T13:51:38.000Z</time>
      </trkpt>
      <trkpt lat="45.23196" lon="5.75108">
        <ele>774.14</ele>
        <time>2019-04-14T13:51:43.000Z</time>
      </trkpt>
      <trkpt lat="45.23152" lon="5.75123">
        <ele>771.58</ele>
        <time>2019-04-14T13:51:48.000Z</time>
      </trkpt>
      <trkpt lat="45.23108" lon="5.75163">
        <ele>772.07</ele>
        <time>2019-04-14T13:51:53.000Z</time>
      </trkpt>
      <trkpt lat="45.23074" lon="5.75214">
        <ele>766.1</ele>
        <time>2019-04-14T13:51:58.000Z</time>
      </trkpt>
      <trkpt lat="45.23048" lon="5.75266">
        <ele>757.93</ele>
        <time>2019-04-14T13:52:03.000Z</time>
      </trkpt>
      <trkpt lat="45.23022" lon="5.75308">
        <ele>748.6</ele>
        <time>2019-04-14T13:52:08.000Z</time>
      </trkpt>
      <trkpt lat="45.2304" lon="5.7537">
        <ele>741.35</ele>
        <time>2019-04-14T13:52:13.000Z</time>
      </trkpt>
      <trkpt lat="45.2302" lon="5.75439">
        <ele>731.63</ele>
        <time>2019-04-14T13:52:18.000Z</time>
      </trkpt>
      <trkpt lat="45.22974" lon="5.75454">
        <ele>727.16</ele>
        <time>2019-04-14T13:52:23.000Z</time>
      </trkpt>
      <trkpt lat="45.22929" lon="5.75461">
        <ele>725.05</ele>
        <time>2019-04-14T13:52:28.000Z</time>
      </trkpt>
      <trkpt lat="45.22919" lon="5.7552">
        <ele>714.99</ele>
        <time>2019-04-14T13:52:33.000Z</time>
      </trkpt>
      <trkpt lat="45.22934" lon="5.75589">
        <ele>710.86</ele>
        <time>2019-04-14T13:52:38.000Z</time>
      </trkpt>
      <trkpt lat="45.2291" lon="5.75644">
        <ele>710.29</ele>
        <time>2019-04-14T13:52:43.000Z</time>
      </trkpt>
      <trkpt lat="45.22898" lon="5.75709">
        <ele>703.09</ele>
        <time>2019-04-14T13:52:48.000Z</time>
      </trkpt>
      <trkpt lat="45.22861" lon="5.75774">
        <ele>697.48</ele>
        <time>2019-04-14T13:52:53.000Z</time>
      </trkpt>
      <trkpt lat="45.22818" lon="5.75824">
        <ele>692.82</ele>
        <time>2019-04-14T13:52:58.000Z</time>
      </trkpt>
      <trkpt lat="45.22766" lon="5.7585">
        <ele>689.12</ele>
        <time>2019-04-14T13:53:03.000Z</time>
      </trkpt>
      <trkpt lat="45.22712" lon="5.75875">
        <ele>692.58</ele>
        <time>2019-04-14T13:53:08.000Z</time>
      </trkpt>
      <trkpt lat="45.2266" lon="5.75875">
        <ele>688.15</ele>
        <time>2019-04-14T13:53:13.000Z</time>
      </trkpt>
      <trkpt lat="45.22618" lon="5.75909">
        <ele>683.6</ele>
        <time>2019-04-14T13:53:18.000Z</time>
      </trkpt>
      <trkpt lat="45.22605" lon="5.75977">
        <ele>679.44</ele>
        <time>2019-04-14T13:53:23.000Z</time>
      </trkpt>
      <trkpt lat="45.22587" lon="5.76049">
        <ele>673.85</ele>
        <time>2019-04-14T13:53:28.000Z</time>
      </trkpt>
      <trkpt lat="45.22543" lon="5.76104">
        <ele>669.39</ele>
        <time>2019-04-14T13:53:33.000Z</time>
      </trkpt>
      <trkpt lat="45.22499" lon="5.76154">
        <ele>666.76</ele>
        <time>2019-04-14T13:53:38.000Z</time>
      </trkpt>
      <trkpt lat="45.2249" lon="5.76217">
        <ele>659.64</ele>
        <time>2019-04-14T13:53:43.000Z</time>
      </trkpt>
      <trkpt lat="45.22489" lon="5.76294">
        <ele>652.1</ele>
        <time>2019-04-14T13:53:48.000Z</time>
      </trkpt>
      <trkpt lat="45.22498" lon="5.76369">
        <ele>647.65</ele>
        <time>2019-04-14T13:53:53.000Z</time>
      </trkpt>
      <trkpt lat="45.22514" lon="5.7643">
        <ele>640.5</ele>
        <time>2019-04-14T13:53:58.000Z</time>
      </trkpt>
      <trkpt lat="45.22533" lon="5.76487">
        <ele>634.23</ele>
        <time>2019-04-14T13:54:03.000Z</time>
      </trkpt>
      <trkpt lat="45.22568" lon="5.76525">
        <ele>629.84</ele>
        <time>2019-04-14T13:54:08.000Z</time>
      </trkpt>
      <trkpt lat="45.22633" lon="5.76543">
        <ele>624.16</ele>
        <time>2019-04-14T13:54:13.000Z</time>
      </trkpt>
      <trkpt lat="45.22696" lon="5.7656">
        <ele>620.63</ele>
        <time>2019-04-14T13:54:18.000Z</time>
      </trkpt>
      <trkpt lat="45.22736" lon="5.76601">
        <ele>619.24</ele>
        <time>2019-04-14T13:54:23.000Z</time>
      </trkpt>
      <trkpt lat="45.22754" lon="5.7668">
        <ele>609.91</ele>
        <time>2019-04-14T13:54:28.000Z</time>
      </trkpt>
      <trkpt lat="45.22765" lon="5.76746">
        <ele>604.44</ele>
        <time>2019-04-14T13:54:33.000Z</time>
      </trkpt>
      <trkpt lat="45.22789" lon="5.76802">
        <ele>601.61</ele>
        <time>2019-04-14T13:54:38.000Z</time>
      </trkpt>
      <trkpt lat="45.22812" lon="5.76841">
        <ele>593.81</ele>
        <time>2019-04-14T13:54:43.000Z</time>
      </trkpt>
      <trkpt lat="45.22817" lon="5.76893">
        <ele>584.98</ele>
        <time>2019-04-14T13:54:48.000Z</time>
      </trkpt>
      <trkpt lat="45.22784" lon="5.76919">
        <ele>580.53</ele>
        <time>2019-04-14T13:54:53.000Z</time>
      </trkpt>
      <trkpt lat="45.2273" lon="5.76902">
        <ele>574.57</ele>
        <time>2019-04-14T13:54:58.000Z</time>
      </trkpt>
      <trkpt lat="45.22687" lon="5.76855">
        <ele>572.73</ele>
        <time>2019-04-14T13:55:03.000Z</time>
      </trkpt>
      <trkpt lat="45.22634" lon="5.76862">
        <ele>565.08</ele>
        <time>2019-04-14T13:55:08.000Z</time>
      </trkpt>
      <trkpt lat="45.22587" lon="5.76851">
        <ele>561.45</ele>
        <time>2019-04-14T13:55:13.000Z</time>
      </trkpt>
      <trkpt lat="45.22533" lon="5.7684">
        <ele>555.01</ele>
        <time>2019-04-14T13:55:18.000Z</time>
      </trkpt>
      <trkpt lat="45.22485" lon="5.76825">
        <ele>544.96</ele>
        <time>2019-04-14T13:55:23.000Z</time>
      </trkpt>
      <trkpt lat="45.22443" lon="5.76792">
        <ele>541.4</ele>
        <time>2019-04-14T13:55:28.000Z</time>
      </trkpt>
      <trkpt lat="45.22402" lon="5.76795">
        <ele>538.46</ele>
        <time>2019-04-14T13:55:33.000Z</time>
      </trkpt>
      <trkpt lat="45.22372" lon="5.76782">
        <ele>534.63</ele>
        <time>2019-04-14T13:55:38.000Z</time>
      </trkpt>
      <trkpt lat="45.22328" lon="5.76794">
        <ele>534.86</ele>
        <time>2019-04-14T13:55:43.000Z</time>
      </trkpt>
      <trkpt lat="45.22278" lon="5.76772">
        <ele>530.62</ele>
        <time>2019-04-14T13:55:49.000Z</time>
      </trkpt>
      <trkpt lat="45.2226" lon="5.76709">
        <ele>519.74</ele>
        <time>2019-04-14T13:55:54.000Z</time>
      </trkpt>
      <trkpt lat="45.22233" lon="5.76633">
        <ele>515.01</ele>
        <time>2019-04-14T13:55:59.000Z</time>
      </trkpt>
      <trkpt lat="45.22197" lon="5.76583">
        <ele>509.22</ele>
        <time>2019-04-14T13:56:04.000Z</time>
      </trkpt>
      <trkpt lat="45.22156" lon="5.76555">
        <ele>505.93</ele>
        <time>2019-04-14T13:56:09.000Z</time>
      </trkpt>
      <trkpt lat="45.22124" lon="5.7652">
        <ele>503.01</ele>
        <time>2019-04-14T13:56:14.000Z</time>
      </trkpt>
      <trkpt lat="45.22111" lon="5.76473">
        <ele>499.68</ele>
        <time>2019-04-14T13:56:19.000Z</time>
      </trkpt>
      <trkpt lat="45.22085" lon="5.76432">
        <ele>499.98</ele>
        <time>2019-04-14T13:56:24.000Z</time>
      </trkpt>
      <trkpt lat="45.2206" lon="5.76399">
        <ele>494.63</ele>
        <time>2019-04-14T13:56:29.000Z</time>
      </trkpt>
      <trkpt lat="45.22038" lon="5.76358">
        <ele>492.36</ele>
        <time>2019-04-14T13:56:34.000Z</time>
      </trkpt>
      <trkpt lat="45.22015" lon="5.76319">
        <ele>489.73</ele>
        <time>2019-04-14T13:56:39.000Z</time>
      </trkpt>
      <trkpt lat="45.21999" lon="5.76291">
        <ele>484.77</ele>
        <time>2019-04-14T13:56:44.000Z</time>
      </trkpt>
      <trkpt lat="45.21982" lon="5.76248">
        <ele>482.05</ele>
        <time>2019-04-14T13:56:49.000Z</time>
      </trkpt>
      <trkpt lat="45.21953" lon="5.76212">
        <ele>475.77</ele>
        <time>2019-04-14T13:56:54.000Z</time>
      </trkpt>
      <trkpt lat="45.21914" lon="5.76174">
        <ele>469.39</ele>
        <time>2019-04-14T13:56:59.000Z</time>
      </trkpt>
      <trkpt lat="45.21891" lon="5.7613">
        <ele>465.61</ele>
        <time>2019-04-14T13:57:04.000Z</time>
      </trkpt>
      <trkpt lat="45.21889" lon="5.76074">
        <ele>459.24</ele>
        <time>2019-04-14T13:57:09.000Z</time>
      </trkpt>
      <trkpt lat="45.21854" lon="5.76039">
        <ele>458.34</ele>
        <time>2019-04-14T13:57:14.000Z</time>
      </trkpt>
      <trkpt lat="45.21804" lon="5.76054">
        <ele>452.29</ele>
        <time>2019-04-14T13:57:19.000Z</time>
      </trkpt>
      <trkpt lat="45.21755" lon="5.76056">
        <ele>447.04</ele>
        <time>2019-04-14T13:57:24.000Z</time>
      </trkpt>
      <trkpt lat="45.2172" lon="5.7603">
        <ele>443.6</ele>
        <time>2019-04-14T13:57:29.000Z</time>
      </trkpt>
      <trkpt lat="45.21762" lon="5.76017">
        <ele>442.88</ele>
        <time>2019-04-14T13:57:34.000Z</time>
      </trkpt>
      <trkpt lat="45.21798" lon="5.75979">
        <ele>442.52</ele>
        <time>2019-04-14T13:57:39.000Z</time>
      </trkpt>
      <trkpt lat="45.21831" lon="5.75917">
        <ele>436.48</ele>
        <time>2019-04-14T13:57:44.000Z</time>
      </trkpt>
      <trkpt lat="45.21826" lon="5.75871">
        <ele>430.4</ele>
        <time>2019-04-14T13:57:49.000Z</time>
      </trkpt>
      <trkpt lat="45.21806" lon="5.75837">
        <ele>430.77</ele>
        <time>2019-04-14T13:57:54.000Z</time>
      </trkpt>
      <trkpt lat="45.21783" lon="5.75793">
        <ele>426.56</ele>
        <time>2019-04-14T13:57:59.000Z</time>
      </trkpt>
      <trkpt lat="45.21752" lon="5.75746">
        <ele>425.26</ele>
        <time>2019-04-14T13:58:04.000Z</time>
      </trkpt>
      <trkpt lat="45.21734" lon="5.75667">
        <ele>419.3</ele>
        <time>2019-04-14T13:58:09.000Z</time>
      </trkpt>
      <trkpt lat="45.21713" lon="5.7561">
        <ele>412.94</ele>
        <time>2019-04-14T13:58:14.000Z</time>
      </trkpt>
      <trkpt lat="45.21691" lon="5.75572">
        <ele>410.73</ele>
        <time>2019-04-14T13:58:19.000Z</time>
      </trkpt>
      <trkpt lat="45.21676" lon="5.75553">
        <ele>412.06</ele>
        <time>2019-04-14T13:58:24.000Z</time>
      </trkpt>
      <trkpt lat="45.21674" lon="5.75536">
        <ele>408.79</ele>
        <time>2019-04-14T13:58:29.000Z</time>
      </trkpt>
      <trkpt lat="45.21673" lon="5.75522">
        <ele>401.73</ele>
        <time>2019-04-14T13:58:34.000Z</time>
      </trkpt>
      <trkpt lat="45.21664" lon="5.75504">
        <ele>398.6</ele>
        <time>2019-04-14T13:58:39.000Z</time>
      </trkpt>
      <trkpt lat="45.21683" lon="5.75472">
        <ele>400.09</ele>
        <time>2019-04-14T13:58:44.000Z</time>
      </trkpt>
      <trkpt lat="45.21708" lon="5.75432">
        <ele>398.5</ele>
        <time>2019-04-14T13:58:49.000Z</time>
      </trkpt>
      <trkpt lat="45.21707" lon="5.75379">
        <ele>396.13</ele>
        <time>2019-04-14T13:58:54.000Z</time>
      </trkpt>
      <trkpt lat="45.21673" lon="5.75356">
        <ele>395.91</ele>
        <time>2019-04-14T13:58:59.000Z</time>
      </trkpt>
      <trkpt lat="45.21633" lon="5.75342">
        <ele>389.5</ele>
        <time>2019-04-14T13:59:04.000Z</time>
      </trkpt>
      <trkpt lat="45.21628" lon="5.7527">
        <ele>390.1</ele>
        <time>2019-04-14T13:59:09.000Z</time>
      </trkpt>
      <trkpt lat="45.21664" lon="5.75232">
        <ele>389.51</ele>
        <time>2019-04-14T13:59:14.000Z</time>
      </trkpt>
      <trkpt lat="45.21661" lon="5.75174">
        <ele>385.7</ele>
        <time>2019-04-14T13:59:19.000Z</time>
      </trkpt>
      <trkpt lat="45.2164" lon="5.75108">
        <ele>383.46</ele>
        <time>2019-04-14T13:59:24.000Z</time>
      </trkpt>
      <trkpt lat="45.21628" lon="5.75028">
        <ele>374.33</ele>
        <time>2019-04-14T13:59:29.000Z</time>
      </trkpt>
      <trkpt lat="45.216" lon="5.74974">
        <ele>369.92</ele>
        <time>2019-04-14T13:59:34.000Z</time>
      </trkpt>
      <trkpt lat="45.21556" lon="5.74945">
        <ele>363.3</ele>
        <time>2019-04-14T13:59:39.000Z</time>
      </trkpt>
      <trkpt lat="45.21532" lon="5.74897">
        <ele>363.87</ele>
        <time>2019-04-14T13:59:44.000Z</time>
      </trkpt>
      <trkpt lat="45.21522" lon="5.74853">
        <ele>357.28</ele>
        <time>2019-04-14T13:59:49.000Z</time>
      </trkpt>
      <trkpt lat="45.21481" lon="5.74837">
        <ele>351.54</ele>
        <time>2019-04-14T13:59:54.000Z</time>
      </trkpt>
      <trkpt lat="45.21452" lon="5.74793">
        <ele>351.61</ele>
        <time>2019-04-14T13:59:59.000Z</time>
      </trkpt>
      <trkpt lat="45.21421" lon="5.74753">
        <ele>349.2</ele>
        <time>2019-04-14T14:00:04.000Z</time>
      </trkpt>
      <trkpt lat="45.21376" lon="5.74759">
        <ele>342.11</ele>
        <time>2019-04-14T14:00:09.000Z</time>
      </trkpt>
      <trkpt lat="45.21334" lon="5.7475">
        <ele>333.81</ele>
        <time>2019-04-14T14:00:14.000Z</time>
      </trkpt>
      <trkpt lat="45.2129" lon="5.74731">
        <ele>327.76</ele>
        <time>2019-04-14T14:00:19.000Z</time>
      </trkpt>
      <trkpt lat="45.21245" lon="5.74707">
        <ele>323.49</ele>
        <time>2019-04-14T14:00:24.000Z</time>
      </trkpt>
      <trkpt lat="45.21197" lon="5.74683">
        <ele>316.79</ele>
        <time>2019-04-14T14:00:29.000Z</time>
      </trkpt>
      <trkpt lat="45.21159" lon="5.74659">
        <ele>310.06</ele>
        <time>2019-04-14T14:00:34.000Z</time>
      </trkpt>
      <trkpt lat="45.21121" lon="5.74638">
        <ele>306.54</ele>
        <time>2019-04-14T14:00:39.000Z</time>
      </trkpt>
      <trkpt lat="45.21107" lon="5.74587">
        <ele>307.67</ele>
        <time>2019-04-14T14:00:44.000Z</time>
      </trkpt>
      <trkpt lat="45.21083" lon="5.74552">
        <ele>307.57</ele>
        <time>2019-04-14T14:00:49.000Z</time>
      </trkpt>
      <trkpt lat="45.21061" lon="5.74516">
        <ele>307.58</ele>
        <time>2019-04-14T14:00:54.000Z</time>
      </trkpt>
      <trkpt lat="45.21042" lon="5.74465">
        <ele>302.05</ele>
        <time>2019-04-14T14:00:59.000Z</time>
      </trkpt>
      <trkpt lat="45.21016" lon="5.74431">
        <ele>298.97</ele>
        <time>2019-04-14T14:01:04.000Z</time>
      </trkpt>
      <trkpt lat="45.20995" lon="5.74389">
        <ele>296</ele>
        <time>2019-04-14T14:01:09.000Z</time>
      </trkpt>
      <trkpt lat="45.20973" lon="5.74356">
        <ele>294.99</ele>
        <time>2019-04-14T14:01:14.000Z</time>
      </trkpt>
      <trkpt lat="45.20949" lon="5.74308">
        <ele>294.35</ele>
        <time>2019-04-14T14:01:19.000Z</time>
      </trkpt>
      <trkpt lat="45.20934" lon="5.74254">
        <ele>289.18</ele>
        <time>2019-04-14T14:01:24.000Z</time>
      </trkpt>
      <trkpt lat="45.20911" lon="5.74218">
        <ele>285.62</ele>
        <time>2019-04-14T14:01:29.000Z</time>
      </trkpt>
      <trkpt lat="45.20885" lon="5.74205">
        <ele>279.89</ele>
        <time>2019-04-14T14:01:34.000Z</time>
      </trkpt>
      <trkpt lat="45.2085" lon="5.74187">
        <ele>277.27</ele>
        <time>2019-04-14T14:01:39.000Z</time>
      </trkpt>
      <trkpt lat="45.2081" lon="5.74174">
        <ele>274</ele>
        <time>2019-04-14T14:01:44.000Z</time>
      </trkpt>
      <trkpt lat="45.20775" lon="5.74152">
        <ele>267.68</ele>
        <time>2019-04-14T14:01:49.000Z</time>
      </trkpt>
      <trkpt lat="45.2074" lon="5.74114">
        <ele>261.49</ele>
        <time>2019-04-14T14:01:54.000Z</time>
      </trkpt>
      <trkpt lat="45.20707" lon="5.74072">
        <ele>259.31</ele>
        <time>2019-04-14T14:01:59.000Z</time>
      </trkpt>
      <trkpt lat="45.2067" lon="5.74037">
        <ele>254.06</ele>
        <time>2019-04-14T14:02:04.000Z</time>
      </trkpt>
      <trkpt lat="45.20644" lon="5.74003">
        <ele>251</ele>
        <time>2019-04-14T14:02:09.000Z</time>
      </trkpt>
      <trkpt lat="45.20611" lon="5.73965">
        <ele>245.07</ele>
        <time>2019-04-14T14:02:14.000Z</time>
      </trkpt>
      <trkpt lat="45.20579" lon="5.73929">
        <ele>242.42</ele>
        <time>2019-04-14T14:02:19.000Z</time>
      </trkpt>
      <trkpt lat="45.20557" lon="5.73902">
        <ele>237.77</ele>
        <time>2019-04-14T14:02:24.000Z</time>
      </trkpt>
      <trkpt lat="45.20546" lon="5.7389">
        <ele>235.06</ele>
        <time>2019-04-14T14:02:29.000Z</time>
      </trkpt>
      <trkpt lat="45.2053" lon="5.73866">
        <ele>228.79</ele>
        <time>2019-04-14T14:02:34.000Z</time>
      </trkpt>
      <trkpt lat="45.20517" lon="5.73845">
        <ele>232.17</ele>
        <time>2019-04-14T14:02:39.000Z</time>
      </trkpt>
      <trkpt lat="45.20495" lon="5.73824">
        <ele>228.76</ele>
        <time>2019-04-14T14:02:44.000Z</time>
      </trkpt>
      <trkpt lat="45.20473" lon="5.73799">
        <ele>229.67</ele>
        <time>2019-04-14T14:02:49.000Z</time>
      </trkpt>
      <trkpt lat="45.20452" lon="5.73772">
        <ele>229.59</ele>
        <time>2019-04-14T14:02:54.000Z</time>
      </trkpt>
      <trkpt lat="45.20425" lon="5.73746">
        <ele>231.14</ele>
        <time>2019-04-14T14:02:59.000Z</time>
      </trkpt>
      <trkpt lat="45.20404" lon="5.73721">
        <ele>227.61</ele>
        <time>2019-04-14T14:03:04.000Z</time>
      </trkpt>
      <trkpt lat="45.20384" lon="5.73691">
        <ele>226.69</ele>
        <time>2019-04-14T14:03:09.000Z</time>
      </trkpt>
      <trkpt lat="45.20367" lon="5.73662">
        <ele>222.52</ele>
        <time>2019-04-14T14:03:14.000Z</time>
      </trkpt>
      <trkpt lat="45.20352" lon="5.73638">
        <ele>223.7</ele>
        <time>2019-04-14T14:03:19.000Z</time>
      </trkpt>
      <trkpt lat="45.2034" lon="5.73618">
        <ele>222.58</ele>
        <time>2019-04-14T14:03:24.000Z</time>
      </trkpt>
      <trkpt lat="45.20314" lon="5.736">
        <ele>221.38</ele>
        <time>2019-04-14T14:03:29.000Z</time>
      </trkpt>
      <trkpt lat="45.20303" lon="5.73576">
        <ele>220.89</ele>
        <time>2019-04-14T14:03:34.000Z</time>
      </trkpt>
      <trkpt lat="45.20293" lon="5.73554">
        <ele>221.83</ele>
        <time>2019-04-14T14:03:39.000Z</time>
      </trkpt>
      <trkpt lat="45.20273" lon="5.73554">
        <ele>216.55</ele>
        <time>2019-04-14T14:03:44.000Z</time>
      </trkpt>
      <trkpt lat="45.20248" lon="5.7357">
        <ele>217.46</ele>
        <time>2019-04-14T14:03:49.000Z</time>
      </trkpt>
      <trkpt lat="45.20236" lon="5.73582">
        <ele>219.17</ele>
        <time>2019-04-14T14:03:54.000Z</time>
      </trkpt>
      <trkpt lat="45.20235" lon="5.73599">
        <ele>219.04</ele>
        <time>2019-04-14T14:03:59.000Z</time>
      </trkpt>
      <trkpt lat="45.20244" lon="5.73624">
        <ele>216.89</ele>
        <time>2019-04-14T14:04:04.000Z</time>
      </trkpt>
      <trkpt lat="45.20251" lon="5.73652">
        <ele>217.3</ele>
        <time>2019-04-14T14:04:09.000Z</time>
      </trkpt>
      <trkpt lat="45.20256" lon="5.73684">
        <ele>217.92</ele>
        <time>2019-04-14T14:04:14.000Z</time>
      </trkpt>
      <trkpt lat="45.2026" lon="5.73719">
        <ele>216.21</ele>
        <time>2019-04-14T14:04:19.000Z</time>
      </trkpt>
      <trkpt lat="45.20262" lon="5.73762">
        <ele>216.68</ele>
        <time>2019-04-14T14:04:24.000Z</time>
      </trkpt>
      <trkpt lat="45.20262" lon="5.738">
        <ele>220.16</ele>
        <time>2019-04-14T14:04:29.000Z</time>
      </trkpt>
      <trkpt lat="45.20258" lon="5.73835">
        <ele>219.14</ele>
        <time>2019-04-14T14:04:34.000Z</time>
      </trkpt>
      <trkpt lat="45.20247" lon="5.73873">
        <ele>219.39</ele>
        <time>2019-04-14T14:04:39.000Z</time>
      </trkpt>
      <trkpt lat="45.20235" lon="5.73912">
        <ele>218.02</ele>
        <time>2019-04-14T14:04:44.000Z</time>
      </trkpt>
      <trkpt lat="45.20224" lon="5.73955">
        <ele>218.66</ele>
        <time>2019-04-14T14:04:49.000Z</time>
      </trkpt>
      <trkpt lat="45.20217" lon="5.73992">
        <ele>217.06</ele>
        <time>2019-04-14T14:04:54.000Z</time>
      </trkpt>
      <trkpt lat="45.20209" lon="5.74029">
        <ele>216.11</ele>
        <time>2019-04-14T14:04:59.000Z</time>
      </trkpt>
      <trkpt lat="45.20193" lon="5.74066">
        <ele>216.32</ele>
        <time>2019-04-14T14:05:04.000Z</time>
      </trkpt>
      <trkpt lat="45.20173" lon="5.74095">
        <ele>215.54</ele>
        <time>2019-04-14T14:05:09.000Z</time>
      </trkpt>
      <trkpt lat="45.20154" lon="5.74122">
        <ele>216.4</ele>
        <time>2019-04-14T14:05:14.000Z</time>
      </trkpt>
      <trkpt lat="45.20138" lon="5.74147">
        <ele>218.32</ele>
        <time>2019-04-14T14:05:19.000Z</time>
      </trkpt>
      <trkpt lat="45.20124" lon="5.74162">
        <ele>215.58</ele>
        <time>2019-04-14T14:05:24.000Z</time>
      </trkpt>
      <trkpt lat="45.20117" lon="5.7417">
        <ele>215.05</ele>
        <time>2019-04-14T14:05:41.000Z</time>
      </trkpt>
      <trkpt lat="45.20102" lon="5.74165">
        <ele>214.43</ele>
        <time>2019-04-14T14:05:46.000Z</time>
      </trkpt>
      <trkpt lat="45.20083" lon="5.74137">
        <ele>215.96</ele>
        <time>2019-04-14T14:05:51.000Z</time>
      </trkpt>
      <trkpt lat="45.20064" lon="5.74116">
        <ele>218.23</ele>
        <time>2019-04-14T14:05:56.000Z</time>
      </trkpt>
      <trkpt lat="45.20046" lon="5.74097">
        <ele>221.68</ele>
        <time>2019-04-14T14:06:01.000Z</time>
      </trkpt>
      <trkpt lat="45.20033" lon="5.74078">
        <ele>220.8</ele>
        <time>2019-04-14T14:06:06.000Z</time>
      </trkpt>
      <trkpt lat="45.20021" lon="5.74062">
        <ele>218.59</ele>
        <time>2019-04-14T14:06:11.000Z</time>
      </trkpt>
      <trkpt lat="45.20012" lon="5.74064">
        <ele>213.49</ele>
        <time>2019-04-14T14:06:19.000Z</time>
      </trkpt>
      <trkpt lat="45.20006" lon="5.74075">
        <ele>212.45</ele>
        <time>2019-04-14T14:06:24.000Z</time>
      </trkpt>
      <trkpt lat="45.1999" lon="5.74092">
        <ele>213.28</ele>
        <time>2019-04-14T14:06:29.000Z</time>
      </trkpt>
      <trkpt lat="45.19975" lon="5.7412">
        <ele>210.32</ele>
        <time>2019-04-14T14:06:34.000Z</time>
      </trkpt>
      <trkpt lat="45.19963" lon="5.74142">
        <ele>211.17</ele>
        <time>2019-04-14T14:06:39.000Z</time>
      </trkpt>
      <trkpt lat="45.19947" lon="5.74161">
        <ele>213.71</ele>
        <time>2019-04-14T14:06:44.000Z</time>
      </trkpt>
      <trkpt lat="45.19925" lon="5.74179">
        <ele>214.41</ele>
        <time>2019-04-14T14:06:49.000Z</time>
      </trkpt>
      <trkpt lat="45.199" lon="5.74196">
        <ele>214.95</ele>
        <time>2019-04-14T14:06:54.000Z</time>
      </trkpt>
      <trkpt lat="45.19874" lon="5.7421">
        <ele>217.24</ele>
        <time>2019-04-14T14:06:59.000Z</time>
      </trkpt>
      <trkpt lat="45.19846" lon="5.74221">
        <ele>217.43</ele>
        <time>2019-04-14T14:07:04.000Z</time>
      </trkpt>
      <trkpt lat="45.19818" lon="5.74232">
        <ele>216.66</ele>
        <time>2019-04-14T14:07:09.000Z</time>
      </trkpt>
      <trkpt lat="45.19789" lon="5.74243">
        <ele>217.59</ele>
        <time>2019-04-14T14:07:14.000Z</time>
      </trkpt>
      <trkpt lat="45.19763" lon="5.74248">
        <ele>219.08</ele>
        <time>2019-04-14T14:07:19.000Z</time>
      </trkpt>
      <trkpt lat="45.19735" lon="5.7425">
        <ele>218.03</ele>
        <time>2019-04-14T14:07:24.000Z</time>
      </trkpt>
      <trkpt lat="45.19707" lon="5.7425">
        <ele>217.21</ele>
        <time>2019-04-14T14:07:29.000Z</time>
      </trkpt>
      <trkpt lat="45.19681" lon="5.74251">
        <ele>215.43</ele>
        <time>2019-04-14T14:07:34.000Z</time>
      </trkpt>
      <trkpt lat="45.19652" lon="5.74248">
        <ele>215.3</ele>
        <time>2019-04-14T14:07:39.000Z</time>
      </trkpt>
      <trkpt lat="45.19623" lon="5.74243">
        <ele>215.43</ele>
        <time>2019-04-14T14:07:44.000Z</time>
      </trkpt>
      <trkpt lat="45.19594" lon="5.74238">
        <ele>214.58</ele>
        <time>2019-04-14T14:07:49.000Z</time>
      </trkpt>
      <trkpt lat="45.19567" lon="5.74233">
        <ele>213.91</ele>
        <time>2019-04-14T14:07:54.000Z</time>
      </trkpt>
      <trkpt lat="45.19546" lon="5.74228">
        <ele>213.17</ele>
        <time>2019-04-14T14:07:59.000Z</time>
      </trkpt>
      <trkpt lat="45.19529" lon="5.7422">
        <ele>213.17</ele>
        <time>2019-04-14T14:08:04.000Z</time>
      </trkpt>
      <trkpt lat="45.19506" lon="5.74212">
        <ele>212.86</ele>
        <time>2019-04-14T14:08:09.000Z</time>
      </trkpt>
      <trkpt lat="45.19486" lon="5.742">
        <ele>213.52</ele>
        <time>2019-04-14T14:08:14.000Z</time>
      </trkpt>
      <trkpt lat="45.19463" lon="5.74191">
        <ele>214.54</ele>
        <time>2019-04-14T14:08:19.000Z</time>
      </trkpt>
      <trkpt lat="45.19438" lon="5.74181">
        <ele>214.88</ele>
        <time>2019-04-14T14:08:24.000Z</time>
      </trkpt>
      <trkpt lat="45.19412" lon="5.74173">
        <ele>214.51</ele>
        <time>2019-04-14T14:08:29.000Z</time>
      </trkpt>
      <trkpt lat="45.19382" lon="5.74164">
        <ele>212.85</ele>
        <time>2019-04-14T14:08:34.000Z</time>
      </trkpt>
      <trkpt lat="45.1935" lon="5.74159">
        <ele>211.63</ele>
        <time>2019-04-14T14:08:39.000Z</time>
      </trkpt>
      <trkpt lat="45.19323" lon="5.74151">
        <ele>212.59</ele>
        <time>2019-04-14T14:08:44.000Z</time>
      </trkpt>
      <trkpt lat="45.19288" lon="5.74146">
        <ele>212.01</ele>
        <time>2019-04-14T14:08:49.000Z</time>
      </trkpt>
      <trkpt lat="45.19259" lon="5.74142">
        <ele>211.98</ele>
        <time>2019-04-14T14:08:54.000Z</time>
      </trkpt>
      <trkpt lat="45.19233" lon="5.74138">
        <ele>213.65</ele>
        <time>2019-04-14T14:08:59.000Z</time>
      </trkpt>
      <trkpt lat="45.1921" lon="5.74134">
        <ele>214.95</ele>
        <time>2019-04-14T14:09:04.000Z</time>
      </trkpt>
      <trkpt lat="45.1919" lon="5.7412">
        <ele>214.41</ele>
        <time>2019-04-14T14:09:09.000Z</time>
      </trkpt>
      <trkpt lat="45.19169" lon="5.74109">
        <ele>214.99</ele>
        <time>2019-04-14T14:09:14.000Z</time>
      </trkpt>
      <trkpt lat="45.19162" lon="5.74102">
        <ele>212.65</ele>
        <time>2019-04-14T14:09:19.000Z</time>
      </trkpt>
      <trkpt lat="45.19162" lon="5.74118">
        <ele>208.02</ele>
        <time>2019-04-14T14:09:31.000Z</time>
      </trkpt>
      <trkpt lat="45.19164" lon="5.74142">
        <ele>209.78</ele>
        <time>2019-04-14T14:09:36.000Z</time>
      </trkpt>
      <trkpt lat="45.19165" lon="5.74169">
        <ele>210.02</ele>
        <time>2019-04-14T14:09:41.000Z</time>
      </trkpt>
      <trkpt lat="45.19168" lon="5.74197">
        <ele>209.72</ele>
        <time>2019-04-14T14:09:46.000Z</time>
      </trkpt>
      <trkpt lat="45.19171" lon="5.74228">
        <ele>210.49</ele>
        <time>2019-04-14T14:09:51.000Z</time>
      </trkpt>
      <trkpt lat="45.19173" lon="5.74261">
        <ele>206.95</ele>
        <time>2019-04-14T14:09:56.000Z</time>
      </trkpt>
      <trkpt lat="45.19175" lon="5.7429">
        <ele>207.39</ele>
        <time>2019-04-14T14:10:01.000Z</time>
      </trkpt>
      <trkpt lat="45.19176" lon="5.74321">
        <ele>206.14</ele>
        <time>2019-04-14T14:10:06.000Z</time>
      </trkpt>
      <trkpt lat="45.19178" lon="5.74358">
        <ele>206.43</ele>
        <time>2019-04-14T14:10:11.000Z</time>
      </trkpt>
      <trkpt lat="45.19179" lon="5.74399">
        <ele>206.97</ele>
        <time>2019-04-14T14:10:16.000Z</time>
      </trkpt>
      <trkpt lat="45.1919" lon="5.74426">
        <ele>209.5</ele>
        <time>2019-04-14T14:10:21.000Z</time>
      </trkpt>
      <trkpt lat="45.19197" lon="5.74445">
        <ele>210.93</ele>
        <time>2019-04-14T14:10:26.000Z</time>
      </trkpt>
      <trkpt lat="45.19211" lon="5.74457">
        <ele>210.5</ele>
        <time>2019-04-14T14:10:31.000Z</time>
      </trkpt>
      <trkpt lat="45.1921" lon="5.74458">
        <ele>217.64</ele>
        <time>2019-04-14T14:11:48.000Z</time>
      </trkpt>
    </trkseg>
  </trk>
</gpx>